# Wetter Temperatur Luftdruck Luftfeuchtigkeit Sichtweite Windgeschwindigkeit Windrichtung Zeit
1 Clouds 19 1016 59 10000 1.54 80 08:30 02.10.2022
2 Clouds 22 1015 49 10000 2.06 120 05:23 02.10.2022
3 Clouds 23 1017 43 10000 3.09 40 01:29 02.10.2022
4 Clouds 23 1017 49 10000 2.06 20 00:38 02.10.2022
5 Clouds 25 1017 36 10000 8.75 90 23:29 01.10.2022
6 Clouds 26 1015 34 10000 8.75 80 21:58 01.10.2022
7 Rain 30 1014 26 10000 2.06 0 19:21 01.10.2022
8 Rain 30 1014 30 10000 1.54 0 17:46 01.10.2022
9 Rain 30 1014 30 10000 1.54 0 17:46 01.10.2022
10 Clouds 28 1015 34 10000 2.57 310 16:24 01.10.2022
11 Clouds 25 1017 44 10000 2.06 60 14:18 01.10.2022
12 Clouds 22 1018 60 8000 1.03 0 12:35 01.10.2022
13 Clouds 20 1018 64 8000 1.54 20 11:23 01.10.2022
14 Clouds 19 1018 68 10000 1.03 0 10:53 01.10.2022
15 Clouds 18 1017 72 10000 1.03 0 10:30 01.10.2022
16 Clouds 18 1017 72 10000 1.03 0 10:30 01.10.2022
17 Clouds 16 1017 77 10000 0.51 0 09:26 01.10.2022
18 Clouds 16 1016 72 10000 2.06 100 08:39 01.10.2022
19 Clouds 17 1016 67 10000 2.57 90 03:50 01.10.2022
20 Clouds 17 1016 67 10000 2.57 80 03:24 01.10.2022
21 Clouds 20 1015 56 10000 7.72 40 23:22 30.09.2022
22 Clouds 22 1014 43 10000 5.14 40 22:19 30.09.2022
23 Clouds 23 1014 43 10000 4.63 40 21:22 30.09.2022
24 Clouds 23 1014 46 10000 5.14 40 20:42 30.09.2022
25 Clouds 25 1013 44 10000 5.66 50 19:30 30.09.2022
26 Clouds 25 1014 47 10000 6.17 20 16:58 30.09.2022
27 Clouds 25 1014 47 10000 4.63 50 14:49 30.09.2022
28 Clouds 23 1015 46 10000 3.6 20 13:24 30.09.2022
29 Clouds 21 1016 60 10000 2.06 80 11:56 30.09.2022
30 Clouds 21 1016 60 10000 2.06 80 11:56 30.09.2022
31 Clouds 17 1015 72 10000 2.06 90 09:50 30.09.2022
32 Clouds 16 1014 77 10000 2.57 100 08:20 30.09.2022
33 Clear 17 1015 67 10000 2.57 40 04:24 30.09.2022
34 Clouds 18 1016 63 10000 3.6 60 02:22 30.09.2022
35 Clouds 23 1014 49 10000 4.12 10 22:23 29.09.2022
36 Clouds 24 1014 43 10000 3.09 360 21:25 29.09.2022
37 Clouds 25 1014 41 10000 3.09 30 19:58 29.09.2022
38 Clouds 27 1014 39 10000 3.6 340 18:30 29.09.2022
39 Clouds 27 1014 39 10000 3.6 340 18:30 29.09.2022
40 Clouds 26 1015 44 10000 3.6 10 16:29 29.09.2022
41 Clouds 26 1015 44 10000 3.6 40 15:51 29.09.2022
42 Clouds 25 1016 47 10000 2.57 360 15:27 29.09.2022
43 Clouds 21 1018 64 10000 2.57 0 12:54 29.09.2022
44 Clouds 16 1017 82 8000 1.54 90 08:51 29.09.2022
45 Clear 17 1018 77 10000 2.57 70 05:36 29.09.2022
46 Clear 19 1019 68 10000 2.06 60 02:42 29.09.2022
47 Clear 22 1018 53 10000 5.14 10 23:29 28.09.2022
48 Clear 25 1017 38 10000 2.06 40 22:24 28.09.2022
49 Clear 25 1017 38 10000 2.06 40 21:28 28.09.2022
50 Clear 27 1017 36 10000 3.09 50 19:58 28.09.2022
51 Clear 29 1018 34 10000 1.03 0 17:19 28.09.2022
52 Clear 25 1020 47 10000 2.57 0 14:45 28.09.2022
53 Clear 25 1020 47 10000 2.57 0 14:45 28.09.2022
54 Clear 21 1021 64 10000 2.57 10 12:31 28.09.2022
55 Clear 18 1020 72 10000 2.06 90 10:24 28.09.2022
56 Clouds 16 1020 77 8000 2.06 230 08:25 28.09.2022
57 Clouds 15 1020 77 8000 1.54 260 06:42 28.09.2022
58 Clouds 19 1021 63 8000 3.09 40 01:50 28.09.2022
59 Clouds 19 1021 63 8000 3.6 50 01:27 28.09.2022
60 Clouds 22 1020 49 8000 4.63 360 22:50 27.09.2022
61 Clouds 26 1019 44 10000 3.6 270 21:24 27.09.2022
62 Clouds 27 1018 41 10000 2.57 290 20:36 27.09.2022
63 Clouds 27 1018 44 10000 3.09 280 19:47 27.09.2022
64 Clouds 28 1019 44 10000 2.57 0 17:55 27.09.2022
65 Clouds 27 1019 47 10000 1.03 0 17:32 27.09.2022
66 Clouds 26 1020 53 10000 1.03 0 15:27 27.09.2022
67 Clouds 25 1021 57 10000 1.54 40 14:33 27.09.2022
68 Clouds 22 1021 64 10000 2.57 60 12:40 27.09.2022
69 Clouds 20 1021 68 8000 2.57 100 10:49 27.09.2022
70 Clouds 17 1020 77 8000 1.54 40 08:42 27.09.2022
71 Clouds 17 1019 77 8000 1.03 0 05:48 27.09.2022
72 Clouds 19 1019 72 8000 1.54 330 01:43 27.09.2022
73 Clouds 19 1019 82 8000 2.06 280 00:32 27.09.2022
74 Clouds 21 1018 73 8000 1.03 0 23:25 26.09.2022
75 Clouds 21 1018 73 8000 1.03 0 21:44 26.09.2022
76 Clouds 22 1017 68 8000 1.03 0 20:26 26.09.2022
77 Clouds 22 1017 68 8000 2.57 60 19:21 26.09.2022
78 Clouds 22 1016 68 8000 1.54 340 17:27 26.09.2022
79 Clouds 20 1016 77 8000 2.06 20 15:49 26.09.2022
80 Clouds 20 1017 83 8000 2.06 50 13:25 26.09.2022
81 Clouds 18 1017 88 6000 1.54 100 11:28 26.09.2022
82 Clouds 18 1017 88 6000 1.03 0 10:36 26.09.2022
83 Clouds 18 1017 88 6000 1.03 0 10:18 26.09.2022
84 Clouds 18 1016 88 6000 1.03 0 09:52 26.09.2022
85 Clouds 17 1015 94 6000 2.06 50 09:22 26.09.2022
86 Clouds 17 1015 94 6000 2.57 270 05:50 26.09.2022
87 Clouds 18 1016 88 5000 3.09 300 02:35 26.09.2022
88 Rain 18 1016 94 5000 2.06 20 23:25 25.09.2022
89 Rain 18 1015 94 4000 2.06 290 21:48 25.09.2022
90 Rain 18 1015 94 4000 2.06 290 21:25 25.09.2022
91 Rain 19 1015 94 5000 2.57 300 20:37 25.09.2022
92 Rain 19 1014 94 6000 3.09 310 19:25 25.09.2022
93 Rain 20 1014 88 6000 3.09 290 18:29 25.09.2022
94 Rain 20 1014 88 6000 3.09 290 18:29 25.09.2022
95 Rain 21 1014 83 6000 1.54 310 17:29 25.09.2022
96 Rain 20 1014 88 6000 1.03 0 16:21 25.09.2022
97 Clouds 20 1015 88 8000 3.09 330 14:55 25.09.2022
98 Clouds 21 1015 83 8000 2.57 290 14:19 25.09.2022
99 Clouds 20 1014 94 8000 2.57 70 11:35 25.09.2022
100 Rain 19 1014 94 10000 2.06 270 09:48 25.09.2022
101 Clouds 20 1014 88 8000 2.06 340 07:43 25.09.2022
102 Clouds 20 1014 88 8000 1.54 230 05:27 25.09.2022
103 Clouds 25 1017 61 10000 3.6 280 23:37 24.09.2022
104 Clouds 25 1017 61 10000 3.6 280 23:37 24.09.2022
105 Clouds 26 1015 53 10000 3.6 350 21:50 24.09.2022
106 Clouds 29 1014 37 10000 1.54 310 20:34 24.09.2022
107 Clouds 30 1014 35 10000 2.06 340 19:20 24.09.2022
108 Clouds 30 1015 39 10000 2.06 330 16:57 24.09.2022
109 Clouds 30 1015 39 10000 1.54 0 15:54 24.09.2022
110 Clouds 29 1016 45 10000 0.51 0 15:18 24.09.2022
111 Clear 26 1017 61 10000 2.57 270 13:22 24.09.2022
112 Clear 24 1017 69 10000 2.06 320 12:25 24.09.2022
113 Clear 20 1016 88 10000 1.54 260 09:59 24.09.2022
114 Clear 19 1016 88 10000 1.54 240 09:21 24.09.2022
115 Clear 19 1016 88 10000 2.06 270 08:40 24.09.2022
116 Clear 21 1015 73 10000 3.6 240 04:55 24.09.2022
117 Clear 21 1015 73 10000 3.09 240 04:25 24.09.2022
118 Clear 26 1015 53 10000 3.6 20 23:18 23.09.2022
119 Clear 30 1014 37 10000 2.06 360 21:40 23.09.2022
120 Clear 30 1014 37 10000 2.06 360 21:22 23.09.2022
121 Clear 31 1014 35 10000 2.57 310 20:45 23.09.2022
122 Clouds 32 1014 33 10000 2.06 0 19:20 23.09.2022
123 Clouds 32 1014 33 10000 2.06 0 19:20 23.09.2022
124 Clouds 32 1014 40 10000 3.09 0 16:48 23.09.2022
125 Clouds 27 1017 54 8000 1.54 0 13:40 23.09.2022
126 Clouds 20 1017 77 8000 2.06 270 10:18 23.09.2022
127 Clear 19 1016 77 8000 1.54 260 07:29 23.09.2022
128 Clear 23 1017 64 8000 2.06 60 01:21 23.09.2022
129 Clear 25 1016 57 8000 5.66 30 23:29 22.09.2022
130 Clouds 27 1016 50 10000 4.12 10 22:27 22.09.2022
131 Clouds 29 1015 42 10000 3.09 350 21:24 22.09.2022
132 Clouds 30 1015 39 10000 2.57 350 20:18 22.09.2022
133 Clouds 31 1015 37 10000 2.57 340 18:30 22.09.2022
134 Clear 30 1017 42 10000 2.06 0 14:49 22.09.2022
135 Clear 22 1018 78 10000 1.54 250 10:38 22.09.2022
136 Clear 22 1018 78 10000 1.54 250 10:19 22.09.2022
137 Clouds 19 1017 82 10000 1.54 250 07:48 22.09.2022
138 Clear 23 1017 64 10000 1.03 0 04:38 22.09.2022
139 Clear 24 1018 64 10000 2.06 30 00:25 22.09.2022
140 Clear 26 1016 57 10000 5.14 20 22:28 21.09.2022
141 Clouds 30 1015 39 10000 3.6 350 20:55 21.09.2022
142 Clouds 33 1014 33 10000 5.14 280 18:34 21.09.2022
143 Clouds 33 1014 31 10000 4.63 270 17:39 21.09.2022
144 Clouds 31 1015 37 10000 3.6 280 15:35 21.09.2022
145 Clouds 28 1017 57 10000 2.06 0 13:39 21.09.2022
146 Clear 25 1017 69 10000 1.54 70 11:34 21.09.2022
147 Clear 23 1017 68 10000 2.06 80 10:52 21.09.2022
148 Clear 21 1017 73 10000 1.54 180 09:38 21.09.2022
149 Clear 21 1017 73 9000 2.06 180 08:24 21.09.2022
150 Clouds 21 1018 73 10000 2.57 250 02:54 21.09.2022
151 Clouds 22 1018 73 10000 3.09 240 02:34 21.09.2022
152 Clouds 22 1018 73 10000 2.57 240 01:50 21.09.2022
153 Clouds 24 1018 69 8000 2.57 280 23:58 20.09.2022
154 Clouds 29 1015 48 10000 2.57 130 21:40 20.09.2022
155 Clouds 29 1015 48 10000 1.03 0 20:26 20.09.2022
156 Clouds 29 1015 48 10000 3.09 310 17:54 20.09.2022
157 Clouds 27 1016 54 10000 1.03 0 15:33 20.09.2022
158 Clouds 26 1017 57 10000 3.09 290 13:59 20.09.2022
159 Clouds 24 1017 64 10000 2.06 280 11:28 20.09.2022
160 Clouds 20 1016 77 10000 2.06 250 08:36 20.09.2022
161 Clouds 20 1016 77 10000 2.57 260 07:37 20.09.2022
162 Clouds 21 1016 73 10000 3.6 250 04:35 20.09.2022
163 Clouds 23 1017 68 10000 3.09 340 01:32 20.09.2022
164 Clouds 28 1015 47 10000 2.57 350 22:41 19.09.2022
165 Clouds 28 1015 47 10000 2.57 300 21:28 19.09.2022
166 Clouds 28 1014 47 10000 2.57 0 20:39 19.09.2022
167 Clouds 30 1014 45 10000 2.57 290 18:43 19.09.2022
168 Clouds 28 1014 47 10000 1.54 350 18:43 19.09.2022
169 Clouds 29 1014 48 10000 2.57 0 16:48 19.09.2022
170 Clouds 27 1015 57 10000 2.06 0 13:47 19.09.2022
171 Clouds 24 1015 64 10000 1.03 0 11:57 19.09.2022
172 Clouds 21 1014 73 10000 1.03 0 09:38 19.09.2022
173 Clouds 21 1013 73 10000 2.06 260 08:20 19.09.2022
174 Clouds 21 1013 73 10000 2.57 280 03:28 19.09.2022
175 Clouds 24 1012 60 10000 3.09 320 23:39 18.09.2022
176 Clouds 25 1011 57 10000 3.6 350 22:29 18.09.2022
177 Clouds 28 1010 47 10000 4.12 290 20:41 18.09.2022
178 Clouds 29 1009 45 10000 5.66 270 19:33 18.09.2022
179 Clouds 29 1009 45 10000 2.57 0 17:51 18.09.2022
180 Clouds 30 1009 42 10000 3.09 300 16:46 18.09.2022
181 Clouds 27 1010 54 8000 2.57 0 14:40 18.09.2022
182 Clouds 25 1010 61 8000 2.06 290 12:58 18.09.2022
183 Clouds 23 1010 68 8000 1.03 0 11:53 18.09.2022
184 Clouds 18 1009 82 10000 2.06 240 07:46 18.09.2022
185 Clouds 22 1010 64 10000 2.06 260 01:41 18.09.2022
186 Clouds 23 1010 60 10000 0.51 0 01:19 18.09.2022
187 Clouds 26 1009 53 10000 4.63 350 22:55 17.09.2022
188 Clouds 29 1008 42 10000 2.06 260 20:51 17.09.2022
189 Clouds 31 1008 40 10000 2.06 320 19:36 17.09.2022
190 Clouds 30 1008 39 10000 2.06 0 17:36 17.09.2022
191 Clouds 26 1011 53 10000 1.54 60 14:22 17.09.2022
192 Clouds 23 1012 68 10000 1.54 350 12:46 17.09.2022
193 Clouds 21 1012 73 10000 1.54 30 10:48 17.09.2022
194 Clouds 19 1012 82 10000 2.06 30 06:35 17.09.2022
195 Clouds 20 1012 77 10000 3.09 30 04:35 17.09.2022
196 Clouds 23 1013 60 10000 6.17 30 23:37 16.09.2022
197 Clouds 26 1012 50 10000 5.14 20 21:47 16.09.2022
198 Clouds 28 1012 42 10000 3.6 10 20:42 16.09.2022
199 Clouds 29 1012 39 10000 2.57 40 18:29 16.09.2022
200 Clouds 29 1013 45 10000 2.06 20 16:22 16.09.2022
201 Clouds 28 1014 47 10000 2.06 0 14:50 16.09.2022
202 Clouds 26 1015 61 10000 2.06 0 12:51 16.09.2022
203 Clouds 20 1015 77 10000 2.06 50 09:39 16.09.2022
204 Clouds 19 1014 82 10000 2.06 80 07:22 16.09.2022
205 Clouds 20 1014 77 10000 2.57 50 06:48 16.09.2022
206 Clouds 20 1015 77 10000 2.57 40 05:43 16.09.2022
207 Clouds 23 1017 64 10000 3.09 70 01:30 16.09.2022
208 Clouds 29 1014 37 10000 2.57 50 21:31 15.09.2022
209 Clouds 30 1014 35 10000 3.09 60 20:29 15.09.2022
210 Clouds 31 1014 33 10000 2.57 10 18:57 15.09.2022
211 Clouds 30 1015 37 10000 2.06 0 17:38 15.09.2022
212 Clouds 30 1015 37 10000 2.06 0 17:18 15.09.2022
213 Clouds 28 1016 42 10000 3.09 40 15:37 15.09.2022
214 Clouds 25 1017 57 10000 3.09 70 12:49 15.09.2022
215 Clouds 24 1017 60 10000 2.57 50 11:47 15.09.2022
216 Clouds 21 1017 73 10000 3.09 40 09:43 15.09.2022
217 Clouds 21 1016 73 10000 2.57 30 05:22 15.09.2022
218 Clouds 22 1017 68 10000 2.06 20 02:57 15.09.2022
219 Clouds 24 1016 57 10000 4.12 330 22:51 14.09.2022
220 Clouds 29 1014 37 10000 4.63 280 20:24 14.09.2022
221 Clouds 30 1014 37 10000 2.57 0 19:32 14.09.2022
222 Clouds 29 1014 42 10000 2.57 310 17:28 14.09.2022
223 Clouds 29 1015 42 10000 2.57 350 16:36 14.09.2022
224 Clouds 27 1015 50 10000 3.6 260 14:47 14.09.2022
225 Clouds 25 1016 57 10000 1.03 0 12:33 14.09.2022
226 Clouds 21 1015 68 10000 2.06 260 09:50 14.09.2022
227 Clouds 20 1014 77 10000 2.06 280 07:47 14.09.2022
228 Clouds 20 1014 77 10000 3.09 270 06:48 14.09.2022
229 Clouds 21 1014 73 10000 3.09 270 05:22 14.09.2022
230 Clouds 22 1014 68 10000 3.6 280 01:55 14.09.2022
231 Clouds 23 1015 64 10000 3.09 300 01:30 14.09.2022
232 Clouds 23 1015 64 10000 3.6 290 00:52 14.09.2022
233 Clouds 24 1015 60 10000 2.57 300 23:54 13.09.2022
234 Clouds 24 1015 60 10000 3.6 310 23:36 13.09.2022
235 Clouds 24 1015 60 10000 3.6 310 23:18 13.09.2022
236 Clouds 25 1014 57 10000 4.63 310 22:22 13.09.2022
237 Clouds 28 1013 54 10000 4.12 290 20:29 13.09.2022
238 Clouds 30 1012 51 10000 4.63 310 18:37 13.09.2022
239 Clouds 28 1013 57 10000 2.06 0 15:58 13.09.2022
240 Clouds 27 1014 57 8000 1.54 0 14:50 13.09.2022
241 Clouds 25 1015 65 8000 1.54 0 13:25 13.09.2022
242 Clouds 21 1014 83 7000 1.54 250 09:49 13.09.2022
243 Clouds 20 1014 77 8000 2.57 250 07:21 13.09.2022
244 Clouds 24 1014 60 10000 3.09 260 00:52 13.09.2022
245 Clouds 26 1014 57 10000 2.57 310 22:51 12.09.2022
246 Clouds 26 1013 57 10000 3.09 320 22:22 12.09.2022
247 Clouds 29 1012 42 10000 2.06 240 20:46 12.09.2022
248 Clouds 30 1012 39 10000 3.09 270 19:22 12.09.2022
249 Clouds 30 1012 39 10000 3.09 260 17:42 12.09.2022
250 Clouds 29 1013 42 10000 3.6 280 14:54 12.09.2022
251 Clouds 27 1013 61 10000 1.54 290 11:51 12.09.2022
252 Clouds 21 1012 83 8000 3.09 270 09:57 12.09.2022
253 Clouds 22 1011 78 8000 3.09 260 05:50 12.09.2022
254 Clouds 23 1011 73 8000 3.09 260 04:30 12.09.2022
255 Thunderstorm 26 1013 69 8000 3.09 270 23:58 11.09.2022
256 Thunderstorm 28 1014 57 6000 6.69 240 22:43 11.09.2022
257 Clouds 31 1012 48 8000 2.06 0 20:53 11.09.2022
258 Clouds 31 1012 51 8000 3.6 280 20:21 11.09.2022
259 Clouds 34 1012 40 8000 8.23 240 19:26 11.09.2022
260 Clouds 37 1012 32 10000 5.14 290 18:37 11.09.2022
261 Clouds 38 1012 28 10000 6.69 280 16:56 11.09.2022
262 Clouds 36 1013 34 10000 5.14 310 15:22 11.09.2022
263 Clouds 32 1014 48 10000 1.54 0 12:54 11.09.2022
264 Clouds 24 1015 69 10000 1.54 260 09:45 11.09.2022
265 Clouds 25 1014 65 10000 1.54 200 07:43 11.09.2022
266 Clouds 27 1015 57 10000 1.54 240 02:55 11.09.2022
267 Clouds 31 1017 48 10000 4.63 170 23:27 10.09.2022
268 Clouds 34 1017 36 8000 5.14 200 21:35 10.09.2022
269 Clouds 35 1015 36 10000 3.6 260 19:56 10.09.2022
270 Clouds 35 1016 29 10000 2.57 220 19:37 10.09.2022
271 Clouds 35 1016 29 10000 2.57 220 19:19 10.09.2022
272 Clouds 36 1016 36 10000 1.03 0 16:58 10.09.2022
273 Clouds 36 1016 36 10000 4.63 290 15:28 10.09.2022
274 Clouds 30 1017 54 10000 1.03 0 12:55 10.09.2022
275 Clouds 30 1017 54 10000 1.03 0 12:55 10.09.2022
276 Clouds 27 1017 65 10000 1.03 0 11:36 10.09.2022
277 Clouds 24 1018 78 10000 1.03 0 10:25 10.09.2022
278 Clouds 22 1017 78 10000 2.57 220 08:37 10.09.2022
279 Clouds 22 1017 78 10000 2.57 220 08:18 10.09.2022
280 Clouds 26 1017 57 10000 2.57 230 02:54 10.09.2022
281 Clouds 31 1018 42 10000 3.6 10 23:35 09.09.2022
282 Clouds 33 1017 31 10000 2.06 310 22:22 09.09.2022
283 Clouds 34 1016 29 10000 4.12 240 20:49 09.09.2022
284 Clouds 36 1015 26 10000 2.06 0 19:26 09.09.2022
285 Clouds 36 1015 26 10000 1.54 0 18:55 09.09.2022
286 Clouds 35 1017 29 10000 2.06 0 16:34 09.09.2022
287 Clouds 31 1018 37 10000 2.06 0 14:28 09.09.2022
288 Clouds 28 1019 44 10000 1.54 300 12:59 09.09.2022
289 Clear 21 1018 60 10000 2.57 240 10:37 09.09.2022
290 Clear 20 1017 60 10000 3.09 240 07:24 09.09.2022
291 Clear 20 1017 60 10000 3.09 240 07:24 09.09.2022
292 Clear 20 1017 60 10000 3.09 240 07:24 09.09.2022
293 Clear 24 1018 50 10000 1.54 20 03:30 09.09.2022
294 Clouds 30 1017 37 10000 6.17 20 22:19 08.09.2022
295 Clouds 32 1016 31 10000 4.12 10 21:47 08.09.2022
296 Clouds 35 1015 24 10000 1.54 0 20:46 08.09.2022
297 Clouds 35 1015 24 10000 1.54 0 20:24 08.09.2022
298 Clouds 36 1015 26 10000 2.57 340 18:34 08.09.2022
299 Clouds 33 1016 31 10000 2.06 0 16:47 08.09.2022
300 Clouds 31 1017 37 10000 2.06 0 14:50 08.09.2022
301 Clear 28 1017 44 10000 2.57 330 13:27 08.09.2022
302 Clear 27 1017 47 10000 1.03 0 12:35 08.09.2022
303 Clear 23 1017 56 10000 1.54 290 10:59 08.09.2022
304 Clear 20 1017 64 10000 2.06 250 09:26 08.09.2022
305 Clear 21 1016 60 10000 1.03 0 06:43 08.09.2022
306 Clear 23 1017 56 10000 2.06 70 03:18 08.09.2022
307 Clear 24 1017 53 10000 2.57 40 02:36 08.09.2022
308 Clear 24 1017 53 10000 2.57 40 02:18 08.09.2022
309 Clear 27 1017 39 10000 5.14 30 22:56 07.09.2022
310 Clear 29 1016 34 10000 5.66 10 21:44 07.09.2022
311 Clouds 30 1015 32 10000 5.66 360 21:20 07.09.2022
312 Clouds 33 1015 29 10000 4.12 350 20:22 07.09.2022
313 Clouds 34 1015 27 10000 2.57 10 18:41 07.09.2022
314 Clear 31 1017 37 10000 2.57 340 15:41 07.09.2022
315 Clear 22 1018 64 10000 1.54 300 10:51 07.09.2022
316 Clear 21 1018 68 10000 2.06 240 10:30 07.09.2022
317 Clouds 19 1017 72 10000 1.54 240 07:43 07.09.2022
318 Clouds 21 1018 64 10000 1.03 0 04:46 07.09.2022
319 Clouds 25 1019 50 10000 4.12 40 00:26 07.09.2022
320 Clouds 29 1018 39 10000 4.63 10 21:47 06.09.2022
321 Clouds 31 1017 33 10000 3.09 120 21:27 06.09.2022
322 Clouds 32 1017 29 10000 1.54 0 19:22 06.09.2022
323 Clouds 32 1018 29 10000 1.03 0 18:27 06.09.2022
324 Clouds 31 1018 33 10000 2.06 290 17:23 06.09.2022
325 Clear 30 1019 37 10000 2.06 330 16:40 06.09.2022
326 Clear 29 1019 39 10000 3.09 290 15:23 06.09.2022
327 Clouds 28 1020 44 10000 3.09 300 13:46 06.09.2022
328 Clouds 27 1020 50 10000 2.57 320 13:26 06.09.2022
329 Clouds 25 1020 53 10000 2.57 320 12:37 06.09.2022
330 Clouds 22 1020 60 10000 2.57 250 10:52 06.09.2022
331 Clouds 18 1019 68 10000 3.09 240 08:56 06.09.2022
332 Clear 20 1019 60 10000 2.57 240 07:52 06.09.2022
333 Clear 23 1019 53 10000 1.54 100 04:48 06.09.2022
334 Clouds 27 1021 39 10000 3.09 50 23:52 05.09.2022
335 Clouds 28 1020 36 10000 5.14 30 22:41 05.09.2022
336 Clouds 32 1019 29 10000 3.6 360 20:59 05.09.2022
337 Clouds 33 1019 25 10000 4.12 360 19:50 05.09.2022
338 Clouds 36 1018 21 10000 4.63 360 18:49 05.09.2022
339 Clouds 35 1018 23 10000 3.09 330 18:23 05.09.2022
340 Clouds 35 1019 24 10000 2.06 360 17:31 05.09.2022
341 Clouds 33 1019 27 10000 2.06 0 15:52 05.09.2022
342 Clouds 28 1021 39 10000 3.09 290 13:39 05.09.2022
343 Clouds 27 1021 44 10000 1.54 280 12:29 05.09.2022
344 Clouds 22 1021 60 10000 1.54 260 10:34 05.09.2022
345 Clear 19 1020 68 10000 1.54 250 07:43 05.09.2022
346 Clear 24 1020 53 10000 1.54 50 02:50 05.09.2022
347 Clouds 26 1020 44 10000 5.14 30 23:40 04.09.2022
348 Clouds 28 1019 39 10000 6.17 20 22:28 04.09.2022
349 Clouds 31 1018 35 10000 4.12 10 21:40 04.09.2022
350 Clouds 34 1017 27 10000 3.09 330 19:39 04.09.2022
351 Clouds 35 1017 26 10000 2.06 0 18:21 04.09.2022
352 Clouds 34 1017 27 10000 1.54 0 17:22 04.09.2022
353 Clear 31 1018 37 10000 2.06 0 14:56 04.09.2022
354 Clear 30 1018 42 10000 2.57 340 14:18 04.09.2022
355 Clear 26 1019 53 10000 1.54 0 12:21 04.09.2022
356 Clear 22 1019 64 10000 1.54 0 10:47 04.09.2022
357 Clear 19 1017 68 10000 0.51 0 08:21 04.09.2022
358 Clear 20 1017 68 10000 2.57 240 06:21 04.09.2022
359 Clear 25 1017 53 10000 2.57 40 01:31 04.09.2022
360 Clouds 28 1016 47 10000 5.66 20 22:26 03.09.2022
361 Clouds 30 1015 39 10000 4.12 360 21:24 03.09.2022
362 Clouds 32 1015 35 10000 4.12 330 20:26 03.09.2022
363 Clouds 34 1014 33 10000 2.57 280 17:35 03.09.2022
364 Clouds 32 1015 35 10000 3.09 310 16:33 03.09.2022
365 Clouds 31 1016 45 10000 2.06 360 14:47 03.09.2022
366 Clouds 30 1016 48 10000 2.06 0 14:26 03.09.2022
367 Clouds 28 1017 54 10000 1.54 0 13:21 03.09.2022
368 Clouds 23 1017 73 10000 2.57 280 10:55 03.09.2022
369 Clouds 20 1017 83 10000 3.6 250 08:41 03.09.2022
370 Clouds 21 1016 78 10000 2.57 240 06:58 03.09.2022
371 Clouds 24 1015 53 10000 3.6 250 04:40 03.09.2022
372 Clouds 28 1016 44 10000 2.06 70 00:41 03.09.2022
373 Clouds 29 1016 39 10000 3.09 70 23:20 02.09.2022
374 Clouds 31 1015 37 10000 4.12 40 21:19 02.09.2022
375 Clouds 32 1015 37 10000 4.12 360 20:39 02.09.2022
376 Clouds 33 1016 35 10000 2.06 20 19:30 02.09.2022
377 Clouds 34 1015 33 10000 2.06 0 18:43 02.09.2022
378 Clouds 34 1015 31 10000 2.06 0 18:24 02.09.2022
379 Clouds 34 1016 33 10000 2.06 260 16:49 02.09.2022
380 Clouds 34 1016 36 10000 1.54 0 15:35 02.09.2022
381 Clouds 30 1017 42 10000 1.54 270 12:43 02.09.2022
382 Clouds 26 1017 53 10000 0.51 0 10:25 02.09.2022
383 Clouds 24 1017 60 10000 0.51 0 09:41 02.09.2022
384 Clouds 22 1017 64 10000 2.57 230 07:54 02.09.2022
385 Clouds 22 1017 68 10000 1.54 250 06:41 02.09.2022
386 Clouds 24 1017 60 10000 1.54 230 03:52 02.09.2022
387 Clouds 27 1018 57 10000 2.06 80 22:45 01.09.2022
388 Clouds 28 1017 61 10000 3.6 170 21:44 01.09.2022
389 Clouds 27 1017 61 10000 1.54 0 21:25 01.09.2022
390 Clouds 27 1017 61 4000 2.06 260 20:46 01.09.2022
391 Clouds 36 1014 32 7000 6.69 20 18:57 01.09.2022
392 Clouds 39 1014 24 10000 2.06 0 17:33 01.09.2022
393 Clouds 40 1014 25 10000 2.06 0 15:59 01.09.2022
394 Clouds 36 1014 34 8000 2.57 10 14:33 01.09.2022
395 Clouds 33 1016 38 8000 2.06 0 12:58 01.09.2022
396 Clouds 32 1016 37 8000 1.03 0 11:53 01.09.2022
397 Clouds 31 1016 40 8000 1.03 0 11:32 01.09.2022
398 Clouds 28 1016 44 8000 2.06 340 10:38 01.09.2022
399 Clouds 25 1016 50 8000 0 0 08:30 01.09.2022
400 Clouds 26 1016 50 8000 2.06 260 06:23 01.09.2022
401 Clouds 30 1018 42 8000 0.51 0 01:33 01.09.2022
402 Clouds 30 1018 39 8000 3.6 50 00:18 01.09.2022
403 Clouds 35 1016 36 8000 5.14 20 21:33 31.08.2022
404 Clouds 38 1015 25 8000 3.09 20 19:50 31.08.2022
405 Clouds 38 1016 25 8000 3.09 360 18:18 31.08.2022
406 Clouds 39 1016 27 8000 3.6 10 16:23 31.08.2022
407 Clouds 36 1018 32 8000 2.06 50 14:32 31.08.2022
408 Clouds 30 1019 45 8000 3.09 120 12:23 31.08.2022
409 Clouds 29 1018 48 8000 2.06 50 11:26 31.08.2022
410 Clouds 23 1018 60 8000 1.54 70 08:54 31.08.2022
411 Clouds 25 1018 57 8000 2.57 100 05:26 31.08.2022
412 Clouds 29 1019 48 8000 3.6 60 23:20 30.08.2022
413 Clouds 30 1018 45 6000 5.14 40 21:41 30.08.2022
414 Clouds 31 1018 42 6000 4.63 40 20:57 30.08.2022
415 Clouds 30 1019 48 8000 5.14 40 18:32 30.08.2022
416 Clouds 30 1020 48 8000 2.57 240 15:23 30.08.2022
417 Clouds 28 1021 51 8000 3.09 270 13:24 30.08.2022
418 Clouds 26 1019 57 6000 7.2 260 11:22 30.08.2022
419 Clouds 26 1019 57 6000 7.2 260 10:49 30.08.2022
420 Clouds 30 1015 39 8000 1.54 150 07:42 30.08.2022
421 Clouds 32 1017 35 6000 3.6 160 02:32 30.08.2022
422 Clouds 30 1016 48 8000 3.09 300 23:20 29.08.2022
423 Clouds 31 1015 45 8000 2.06 260 22:24 29.08.2022
424 Clouds 32 1014 43 6000 2.57 230 21:25 29.08.2022
425 Clouds 34 1014 38 6000 2.06 310 19:52 29.08.2022
426 Clouds 35 1014 34 6000 5.14 250 17:52 29.08.2022
427 Clouds 35 1013 34 6000 5.66 240 17:24 29.08.2022
428 Clouds 36 1013 34 8000 5.14 290 16:37 29.08.2022
429 Clouds 32 1014 43 8000 3.6 290 14:45 29.08.2022
430 Clouds 28 1014 51 8000 2.06 0 12:53 29.08.2022
431 Clouds 25 1014 61 8000 1.54 310 11:19 29.08.2022
432 Clouds 20 1014 77 10000 1.54 230 09:45 29.08.2022
433 Clouds 20 1014 73 10000 1.54 250 08:29 29.08.2022
434 Clear 21 1013 68 10000 3.09 250 04:57 29.08.2022
435 Clouds 26 1013 53 10000 2.06 50 00:20 29.08.2022
436 Clouds 27 1012 50 10000 2.57 350 22:37 28.08.2022
437 Clouds 28 1012 47 10000 3.6 270 21:43 28.08.2022
438 Clouds 31 1011 40 10000 5.66 280 20:54 28.08.2022
439 Clouds 33 1010 38 10000 4.63 240 19:23 28.08.2022
440 Clouds 34 1010 38 10000 2.57 0 18:20 28.08.2022
441 Clouds 33 1010 40 10000 2.57 0 16:58 28.08.2022
442 Clouds 32 1011 40 10000 3.09 300 16:22 28.08.2022
443 Clouds 29 1011 51 10000 3.09 320 14:36 28.08.2022
444 Clear 26 1011 57 10000 2.06 0 12:32 28.08.2022
445 Clear 21 1010 73 10000 2.06 280 10:42 28.08.2022
446 Clear 19 1010 77 10000 2.06 250 09:41 28.08.2022
447 Clear 19 1010 72 10000 2.06 250 08:37 28.08.2022
448 Clear 19 1010 72 10000 2.06 250 07:42 28.08.2022
449 Clear 23 1011 60 10000 2.06 20 02:31 28.08.2022
450 Clear 24 1011 57 10000 3.6 20 00:25 28.08.2022
451 Clouds 27 1010 50 10000 4.12 30 22:32 27.08.2022
452 Clouds 29 1009 45 8000 4.63 350 21:24 27.08.2022
453 Clouds 32 1010 40 8000 2.06 0 19:39 27.08.2022
454 Clouds 30 1010 45 8000 2.57 0 16:48 27.08.2022
455 Clouds 29 1011 51 8000 3.09 310 15:52 27.08.2022
456 Clouds 28 1011 54 8000 2.06 20 15:23 27.08.2022
457 Clouds 23 1012 73 8000 1.54 290 12:23 27.08.2022
458 Clouds 21 1012 78 8000 2.57 280 11:24 27.08.2022
459 Clouds 20 1012 77 6000 3.6 240 09:40 27.08.2022
460 Clear 20 1012 83 10000 3.6 240 07:31 27.08.2022
461 Clear 23 1012 68 10000 3.6 240 02:33 27.08.2022
462 Clouds 27 1012 50 10000 3.09 40 23:55 26.08.2022
463 Clouds 30 1011 42 10000 5.14 350 22:31 26.08.2022
464 Clouds 35 1010 31 10000 3.09 340 20:39 26.08.2022
465 Clouds 36 1011 32 10000 1.54 230 19:20 26.08.2022
466 Clouds 34 1012 38 10000 3.09 360 16:46 26.08.2022
467 Clouds 31 1013 45 10000 2.57 0 15:27 26.08.2022
468 Clouds 31 1013 45 10000 2.57 0 15:27 26.08.2022
469 Clouds 29 1014 51 10000 3.09 310 13:46 26.08.2022
470 Clear 26 1014 65 10000 2.57 310 12:35 26.08.2022
471 Clear 23 1014 73 10000 2.57 270 11:22 26.08.2022
472 Clouds 22 1014 78 8000 3.6 240 10:25 26.08.2022
473 Clouds 21 1014 78 8000 3.09 250 06:50 26.08.2022
474 Clouds 28 1015 47 10000 1.54 40 01:28 26.08.2022
475 Clouds 30 1015 42 10000 3.6 50 23:30 25.08.2022
476 Clouds 35 1013 29 10000 4.12 350 21:26 25.08.2022
477 Clouds 36 1013 28 10000 2.57 350 20:26 25.08.2022
478 Clouds 37 1013 30 10000 1.54 0 18:49 25.08.2022
479 Clouds 36 1013 32 10000 2.06 0 17:32 25.08.2022
480 Clouds 36 1014 36 10000 2.06 0 16:50 25.08.2022
481 Clouds 36 1014 36 10000 2.06 0 16:50 25.08.2022
482 Clouds 33 1015 40 10000 2.06 0 15:39 25.08.2022
483 Clouds 31 1015 45 10000 2.57 340 14:31 25.08.2022
484 Clear 26 1016 61 10000 1.54 0 11:49 25.08.2022
485 Clear 23 1016 68 10000 2.06 280 10:46 25.08.2022
486 Clear 21 1015 73 10000 3.09 250 08:52 25.08.2022
487 Clear 23 1015 64 10000 2.06 240 05:19 25.08.2022
488 Clear 28 1016 51 10000 5.14 20 00:30 25.08.2022
489 Clouds 29 1016 48 8000 4.63 30 23:25 24.08.2022
490 Thunderstorm 32 1015 37 8000 3.09 350 22:21 24.08.2022
491 Thunderstorm 33 1015 35 8000 3.09 350 21:33 24.08.2022
492 Clouds 35 1014 31 10000 2.57 350 20:24 24.08.2022
493 Clouds 35 1014 34 10000 1.54 0 18:39 24.08.2022
494 Clouds 32 1014 40 10000 2.06 0 16:23 24.08.2022
495 Clouds 32 1014 43 10000 2.06 0 15:48 24.08.2022
496 Clouds 27 1016 61 10000 2.57 290 12:53 24.08.2022
497 Clouds 24 1015 73 10000 3.09 260 11:22 24.08.2022
498 Clouds 21 1014 83 10000 3.09 250 09:20 24.08.2022
499 Clouds 21 1014 78 10000 3.6 260 07:43 24.08.2022
500 Clouds 26 1014 57 10000 3.6 240 01:43 24.08.2022
501 Clouds 32 1013 35 10000 5.66 50 22:53 23.08.2022
502 Clouds 34 1013 29 10000 5.14 40 22:24 23.08.2022
503 Clouds 36 1012 23 10000 3.09 330 21:27 23.08.2022
504 Clouds 37 1013 18 10000 2.57 260 19:54 23.08.2022
505 Clouds 38 1012 18 10000 2.57 320 18:30 23.08.2022
506 Clouds 38 1012 19 10000 2.57 0 17:46 23.08.2022
507 Clouds 37 1012 23 10000 3.6 290 16:35 23.08.2022
508 Clouds 35 1013 29 10000 2.06 320 15:20 23.08.2022
509 Clear 32 1013 43 10000 1.03 0 13:25 23.08.2022
510 Clear 27 1014 61 10000 1.03 0 11:24 23.08.2022
511 Clear 24 1014 73 10000 1.03 0 10:35 23.08.2022
512 Clouds 22 1013 73 8000 2.57 240 09:47 23.08.2022
513 Clouds 21 1013 78 10000 1.54 260 08:49 23.08.2022
514 Clear 21 1013 73 10000 1.54 280 08:20 23.08.2022
515 Clear 22 1013 73 10000 2.06 250 07:34 23.08.2022
516 Clear 22 1012 73 10000 2.06 250 06:26 23.08.2022
517 Clear 26 1013 50 10000 3.09 250 01:55 23.08.2022
518 Clear 29 1013 37 10000 2.57 260 00:27 23.08.2022
519 Clouds 32 1013 31 10000 1.54 290 23:33 22.08.2022
520 Clouds 33 1012 29 10000 3.09 330 22:32 22.08.2022
521 Clouds 35 1011 24 10000 5.66 360 21:24 22.08.2022
522 Clouds 41 1010 16 10000 4.63 350 19:47 22.08.2022
523 Clouds 42 1010 12 10000 2.06 0 18:44 22.08.2022
524 Clouds 42 1011 15 10000 2.06 0 16:31 22.08.2022
525 Clouds 39 1012 19 10000 2.06 0 15:38 22.08.2022
526 Clear 36 1013 24 10000 2.06 340 13:44 22.08.2022
527 Clear 27 1014 41 10000 1.54 250 10:26 22.08.2022
528 Clouds 25 1014 44 8000 2.06 230 07:58 22.08.2022
529 Clouds 27 1015 34 8000 2.06 250 03:49 22.08.2022
530 Clouds 34 1016 20 8000 2.06 50 00:38 22.08.2022
531 Clouds 34 1016 20 8000 2.06 50 00:18 22.08.2022
532 Clouds 38 1014 18 8000 4.63 10 22:18 21.08.2022
533 Clouds 39 1014 16 8000 4.63 360 21:23 21.08.2022
534 Clouds 42 1013 12 8000 5.66 360 20:27 21.08.2022
535 Clouds 43 1013 14 8000 1.54 30 19:24 21.08.2022
536 Clouds 43 1014 15 8000 2.57 0 16:55 21.08.2022
537 Clouds 42 1015 15 8000 4.12 60 15:53 21.08.2022
538 Clouds 40 1015 17 8000 3.6 50 15:20 21.08.2022
539 Clouds 39 1016 19 8000 2.57 10 13:51 21.08.2022
540 Clouds 39 1016 19 8000 2.06 30 13:24 21.08.2022
541 Clouds 33 1017 27 8000 1.03 0 11:29 21.08.2022
542 Clouds 33 1016 25 8000 2.57 260 09:31 21.08.2022
543 Clouds 32 1015 27 8000 4.63 130 08:56 21.08.2022
544 Clouds 32 1016 27 8000 3.09 140 08:38 21.08.2022
545 Clouds 30 1015 28 8000 0.51 0 07:26 21.08.2022
546 Clouds 34 1017 24 8000 4.63 130 03:39 21.08.2022
547 Clouds 35 1019 21 8000 2.06 320 23:49 20.08.2022
548 Clouds 37 1017 23 8000 3.6 330 22:24 20.08.2022
549 Clouds 38 1016 19 8000 3.09 20 21:26 20.08.2022
550 Clouds 40 1015 15 8000 3.6 20 20:28 20.08.2022
551 Clouds 41 1014 13 8000 3.6 30 19:40 20.08.2022
552 Clouds 43 1014 13 8000 5.14 40 18:27 20.08.2022
553 Clouds 43 1014 12 10000 5.66 60 17:40 20.08.2022
554 Clouds 42 1015 12 10000 4.63 40 16:40 20.08.2022
555 Clouds 41 1015 12 10000 3.6 70 15:26 20.08.2022
556 Clouds 36 1016 23 10000 6.17 90 12:52 20.08.2022
557 Clouds 33 1017 29 10000 3.6 260 11:47 20.08.2022
558 Clouds 29 1015 37 10000 3.09 50 09:33 20.08.2022
559 Clouds 27 1015 41 10000 1.03 0 08:29 20.08.2022
560 Clouds 28 1014 39 10000 0.51 0 05:49 20.08.2022
561 Clouds 31 1016 33 10000 1.03 0 00:58 20.08.2022
562 Clouds 31 1016 33 10000 2.06 80 00:30 20.08.2022
563 Clouds 33 1015 29 10000 3.6 30 22:53 19.08.2022
564 Clouds 37 1013 23 10000 3.09 360 21:38 19.08.2022
565 Clouds 41 1012 15 10000 3.6 340 19:43 19.08.2022
566 Clouds 40 1013 18 10000 5.14 270 16:47 19.08.2022
567 Clouds 39 1013 21 10000 3.09 320 14:51 19.08.2022
568 Clear 35 1014 28 10000 2.06 360 12:47 19.08.2022
569 Clear 29 1014 39 10000 1.54 80 10:43 19.08.2022
570 Clear 27 1014 44 10000 0.51 0 09:59 19.08.2022
571 Clear 24 1013 46 8000 1.54 260 05:30 19.08.2022
572 Clear 29 1013 37 10000 1.03 0 00:46 19.08.2022
573 Clear 30 1013 35 10000 3.09 50 00:22 19.08.2022
574 Clear 32 1012 29 10000 2.57 360 23:00 18.08.2022
575 Clear 33 1012 27 10000 4.63 360 22:37 18.08.2022
576 Clear 35 1012 23 10000 2.57 340 21:53 18.08.2022
577 Clear 37 1012 22 10000 1.03 0 21:23 18.08.2022
578 Clear 38 1011 20 10000 1.54 0 19:54 18.08.2022
579 Clear 38 1011 20 10000 2.06 30 19:24 18.08.2022
580 Clear 37 1011 26 10000 2.06 0 17:46 18.08.2022
581 Clear 37 1012 28 10000 1.54 0 16:25 18.08.2022
582 Clear 32 1013 37 10000 2.57 0 14:22 18.08.2022
583 Clear 30 1013 42 10000 2.06 0 13:45 18.08.2022
584 Clear 26 1014 53 10000 2.06 0 12:31 18.08.2022
585 Clear 24 1014 60 10000 0.51 0 11:23 18.08.2022
586 Clear 20 1014 73 8000 1.54 260 09:43 18.08.2022
587 Clear 18 1014 77 8000 2.06 260 08:31 18.08.2022
588 Clear 18 1013 72 8000 2.06 250 07:18 18.08.2022
589 Clear 23 1013 60 8000 2.57 30 02:59 18.08.2022
590 Clear 27 1013 47 8000 5.66 10 22:51 17.08.2022
591 Clear 32 1012 27 10000 3.6 30 21:28 17.08.2022
592 Clear 33 1011 25 10000 3.6 60 19:59 17.08.2022
593 Clear 33 1011 27 10000 3.09 10 18:39 17.08.2022
594 Clear 32 1012 27 10000 3.09 20 17:28 17.08.2022
595 Clear 31 1013 30 10000 3.6 30 16:21 17.08.2022
596 Clear 29 1013 37 10000 3.09 0 14:48 17.08.2022
597 Clear 25 1014 57 10000 3.09 360 12:50 17.08.2022
598 Clear 22 1014 68 10000 2.57 30 11:36 17.08.2022
599 Clear 19 1014 77 10000 2.57 50 09:30 17.08.2022
600 Clear 19 1014 72 10000 4.12 50 07:36 17.08.2022
601 Clear 23 1014 56 10000 2.57 60 02:21 17.08.2022
602 Clear 24 1014 53 10000 5.66 30 23:45 16.08.2022
603 Clear 29 1012 39 10000 5.14 350 21:52 16.08.2022
604 Clear 32 1011 31 10000 2.57 350 20:51 16.08.2022
605 Clear 33 1011 29 10000 3.09 10 19:50 16.08.2022
606 Clear 33 1012 31 10000 2.06 0 18:23 16.08.2022
607 Clear 32 1012 33 10000 3.09 10 17:40 16.08.2022
608 Clouds 30 1013 42 10000 2.06 0 15:46 16.08.2022
609 Clouds 29 1013 45 10000 2.06 0 14:55 16.08.2022
610 Clouds 29 1013 48 10000 2.57 0 14:37 16.08.2022
611 Clouds 26 1014 57 10000 1.54 0 12:43 16.08.2022
612 Clouds 21 1014 78 10000 3.6 260 10:35 16.08.2022
613 Clouds 20 1014 77 10000 4.12 240 09:43 16.08.2022
614 Clouds 19 1014 82 10000 4.12 240 08:43 16.08.2022
615 Clouds 19 1013 77 10000 3.6 240 07:23 16.08.2022
616 Clouds 26 1014 47 10000 4.12 30 01:35 16.08.2022
617 Clouds 30 1013 35 10000 3.6 30 22:29 15.08.2022
618 Clouds 31 1013 33 10000 2.57 10 21:53 15.08.2022
619 Clouds 31 1012 35 10000 3.6 350 20:48 15.08.2022
620 Clouds 32 1012 31 10000 2.57 340 20:19 15.08.2022
621 Clouds 32 1013 31 10000 2.06 0 18:36 15.08.2022
622 Clouds 33 1014 31 10000 2.57 0 16:47 15.08.2022
623 Clouds 32 1014 33 10000 3.09 270 16:21 15.08.2022
624 Clouds 29 1015 45 10000 2.06 0 13:55 15.08.2022
625 Clouds 26 1015 53 10000 2.06 0 12:29 15.08.2022
626 Clouds 23 1015 60 10000 2.06 240 09:59 15.08.2022
627 Clouds 22 1014 64 8000 1.54 100 08:22 15.08.2022
628 Clear 24 1013 57 10000 1.54 0 06:20 15.08.2022
629 Clear 26 1016 50 10000 2.06 20 02:19 15.08.2022
630 Clouds 31 1016 37 8000 4.63 20 22:39 14.08.2022
631 Clouds 32 1015 40 8000 4.63 340 21:39 14.08.2022
632 Clouds 33 1014 40 8000 2.57 330 20:21 14.08.2022
633 Clouds 33 1015 40 8000 3.6 320 19:30 14.08.2022
634 Clouds 34 1014 40 8000 3.6 330 18:19 14.08.2022
635 Clouds 34 1015 38 8000 3.09 360 16:54 14.08.2022
636 Clouds 32 1015 43 8000 3.09 330 15:51 14.08.2022
637 Clouds 30 1015 51 8000 4.12 270 14:36 14.08.2022
638 Clouds 30 1015 51 8000 3.6 280 13:50 14.08.2022
639 Clouds 30 1015 54 8000 3.09 280 13:22 14.08.2022
640 Clouds 28 1015 61 8000 3.09 260 12:34 14.08.2022
641 Clouds 26 1015 69 8000 2.57 270 10:55 14.08.2022
642 Clouds 23 1014 73 8000 3.6 240 08:53 14.08.2022
643 Clouds 24 1013 64 8000 3.09 260 06:22 14.08.2022
644 Clouds 29 1013 51 8000 1.03 0 03:48 14.08.2022
645 Clouds 30 1015 48 8000 3.6 40 00:39 14.08.2022
646 Clouds 32 1014 40 8000 3.09 350 22:56 13.08.2022
647 Clouds 34 1014 38 8000 3.09 340 21:47 13.08.2022
648 Clouds 36 1013 32 8000 4.63 330 20:47 13.08.2022
649 Clouds 37 1012 30 8000 3.6 310 19:46 13.08.2022
650 Clouds 38 1012 34 8000 3.6 320 18:19 13.08.2022
651 Clouds 38 1012 32 8000 3.6 280 15:57 13.08.2022
652 Clouds 35 1013 38 8000 3.6 290 14:40 13.08.2022
653 Clouds 34 1013 38 8000 3.6 300 13:46 13.08.2022
654 Clouds 31 1013 48 10000 2.57 0 11:59 13.08.2022
655 Clouds 28 1013 57 10000 2.06 270 10:33 13.08.2022
656 Clouds 25 1012 65 10000 1.03 0 09:22 13.08.2022
657 Clear 26 1012 57 10000 1.54 260 05:59 13.08.2022
658 Clouds 31 1014 45 10000 2.57 290 00:36 13.08.2022
659 Clouds 34 1013 38 8000 2.57 30 22:26 12.08.2022
660 Clouds 37 1012 32 8000 4.12 330 21:35 12.08.2022
661 Clouds 40 1011 25 8000 4.63 340 19:46 12.08.2022
662 Clouds 42 1010 23 8000 4.12 330 19:21 12.08.2022
663 Clouds 42 1010 23 8000 5.14 300 17:58 12.08.2022
664 Clouds 42 1012 21 8000 3.6 290 16:25 12.08.2022
665 Clouds 39 1012 27 8000 3.09 340 14:50 12.08.2022
666 Clear 35 1013 34 10000 2.57 300 13:26 12.08.2022
667 Clear 30 1013 45 10000 1.54 240 11:40 12.08.2022
668 Clear 25 1013 53 10000 1.54 250 08:50 12.08.2022
669 Clear 25 1013 53 10000 2.06 250 07:45 12.08.2022
670 Clear 28 1013 47 10000 0.51 0 03:56 12.08.2022
671 Clouds 30 1015 42 8000 2.06 40 00:31 12.08.2022
672 Clouds 31 1015 40 8000 2.06 10 23:52 11.08.2022
673 Clouds 32 1014 37 8000 3.09 30 22:42 11.08.2022
674 Clouds 34 1014 31 8000 3.6 10 21:52 11.08.2022
675 Clouds 34 1013 31 8000 4.12 360 21:23 11.08.2022
676 Clouds 36 1013 26 8000 2.06 320 20:30 11.08.2022
677 Clouds 38 1012 23 8000 3.09 330 19:33 11.08.2022
678 Clouds 37 1012 25 8000 3.09 340 18:41 11.08.2022
679 Clouds 36 1013 30 8000 1.03 0 16:46 11.08.2022
680 Clouds 34 1014 33 8000 2.57 330 15:42 11.08.2022
681 Clouds 34 1014 33 8000 2.57 330 15:42 11.08.2022
682 Clear 32 1014 37 10000 2.57 70 14:31 11.08.2022
683 Clear 26 1015 53 10000 1.54 0 11:53 11.08.2022
684 Clear 20 1015 73 10000 2.06 250 08:48 11.08.2022
685 Clear 22 1014 60 10000 2.57 260 05:44 11.08.2022
686 Clear 27 1014 47 10000 1.54 30 02:26 11.08.2022
687 Clear 31 1014 35 10000 5.14 360 22:55 10.08.2022
688 Clear 33 1013 29 10000 3.09 340 21:45 10.08.2022
689 Clear 34 1013 31 10000 3.09 330 20:56 10.08.2022
690 Clear 34 1013 33 10000 3.09 350 20:24 10.08.2022
691 Clear 35 1013 31 10000 2.06 0 18:46 10.08.2022
692 Clear 36 1014 34 10000 2.06 0 17:26 10.08.2022
693 Clear 30 1015 45 8000 2.06 0 14:25 10.08.2022
694 Clear 26 1016 57 8000 1.54 0 12:54 10.08.2022
695 Clear 21 1016 73 8000 3.09 260 10:31 10.08.2022
696 Clear 19 1015 77 8000 3.09 240 08:37 10.08.2022
697 Clear 20 1014 73 8000 2.57 250 07:23 10.08.2022
698 Clear 21 1015 68 8000 2.57 240 04:50 10.08.2022
699 Clear 25 1016 53 8000 2.57 40 00:50 10.08.2022
700 Clear 27 1016 47 8000 4.12 40 23:29 09.08.2022
701 Clear 31 1015 37 10000 4.63 340 21:41 09.08.2022
702 Clear 33 1014 29 8000 4.63 350 21:22 09.08.2022
703 Clear 36 1014 30 8000 2.06 0 18:56 09.08.2022
704 Clear 34 1014 33 8000 2.57 290 17:31 09.08.2022
705 Clear 34 1014 36 8000 2.06 0 16:46 09.08.2022
706 Clear 33 1014 38 8000 2.06 0 16:22 09.08.2022
707 Clear 31 1015 42 8000 2.06 0 14:50 09.08.2022
708 Clear 24 1016 64 8000 1.54 0 11:29 09.08.2022
709 Clear 19 1016 82 8000 2.57 240 08:52 09.08.2022
710 Clear 19 1016 82 8000 3.09 240 07:58 09.08.2022
711 Clear 20 1015 73 8000 3.09 250 05:24 09.08.2022
712 Clear 26 1016 50 10000 2.57 330 00:36 09.08.2022
713 Clear 27 1016 50 10000 4.12 350 23:24 08.08.2022
714 Clear 29 1014 42 10000 6.17 360 22:40 08.08.2022
715 Clear 31 1014 37 10000 6.69 360 21:44 08.08.2022
716 Clear 35 1013 24 10000 4.63 350 20:39 08.08.2022
717 Clear 36 1013 24 10000 4.63 340 19:35 08.08.2022
718 Clouds 36 1013 24 10000 3.6 350 18:18 08.08.2022
719 Clouds 35 1014 28 10000 4.12 320 15:54 08.08.2022
720 Clouds 34 1014 31 10000 2.57 0 15:36 08.08.2022
721 Clear 28 1016 51 10000 1.54 0 12:30 08.08.2022
722 Clear 24 1017 69 10000 0.51 0 10:33 08.08.2022
723 Clear 20 1016 77 10000 3.09 240 07:59 08.08.2022
724 Clear 22 1017 64 10000 3.09 230 04:31 08.08.2022
725 Clear 27 1017 44 10000 2.57 80 00:33 08.08.2022
726 Clear 34 1015 24 10000 4.12 340 21:42 07.08.2022
727 Clear 34 1015 24 10000 4.12 340 21:19 07.08.2022
728 Clear 36 1014 19 10000 3.6 330 20:23 07.08.2022
729 Clear 37 1014 18 10000 3.6 320 19:52 07.08.2022
730 Clear 36 1014 19 10000 3.6 320 19:22 07.08.2022
731 Clear 36 1015 23 10000 2.57 360 17:31 07.08.2022
732 Clear 36 1015 23 10000 3.6 340 16:52 07.08.2022
733 Clear 34 1016 31 10000 3.09 310 15:39 07.08.2022
734 Clear 31 1017 48 10000 2.06 0 13:58 07.08.2022
735 Clear 28 1018 54 10000 3.09 260 12:41 07.08.2022
736 Clear 23 1018 68 10000 2.57 260 10:51 07.08.2022
737 Clear 22 1018 73 10000 3.6 240 10:20 07.08.2022
738 Clouds 24 1016 60 10000 3.6 240 04:37 07.08.2022
739 Clouds 27 1017 47 10000 2.57 240 02:25 07.08.2022
740 Clouds 35 1015 26 10000 4.63 360 22:39 06.08.2022
741 Clouds 35 1015 26 10000 4.63 360 22:18 06.08.2022
742 Clouds 40 1014 16 10000 2.57 360 19:46 06.08.2022
743 Clouds 40 1014 16 10000 3.09 330 18:49 06.08.2022
744 Clouds 40 1015 17 10000 3.09 330 17:45 06.08.2022
745 Clouds 40 1015 17 10000 2.06 340 16:29 06.08.2022
746 Clear 35 1016 31 10000 1.54 0 13:51 06.08.2022
747 Clear 31 1016 40 10000 1.54 0 12:38 06.08.2022
748 Clear 29 1016 48 10000 1.54 30 11:21 06.08.2022
749 Clear 24 1016 60 10000 1.54 270 09:41 06.08.2022
750 Clear 23 1015 64 10000 2.06 220 07:28 06.08.2022
751 Clear 29 1016 39 10000 1.54 50 01:47 06.08.2022
752 Clear 35 1014 29 10000 4.12 10 22:36 05.08.2022
753 Clouds 38 1013 19 10000 4.63 350 21:18 05.08.2022
754 Clouds 41 1013 13 10000 3.6 330 19:20 05.08.2022
755 Clouds 41 1013 11 10000 3.6 320 18:44 05.08.2022
756 Clear 40 1013 21 10000 2.57 350 16:53 05.08.2022
757 Clear 39 1013 22 10000 2.57 300 15:55 05.08.2022
758 Clear 37 1014 28 10000 2.57 340 14:54 05.08.2022
759 Clear 35 1014 29 10000 1.54 0 13:39 05.08.2022
760 Clear 35 1014 29 10000 1.54 0 13:19 05.08.2022
761 Clear 31 1015 40 10000 1.54 0 11:58 05.08.2022
762 Clouds 27 1014 54 10000 1.03 0 10:24 05.08.2022
763 Clear 22 1013 64 10000 1.54 270 07:57 05.08.2022
764 Clear 23 1014 60 10000 2.57 250 04:48 05.08.2022
765 Clouds 31 1014 35 10000 2.57 340 23:49 04.08.2022
766 Clouds 37 1012 22 10000 4.12 320 21:37 04.08.2022
767 Clouds 37 1012 22 10000 4.12 320 21:18 04.08.2022
768 Clouds 39 1011 19 10000 4.12 340 20:38 04.08.2022
769 Clouds 40 1011 17 10000 4.63 340 19:00 04.08.2022
770 Clouds 41 1011 16 10000 2.06 30 18:34 04.08.2022
771 Clouds 40 1012 18 10000 2.57 0 15:59 04.08.2022
772 Clouds 34 1012 31 10000 3.09 350 13:34 04.08.2022
773 Clouds 30 1013 45 10000 2.06 90 11:42 04.08.2022
774 Clouds 25 1013 65 10000 1.03 0 10:24 04.08.2022
775 Clouds 21 1013 73 10000 2.06 260 07:49 04.08.2022
776 Clouds 27 1013 47 10000 2.57 250 03:29 04.08.2022
777 Clouds 30 1014 37 10000 1.54 80 01:42 04.08.2022
778 Clouds 32 1014 33 10000 3.09 20 23:41 03.08.2022
779 Clouds 37 1012 23 10000 5.14 350 21:34 03.08.2022
780 Clouds 40 1011 18 10000 4.63 340 20:22 03.08.2022
781 Clouds 41 1011 17 10000 4.12 340 20:22 03.08.2022
782 Clouds 41 1009 11 10000 7.6 336 19:28 03.08.2022
783 Clouds 42 1012 12 10000 2.57 0 17:20 03.08.2022
784 Clouds 40 1012 24 10000 3.09 310 16:23 03.08.2022
785 Clouds 36 1013 34 10000 4.12 320 14:23 03.08.2022
786 Clouds 31 1014 42 10000 2.57 280 11:46 03.08.2022
787 Clouds 25 1013 61 8000 2.57 260 07:45 03.08.2022
788 Clouds 29 1012 48 8000 4.12 250 04:46 03.08.2022
789 Clouds 32 1012 33 8000 2.57 260 03:26 03.08.2022
790 Clouds 36 1013 23 8000 3.09 40 00:58 03.08.2022
791 Clouds 37 1013 23 8000 4.12 250 22:49 02.08.2022
792 Clouds 39 1013 19 6000 4.63 300 21:52 02.08.2022
793 Dust 39 1012 19 2000 5.66 290 20:37 02.08.2022
794 Clouds 43 1011 12 10000 3.09 110 18:42 02.08.2022
795 Clouds 45 1011 11 10000 2.06 0 15:36 02.08.2022
796 Clouds 38 1013 18 10000 1.54 40 11:32 02.08.2022
797 Clouds 34 1013 21 10000 2.06 30 09:18 02.08.2022
798 Clouds 34 1012 21 10000 2.06 170 07:53 02.08.2022
799 Clear 35 1012 20 10000 2.57 150 06:43 02.08.2022
800 Clear 34 1013 22 10000 1.03 0 04:54 02.08.2022
801 Clouds 40 1014 15 10000 2.06 0 23:38 01.08.2022
802 Clouds 40 1013 15 8000 5.66 30 22:24 01.08.2022
803 Dust 41 1012 14 3000 6.69 350 20:52 01.08.2022
804 Clouds 44 1012 13 8000 4.12 10 19:25 01.08.2022
805 Dust 43 1012 13 5000 6.17 70 18:40 01.08.2022
806 Clouds 45 1012 9 10000 2.06 150 16:53 01.08.2022
807 Clouds 46 1012 11 10000 2.57 0 15:52 01.08.2022
808 Clouds 45 1012 11 10000 3.6 360 15:30 01.08.2022
809 Clouds 45 1013 12 10000 2.06 0 14:43 01.08.2022
810 Clouds 41 1014 20 8000 2.06 360 12:47 01.08.2022
811 Clouds 32 1014 31 8000 2.06 90 09:43 01.08.2022
812 Clouds 28 1014 39 8000 2.06 70 08:34 01.08.2022
813 Clouds 32 1014 35 8000 0.51 0 04:56 01.08.2022
814 Clouds 34 1014 31 8000 1.54 130 03:49 01.08.2022
815 Clouds 36 1016 26 8000 5.14 220 00:36 01.08.2022
816 Clouds 40 1013 18 8000 4.12 360 22:40 31.07.2022
817 Clouds 41 1012 16 10000 5.14 360 21:29 31.07.2022
818 Clouds 44 1011 10 10000 3.6 50 19:56 31.07.2022
819 Clouds 46 1011 8 10000 3.09 10 18:35 31.07.2022
820 Clouds 45 1013 9 10000 4.63 30 15:45 31.07.2022
821 Clouds 44 1014 10 10000 2.06 0 13:44 31.07.2022
822 Clouds 37 1014 22 10000 2.06 70 11:59 31.07.2022
823 Clouds 31 1014 30 10000 2.06 80 09:55 31.07.2022
824 Clear 26 1014 47 10000 0.51 0 07:59 31.07.2022
825 Clear 29 1015 39 10000 1.54 250 03:28 31.07.2022
826 Clouds 34 1016 31 10000 1.54 40 23:46 30.07.2022
827 Clouds 37 1014 26 10000 3.6 350 22:19 30.07.2022
828 Clouds 38 1013 23 10000 3.6 360 21:49 30.07.2022
829 Clouds 40 1012 21 10000 5.14 340 20:57 30.07.2022
830 Clouds 40 1012 21 10000 5.14 340 20:57 30.07.2022
831 Clouds 43 1011 17 10000 5.14 360 19:59 30.07.2022
832 Clouds 45 1011 13 10000 4.12 320 18:53 30.07.2022
833 Clouds 45 1011 11 10000 3.6 350 17:44 30.07.2022
834 Clouds 42 1012 20 10000 2.57 340 15:54 30.07.2022
835 Clouds 41 1013 24 10000 3.6 340 15:24 30.07.2022
836 Clear 34 1014 38 10000 2.57 10 13:19 30.07.2022
837 Clear 32 1014 43 10000 1.54 0 12:19 30.07.2022
838 Clear 28 1014 54 10000 1.03 0 10:31 30.07.2022
839 Clear 28 1014 54 10000 1.03 0 10:31 30.07.2022
840 Clear 27 1014 57 10000 2.06 60 09:56 30.07.2022
841 Clear 25 1014 61 10000 2.06 80 07:55 30.07.2022
842 Clear 27 1014 54 10000 1.03 0 03:55 30.07.2022
843 Clear 29 1015 48 10000 1.54 60 02:25 30.07.2022
844 Clouds 33 1014 38 10000 4.63 20 22:46 29.07.2022
845 Clouds 36 1014 28 10000 2.06 340 21:24 29.07.2022
846 Clouds 37 1013 26 10000 2.57 0 20:41 29.07.2022
847 Clouds 37 1013 26 10000 2.06 350 18:26 29.07.2022
848 Clouds 33 1014 38 10000 2.06 0 15:38 29.07.2022
849 Clear 30 1015 48 10000 2.06 0 13:45 29.07.2022
850 Clear 25 1015 65 10000 2.06 0 11:30 29.07.2022
851 Clouds 20 1015 83 8000 3.09 240 08:50 29.07.2022
852 Clouds 20 1014 83 8000 3.6 240 08:20 29.07.2022
853 Clear 26 1015 53 8000 1.03 0 02:29 29.07.2022
854 Clouds 30 1014 37 10000 4.63 360 23:18 28.07.2022
855 Clouds 34 1012 27 10000 3.09 340 21:29 28.07.2022
856 Clouds 35 1012 26 10000 3.6 350 20:45 28.07.2022
857 Clouds 36 1012 24 10000 2.06 0 19:44 28.07.2022
858 Clouds 36 1012 24 10000 2.06 0 19:25 28.07.2022
859 Clear 35 1012 26 10000 2.06 0 17:44 28.07.2022
860 Clear 35 1013 26 10000 1.54 0 16:59 28.07.2022
861 Clear 34 1013 27 10000 3.09 350 16:36 28.07.2022
862 Clear 29 1014 48 10000 2.06 0 13:35 28.07.2022
863 Clear 25 1014 65 10000 2.57 260 11:43 28.07.2022
864 Clear 20 1013 77 10000 3.09 250 06:59 28.07.2022
865 Clear 22 1014 64 10000 3.09 240 05:33 28.07.2022
866 Clear 24 1014 57 10000 2.57 240 03:53 28.07.2022
867 Clear 31 1014 35 10000 4.12 30 22:56 27.07.2022
868 Clouds 36 1013 20 10000 4.63 360 21:29 27.07.2022
869 Clouds 38 1013 14 10000 3.6 340 19:45 27.07.2022
870 Clouds 40 1013 12 10000 2.06 340 18:41 27.07.2022
871 Clouds 39 1014 14 10000 3.09 340 16:31 27.07.2022
872 Clouds 38 1015 14 10000 2.57 0 15:40 27.07.2022
873 Clouds 37 1016 14 10000 2.06 0 14:41 27.07.2022
874 Clouds 35 1017 16 10000 3.09 30 13:29 27.07.2022
875 Clear 28 1017 26 10000 1.54 300 09:27 27.07.2022
876 Clouds 25 1017 29 10000 0.51 0 07:40 27.07.2022
877 Clear 31 1019 19 10000 3.09 40 02:52 27.07.2022
878 Clouds 35 1017 18 8000 5.14 30 22:47 26.07.2022
879 Clouds 38 1015 17 10000 6.69 10 21:25 26.07.2022
880 Clouds 39 1014 17 10000 7.2 360 20:49 26.07.2022
881 Clouds 43 1014 13 10000 3.09 30 18:46 26.07.2022
882 Clouds 43 1014 13 10000 4.63 20 18:28 26.07.2022
883 Clouds 43 1015 14 10000 4.63 50 16:54 26.07.2022
884 Clouds 42 1016 15 10000 2.06 0 15:43 26.07.2022
885 Clear 39 1017 18 10000 3.09 50 14:00 26.07.2022
886 Clear 35 1018 23 10000 2.06 70 11:47 26.07.2022
887 Clear 35 1018 23 10000 1.54 0 11:47 26.07.2022
888 Clear 30 1017 28 10000 1.54 250 09:35 26.07.2022
889 Clear 29 1017 30 10000 1.03 0 07:56 26.07.2022
890 Clouds 34 1018 22 8000 1.54 20 01:44 26.07.2022
891 Thunderstorm 37 1017 19 8000 6.17 30 23:37 25.07.2022
892 Clouds 39 1016 17 10000 5.14 10 22:33 25.07.2022
893 Clouds 40 1015 16 10000 6.69 10 21:43 25.07.2022
894 Clouds 42 1014 15 10000 5.66 10 20:42 25.07.2022
895 Clouds 44 1014 13 10000 4.63 350 19:51 25.07.2022
896 Clouds 45 1014 13 10000 1.54 340 18:23 25.07.2022
897 Clouds 44 1014 14 10000 2.57 0 17:34 25.07.2022
898 Clouds 44 1015 15 10000 1.54 0 16:40 25.07.2022
899 Clouds 39 1017 21 8000 2.06 70 12:47 25.07.2022
900 Clouds 35 1017 26 8000 2.06 80 10:42 25.07.2022
901 Clouds 31 1016 30 8000 1.03 0 06:52 25.07.2022
902 Clouds 38 1017 19 8000 3.09 60 23:57 24.07.2022
903 Clouds 39 1016 18 8000 3.6 40 23:22 24.07.2022
904 Clouds 39 1016 19 8000 4.12 40 22:41 24.07.2022
905 Clouds 40 1015 20 8000 0.51 0 21:30 24.07.2022
906 Clouds 40 1014 17 8000 3.09 230 20:57 24.07.2022
907 Clouds 41 1014 15 8000 2.57 190 20:32 24.07.2022
908 Clouds 42 1013 14 8000 2.57 290 18:59 24.07.2022
909 Clouds 42 1014 13 5000 9.26 20 16:53 24.07.2022
910 Clouds 44 1014 13 8000 3.09 320 15:53 24.07.2022
911 Clouds 44 1014 15 8000 2.06 0 14:41 24.07.2022
912 Clouds 42 1015 17 8000 2.06 30 13:43 24.07.2022
913 Clouds 39 1015 22 8000 2.57 60 12:19 24.07.2022
914 Clouds 37 1015 23 8000 2.57 80 11:28 24.07.2022
915 Clouds 31 1015 30 8000 2.57 170 09:33 24.07.2022
916 Clouds 30 1015 30 8000 1.54 160 07:53 24.07.2022
917 Clouds 30 1014 30 8000 0.51 0 06:39 24.07.2022
918 Clouds 35 1015 21 8000 2.06 20 02:41 24.07.2022
919 Clouds 38 1015 20 8000 4.63 40 22:37 23.07.2022
920 Clouds 40 1014 22 8000 4.63 360 20:47 23.07.2022
921 Clouds 42 1014 13 8000 3.09 10 18:55 23.07.2022
922 Clouds 42 1014 14 8000 3.09 340 17:48 23.07.2022
923 Clouds 43 1014 14 8000 3.09 350 17:24 23.07.2022
924 Clouds 40 1015 18 8000 4.12 330 15:55 23.07.2022
925 Clouds 39 1015 19 8000 5.14 300 15:21 23.07.2022
926 Clouds 40 1015 17 8000 5.14 300 14:50 23.07.2022
927 Clouds 39 1016 18 8000 3.09 310 13:54 23.07.2022
928 Clouds 37 1016 22 8000 2.06 80 11:47 23.07.2022
929 Clouds 32 1016 29 8000 3.09 110 10:28 23.07.2022
930 Clouds 30 1015 30 8000 2.06 80 09:26 23.07.2022
931 Clouds 31 1015 27 8000 2.06 0 06:40 23.07.2022
932 Clouds 32 1015 25 8000 0.51 0 03:37 23.07.2022
933 Clouds 37 1016 18 6000 1.54 0 23:59 22.07.2022
934 Clouds 37 1014 20 5000 6.69 340 21:28 22.07.2022
935 Clouds 43 1012 10 8000 2.57 240 19:58 22.07.2022
936 Clouds 41 1010 8 10000 6.42 250 18:41 22.07.2022
937 Clouds 43 1013 10 10000 3.09 140 17:38 22.07.2022
938 Clouds 44 1014 10 10000 1.54 210 15:35 22.07.2022
939 Clouds 42 1014 12 10000 2.57 90 12:41 22.07.2022
940 Clouds 31 1014 30 10000 2.06 80 09:52 22.07.2022
941 Clouds 29 1014 34 10000 2.57 90 09:20 22.07.2022
942 Clouds 28 1013 36 8000 3.09 90 07:30 22.07.2022
943 Clouds 31 1014 30 8000 3.6 150 04:19 22.07.2022
944 Clouds 34 1017 27 8000 4.63 240 23:27 21.07.2022
945 Clouds 37 1015 23 8000 5.66 350 21:37 21.07.2022
946 Clouds 42 1013 14 10000 3.09 320 19:35 21.07.2022
947 Clouds 43 1013 14 10000 3.09 270 18:29 21.07.2022
948 Clouds 42 1014 15 10000 3.6 290 17:20 21.07.2022
949 Clouds 41 1014 16 10000 2.57 340 15:39 21.07.2022
950 Clouds 40 1015 18 10000 3.09 340 14:44 21.07.2022
951 Clouds 36 1016 26 10000 1.54 0 13:22 21.07.2022
952 Clouds 36 1016 26 10000 1.54 0 11:42 21.07.2022
953 Clouds 31 1015 35 10000 1.03 0 09:44 21.07.2022
954 Clouds 28 1015 39 10000 2.06 100 08:53 21.07.2022
955 Clouds 30 1014 35 10000 2.57 130 07:50 21.07.2022
956 Clouds 29 1014 39 10000 0.51 0 06:25 21.07.2022
957 Clouds 33 1016 29 10000 3.6 130 01:54 21.07.2022
958 Clouds 36 1016 24 10000 2.06 20 22:24 20.07.2022
959 Clouds 36 1016 23 10000 2.57 350 21:49 20.07.2022
960 Clouds 36 1015 24 10000 2.06 340 20:45 20.07.2022
961 Clouds 38 1015 20 10000 6.69 130 19:46 20.07.2022
962 Clouds 40 1015 20 10000 7.72 160 18:53 20.07.2022
963 Clouds 40 1014 20 10000 8.23 190 18:30 20.07.2022
964 Clouds 41 1014 18 10000 4.63 240 16:49 20.07.2022
965 Clouds 40 1014 22 10000 3.09 50 15:32 20.07.2022
966 Clouds 38 1015 25 10000 1.54 0 14:35 20.07.2022
967 Clouds 32 1016 40 10000 3.6 280 12:41 20.07.2022
968 Clouds 31 1016 40 10000 1.54 360 10:28 20.07.2022
969 Clouds 29 1014 42 10000 2.06 80 05:44 20.07.2022
970 Clouds 33 1016 31 10000 3.09 180 00:58 20.07.2022
971 Clouds 32 1017 35 10000 3.09 220 00:40 20.07.2022
972 Thunderstorm 35 1016 28 6000 4.63 270 22:35 19.07.2022
973 Thunderstorm 35 1016 28 6000 4.12 280 21:53 19.07.2022
974 Sand 37 1014 25 2000 8.75 190 20:49 19.07.2022
975 Clouds 42 1013 20 10000 5.66 360 19:22 19.07.2022
976 Clouds 42 1013 20 10000 3.09 0 18:35 19.07.2022
977 Clouds 42 1014 20 10000 2.57 40 17:53 19.07.2022
978 Clouds 39 1015 30 10000 2.57 340 15:26 19.07.2022
979 Clouds 35 1017 38 10000 1.03 0 12:44 19.07.2022
980 Clouds 29 1017 51 10000 1.03 0 11:32 19.07.2022
981 Clouds 26 1017 57 10000 1.54 270 09:51 19.07.2022
982 Clouds 24 1017 60 10000 2.06 240 08:42 19.07.2022
983 Clouds 25 1016 57 10000 2.57 240 07:19 19.07.2022
984 Clouds 25 1016 57 10000 2.06 260 05:50 19.07.2022
985 Clouds 26 1016 57 10000 3.09 260 05:18 19.07.2022
986 Clouds 29 1017 48 10000 1.03 0 02:37 19.07.2022
987 Clouds 31 1017 42 8000 4.12 20 23:52 18.07.2022
988 Clouds 32 1017 40 8000 4.12 30 23:19 18.07.2022
989 Clouds 34 1016 38 8000 5.14 20 22:26 18.07.2022
990 Clouds 36 1015 34 8000 1.03 0 21:20 18.07.2022
991 Clouds 36 1015 32 8000 4.63 230 20:22 18.07.2022
992 Clouds 36 1016 34 10000 4.12 250 18:29 18.07.2022
993 Clouds 36 1016 34 10000 3.09 0 16:30 18.07.2022
994 Clouds 35 1016 38 10000 2.57 300 15:26 18.07.2022
995 Clear 31 1017 48 10000 1.03 0 13:32 18.07.2022
996 Clear 27 1017 61 8000 1.03 0 11:43 18.07.2022
997 Clear 24 1017 69 8000 3.09 280 09:55 18.07.2022
998 Clear 24 1017 69 8000 3.09 280 09:55 18.07.2022
999 Clear 23 1016 68 8000 2.57 230 07:58 18.07.2022
1000 Clear 23 1016 68 8000 3.6 260 05:25 18.07.2022
1001 Clouds 32 1016 45 8000 3.6 30 22:57 17.07.2022
1002 Clouds 34 1016 40 8000 4.63 30 22:31 17.07.2022
1003 Clouds 36 1015 36 8000 4.12 360 21:39 17.07.2022
1004 Clouds 36 1015 34 8000 4.12 340 20:46 17.07.2022
1005 Clouds 39 1014 29 8000 4.12 300 19:50 17.07.2022
1006 Clouds 39 1014 29 8000 5.66 250 19:24 17.07.2022
1007 Clouds 38 1014 30 8000 4.12 250 17:54 17.07.2022
1008 Clouds 39 1014 27 8000 3.09 260 17:36 17.07.2022
1009 Clouds 38 1014 30 8000 2.57 0 16:33 17.07.2022
1010 Clouds 38 1015 30 8000 3.6 260 15:50 17.07.2022
1011 Clouds 35 1015 36 8000 2.06 0 13:51 17.07.2022
1012 Clouds 33 1016 43 8000 1.54 0 12:43 17.07.2022
1013 Clouds 26 1016 61 8000 1.54 270 10:20 17.07.2022
1014 Clouds 23 1014 68 8000 2.57 260 06:59 17.07.2022
1015 Clouds 28 1016 51 8000 2.57 0 02:35 17.07.2022
1016 Clouds 34 1015 27 8000 2.57 100 23:26 16.07.2022
1017 Clouds 33 1015 33 7000 3.6 120 22:33 16.07.2022
1018 Clouds 40 1012 25 8000 4.12 320 20:40 16.07.2022
1019 Clouds 42 1012 20 8000 3.6 300 18:58 16.07.2022
1020 Clouds 43 1012 22 8000 2.06 280 17:47 16.07.2022
1021 Clouds 39 1012 29 10000 3.09 340 15:54 16.07.2022
1022 Clear 31 1014 51 10000 1.54 10 12:37 16.07.2022
1023 Clear 26 1014 69 10000 0.51 0 10:28 16.07.2022
1024 Clear 23 1014 73 10000 2.06 270 09:25 16.07.2022
1025 Clear 22 1014 78 10000 1.54 270 08:41 16.07.2022
1026 Clear 23 1013 68 10000 1.54 270 06:59 16.07.2022
1027 Clear 25 1014 61 10000 2.06 260 03:33 16.07.2022
1028 Clouds 28 1015 54 10000 5.14 250 00:45 16.07.2022
1029 Clouds 32 1013 45 8000 4.63 260 22:56 15.07.2022
1030 Clouds 34 1013 38 8000 7.2 240 22:24 15.07.2022
1031 Thunderstorm 37 1012 25 5000 8.23 130 20:41 15.07.2022
1032 Clouds 42 1010 20 10000 5.14 330 19:34 15.07.2022
1033 Clouds 42 1011 20 10000 3.6 290 18:23 15.07.2022
1034 Clouds 43 1011 18 10000 3.6 300 16:53 15.07.2022
1035 Clouds 38 1012 28 10000 2.06 10 14:19 15.07.2022
1036 Clouds 33 1013 46 10000 1.03 0 12:28 15.07.2022
1037 Clouds 28 1014 61 10000 1.03 0 10:52 15.07.2022
1038 Clouds 23 1013 73 10000 3.09 250 07:48 15.07.2022
1039 Clouds 28 1013 54 10000 1.54 260 03:41 15.07.2022
1040 Clouds 34 1014 29 8000 2.06 140 00:40 15.07.2022
1041 Clouds 39 1013 14 8000 2.57 100 22:56 14.07.2022
1042 Thunderstorm 37 1014 19 7000 6.17 120 22:19 14.07.2022
1043 Thunderstorm 36 1015 23 5000 9.77 140 21:39 14.07.2022
1044 Thunderstorm 36 1015 24 4000 7.72 130 21:19 14.07.2022
1045 Thunderstorm 40 1012 25 8000 4.63 320 20:42 14.07.2022
1046 Thunderstorm 40 1012 25 8000 4.63 320 20:18 14.07.2022
1047 Clouds 45 1012 14 10000 4.12 300 17:59 14.07.2022
1048 Clouds 43 1013 15 10000 4.12 300 16:19 14.07.2022
1049 Clouds 41 1013 20 10000 2.57 340 14:56 14.07.2022
1050 Clouds 40 1014 22 10000 2.06 350 13:51 14.07.2022
1051 Clouds 36 1015 30 10000 2.57 360 12:34 14.07.2022
1052 Clouds 35 1015 31 10000 3.09 50 11:26 14.07.2022
1053 Clouds 33 1015 35 10000 3.6 90 10:51 14.07.2022
1054 Clouds 27 1015 61 10000 3.6 100 08:52 14.07.2022
1055 Clouds 27 1015 57 10000 2.06 240 04:44 14.07.2022
1056 Clouds 30 1017 48 10000 3.6 250 01:19 14.07.2022
1057 Clouds 30 1017 48 10000 3.6 250 00:50 14.07.2022
1058 Clouds 34 1017 40 8000 2.57 270 22:30 13.07.2022
1059 Clouds 37 1016 23 8000 7.2 220 21:42 13.07.2022
1060 Clouds 40 1014 17 8000 2.06 330 20:38 13.07.2022
1061 Thunderstorm 42 1013 13 5000 10.8 80 18:36 13.07.2022
1062 Clouds 44 1013 15 10000 3.6 280 17:31 13.07.2022
1063 Clouds 44 1013 15 10000 3.6 280 17:31 13.07.2022
1064 Clouds 44 1014 17 10000 3.09 310 16:19 13.07.2022
1065 Clouds 40 1015 25 10000 2.57 330 14:46 13.07.2022
1066 Clouds 29 1016 54 8000 1.54 0 11:36 13.07.2022
1067 Clouds 27 1016 57 8000 1.03 0 10:44 13.07.2022
1068 Clouds 24 1016 64 8000 2.06 260 09:49 13.07.2022
1069 Clouds 23 1016 64 8000 2.57 250 09:20 13.07.2022
1070 Clear 26 1015 53 8000 2.06 240 05:21 13.07.2022
1071 Clouds 28 1016 51 8000 4.63 240 00:49 13.07.2022
1072 Clouds 32 1015 40 8000 2.57 330 22:48 12.07.2022
1073 Clouds 34 1014 36 8000 4.12 330 21:49 12.07.2022
1074 Clouds 37 1013 28 8000 4.12 340 20:54 12.07.2022
1075 Clouds 38 1013 23 8000 5.66 280 20:36 12.07.2022
1076 Clouds 40 1012 21 8000 4.63 270 18:53 12.07.2022
1077 Clouds 41 1012 20 8000 5.66 260 17:29 12.07.2022
1078 Clouds 38 1012 25 8000 4.12 300 15:35 12.07.2022
1079 Clouds 33 1013 35 8000 3.6 300 13:43 12.07.2022
1080 Clouds 30 1013 45 8000 1.54 320 11:55 12.07.2022
1081 Clouds 27 1013 54 8000 2.57 280 10:46 12.07.2022
1082 Clouds 24 1012 60 8000 3.6 270 09:18 12.07.2022
1083 Clouds 26 1011 50 8000 1.54 0 07:55 12.07.2022
1084 Clouds 25 1011 53 8000 1.54 270 05:53 12.07.2022
1085 Clouds 25 1011 53 8000 1.54 280 05:34 12.07.2022
1086 Clouds 28 1012 47 8000 2.57 250 01:36 12.07.2022
1087 Clouds 32 1011 35 8000 5.66 260 22:50 11.07.2022
1088 Clouds 37 1009 20 8000 5.66 310 21:37 11.07.2022
1089 Clouds 40 1008 17 8000 6.69 310 20:33 11.07.2022
1090 Clouds 42 1007 12 8000 6.69 280 19:28 11.07.2022
1091 Clouds 44 1008 8 8000 5.66 280 18:30 11.07.2022
1092 Clouds 44 1008 10 8000 2.57 320 16:34 11.07.2022
1093 Clouds 43 1009 10 8000 3.09 360 15:33 11.07.2022
1094 Clouds 41 1010 14 10000 2.06 0 13:27 11.07.2022
1095 Clouds 35 1011 18 8000 1.54 40 11:33 11.07.2022
1096 Clouds 30 1010 25 8000 1.54 60 10:18 11.07.2022
1097 Clouds 29 1010 24 8000 1.54 80 09:40 11.07.2022
1098 Clouds 26 1011 27 8000 1.54 70 08:33 11.07.2022
1099 Clear 31 1013 20 8000 3.09 240 02:59 11.07.2022
1100 Clouds 36 1013 19 8000 3.09 50 00:18 11.07.2022
1101 Clouds 38 1012 16 8000 4.12 30 22:52 10.07.2022
1102 Clouds 41 1011 9 8000 4.63 360 21:20 10.07.2022
1103 Clouds 43 1010 7 8000 4.12 350 20:41 10.07.2022
1104 Clouds 45 1011 6 8000 4.12 340 19:40 10.07.2022
1105 Clouds 45 1011 6 8000 3.09 0 18:43 10.07.2022
1106 Clouds 46 1012 8 8000 2.06 310 17:36 10.07.2022
1107 Clouds 44 1012 8 8000 3.09 340 16:41 10.07.2022
1108 Clouds 44 1013 7 8000 2.57 0 15:24 10.07.2022
1109 Clouds 43 1014 13 8000 1.54 0 13:48 10.07.2022
1110 Clouds 40 1014 14 10000 1.03 0 12:26 10.07.2022
1111 Clear 32 1014 22 8000 1.03 0 09:57 10.07.2022
1112 Clear 29 1014 23 8000 1.54 160 08:44 10.07.2022
1113 Clouds 29 1014 21 8000 1.03 0 07:30 10.07.2022
1114 Clouds 35 1016 17 8000 1.54 180 01:31 10.07.2022
1115 Clouds 39 1015 13 8000 3.6 10 22:43 09.07.2022
1116 Clouds 40 1015 12 8000 4.63 360 22:19 09.07.2022
1117 Clouds 43 1013 10 10000 5.14 360 20:45 09.07.2022
1118 Clouds 45 1013 10 10000 3.09 0 18:37 09.07.2022
1119 Clouds 45 1013 10 10000 3.6 340 17:45 09.07.2022
1120 Clouds 45 1014 10 10000 2.57 30 16:44 09.07.2022
1121 Clear 45 1015 11 10000 2.57 10 15:40 09.07.2022
1122 Clear 43 1016 13 10000 2.57 0 14:36 09.07.2022
1123 Clear 42 1016 13 10000 2.06 20 13:50 09.07.2022
1124 Clear 40 1016 15 10000 2.57 70 12:45 09.07.2022
1125 Clear 37 1017 20 10000 1.54 0 11:22 09.07.2022
1126 Clear 33 1017 24 10000 1.54 80 10:22 09.07.2022
1127 Clear 28 1016 34 10000 2.06 80 07:45 09.07.2022
1128 Clouds 30 1016 30 10000 0.51 0 04:59 09.07.2022
1129 Clouds 33 1018 22 10000 2.06 190 02:33 09.07.2022
1130 Clouds 39 1017 16 10000 2.57 330 22:54 08.07.2022
1131 Clouds 41 1015 14 10000 5.66 360 21:58 08.07.2022
1132 Clouds 43 1014 14 10000 6.17 360 20:41 08.07.2022
1133 Clouds 44 1014 13 10000 4.63 340 19:53 08.07.2022
1134 Clouds 45 1014 11 10000 2.57 0 18:24 08.07.2022
1135 Clouds 45 1015 11 10000 2.06 0 16:40 08.07.2022
1136 Clouds 43 1016 15 10000 2.06 350 14:53 08.07.2022
1137 Clear 41 1017 17 10000 1.54 320 13:29 08.07.2022
1138 Clear 36 1017 24 10000 1.54 30 11:42 08.07.2022
1139 Clear 33 1018 25 10000 2.57 120 10:28 08.07.2022
1140 Clear 26 1017 41 10000 1.03 0 08:33 08.07.2022
1141 Clear 27 1017 36 10000 1.03 0 06:50 08.07.2022
1142 Clouds 33 1019 24 10000 1.54 90 01:31 08.07.2022
1143 Clouds 36 1018 23 8000 4.12 20 22:59 07.07.2022
1144 Clouds 37 1018 22 8000 4.63 30 22:34 07.07.2022
1145 Clouds 41 1016 18 8000 5.14 330 20:35 07.07.2022
1146 Clouds 44 1016 16 10000 2.06 0 18:20 07.07.2022
1147 Clouds 43 1016 17 10000 3.6 310 16:53 07.07.2022
1148 Clear 38 1017 28 10000 2.57 360 14:35 07.07.2022
1149 Clear 35 1018 34 10000 1.54 310 13:18 07.07.2022
1150 Clear 33 1018 40 10000 1.54 0 12:24 07.07.2022
1151 Clear 33 1018 40 10000 1.54 0 12:24 07.07.2022
1152 Clear 32 1018 43 10000 1.54 300 11:45 07.07.2022
1153 Clouds 31 1018 42 10000 1.03 0 11:24 07.07.2022
1154 Clouds 29 1018 48 10000 1.03 0 10:41 07.07.2022
1155 Clouds 28 1018 51 10000 1.03 0 10:23 07.07.2022
1156 Clear 23 1017 56 10000 1.54 260 06:58 07.07.2022
1157 Clear 28 1019 44 10000 1.54 270 01:51 07.07.2022
1158 Clouds 30 1017 29 10000 4.45 17 23:36 06.07.2022
1159 Clouds 33 1017 33 10000 4.63 20 23:18 06.07.2022
1160 Clouds 33 1017 33 10000 4.63 20 22:52 06.07.2022
1161 Clouds 34 1017 31 10000 5.14 20 22:34 06.07.2022
1162 Clouds 38 1016 23 10000 2.57 340 20:36 06.07.2022
1163 Clouds 40 1016 22 10000 2.06 0 19:35 06.07.2022
1164 Clouds 39 1017 25 10000 2.06 0 17:32 06.07.2022
1165 Clouds 36 1018 32 10000 1.54 350 15:59 06.07.2022
1166 Clear 33 1019 38 10000 2.06 0 14:33 06.07.2022
1167 Clear 29 1019 48 10000 2.06 60 12:31 06.07.2022
1168 Clear 28 1019 47 10000 1.54 60 11:45 06.07.2022
1169 Clear 22 1019 68 10000 1.54 250 10:18 06.07.2022
1170 Clear 21 1018 64 10000 2.57 240 07:44 06.07.2022
1171 Clear 20 1018 68 10000 1.54 260 07:19 06.07.2022
1172 Clear 26 1019 50 10000 1.54 30 01:42 06.07.2022
1173 Clouds 30 1018 39 8000 4.12 350 22:45 05.07.2022
1174 Clouds 33 1018 33 8000 2.57 320 21:32 05.07.2022
1175 Clouds 33 1018 33 8000 2.57 320 21:32 05.07.2022
1176 Clouds 34 1017 33 8000 2.57 340 20:38 05.07.2022
1177 Clouds 34 1017 33 8000 3.09 360 19:41 05.07.2022
1178 Clouds 34 1018 33 8000 2.57 330 18:26 05.07.2022
1179 Clouds 34 1018 36 8000 3.09 330 17:41 05.07.2022
1180 Clouds 32 1018 40 8000 2.57 310 16:39 05.07.2022
1181 Clouds 31 1018 45 8000 2.57 360 15:24 05.07.2022
1182 Clear 28 1019 51 8000 2.06 310 13:47 05.07.2022
1183 Clouds 25 1019 61 8000 2.06 280 12:41 05.07.2022
1184 Clouds 21 1019 78 8000 2.57 260 10:46 05.07.2022
1185 Clouds 20 1019 77 8000 2.57 250 10:25 05.07.2022
1186 Clear 19 1018 77 8000 3.6 250 08:24 05.07.2022
1187 Clear 19 1018 77 8000 3.6 250 07:21 05.07.2022
1188 Clear 23 1017 60 8000 2.57 240 04:40 05.07.2022
1189 Clear 24 1017 57 8000 2.57 250 02:48 05.07.2022
1190 Clouds 29 1018 42 8000 3.09 30 23:42 04.07.2022
1191 Clouds 30 1017 39 8000 4.12 20 22:59 04.07.2022
1192 Clouds 33 1016 35 8000 4.12 360 22:20 04.07.2022
1193 Clouds 35 1016 29 8000 2.57 0 20:59 04.07.2022
1194 Clouds 35 1015 29 8000 2.57 320 20:38 04.07.2022
1195 Clouds 35 1015 29 8000 2.57 320 20:18 04.07.2022
1196 Clouds 35 1015 29 8000 1.54 0 19:43 04.07.2022
1197 Clouds 35 1016 29 8000 2.06 310 19:24 04.07.2022
1198 Clear 35 1016 29 8000 2.57 330 17:23 04.07.2022
1199 Clouds 34 1017 33 8000 2.06 0 15:41 04.07.2022
1200 Clear 30 1018 42 10000 2.06 0 14:21 04.07.2022
1201 Clear 29 1018 45 10000 2.57 0 13:20 04.07.2022
1202 Clear 27 1018 54 10000 1.03 0 11:43 04.07.2022
1203 Clear 22 1018 64 10000 2.06 260 10:33 04.07.2022
1204 Clear 20 1018 73 10000 2.06 270 09:33 04.07.2022
1205 Clear 19 1018 72 10000 3.6 240 06:42 04.07.2022
1206 Clear 24 1018 57 10000 3.09 230 02:59 04.07.2022
1207 Clouds 27 1019 47 8000 4.63 30 23:53 03.07.2022
1208 Clouds 27 1019 47 8000 4.63 30 23:53 03.07.2022
1209 Clouds 29 1018 42 8000 2.57 300 22:48 03.07.2022
1210 Clouds 32 1017 35 8000 2.06 360 20:46 03.07.2022
1211 Clouds 32 1018 35 8000 2.06 300 19:59 03.07.2022
1212 Clouds 32 1018 35 8000 3.09 290 19:25 03.07.2022
1213 Clouds 33 1018 35 8000 2.06 0 18:30 03.07.2022
1214 Clouds 34 1018 33 8000 2.57 0 17:41 03.07.2022
1215 Clouds 30 1019 45 8000 1.54 0 15:28 03.07.2022
1216 Clouds 29 1019 48 8000 1.54 0 14:53 03.07.2022
1217 Clear 27 1019 54 10000 2.57 0 13:50 03.07.2022
1218 Clear 26 1020 53 10000 1.03 0 12:49 03.07.2022
1219 Clear 24 1019 60 10000 2.06 0 12:19 03.07.2022
1220 Clear 23 1019 68 10000 1.03 0 10:54 03.07.2022
1221 Clear 21 1019 73 10000 1.03 0 10:36 03.07.2022
1222 Clear 18 1019 77 10000 2.57 240 07:38 03.07.2022
1223 Clear 18 1019 77 10000 2.57 240 06:52 03.07.2022
1224 Clear 23 1020 60 10000 2.57 320 00:41 03.07.2022
1225 Clouds 25 1020 53 8000 3.6 330 23:38 02.07.2022
1226 Clouds 26 1019 50 8000 5.14 310 22:31 02.07.2022
1227 Clouds 30 1017 42 8000 7.72 270 20:31 02.07.2022
1228 Clouds 32 1017 37 8000 4.12 280 19:49 02.07.2022
1229 Clouds 33 1017 35 8000 1.54 0 18:36 02.07.2022
1230 Clouds 32 1017 37 8000 3.09 0 17:39 02.07.2022
1231 Clouds 32 1017 40 8000 2.06 0 16:30 02.07.2022
1232 Clear 26 1017 53 8000 2.57 0 13:51 02.07.2022
1233 Clouds 22 1017 73 8000 1.54 0 11:51 02.07.2022
1234 Clouds 20 1018 83 6000 1.54 290 10:52 02.07.2022
1235 Clouds 19 1017 88 6000 2.06 300 10:25 02.07.2022
1236 Clouds 17 1017 88 4000 2.57 250 08:38 02.07.2022
1237 Clouds 17 1017 88 4000 2.57 250 08:19 02.07.2022
1238 Clear 19 1015 77 10000 4.63 250 04:19 02.07.2022
1239 Clear 25 1015 50 10000 2.57 330 00:28 02.07.2022
1240 Clear 26 1014 50 10000 3.6 340 23:26 01.07.2022
1241 Clear 29 1013 39 10000 3.09 20 22:35 01.07.2022
1242 Clear 32 1012 33 10000 1.54 0 21:38 01.07.2022
1243 Clear 32 1012 35 10000 2.57 300 20:59 01.07.2022
1244 Clear 32 1012 35 10000 2.06 0 20:34 01.07.2022
1245 Clear 33 1012 33 10000 2.06 0 19:38 01.07.2022
1246 Clear 32 1012 37 10000 2.06 0 17:18 01.07.2022
1247 Clear 27 1013 44 10000 2.06 0 14:34 01.07.2022
1248 Clear 25 1013 50 10000 2.57 350 13:54 01.07.2022
1249 Clear 22 1014 60 10000 1.03 0 11:22 01.07.2022
1250 Clear 19 1014 72 10000 1.03 0 10:19 01.07.2022
1251 Clear 16 1014 77 10000 2.06 250 07:38 01.07.2022
1252 Clear 21 1015 56 10000 2.57 50 02:43 01.07.2022
1253 Clear 22 1015 56 10000 3.09 30 00:21 01.07.2022
1254 Clear 24 1014 50 10000 5.14 360 22:52 30.06.2022
1255 Clear 25 1013 47 10000 5.66 360 22:32 30.06.2022
1256 Clear 26 1013 44 10000 6.17 350 21:54 30.06.2022
1257 Clear 30 1012 35 8000 4.12 20 20:53 30.06.2022
1258 Clear 30 1012 35 8000 2.06 0 20:22 30.06.2022
1259 Clear 31 1012 33 8000 3.6 10 19:51 30.06.2022
1260 Clear 31 1012 33 8000 3.09 340 19:18 30.06.2022
1261 Clear 31 1012 33 8000 3.09 0 18:34 30.06.2022
1262 Clear 29 1013 34 8000 2.06 0 17:37 30.06.2022
1263 Clear 28 1014 39 8000 2.06 0 16:22 30.06.2022
1264 Clear 26 1015 44 10000 3.09 360 14:20 30.06.2022
1265 Clear 25 1015 50 10000 2.06 0 13:29 30.06.2022
1266 Clear 23 1015 56 10000 2.57 0 12:34 30.06.2022
1267 Clouds 22 1015 60 10000 2.06 0 11:23 30.06.2022
1268 Clear 19 1015 72 10000 2.06 60 09:53 30.06.2022
1269 Clear 19 1015 72 10000 2.06 60 09:29 30.06.2022
1270 Clear 17 1015 77 10000 2.06 50 07:41 30.06.2022
1271 Clear 18 1015 72 10000 3.6 20 05:47 30.06.2022
1272 Clear 23 1016 56 10000 4.63 50 00:27 30.06.2022
1273 Clear 25 1015 50 10000 5.14 360 22:58 29.06.2022
1274 Clear 26 1014 44 10000 5.66 360 22:37 29.06.2022
1275 Clear 29 1014 37 10000 6.69 360 21:31 29.06.2022
1276 Clear 32 1013 29 10000 3.6 360 20:33 29.06.2022
1277 Clear 32 1013 29 10000 3.6 360 20:33 29.06.2022
1278 Clouds 31 1013 29 10000 3.09 300 19:34 29.06.2022
1279 Clear 31 1015 29 10000 3.09 0 17:40 29.06.2022
1280 Clear 30 1015 28 10000 3.09 360 16:35 29.06.2022
1281 Clear 29 1016 32 10000 2.06 0 14:50 29.06.2022
1282 Clear 24 1017 50 10000 2.06 0 12:39 29.06.2022
1283 Clear 20 1017 68 10000 1.03 0 10:25 29.06.2022
1284 Clear 18 1017 72 10000 2.57 250 09:31 29.06.2022
1285 Clear 17 1017 63 10000 3.09 240 07:30 29.06.2022
1286 Clear 20 1017 52 10000 2.57 30 04:49 29.06.2022
1287 Clear 23 1018 49 10000 3.6 30 00:55 29.06.2022
1288 Clear 23 1018 49 10000 4.63 30 00:35 29.06.2022
1289 Clear 26 1017 44 10000 5.14 30 22:53 28.06.2022
1290 Clear 27 1016 41 10000 5.14 360 22:21 28.06.2022
1291 Clear 29 1016 39 10000 5.14 360 21:50 28.06.2022
1292 Clear 31 1016 33 10000 5.14 360 21:30 28.06.2022
1293 Clear 32 1015 27 10000 1.54 0 20:20 28.06.2022
1294 Clear 32 1015 27 10000 3.09 30 19:32 28.06.2022
1295 Clear 32 1015 27 10000 3.09 30 19:32 28.06.2022
1296 Clear 34 1015 27 10000 1.54 0 18:44 28.06.2022
1297 Clear 31 1016 33 10000 3.09 0 17:38 28.06.2022
1298 Clear 29 1016 37 10000 2.57 0 15:56 28.06.2022
1299 Clear 29 1016 37 10000 2.57 0 15:56 28.06.2022
1300 Clear 28 1017 42 10000 2.06 0 14:59 28.06.2022
1301 Clear 25 1018 50 10000 1.54 360 14:20 28.06.2022
1302 Clear 25 1018 50 10000 1.54 360 13:49 28.06.2022
1303 Clear 23 1018 56 10000 2.06 0 12:48 28.06.2022
1304 Clear 20 1017 64 10000 2.06 0 10:46 28.06.2022
1305 Clear 18 1017 68 10000 2.06 240 09:25 28.06.2022
1306 Clear 17 1017 67 10000 1.54 240 08:43 28.06.2022
1307 Clear 16 1017 72 10000 2.06 250 07:26 28.06.2022
1308 Clear 18 1017 63 10000 2.57 40 04:59 28.06.2022
1309 Clear 21 1018 56 10000 4.63 40 23:59 27.06.2022
1310 Clear 22 1017 53 10000 5.14 40 23:36 27.06.2022
1311 Clear 23 1017 49 10000 5.66 20 22:51 27.06.2022
1312 Clear 28 1016 36 10000 4.12 350 21:33 27.06.2022
1313 Clear 30 1015 35 10000 2.57 40 20:44 27.06.2022
1314 Clear 31 1016 33 10000 3.6 0 18:58 27.06.2022
1315 Clouds 30 1016 35 8000 2.57 30 17:46 27.06.2022
1316 Clouds 27 1017 41 8000 3.09 90 16:18 27.06.2022
1317 Clouds 25 1018 44 8000 5.14 40 14:44 27.06.2022
1318 Clouds 23 1018 53 8000 3.6 10 13:25 27.06.2022
1319 Clouds 22 1018 53 8000 3.6 20 12:52 27.06.2022
1320 Clouds 18 1018 68 8000 3.09 50 10:22 27.06.2022
1321 Clouds 17 1018 67 8000 4.12 50 08:47 27.06.2022
1322 Clouds 16 1017 72 8000 3.6 50 07:59 27.06.2022
1323 Clouds 17 1017 67 10000 4.12 30 06:38 27.06.2022
1324 Clouds 19 1017 63 10000 4.12 30 01:55 27.06.2022
1325 Clouds 21 1016 56 10000 4.63 40 23:49 26.06.2022
1326 Clouds 25 1014 47 10000 6.17 10 21:58 26.06.2022
1327 Clouds 29 1012 37 10000 6.69 360 20:34 26.06.2022
1328 Clouds 31 1012 35 10000 3.09 360 19:23 26.06.2022
1329 Clouds 30 1012 37 10000 2.57 0 18:24 26.06.2022
1330 Clouds 28 1014 42 10000 2.57 0 15:53 26.06.2022
1331 Clouds 26 1014 47 10000 2.06 0 14:34 26.06.2022
1332 Clouds 25 1015 50 10000 2.57 60 13:30 26.06.2022
1333 Clouds 24 1015 53 10000 2.06 0 12:44 26.06.2022
1334 Clouds 21 1015 64 10000 3.09 40 11:21 26.06.2022
1335 Clear 20 1015 64 10000 3.6 30 10:23 26.06.2022
1336 Clear 18 1014 72 10000 3.09 70 08:45 26.06.2022
1337 Clouds 18 1014 72 10000 3.09 30 07:23 26.06.2022
1338 Clouds 22 1015 56 10000 3.6 10 00:48 26.06.2022
1339 Clouds 22 1015 53 10000 4.63 30 00:20 26.06.2022
1340 Clouds 24 1014 50 10000 5.14 30 23:33 25.06.2022
1341 Clouds 25 1013 47 10000 5.14 20 22:51 25.06.2022
1342 Clouds 26 1013 44 10000 5.66 20 22:26 25.06.2022
1343 Clouds 30 1012 35 10000 5.14 360 21:23 25.06.2022
1344 Clouds 30 1012 35 10000 5.14 360 20:59 25.06.2022
1345 Clouds 31 1012 33 10000 4.12 20 20:25 25.06.2022
1346 Clouds 31 1012 33 10000 2.57 20 18:45 25.06.2022
1347 Clouds 30 1013 35 10000 3.6 360 17:28 25.06.2022
1348 Clouds 31 1013 35 10000 2.06 0 16:44 25.06.2022
1349 Clouds 28 1014 39 10000 3.09 0 14:50 25.06.2022
1350 Clouds 24 1015 57 10000 2.06 0 12:56 25.06.2022
1351 Clouds 23 1015 60 10000 2.57 340 12:37 25.06.2022
1352 Clear 20 1016 68 10000 2.06 10 10:30 25.06.2022
1353 Clear 18 1015 72 10000 2.06 70 08:56 25.06.2022
1354 Clear 18 1015 72 10000 2.06 50 08:29 25.06.2022
1355 Clear 18 1015 72 10000 2.57 70 06:53 25.06.2022
1356 Clouds 19 1017 72 10000 3.6 20 03:26 25.06.2022
1357 Clouds 22 1017 60 10000 4.63 40 00:21 25.06.2022
1358 Clouds 26 1015 47 10000 6.69 360 22:31 24.06.2022
1359 Clear 30 1014 32 10000 2.57 20 21:31 24.06.2022
1360 Clouds 31 1014 30 10000 3.09 60 20:25 24.06.2022
1361 Clouds 31 1014 30 10000 3.6 40 19:52 24.06.2022
1362 Clouds 31 1015 30 10000 4.12 50 19:19 24.06.2022
1363 Clouds 31 1015 30 10000 4.12 50 18:47 24.06.2022
1364 Clouds 31 1015 30 10000 2.06 0 18:29 24.06.2022
1365 Clouds 30 1016 35 10000 3.09 360 16:57 24.06.2022
1366 Clouds 27 1017 41 10000 3.09 0 15:28 24.06.2022
1367 Clouds 26 1018 47 10000 2.57 0 14:25 24.06.2022
1368 Clear 26 1018 47 10000 3.6 20 13:53 24.06.2022
1369 Clouds 23 1018 56 10000 2.06 0 11:42 24.06.2022
1370 Clouds 23 1019 60 10000 1.03 0 10:43 24.06.2022
1371 Clouds 20 1019 64 10000 1.54 120 09:42 24.06.2022
1372 Clouds 19 1019 68 10000 2.06 30 08:58 24.06.2022
1373 Clouds 19 1019 68 10000 1.54 30 08:40 24.06.2022
1374 Clear 19 1019 68 10000 2.06 250 06:47 24.06.2022
1375 Clear 18 1019 68 10000 2.06 260 06:27 24.06.2022
1376 Clear 19 1019 63 10000 2.06 240 05:21 24.06.2022
1377 Clear 21 1020 56 10000 4.12 300 00:47 24.06.2022
1378 Clear 25 1018 47 10000 5.14 350 22:44 23.06.2022
1379 Clouds 29 1017 30 10000 4.12 270 21:43 23.06.2022
1380 Clear 30 1016 28 10000 2.57 310 20:43 23.06.2022
1381 Clear 31 1016 25 10000 4.12 270 19:57 23.06.2022
1382 Clear 31 1016 30 10000 2.57 0 18:43 23.06.2022
1383 Clear 30 1017 30 10000 3.09 310 17:37 23.06.2022
1384 Clear 28 1017 34 10000 3.09 0 16:32 23.06.2022
1385 Clear 28 1017 36 10000 2.06 0 15:27 23.06.2022
1386 Clear 27 1017 39 10000 2.06 0 14:51 23.06.2022
1387 Clear 22 1018 56 10000 2.06 0 11:54 23.06.2022
1388 Clear 20 1018 64 10000 1.54 0 10:56 23.06.2022
1389 Clear 17 1017 72 10000 2.57 240 09:20 23.06.2022
1390 Clear 16 1016 72 10000 3.09 240 05:51 23.06.2022
1391 Clear 21 1017 52 10000 3.6 260 01:22 23.06.2022
1392 Clear 22 1017 49 10000 3.09 300 00:25 23.06.2022
1393 Clear 24 1016 43 10000 4.63 330 23:22 22.06.2022
1394 Clouds 28 1015 34 10000 5.66 260 21:44 22.06.2022
1395 Clouds 29 1014 30 10000 4.63 250 20:52 22.06.2022
1396 Clouds 30 1014 28 10000 4.63 280 20:20 22.06.2022
1397 Clouds 30 1014 28 10000 4.63 260 19:44 22.06.2022
1398 Clouds 30 1015 32 10000 4.12 280 17:50 22.06.2022
1399 Clouds 29 1016 37 10000 2.57 0 16:50 22.06.2022
1400 Clouds 28 1016 42 10000 2.06 0 15:29 22.06.2022
1401 Clouds 26 1016 47 10000 2.57 0 14:57 22.06.2022
1402 Clouds 25 1017 50 10000 2.57 0 13:49 22.06.2022
1403 Clouds 24 1017 53 10000 2.06 0 13:24 22.06.2022
1404 Clouds 23 1017 56 10000 1.54 0 12:31 22.06.2022
1405 Clouds 22 1017 56 10000 1.54 0 11:45 22.06.2022
1406 Clouds 21 1017 60 10000 1.54 0 10:50 22.06.2022
1407 Clear 19 1017 68 10000 0.51 0 09:42 22.06.2022
1408 Clear 16 1016 77 10000 3.09 230 07:22 22.06.2022
1409 Clear 21 1016 56 10000 2.57 360 02:39 22.06.2022
1410 Clouds 22 1016 56 10000 3.6 30 01:19 22.06.2022
1411 Clouds 27 1015 47 10000 1.54 350 22:57 21.06.2022
1412 Clouds 28 1015 44 10000 3.09 320 21:21 21.06.2022
1413 Clouds 30 1014 39 10000 2.57 310 19:30 21.06.2022
1414 Clouds 29 1014 42 10000 2.57 0 17:56 21.06.2022
1415 Clouds 29 1014 42 10000 2.57 350 16:49 21.06.2022
1416 Clear 24 1015 57 10000 3.09 250 12:23 21.06.2022
1417 Clouds 22 1016 60 10000 3.6 270 10:55 21.06.2022
1418 Clouds 20 1015 68 10000 4.63 250 09:39 21.06.2022
1419 Clouds 20 1014 68 10000 3.6 280 07:56 21.06.2022
1420 Clouds 21 1013 68 10000 2.57 260 05:33 21.06.2022
1421 Clouds 26 1014 53 10000 4.63 30 00:35 21.06.2022
1422 Clouds 28 1013 44 10000 4.12 40 22:22 20.06.2022
1423 Clouds 29 1013 42 10000 4.12 20 21:41 20.06.2022
1424 Clouds 31 1013 37 10000 4.63 320 20:30 20.06.2022
1425 Clouds 32 1013 37 10000 3.6 320 19:37 20.06.2022
1426 Clouds 31 1013 37 10000 2.06 0 18:44 20.06.2022
1427 Clouds 32 1014 37 10000 3.6 0 17:50 20.06.2022
1428 Clouds 32 1014 40 10000 1.54 0 16:53 20.06.2022
1429 Clouds 30 1015 42 10000 2.06 320 15:52 20.06.2022
1430 Clear 25 1015 61 10000 2.06 0 12:38 20.06.2022
1431 Clouds 22 1015 73 10000 2.06 300 10:32 20.06.2022
1432 Clouds 20 1015 77 10000 3.09 250 08:56 20.06.2022
1433 Clear 20 1015 73 8000 4.12 230 07:53 20.06.2022
1434 Clear 21 1013 64 8000 3.09 240 05:35 20.06.2022
1435 Clouds 26 1014 44 10000 2.06 40 01:33 20.06.2022
1436 Clouds 26 1014 44 10000 3.09 30 00:25 20.06.2022
1437 Clouds 28 1014 39 10000 4.12 30 22:46 19.06.2022
1438 Clouds 30 1013 37 10000 4.63 10 21:51 19.06.2022
1439 Clouds 31 1013 35 10000 5.14 350 21:31 19.06.2022
1440 Clouds 34 1011 27 10000 4.63 350 20:38 19.06.2022
1441 Clouds 35 1012 26 10000 3.6 340 19:47 19.06.2022
1442 Clouds 35 1012 28 10000 3.6 300 18:43 19.06.2022
1443 Clouds 36 1012 26 10000 4.12 330 17:48 19.06.2022
1444 Clouds 36 1012 26 10000 3.6 310 17:22 19.06.2022
1445 Clouds 35 1013 29 10000 3.6 300 16:35 19.06.2022
1446 Clouds 35 1013 34 10000 2.57 350 15:41 19.06.2022
1447 Clouds 34 1013 36 10000 2.06 0 14:57 19.06.2022
1448 Clouds 33 1013 38 8000 1.54 0 14:19 19.06.2022
1449 Clear 31 1014 42 8000 2.06 0 13:21 19.06.2022
1450 Clear 26 1014 53 8000 1.03 0 10:55 19.06.2022
1451 Clear 22 1015 64 8000 2.06 260 09:46 19.06.2022
1452 Clouds 21 1015 68 10000 3.09 240 08:47 19.06.2022
1453 Clouds 20 1015 68 10000 3.09 250 07:59 19.06.2022
1454 Clouds 23 1014 56 10000 1.54 270 05:37 19.06.2022
1455 Clouds 27 1016 47 10000 1.54 50 01:29 19.06.2022
1456 Clouds 27 1017 47 10000 2.57 40 00:24 19.06.2022
1457 Clouds 28 1016 44 10000 2.57 20 23:36 18.06.2022
1458 Clouds 29 1015 45 10000 4.12 360 22:39 18.06.2022
1459 Clear 34 1014 36 10000 4.12 340 20:57 18.06.2022
1460 Clear 36 1014 30 10000 3.09 340 20:38 18.06.2022
1461 Clear 36 1014 30 10000 4.12 340 19:38 18.06.2022
1462 Clear 37 1014 30 10000 5.14 300 18:45 18.06.2022
1463 Clear 37 1014 30 10000 3.09 0 17:35 18.06.2022
1464 Clear 36 1014 32 10000 4.63 300 16:56 18.06.2022
1465 Clear 34 1015 36 10000 3.09 310 15:33 18.06.2022
1466 Clear 32 1015 45 10000 2.06 310 14:45 18.06.2022
1467 Clear 30 1016 51 10000 1.54 0 13:23 18.06.2022
1468 Clear 27 1017 57 10000 1.54 0 11:45 18.06.2022
1469 Clear 25 1017 65 10000 1.03 0 10:55 18.06.2022
1470 Clear 22 1017 73 10000 0.51 0 09:27 18.06.2022
1471 Clear 20 1016 77 10000 1.54 270 08:30 18.06.2022
1472 Clear 21 1016 73 10000 1.03 0 06:49 18.06.2022
1473 Clear 23 1017 64 10000 2.06 250 03:46 18.06.2022
1474 Clouds 26 1018 57 10000 1.54 70 01:26 18.06.2022
1475 Clouds 26 1018 57 10000 1.54 70 01:26 18.06.2022
1476 Clouds 26 1018 57 10000 1.54 70 01:26 18.06.2022
1477 Clouds 26 1018 57 10000 1.54 70 01:26 18.06.2022
1478 Clouds 26 1018 57 10000 2.06 70 00:48 18.06.2022
1479 Clouds 27 1018 54 10000 3.09 40 23:58 17.06.2022
1480 Clouds 29 1017 48 8000 1.54 10 23:24 17.06.2022
1481 Clouds 33 1015 38 10000 4.63 10 21:18 17.06.2022
1482 Clouds 35 1014 31 10000 4.63 330 20:24 17.06.2022
1483 Clouds 38 1014 28 10000 3.6 320 18:49 17.06.2022
1484 Clouds 38 1014 28 10000 4.12 320 17:44 17.06.2022
1485 Clear 37 1014 30 10000 3.09 300 16:43 17.06.2022
1486 Clear 37 1014 30 10000 3.09 300 16:43 17.06.2022
1487 Clear 33 1015 40 10000 2.57 330 15:49 17.06.2022
1488 Clear 33 1015 40 10000 2.57 330 15:22 17.06.2022
1489 Clear 31 1015 45 10000 2.06 0 14:20 17.06.2022
1490 Clear 30 1016 48 10000 1.54 0 14:20 17.06.2022
1491 Clear 30 1016 48 10000 1.54 0 13:46 17.06.2022
1492 Clear 29 1016 51 10000 2.06 0 13:24 17.06.2022
1493 Clear 25 1017 65 10000 2.57 260 11:58 17.06.2022
1494 Clear 24 1017 64 10000 1.54 0 11:36 17.06.2022
1495 Clear 23 1017 68 10000 2.06 270 10:52 17.06.2022
1496 Clear 19 1016 77 10000 3.09 250 08:30 17.06.2022
1497 Clear 19 1016 77 10000 3.09 250 07:48 17.06.2022
1498 Clear 20 1016 73 10000 2.57 260 06:22 17.06.2022
1499 Clear 25 1017 57 10000 2.57 80 03:19 17.06.2022
1500 Clouds 27 1018 54 10000 3.6 60 00:43 17.06.2022
1501 Clouds 30 1017 42 10000 2.06 340 22:45 16.06.2022
1502 Clouds 30 1016 45 10000 2.57 340 22:26 16.06.2022
1503 Clouds 31 1016 42 10000 1.03 0 21:19 16.06.2022
1504 Clouds 31 1016 42 10000 1.54 340 20:50 16.06.2022
1505 Clouds 31 1016 42 10000 2.57 270 19:59 16.06.2022
1506 Clouds 32 1016 43 10000 2.06 0 18:44 16.06.2022
1507 Clouds 32 1016 43 10000 3.09 0 17:44 16.06.2022
1508 Clouds 32 1017 45 8000 2.57 0 17:20 16.06.2022
1509 Clouds 30 1017 51 8000 3.09 260 15:44 16.06.2022
1510 Clouds 30 1017 51 8000 3.09 260 15:20 16.06.2022
1511 Clear 29 1017 54 10000 2.57 0 13:55 16.06.2022
1512 Clear 25 1017 65 10000 3.6 290 12:47 16.06.2022
1513 Clear 25 1017 65 10000 3.6 290 12:20 16.06.2022
1514 Clear 23 1017 73 8000 3.6 270 11:21 16.06.2022
1515 Clear 21 1017 78 8000 3.09 280 10:35 16.06.2022
1516 Clear 20 1017 77 8000 3.6 270 09:39 16.06.2022
1517 Clear 19 1016 82 8000 3.6 260 08:50 16.06.2022
1518 Clouds 19 1016 82 8000 2.57 250 07:38 16.06.2022
1519 Clouds 20 1016 77 8000 2.57 260 05:48 16.06.2022
1520 Clouds 23 1017 68 8000 3.09 100 03:44 16.06.2022
1521 Clouds 23 1018 68 8000 2.06 90 01:52 16.06.2022
1522 Clouds 23 1018 68 8000 2.06 90 01:52 16.06.2022
1523 Clouds 23 1018 68 8000 3.6 110 01:22 16.06.2022
1524 Clouds 23 1019 68 8000 2.06 260 23:58 15.06.2022
1525 Clouds 23 1018 68 8000 3.09 270 22:53 15.06.2022
1526 Clouds 25 1018 61 8000 4.63 300 21:34 15.06.2022
1527 Clouds 26 1017 57 8000 4.63 280 20:59 15.06.2022
1528 Clouds 26 1017 61 8000 4.63 300 20:36 15.06.2022
1529 Clouds 27 1017 57 8000 4.63 280 19:57 15.06.2022
1530 Clouds 29 1016 51 8000 6.69 280 18:37 15.06.2022
1531 Clouds 30 1016 51 8000 7.72 270 17:46 15.06.2022
1532 Clouds 29 1016 58 8000 5.66 290 16:23 15.06.2022
1533 Clouds 26 1016 65 8000 3.09 280 14:57 15.06.2022
1534 Clouds 23 1017 78 5000 5.66 260 13:29 15.06.2022
1535 Clouds 23 1017 78 5000 4.12 270 12:47 15.06.2022
1536 Clouds 22 1016 83 5000 5.14 270 11:25 15.06.2022
1537 Clouds 22 1016 78 8000 6.69 280 10:22 15.06.2022
1538 Clouds 23 1015 68 8000 6.69 260 08:59 15.06.2022
1539 Clouds 29 1013 39 8000 5.14 120 07:36 15.06.2022
1540 Clouds 27 1014 47 8000 5.14 250 05:57 15.06.2022
1541 Clouds 29 1014 39 8000 8.23 80 02:54 15.06.2022
1542 Clouds 29 1016 45 8000 5.66 70 01:36 15.06.2022
1543 Clouds 29 1017 45 7000 2.57 80 00:36 15.06.2022
1544 Clouds 30 1016 42 7000 5.14 70 23:38 14.06.2022
1545 Clouds 30 1015 42 7000 3.6 30 22:47 14.06.2022
1546 Clouds 29 1016 51 6000 5.14 270 21:43 14.06.2022
1547 Clouds 30 1015 45 6000 7.2 290 21:20 14.06.2022
1548 Rain 32 1016 43 5000 7.72 230 20:40 14.06.2022
1549 Clouds 35 1013 31 6000 5.14 290 19:47 14.06.2022
1550 Clouds 36 1013 30 6000 3.6 320 18:40 14.06.2022
1551 Clouds 37 1013 20 6000 2.57 210 17:19 14.06.2022
1552 Clouds 38 1013 18 6000 2.06 90 16:42 14.06.2022
1553 Clouds 30 1015 51 8000 2.06 280 15:43 14.06.2022
1554 Clouds 29 1016 54 8000 3.6 260 14:56 14.06.2022
1555 Clouds 28 1015 57 8000 4.63 260 14:18 14.06.2022
1556 Clouds 27 1016 61 8000 3.09 0 13:24 14.06.2022
1557 Clouds 28 1015 57 8000 2.57 280 11:58 14.06.2022
1558 Clouds 27 1015 61 8000 1.03 0 10:52 14.06.2022
1559 Clouds 26 1015 65 8000 1.03 0 10:29 14.06.2022
1560 Clouds 23 1015 73 8000 1.54 230 09:22 14.06.2022
1561 Clouds 22 1015 73 8000 3.6 260 08:37 14.06.2022
1562 Clouds 24 1013 69 10000 1.54 290 06:32 14.06.2022
1563 Clouds 25 1014 65 10000 2.06 240 03:52 14.06.2022
1564 Clouds 26 1016 61 8000 1.03 0 01:38 14.06.2022
1565 Clouds 27 1016 57 8000 2.06 330 00:24 14.06.2022
1566 Clouds 28 1016 54 7000 4.63 260 22:58 13.06.2022
1567 Clouds 28 1015 54 7000 7.72 260 22:23 13.06.2022
1568 Clouds 36 1014 21 7000 3.6 100 21:39 13.06.2022
1569 Thunderstorm 35 1014 23 6000 7.72 60 19:59 13.06.2022
1570 Thunderstorm 32 1015 43 7000 5.14 230 18:54 13.06.2022
1571 Clouds 35 1014 38 8000 2.57 0 17:56 13.06.2022
1572 Clouds 33 1014 40 8000 3.6 280 17:24 13.06.2022
1573 Clouds 33 1015 40 8000 3.6 290 16:30 13.06.2022
1574 Clouds 30 1015 51 8000 4.12 290 14:51 13.06.2022
1575 Clouds 29 1016 54 8000 4.63 270 14:31 13.06.2022
1576 Clouds 28 1016 57 8000 5.66 270 13:33 13.06.2022
1577 Clouds 37 1013 17 10000 4.59 277 12:23 13.06.2022
1578 Clouds 37 1013 15 10000 3.67 247 10:56 13.06.2022
1579 Haze 26 1014 53 4000 6.69 270 10:26 13.06.2022
1580 Clouds 30 1013 32 8000 3.09 100 08:52 13.06.2022
1581 Clouds 29 1013 39 10000 4.12 110 06:37 13.06.2022
1582 Clouds 29 1014 39 10000 5.66 100 05:35 13.06.2022
1583 Clouds 29 1018 51 8000 2.06 120 01:55 13.06.2022
1584 Clouds 29 1018 51 8000 1.54 0 01:34 13.06.2022
1585 Thunderstorm 30 1017 48 8000 2.06 80 23:48 12.06.2022
1586 Clouds 30 1017 51 8000 2.06 120 22:44 12.06.2022
1587 Thunderstorm 29 1017 54 8000 1.54 0 21:53 12.06.2022
1588 Clouds 29 1015 54 8000 6.17 260 20:53 12.06.2022
1589 Clouds 33 1015 43 8000 2.57 280 19:59 12.06.2022
1590 Clouds 32 1015 43 8000 3.6 280 19:30 12.06.2022
1591 Thunderstorm 33 1015 43 8000 5.66 240 17:40 12.06.2022
1592 Clouds 34 1014 40 8000 4.12 290 15:54 12.06.2022
1593 Clouds 32 1015 45 8000 3.6 280 14:51 12.06.2022
1594 Clouds 31 1015 48 8000 3.6 300 14:19 12.06.2022
1595 Clouds 29 1016 54 8000 4.12 280 13:46 12.06.2022
1596 Clouds 26 1016 65 8000 3.6 290 12:31 12.06.2022
1597 Clouds 23 1016 73 8000 3.6 280 11:22 12.06.2022
1598 Clouds 22 1016 78 10000 2.06 260 10:21 12.06.2022
1599 Clouds 20 1015 83 10000 3.09 280 08:52 12.06.2022
1600 Clouds 19 1015 82 10000 3.09 250 08:34 12.06.2022
1601 Clear 21 1014 73 10000 4.12 270 06:49 12.06.2022
1602 Clear 26 1013 47 10000 3.09 290 04:35 12.06.2022
1603 Clouds 28 1014 54 10000 3.6 80 02:32 12.06.2022
1604 Clouds 28 1015 51 10000 1.54 30 01:36 12.06.2022
1605 Clouds 28 1016 54 10000 2.57 280 00:58 12.06.2022
1606 Clouds 29 1016 51 10000 4.12 280 00:19 12.06.2022
1607 Clouds 31 1015 45 10000 3.6 130 23:21 11.06.2022
1608 Clouds 30 1014 48 10000 2.06 10 22:38 11.06.2022
1609 Clouds 30 1014 48 10000 2.06 10 22:38 11.06.2022
1610 Clouds 30 1014 48 8000 6.69 250 21:36 11.06.2022
1611 Clouds 33 1013 40 6000 4.12 250 20:27 11.06.2022
1612 Clouds 35 1013 38 7000 4.12 280 19:37 11.06.2022
1613 Clouds 36 1012 34 7000 3.09 360 18:50 11.06.2022
1614 Thunderstorm 36 1013 34 7000 5.14 0 18:31 11.06.2022
1615 Thunderstorm 34 1012 40 7000 7.72 260 17:49 11.06.2022
1616 Thunderstorm 35 1013 36 8000 5.14 220 17:26 11.06.2022
1617 Thunderstorm 35 1013 36 8000 5.14 220 17:26 11.06.2022
1618 Thunderstorm 36 1012 36 8000 5.66 260 16:44 11.06.2022
1619 Thunderstorm 35 1012 38 8000 3.09 270 16:25 11.06.2022
1620 Clouds 35 1012 38 8000 4.63 280 15:18 11.06.2022
1621 Clouds 33 1013 46 10000 2.57 310 13:52 11.06.2022
1622 Clear 27 1014 61 10000 2.57 300 12:19 11.06.2022
1623 Clouds 24 1014 69 10000 2.57 300 10:40 11.06.2022
1624 Clouds 23 1014 68 10000 3.09 270 09:42 11.06.2022
1625 Clouds 23 1014 68 10000 2.57 250 08:45 11.06.2022
1626 Clouds 22 1013 73 10000 2.57 260 06:34 11.06.2022
1627 Clouds 22 1013 73 10000 2.57 280 05:58 11.06.2022
1628 Clouds 23 1013 68 10000 2.06 240 03:45 11.06.2022
1629 Clouds 25 1014 61 10000 4.12 250 01:52 11.06.2022
1630 Clouds 26 1014 57 10000 3.6 240 01:26 11.06.2022
1631 Clouds 31 1014 45 10000 3.09 280 23:28 10.06.2022
1632 Clouds 32 1013 43 10000 4.63 250 22:27 10.06.2022
1633 Clouds 33 1013 40 10000 4.12 280 21:46 10.06.2022
1634 Clouds 38 1012 28 10000 2.57 330 20:39 10.06.2022
1635 Clouds 38 1012 28 10000 2.57 350 20:20 10.06.2022
1636 Clouds 38 1012 28 10000 2.57 300 19:19 10.06.2022
1637 Clouds 38 1012 28 10000 2.57 300 18:46 10.06.2022
1638 Clouds 37 1012 32 10000 2.06 0 17:54 10.06.2022
1639 Clouds 37 1013 32 10000 2.57 0 17:23 10.06.2022
1640 Clouds 35 1013 36 10000 3.09 0 16:28 10.06.2022
1641 Clear 33 1013 40 10000 2.06 0 15:40 10.06.2022
1642 Clear 31 1014 45 10000 2.06 0 14:28 10.06.2022
1643 Clear 28 1014 54 10000 3.09 290 12:58 10.06.2022
1644 Clear 26 1014 61 10000 2.57 320 11:59 10.06.2022
1645 Clear 24 1015 69 10000 2.57 270 10:51 10.06.2022
1646 Clear 22 1015 73 10000 3.09 260 09:57 10.06.2022
1647 Clear 20 1014 77 10000 3.6 250 08:48 10.06.2022
1648 Clear 20 1014 77 10000 3.09 250 07:41 10.06.2022
1649 Clear 21 1013 73 10000 2.57 260 06:46 10.06.2022
1650 Clear 22 1013 68 10000 2.57 240 06:27 10.06.2022
1651 Clear 22 1014 68 10000 2.57 250 04:47 10.06.2022
1652 Clear 27 1015 50 10000 2.57 50 01:59 10.06.2022
1653 Clear 27 1015 50 10000 2.06 20 01:36 10.06.2022
1654 Clear 27 1015 50 10000 2.06 20 01:36 10.06.2022
1655 Clear 28 1016 47 10000 3.09 30 23:57 09.06.2022
1656 Clouds 30 1014 42 8000 4.12 10 22:24 09.06.2022
1657 Clouds 33 1013 38 8000 5.14 30 21:38 09.06.2022
1658 Clouds 33 1013 38 8000 5.14 30 21:18 09.06.2022
1659 Clouds 35 1012 34 6000 6.17 350 20:36 09.06.2022
1660 Clouds 36 1012 30 6000 6.17 330 19:41 09.06.2022
1661 Clouds 39 1012 19 10000 2.06 0 18:36 09.06.2022
1662 Clouds 37 1013 20 10000 3.6 50 17:28 09.06.2022
1663 Clouds 36 1013 23 10000 3.09 0 16:28 09.06.2022
1664 Clear 34 1014 29 10000 3.09 0 14:45 09.06.2022
1665 Clear 33 1014 31 10000 3.09 350 14:24 09.06.2022
1666 Clear 31 1015 35 10000 3.09 330 13:30 09.06.2022
1667 Clear 31 1015 35 10000 1.54 0 12:51 09.06.2022
1668 Clear 27 1015 41 10000 2.06 0 11:20 09.06.2022
1669 Clear 24 1016 46 10000 2.57 50 09:55 09.06.2022
1670 Clear 24 1016 46 10000 2.57 50 09:55 09.06.2022
1671 Clear 24 1016 46 10000 2.57 60 09:37 09.06.2022
1672 Clear 22 1015 53 10000 2.06 70 08:33 09.06.2022
1673 Clear 22 1015 53 10000 2.06 70 07:24 09.06.2022
1674 Clear 23 1017 50 10000 2.75 31 03:29 09.06.2022
1675 Clear 27 1018 41 10000 5.14 50 00:32 09.06.2022
1676 Clear 28 1018 42 10000 5.14 30 23:18 08.06.2022
1677 Clear 29 1017 39 10000 5.66 30 22:42 08.06.2022
1678 Clear 31 1016 35 10000 7.2 30 22:23 08.06.2022
1679 Clear 33 1016 31 10000 6.69 360 21:32 08.06.2022
1680 Clear 36 1016 20 10000 3.09 60 20:25 08.06.2022
1681 Clear 37 1016 19 10000 2.57 0 19:40 08.06.2022
1682 Clear 37 1016 20 10000 2.06 20 18:48 08.06.2022
1683 Clear 35 1016 21 10000 3.6 60 17:38 08.06.2022
1684 Clear 34 1017 26 10000 3.6 40 15:53 08.06.2022
1685 Clear 32 1018 31 10000 1.54 0 14:38 08.06.2022
1686 Clear 29 1019 39 10000 1.54 0 12:55 08.06.2022
1687 Clear 26 1020 53 10000 1.03 0 11:36 08.06.2022
1688 Clear 25 1020 57 10000 1.03 0 10:46 08.06.2022
1689 Clear 20 1019 73 10000 1.54 230 09:28 08.06.2022
1690 Clear 19 1019 72 10000 2.06 250 08:54 08.06.2022
1691 Clear 20 1018 64 10000 2.06 260 06:56 08.06.2022
1692 Clear 23 1018 56 10000 1.54 30 04:41 08.06.2022
1693 Clear 26 1019 44 10000 2.57 60 01:25 08.06.2022
1694 Clear 28 1018 39 10000 5.14 30 23:32 07.06.2022
1695 Clear 29 1018 37 10000 5.14 20 22:54 07.06.2022
1696 Clear 30 1018 37 10000 5.66 20 22:34 07.06.2022
1697 Clear 33 1017 27 10000 4.12 10 21:39 07.06.2022
1698 Clear 34 1016 27 10000 4.12 360 21:20 07.06.2022
1699 Clear 35 1016 24 10000 4.12 350 20:40 07.06.2022
1700 Clear 36 1016 24 10000 2.57 0 19:51 07.06.2022
1701 Clear 36 1017 26 10000 1.54 0 18:25 07.06.2022
1702 Clear 34 1017 27 10000 2.57 0 17:31 07.06.2022
1703 Clear 35 1018 26 10000 2.06 0 16:44 07.06.2022
1704 Clear 33 1018 33 10000 2.57 0 15:58 07.06.2022
1705 Clear 32 1019 35 10000 2.06 0 15:36 07.06.2022
1706 Clear 32 1019 35 10000 2.06 0 15:18 07.06.2022
1707 Clear 31 1019 37 10000 3.09 310 14:42 07.06.2022
1708 Clear 28 1020 47 10000 2.57 290 13:34 07.06.2022
1709 Clear 27 1020 50 10000 2.57 270 12:54 07.06.2022
1710 Clear 25 1020 57 10000 2.57 230 11:51 07.06.2022
1711 Clear 23 1020 60 10000 2.57 270 10:48 07.06.2022
1712 Clear 19 1020 72 10000 3.09 240 08:53 07.06.2022
1713 Clear 19 1019 72 10000 3.09 250 07:54 07.06.2022
1714 Clear 20 1019 68 10000 2.57 260 06:41 07.06.2022
1715 Clear 22 1019 60 10000 3.09 240 04:41 07.06.2022
1716 Clear 25 1020 50 10000 1.03 0 01:27 07.06.2022
1717 Clear 27 1019 41 10000 4.12 30 23:58 06.06.2022
1718 Clear 29 1018 37 10000 5.66 30 22:54 06.06.2022
1719 Clear 30 1017 37 10000 4.63 360 22:30 06.06.2022
1720 Clear 34 1016 27 10000 3.09 30 20:54 06.06.2022
1721 Clear 35 1016 26 10000 2.57 0 19:29 06.06.2022
1722 Clear 35 1016 28 10000 2.57 0 18:49 06.06.2022
1723 Clear 34 1016 27 10000 1.54 0 18:26 06.06.2022
1724 Clear 34 1017 29 10000 2.06 0 17:26 06.06.2022
1725 Clear 34 1017 29 10000 2.06 0 17:26 06.06.2022
1726 Clear 34 1017 31 10000 2.57 0 16:18 06.06.2022
1727 Clear 32 1018 37 10000 2.57 320 15:28 06.06.2022
1728 Clear 28 1019 44 10000 2.06 0 14:30 06.06.2022
1729 Clear 28 1019 47 10000 2.57 0 13:25 06.06.2022
1730 Clear 26 1019 53 10000 1.54 270 12:36 06.06.2022
1731 Clear 25 1019 57 10000 1.54 330 11:53 06.06.2022
1732 Clear 21 1020 68 10000 1.03 0 10:40 06.06.2022
1733 Clear 19 1019 77 10000 1.03 0 09:33 06.06.2022
1734 Clear 18 1019 77 10000 2.06 230 08:32 06.06.2022
1735 Clear 18 1018 72 10000 2.06 240 07:28 06.06.2022
1736 Clear 20 1018 68 10000 2.57 240 05:27 06.06.2022
1737 Clear 23 1019 56 10000 2.57 30 02:55 06.06.2022
1738 Clear 24 1019 53 10000 1.54 60 01:18 06.06.2022
1739 Clear 24 1019 57 10000 3.6 60 00:38 06.06.2022
1740 Clear 25 1019 53 10000 5.14 40 23:33 05.06.2022
1741 Clear 27 1018 44 10000 6.17 20 22:45 05.06.2022
1742 Clear 26 1018 47 10000 6.17 30 22:45 05.06.2022
1743 Clouds 33 1016 29 10000 3.09 80 20:46 05.06.2022
1744 Clouds 34 1016 29 10000 2.06 0 19:41 05.06.2022
1745 Clouds 33 1017 29 10000 2.57 0 18:29 05.06.2022
1746 Clouds 33 1017 31 10000 2.06 0 17:54 05.06.2022
1747 Clear 33 1017 31 10000 3.6 60 17:25 05.06.2022
1748 Clear 32 1018 35 10000 2.06 0 16:51 05.06.2022
1749 Clear 31 1018 37 10000 3.09 0 16:30 05.06.2022
1750 Clear 28 1019 44 10000 2.57 20 14:25 05.06.2022
1751 Clear 25 1019 50 10000 2.57 20 12:55 05.06.2022
1752 Clear 25 1019 50 10000 2.57 20 12:55 05.06.2022
1753 Clear 24 1020 57 10000 1.54 0 11:45 05.06.2022
1754 Clear 21 1020 64 10000 1.03 0 10:34 05.06.2022
1755 Clear 20 1019 68 10000 2.06 90 09:59 05.06.2022
1756 Clear 18 1019 72 10000 2.06 90 08:32 05.06.2022
1757 Clear 18 1019 68 10000 2.06 70 07:43 05.06.2022
1758 Clear 19 1019 68 10000 3.09 40 05:22 05.06.2022
1759 Clear 20 1019 64 10000 3.6 40 03:47 05.06.2022
1760 Clear 21 1020 60 10000 4.63 40 01:32 05.06.2022
1761 Clear 22 1019 56 10000 5.14 30 00:33 05.06.2022
1762 Clear 26 1018 44 10000 5.66 20 22:22 04.06.2022
1763 Clear 28 1017 39 10000 4.12 20 20:31 04.06.2022
1764 Clear 29 1017 37 10000 3.09 340 18:19 04.06.2022
1765 Clear 29 1017 34 10000 2.57 320 16:44 04.06.2022
1766 Clear 28 1017 39 10000 2.57 0 16:18 04.06.2022
1767 Clouds 26 1017 44 10000 2.57 0 14:53 04.06.2022
1768 Clouds 23 1018 56 10000 2.57 0 12:35 04.06.2022
1769 Clouds 21 1019 64 8000 2.57 0 11:19 04.06.2022
1770 Clouds 20 1019 68 8000 2.06 50 10:44 04.06.2022
1771 Clouds 20 1018 68 8000 2.06 60 09:44 04.06.2022
1772 Clouds 19 1018 68 8000 2.57 0 08:43 04.06.2022
1773 Clouds 18 1018 72 8000 2.57 30 07:41 04.06.2022
1774 Clouds 19 1017 68 8000 2.06 340 05:29 04.06.2022
1775 Clear 20 1018 64 8000 3.09 320 01:42 04.06.2022
1776 Clear 22 1018 56 8000 3.09 310 23:59 03.06.2022
1777 Clouds 24 1016 50 6000 5.14 340 22:40 03.06.2022
1778 Clouds 28 1015 34 10000 4.12 260 21:30 03.06.2022
1779 Clouds 29 1015 34 10000 4.63 270 20:37 03.06.2022
1780 Clouds 29 1015 34 10000 4.63 270 20:37 03.06.2022
1781 Clouds 29 1015 34 10000 4.63 270 20:37 03.06.2022
1782 Clouds 29 1015 34 10000 1.54 0 18:28 03.06.2022
1783 Clouds 28 1016 39 10000 2.57 0 16:49 03.06.2022
1784 Clouds 27 1016 44 10000 2.06 100 15:37 03.06.2022
1785 Clouds 24 1017 53 10000 2.06 120 13:28 03.06.2022
1786 Clouds 21 1017 68 10000 1.54 0 11:40 03.06.2022
1787 Clouds 20 1017 68 10000 1.03 0 09:50 03.06.2022
1788 Clouds 20 1017 68 10000 1.03 0 09:50 03.06.2022
1789 Clouds 19 1017 72 10000 1.54 30 09:28 03.06.2022
1790 Clouds 19 1016 72 10000 1.54 350 07:27 03.06.2022
1791 Clouds 19 1016 72 10000 2.57 280 06:44 03.06.2022
1792 Clouds 19 1016 72 10000 2.57 290 06:26 03.06.2022
1793 Clouds 20 1017 64 10000 4.12 310 01:23 03.06.2022
1794 Clouds 22 1016 56 10000 5.66 310 23:31 02.06.2022
1795 Clouds 27 1014 39 10000 4.63 300 21:57 02.06.2022
1796 Clouds 28 1014 39 10000 4.12 270 20:25 02.06.2022
1797 Clouds 29 1014 37 10000 2.57 290 19:52 02.06.2022
1798 Clouds 29 1014 37 10000 3.09 300 19:33 02.06.2022
1799 Clouds 27 1015 41 10000 2.57 0 17:58 02.06.2022
1800 Clouds 26 1016 50 10000 1.54 0 16:28 02.06.2022
1801 Clouds 25 1016 53 10000 2.57 0 14:34 02.06.2022
1802 Clouds 24 1017 60 10000 2.57 350 13:30 02.06.2022
1803 Clouds 23 1017 64 10000 1.03 0 12:42 02.06.2022
1804 Clouds 20 1018 73 10000 3.09 280 10:31 02.06.2022
1805 Clouds 19 1017 77 10000 3.09 270 09:28 02.06.2022
1806 Clouds 19 1017 77 10000 2.57 260 08:29 02.06.2022
1807 Clouds 19 1017 77 10000 2.57 260 07:48 02.06.2022
1808 Clouds 20 1017 73 10000 2.57 290 05:33 02.06.2022
1809 Clouds 20 1017 73 10000 2.57 300 03:48 02.06.2022
1810 Clear 22 1018 64 10000 4.12 320 00:31 02.06.2022
1811 Clear 24 1017 53 10000 6.17 280 22:55 01.06.2022
1812 Clear 28 1015 39 10000 6.17 310 21:45 01.06.2022
1813 Clear 30 1014 32 10000 5.14 300 21:20 01.06.2022
1814 Clear 31 1014 30 10000 4.12 300 20:38 01.06.2022
1815 Clear 32 1014 27 10000 4.12 300 19:48 01.06.2022
1816 Clear 32 1014 29 10000 3.09 310 18:19 01.06.2022
1817 Clear 32 1016 27 10000 1.54 0 16:46 01.06.2022
1818 Clear 29 1017 37 10000 2.06 0 15:39 01.06.2022
1819 Clear 28 1017 36 10000 1.54 0 14:31 01.06.2022
1820 Clear 25 1018 50 10000 2.06 0 12:42 01.06.2022
1821 Clear 22 1018 64 10000 2.06 290 10:41 01.06.2022
1822 Clear 20 1017 73 10000 1.03 0 09:26 01.06.2022
1823 Clear 16 1016 82 10000 1.54 250 07:56 01.06.2022
1824 Clear 16 1016 77 10000 1.54 260 06:41 01.06.2022
1825 Clear 21 1017 60 10000 2.57 300 01:44 01.06.2022
1826 Clear 23 1017 49 10000 3.09 290 23:47 31.05.2022
1827 Clear 25 1016 41 10000 4.12 280 22:38 31.05.2022
1828 Clear 25 1016 41 10000 4.12 280 22:38 31.05.2022
1829 Clear 26 1016 38 10000 4.12 310 21:46 31.05.2022
1830 Clear 28 1014 36 10000 6.69 300 20:57 31.05.2022
1831 Clear 29 1014 37 10000 6.17 300 20:33 31.05.2022
1832 Clear 33 1013 25 10000 5.66 280 18:57 31.05.2022
1833 Clear 33 1012 27 10000 4.12 300 18:19 31.05.2022
1834 Clear 33 1012 25 10000 4.63 280 17:35 31.05.2022
1835 Clear 31 1013 29 10000 3.6 300 15:42 31.05.2022
1836 Clear 29 1014 37 10000 2.57 0 14:36 31.05.2022
1837 Clear 24 1014 53 10000 2.06 320 12:39 31.05.2022
1838 Clear 24 1014 53 10000 2.06 320 12:18 31.05.2022
1839 Clear 18 1014 77 10000 2.06 270 09:53 31.05.2022
1840 Clear 16 1013 82 10000 3.09 230 07:42 31.05.2022
1841 Clear 17 1013 72 10000 2.57 240 05:25 31.05.2022
1842 Clear 20 1014 60 10000 2.06 250 02:51 31.05.2022
1843 Clear 25 1013 44 10000 4.63 300 23:29 30.05.2022
1844 Clear 25 1012 44 10000 5.14 260 23:00 30.05.2022
1845 Clear 26 1012 38 10000 4.63 270 22:32 30.05.2022
1846 Clear 28 1012 30 10000 4.12 260 21:37 30.05.2022
1847 Clear 29 1011 28 10000 3.09 280 20:41 30.05.2022
1848 Clear 30 1011 26 10000 3.09 300 19:38 30.05.2022
1849 Clear 30 1011 28 10000 2.06 0 17:44 30.05.2022
1850 Clear 29 1012 32 10000 2.06 0 17:18 30.05.2022
1851 Clear 28 1012 36 10000 3.09 330 15:44 30.05.2022
1852 Clear 23 1013 56 10000 2.57 0 12:58 30.05.2022
1853 Clear 20 1013 64 10000 2.57 330 11:30 30.05.2022
1854 Clear 18 1014 72 10000 1.03 0 09:41 30.05.2022
1855 Clear 15 1013 77 10000 2.06 230 07:29 30.05.2022
1856 Clear 14 1013 77 10000 1.54 250 05:52 30.05.2022
1857 Clouds 17 1014 67 10000 1.54 260 03:18 30.05.2022
1858 Clouds 21 1014 56 10000 5.14 290 23:32 29.05.2022
1859 Clouds 23 1014 56 10000 3.09 240 22:40 29.05.2022
1860 Clouds 23 1013 56 10000 4.63 200 21:44 29.05.2022
1861 Clouds 24 1013 53 10000 3.09 200 20:18 29.05.2022
1862 Clouds 24 1013 53 10000 3.6 200 19:28 29.05.2022
1863 Clouds 23 1013 56 10000 2.57 0 17:56 29.05.2022
1864 Clouds 22 1014 60 10000 1.54 0 15:59 29.05.2022
1865 Clouds 21 1015 64 10000 2.57 290 15:40 29.05.2022
1866 Clouds 20 1015 68 10000 3.09 300 14:49 29.05.2022
1867 Clouds 17 1015 82 10000 2.57 260 12:21 29.05.2022
1868 Clouds 17 1015 82 8000 1.54 280 10:56 29.05.2022
1869 Clouds 17 1014 82 8000 2.57 280 09:54 29.05.2022
1870 Clouds 16 1014 82 8000 4.12 260 07:42 29.05.2022
1871 Clouds 17 1014 77 10000 4.63 260 04:51 29.05.2022
1872 Clouds 18 1014 72 10000 5.14 260 04:32 29.05.2022
1873 Clouds 20 1015 68 10000 3.6 250 00:53 29.05.2022
1874 Clouds 22 1016 60 10000 5.14 250 23:47 28.05.2022
1875 Clouds 24 1015 53 10000 5.66 270 23:18 28.05.2022
1876 Clouds 28 1015 42 10000 5.14 280 21:46 28.05.2022
1877 Clouds 30 1014 39 10000 6.69 270 20:40 28.05.2022
1878 Clouds 32 1013 37 10000 6.69 270 19:19 28.05.2022
1879 Clouds 33 1013 31 10000 3.09 280 18:19 28.05.2022
1880 Clouds 32 1014 33 10000 3.6 260 17:30 28.05.2022
1881 Thunderstorm 29 1014 45 10000 2.57 260 15:45 28.05.2022
1882 Thunderstorm 30 1015 32 10000 3.6 280 15:19 28.05.2022
1883 Clouds 28 1016 39 10000 3.09 300 13:27 28.05.2022
1884 Clouds 28 1016 39 10000 3.09 300 13:27 28.05.2022
1885 Clear 28 1016 39 10000 3.6 300 12:42 28.05.2022
1886 Clear 25 1016 53 10000 3.09 300 11:28 28.05.2022
1887 Clouds 24 1015 57 8000 2.57 280 10:32 28.05.2022
1888 Clouds 23 1015 60 8000 1.54 280 09:46 28.05.2022
1889 Clouds 20 1014 68 8000 2.06 240 07:56 28.05.2022
1890 Clouds 19 1014 72 8000 2.57 250 06:32 28.05.2022
1891 Clouds 22 1014 60 8000 3.6 270 04:39 28.05.2022
1892 Clouds 28 1016 34 8000 4.12 150 01:30 28.05.2022
1893 Clouds 28 1016 36 6000 9.26 150 23:53 27.05.2022
1894 Sand 29 1017 32 2000 10.8 170 22:32 27.05.2022
1895 Clouds 32 1017 23 10000 7.72 190 20:59 27.05.2022
1896 Clouds 32 1017 23 10000 7.72 190 20:40 27.05.2022
1897 Clouds 34 1016 21 10000 5.14 210 19:56 27.05.2022
1898 Clouds 33 1016 25 10000 5.66 170 19:34 27.05.2022
1899 Clouds 32 1017 29 10000 7.2 140 18:41 27.05.2022
1900 Sand 34 1016 20 3000 10.29 190 16:42 27.05.2022
1901 Clouds 34 1016 26 10000 6.17 260 15:46 27.05.2022
1902 Clouds 37 1015 22 10000 2.06 0 14:45 27.05.2022
1903 Clouds 32 1015 31 8000 2.57 290 13:36 27.05.2022
1904 Clouds 28 1016 42 8000 2.06 300 11:48 27.05.2022
1905 Clouds 27 1016 44 8000 2.06 280 11:26 27.05.2022
1906 Clouds 24 1016 50 8000 2.57 260 10:35 27.05.2022
1907 Clouds 23 1015 53 8000 2.57 260 09:42 27.05.2022
1908 Clouds 23 1015 49 8000 0.51 0 08:48 27.05.2022
1909 Clouds 22 1015 53 8000 1.54 70 06:50 27.05.2022
1910 Clouds 23 1017 49 8000 1.54 270 02:57 27.05.2022
1911 Clouds 26 1018 44 8000 3.6 230 00:54 27.05.2022
1912 Clouds 28 1017 39 8000 4.63 270 22:53 26.05.2022
1913 Clouds 31 1016 33 8000 5.14 240 21:45 26.05.2022
1914 Clouds 34 1016 22 8000 3.6 250 20:59 26.05.2022
1915 Clouds 35 1015 18 8000 4.63 260 19:29 26.05.2022
1916 Clouds 34 1015 20 8000 4.12 260 18:24 26.05.2022
1917 Clouds 35 1015 20 8000 3.09 280 16:59 26.05.2022
1918 Clear 35 1015 21 8000 2.06 0 15:52 26.05.2022
1919 Clear 33 1015 25 8000 3.09 0 15:18 26.05.2022
1920 Clear 31 1016 27 8000 2.06 0 13:45 26.05.2022
1921 Clear 25 1016 44 8000 1.03 0 11:47 26.05.2022
1922 Clear 20 1016 60 8000 1.54 260 10:37 26.05.2022
1923 Clouds 19 1016 59 8000 1.54 260 09:37 26.05.2022
1924 Clouds 18 1015 63 10000 1.54 260 08:38 26.05.2022
1925 Clear 19 1015 59 10000 2.06 250 05:25 26.05.2022
1926 Clear 22 1016 53 10000 3.09 60 01:26 26.05.2022
1927 Clear 24 1016 41 10000 4.12 360 23:41 25.05.2022
1928 Clear 28 1015 23 10000 2.06 30 22:48 25.05.2022
1929 Clouds 30 1015 23 10000 2.57 20 21:37 25.05.2022
1930 Clouds 31 1015 23 10000 3.09 20 20:39 25.05.2022
1931 Clouds 31 1015 25 10000 2.06 30 19:31 25.05.2022
1932 Clouds 30 1015 28 10000 2.06 0 18:20 25.05.2022
1933 Clear 29 1016 34 10000 3.09 40 16:41 25.05.2022
1934 Clear 29 1016 37 10000 1.54 360 16:21 25.05.2022
1935 Clear 28 1016 36 10000 2.57 360 15:24 25.05.2022
1936 Clear 25 1017 44 10000 2.57 330 14:37 25.05.2022
1937 Clear 25 1017 44 10000 2.57 330 14:19 25.05.2022
1938 Clear 22 1017 53 10000 3.09 10 12:48 25.05.2022
1939 Clouds 22 1016 42 10000 2.7 20 11:31 25.05.2022
1940 Clear 18 1017 63 10000 1.54 50 10:22 25.05.2022
1941 Clouds 16 1017 65 10000 2.61 28 08:45 25.05.2022
1942 Clouds 15 1016 69 10000 2.78 28 07:23 25.05.2022
1943 Clear 16 1016 72 10000 2.57 50 05:23 25.05.2022
1944 Clear 20 1017 56 10000 4.12 50 00:31 25.05.2022
1945 Clear 20 1017 56 10000 5.14 40 23:47 24.05.2022
1946 Clear 22 1016 53 10000 4.63 40 22:52 24.05.2022
1947 Clear 24 1015 50 10000 5.66 350 21:46 24.05.2022
1948 Clouds 26 1015 44 10000 5.66 360 21:21 24.05.2022
1949 Clouds 28 1014 39 10000 4.63 360 20:38 24.05.2022
1950 Clouds 30 1014 35 10000 2.06 0 18:57 24.05.2022
1951 Clouds 29 1014 42 10000 2.06 0 17:19 24.05.2022
1952 Clouds 27 1015 47 10000 2.57 0 16:29 24.05.2022
1953 Clear 25 1016 53 10000 2.06 330 15:20 24.05.2022
1954 Clouds 24 1016 57 8000 2.06 360 14:34 24.05.2022
1955 Clouds 22 1016 64 8000 2.57 0 13:34 24.05.2022
1956 Clouds 19 1016 77 8000 2.06 250 11:53 24.05.2022
1957 Clouds 17 1016 82 8000 1.54 230 09:49 24.05.2022
1958 Clouds 16 1016 88 10000 3.6 240 08:51 24.05.2022
1959 Clear 16 1014 82 10000 2.57 250 07:32 24.05.2022
1960 Clear 17 1014 82 10000 2.57 250 06:27 24.05.2022
1961 Clear 21 1014 60 10000 3.09 240 02:58 24.05.2022
1962 Clear 23 1014 56 10000 2.57 40 01:44 24.05.2022
1963 Clear 26 1014 44 10000 2.06 360 23:59 23.05.2022
1964 Clouds 28 1013 39 10000 4.12 10 22:22 23.05.2022
1965 Clouds 29 1012 37 10000 4.12 10 21:42 23.05.2022
1966 Clouds 31 1011 35 10000 5.14 340 20:45 23.05.2022
1967 Clouds 34 1011 27 10000 4.63 340 19:47 23.05.2022
1968 Clouds 36 1011 24 10000 2.57 360 19:18 23.05.2022
1969 Clouds 35 1011 26 10000 3.6 270 18:40 23.05.2022
1970 Clouds 35 1010 26 10000 3.09 320 17:56 23.05.2022
1971 Clouds 33 1012 33 10000 2.57 0 15:55 23.05.2022
1972 Clouds 30 1012 39 10000 1.54 0 14:18 23.05.2022
1973 Clouds 25 1013 53 10000 2.06 320 11:52 23.05.2022
1974 Clouds 23 1013 60 10000 1.03 0 10:47 23.05.2022
1975 Clouds 21 1013 64 10000 1.54 250 09:47 23.05.2022
1976 Clouds 19 1013 68 10000 2.06 260 08:46 23.05.2022
1977 Clear 19 1013 63 10000 2.06 250 07:24 23.05.2022
1978 Clear 19 1013 63 10000 1.54 260 06:39 23.05.2022
1979 Clear 22 1015 56 10000 1.03 0 03:27 23.05.2022
1980 Clear 24 1016 50 10000 1.54 60 01:52 23.05.2022
1981 Clear 24 1016 50 10000 1.54 70 01:26 23.05.2022
1982 Clear 27 1015 39 10000 5.14 30 23:18 22.05.2022
1983 Clear 28 1015 36 10000 5.14 20 22:27 22.05.2022
1984 Clear 29 1015 37 10000 5.14 360 21:51 22.05.2022
1985 Clear 32 1014 31 10000 3.09 330 20:43 22.05.2022
1986 Clear 33 1014 29 10000 1.54 340 20:22 22.05.2022
1987 Clear 33 1014 31 10000 2.06 0 19:34 22.05.2022
1988 Clear 33 1015 31 10000 1.54 0 18:50 22.05.2022
1989 Clear 33 1015 33 10000 2.06 0 18:21 22.05.2022
1990 Clear 32 1016 37 10000 1.54 0 16:57 22.05.2022
1991 Clear 29 1016 45 10000 1.54 0 15:34 22.05.2022
1992 Clear 29 1017 48 10000 2.57 0 14:47 22.05.2022
1993 Clear 26 1017 57 10000 1.54 0 12:55 22.05.2022
1994 Clear 25 1017 57 10000 1.54 0 12:33 22.05.2022
1995 Clear 23 1017 64 10000 1.54 0 10:53 22.05.2022
1996 Clear 19 1017 77 10000 1.54 250 09:38 22.05.2022
1997 Clear 18 1017 77 10000 2.57 270 07:52 22.05.2022
1998 Clear 18 1016 77 10000 3.09 280 07:20 22.05.2022
1999 Clear 19 1016 72 10000 3.6 250 04:30 22.05.2022
2000 Clear 23 1018 60 10000 1.54 30 01:19 22.05.2022
2001 Clear 25 1018 53 10000 3.09 40 23:57 21.05.2022
2002 Clear 25 1018 53 10000 4.63 40 23:32 21.05.2022
2003 Clear 27 1018 44 10000 4.12 10 22:22 21.05.2022
2004 Clear 30 1017 39 10000 3.09 320 21:39 21.05.2022
2005 Clear 30 1016 42 10000 3.6 350 20:48 21.05.2022
2006 Clear 31 1016 40 10000 4.12 320 20:19 21.05.2022
2007 Clouds 32 1016 37 10000 4.63 270 19:24 21.05.2022
2008 Clouds 33 1016 38 8000 5.66 290 17:35 21.05.2022
2009 Clouds 31 1016 42 8000 2.57 0 15:38 21.05.2022
2010 Clouds 29 1017 48 8000 3.6 270 14:37 21.05.2022
2011 Clear 27 1017 54 8000 4.63 280 13:39 21.05.2022
2012 Clear 25 1017 61 8000 2.57 0 12:40 21.05.2022
2013 Clouds 24 1017 64 8000 2.57 0 11:54 21.05.2022
2014 Clouds 21 1017 78 8000 2.57 300 10:22 21.05.2022
2015 Clouds 19 1017 82 8000 3.09 250 09:20 21.05.2022
2016 Clouds 19 1017 82 8000 3.09 250 09:20 21.05.2022
2017 Clouds 18 1017 82 8000 3.6 240 08:47 21.05.2022
2018 Clouds 21 1015 58 10000 2.8 253 06:22 21.05.2022
2019 Clouds 21 1017 73 8000 3.6 270 02:24 21.05.2022
2020 Clouds 24 1017 60 8000 3.09 240 23:45 20.05.2022
2021 Clouds 25 1016 57 6000 3.6 290 22:42 20.05.2022
2022 Clouds 27 1015 50 6000 4.63 280 22:22 20.05.2022
2023 Clouds 27 1014 50 6000 2.06 0 21:27 20.05.2022
2024 Clouds 28 1015 51 6000 5.14 280 20:51 20.05.2022
2025 Clouds 30 1014 45 6000 8.75 260 19:55 20.05.2022
2026 Clouds 34 1012 36 6000 8.23 270 18:59 20.05.2022
2027 Clouds 35 1012 34 6000 6.69 280 18:27 20.05.2022
2028 Clouds 34 1012 33 8000 5.66 280 16:49 20.05.2022
2029 Clouds 33 1013 38 8000 4.12 280 15:55 20.05.2022
2030 Clouds 32 1013 40 8000 4.12 280 15:32 20.05.2022
2031 Clouds 30 1013 48 8000 2.57 310 14:28 20.05.2022
2032 Clouds 27 1014 54 8000 3.09 290 13:31 20.05.2022
2033 Clouds 23 1013 64 10000 5.14 280 10:56 20.05.2022
2034 Clouds 21 1012 68 10000 4.12 260 09:50 20.05.2022
2035 Clouds 23 1011 53 10000 2.57 260 08:38 20.05.2022
2036 Clear 24 1010 53 10000 2.57 100 06:45 20.05.2022
2037 Clear 24 1011 50 10000 1.54 90 05:53 20.05.2022
2038 Clear 25 1012 50 10000 2.06 260 02:53 20.05.2022
2039 Clouds 29 1013 42 8000 4.12 270 23:54 19.05.2022
2040 Clouds 31 1012 35 8000 6.17 250 22:44 19.05.2022
2041 Clouds 35 1010 24 8000 5.14 350 21:53 19.05.2022
2042 Clouds 37 1010 19 8000 5.14 340 21:24 19.05.2022
2043 Dust 39 1009 15 3000 5.66 310 20:54 19.05.2022
2044 Clouds 41 1009 7 9000 4.12 60 20:20 19.05.2022
2045 Clouds 41 1009 7 9000 5.14 50 19:25 19.05.2022
2046 Clear 42 1010 8 10000 3.6 60 17:52 19.05.2022
2047 Clear 42 1011 8 10000 3.09 0 16:22 19.05.2022
2048 Clear 40 1012 9 10000 2.06 360 14:50 19.05.2022
2049 Clear 40 1012 11 10000 2.06 0 14:21 19.05.2022
2050 Clear 31 1013 37 10000 2.57 70 12:20 19.05.2022
2051 Clear 25 1014 53 10000 3.09 80 10:40 19.05.2022
2052 Clear 21 1014 68 10000 2.06 100 08:57 19.05.2022
2053 Clear 19 1014 72 10000 1.54 60 07:41 19.05.2022
2054 Clear 20 1014 64 10000 1.54 260 04:44 19.05.2022
2055 Clear 24 1015 50 10000 1.54 60 01:57 19.05.2022
2056 Clear 26 1016 47 10000 2.06 30 23:49 18.05.2022
2057 Clear 27 1015 47 10000 3.6 10 22:46 18.05.2022
2058 Clear 30 1014 39 10000 4.12 360 21:47 18.05.2022
2059 Clear 31 1014 37 10000 4.63 350 21:24 18.05.2022
2060 Clouds 33 1013 35 10000 5.14 350 20:24 18.05.2022
2061 Clouds 36 1012 26 10000 4.12 330 19:37 18.05.2022
2062 Clouds 36 1012 24 10000 3.6 320 18:21 18.05.2022
2063 Clear 36 1013 24 10000 4.12 290 17:41 18.05.2022
2064 Clear 36 1013 24 10000 4.12 290 17:23 18.05.2022
2065 Clear 34 1014 31 10000 3.6 330 15:59 18.05.2022
2066 Clear 34 1014 31 10000 3.6 330 15:59 18.05.2022
2067 Clear 33 1014 33 10000 3.09 320 15:38 18.05.2022
2068 Clear 31 1015 40 10000 3.6 320 14:30 18.05.2022
2069 Clear 31 1015 40 10000 3.6 320 14:30 18.05.2022
2070 Clear 29 1016 45 10000 2.06 0 13:20 18.05.2022
2071 Clear 27 1016 54 10000 1.54 340 12:39 18.05.2022
2072 Clear 25 1017 61 10000 2.06 300 11:34 18.05.2022
2073 Clear 23 1017 64 10000 1.54 0 10:52 18.05.2022
2074 Clear 18 1016 77 10000 3.09 240 08:29 18.05.2022
2075 Clear 18 1016 77 10000 2.06 260 07:28 18.05.2022
2076 Clear 20 1015 64 10000 3.09 250 05:21 18.05.2022
2077 Clear 26 1017 44 10000 1.54 360 00:52 18.05.2022
2078 Clear 26 1017 44 10000 1.54 360 00:52 18.05.2022
2079 Clear 26 1017 44 10000 2.57 30 00:20 18.05.2022
2080 Clear 30 1015 37 10000 6.17 360 21:36 17.05.2022
2081 Clear 30 1015 37 10000 6.17 360 21:18 17.05.2022
2082 Clear 35 1015 24 10000 4.12 350 19:49 17.05.2022
2083 Clear 35 1015 24 10000 3.09 300 19:26 17.05.2022
2084 Clear 36 1015 24 10000 3.09 0 17:49 17.05.2022
2085 Clear 34 1016 27 10000 2.57 0 16:58 17.05.2022
2086 Clear 33 1016 29 10000 2.06 0 16:29 17.05.2022
2087 Clear 31 1018 33 10000 1.54 360 15:24 17.05.2022
2088 Clear 30 1018 35 10000 2.57 0 14:30 17.05.2022
2089 Clear 30 1018 35 10000 2.57 0 14:30 17.05.2022
2090 Clear 28 1019 39 10000 2.06 0 13:32 17.05.2022
2091 Clear 23 1020 53 10000 2.06 290 11:21 17.05.2022
2092 Clear 19 1019 68 10000 2.06 240 09:23 17.05.2022
2093 Clear 17 1019 67 10000 3.6 280 07:59 17.05.2022
2094 Clear 20 1018 60 10000 3.09 220 06:36 17.05.2022
2095 Clear 23 1019 46 10000 1.54 30 02:27 17.05.2022
2096 Clear 24 1020 43 10000 3.6 80 00:32 17.05.2022
2097 Clear 26 1018 41 10000 5.14 30 22:42 16.05.2022
2098 Clear 29 1017 37 10000 6.17 20 21:36 16.05.2022
2099 Clear 33 1016 25 10000 2.06 20 20:46 16.05.2022
2100 Clear 33 1017 25 10000 2.57 10 19:22 16.05.2022
2101 Clear 33 1017 24 10000 2.06 0 17:58 16.05.2022
2102 Clear 31 1018 27 10000 2.57 0 15:49 16.05.2022
2103 Clear 29 1019 34 10000 2.06 0 13:49 16.05.2022
2104 Clear 27 1020 36 10000 3.6 60 12:50 16.05.2022
2105 Clear 22 1020 60 10000 3.09 70 10:52 16.05.2022
2106 Clear 20 1020 68 10000 1.03 0 09:23 16.05.2022
2107 Clear 17 1019 72 10000 1.03 0 06:34 16.05.2022
2108 Clouds 21 1020 64 10000 2.57 40 02:38 16.05.2022
2109 Clear 23 1020 56 10000 4.12 310 23:19 15.05.2022
2110 Clear 24 1019 53 10000 5.14 320 22:29 15.05.2022
2111 Clear 28 1018 36 10000 5.14 270 21:39 15.05.2022
2112 Clouds 29 1018 34 10000 5.14 270 20:53 15.05.2022
2113 Clouds 30 1018 30 10000 3.09 280 19:24 15.05.2022
2114 Clear 30 1018 28 10000 3.09 0 17:48 15.05.2022
2115 Clear 28 1019 39 10000 2.57 0 15:56 15.05.2022
2116 Clear 25 1020 50 10000 2.57 320 13:50 15.05.2022
2117 Clear 23 1020 56 10000 3.09 300 12:23 15.05.2022
2118 Clear 20 1020 68 10000 2.57 270 11:38 15.05.2022
2119 Clear 20 1020 68 10000 2.57 270 11:38 15.05.2022
2120 Clear 18 1019 72 10000 2.57 280 10:23 15.05.2022
2121 Clear 17 1018 77 10000 2.06 340 07:46 15.05.2022
2122 Clear 17 1018 72 10000 1.54 290 06:57 15.05.2022
2123 Clear 16 1017 77 10000 1.54 260 04:44 15.05.2022
2124 Clear 20 1019 64 10000 3.6 230 00:48 15.05.2022
2125 Clouds 23 1018 53 10000 5.14 280 23:38 14.05.2022
2126 Clouds 25 1017 41 10000 5.14 260 22:45 14.05.2022
2127 Clouds 30 1016 28 10000 3.6 280 21:28 14.05.2022
2128 Clouds 31 1016 27 10000 4.63 260 20:44 14.05.2022
2129 Clouds 32 1016 22 10000 4.12 270 19:37 14.05.2022
2130 Clouds 32 1016 22 10000 4.12 270 19:19 14.05.2022
2131 Clouds 32 1016 20 10000 3.09 0 17:56 14.05.2022
2132 Clouds 31 1017 22 10000 3.6 300 16:37 14.05.2022
2133 Clear 29 1018 26 10000 3.6 0 14:59 14.05.2022
2134 Clear 29 1018 32 10000 3.6 320 14:30 14.05.2022
2135 Clear 27 1018 50 10000 3.09 320 12:23 14.05.2022
2136 Clear 25 1018 53 10000 1.03 0 10:54 14.05.2022
2137 Clear 22 1018 64 10000 2.06 280 10:20 14.05.2022
2138 Clear 22 1018 64 10000 2.06 280 09:53 14.05.2022
2139 Clear 20 1018 68 10000 1.03 0 08:46 14.05.2022
2140 Clear 20 1017 64 10000 1.54 260 05:43 14.05.2022
2141 Clear 23 1018 56 10000 4.63 260 01:58 14.05.2022
2142 Clear 27 1018 44 10000 2.57 50 23:32 13.05.2022
2143 Clear 27 1018 44 10000 3.09 360 22:57 13.05.2022
2144 Clear 28 1018 42 10000 2.57 10 22:23 13.05.2022
2145 Clouds 29 1017 42 10000 2.57 340 21:38 13.05.2022
2146 Clouds 29 1017 42 10000 4.12 340 20:44 13.05.2022
2147 Clouds 30 1017 39 10000 4.63 340 20:24 13.05.2022
2148 Clouds 32 1016 31 10000 7.72 270 19:21 13.05.2022
2149 Clear 34 1016 22 10000 4.63 280 17:50 13.05.2022
2150 Clear 34 1016 22 10000 4.63 280 17:50 13.05.2022
2151 Clear 34 1016 24 10000 3.09 280 17:27 13.05.2022
2152 Clear 34 1017 26 10000 3.09 280 16:18 13.05.2022
2153 Clear 32 1018 33 10000 4.12 280 14:54 13.05.2022
2154 Clear 29 1018 39 10000 2.57 330 13:27 13.05.2022
2155 Clear 27 1018 44 10000 2.06 330 12:25 13.05.2022
2156 Clear 24 1018 50 10000 0.51 0 10:46 13.05.2022
2157 Clear 19 1018 59 10000 3.09 260 09:33 13.05.2022
2158 Clear 19 1017 55 10000 0.51 0 08:23 13.05.2022
2159 Clear 19 1017 55 8000 1.03 0 07:42 13.05.2022
2160 Clear 21 1016 49 8000 2.06 0 05:59 13.05.2022
2161 Clouds 21 1018 49 10000 1.54 270 02:44 13.05.2022
2162 Clouds 23 1017 49 10000 5.14 230 23:46 12.05.2022
2163 Clouds 24 1017 43 10000 3.09 240 22:44 12.05.2022
2164 Clouds 27 1016 36 10000 1.54 0 21:54 12.05.2022
2165 Clouds 30 1015 30 10000 5.14 340 20:25 12.05.2022
2166 Clouds 31 1014 30 10000 6.17 310 18:41 12.05.2022
2167 Thunderstorm 33 1014 22 10000 9.26 200 16:58 12.05.2022
2168 Clouds 33 1014 21 10000 8.75 200 15:50 12.05.2022
2169 Thunderstorm 31 1016 23 6000 2.06 120 14:39 12.05.2022
2170 Thunderstorm 27 1016 39 6000 4.12 70 13:34 12.05.2022
2171 Clouds 25 1015 31 8000 3.09 50 10:43 12.05.2022
2172 Clouds 24 1016 31 8000 3.6 260 09:19 12.05.2022
2173 Clouds 24 1015 31 8000 4.12 110 08:41 12.05.2022
2174 Clouds 24 1014 31 8000 3.09 120 07:37 12.05.2022
2175 Clouds 24 1014 31 8000 5.66 70 05:32 12.05.2022
2176 Clouds 25 1016 27 8000 6.17 80 02:49 12.05.2022
2177 Clouds 27 1020 28 8000 2.57 350 00:32 12.05.2022
2178 Clouds 28 1017 20 8000 5.14 360 22:33 11.05.2022
2179 Clouds 30 1016 19 8000 4.12 10 21:33 11.05.2022
2180 Clouds 31 1015 18 8000 4.12 330 20:53 11.05.2022
2181 Clouds 34 1015 20 8000 5.14 320 18:24 11.05.2022
2182 Clouds 35 1015 16 8000 4.12 270 16:51 11.05.2022
2183 Clouds 35 1015 16 8000 4.12 270 16:51 11.05.2022
2184 Clear 33 1016 21 10000 2.06 0 14:51 11.05.2022
2185 Clear 32 1016 20 10000 3.09 310 14:26 11.05.2022
2186 Clouds 31 1017 23 8000 3.6 290 13:51 11.05.2022
2187 Clouds 29 1017 26 8000 4.12 280 11:51 11.05.2022
2188 Clouds 25 1016 36 8000 1.03 0 10:27 11.05.2022
2189 Clear 22 1014 40 10000 1.54 110 08:37 11.05.2022
2190 Clear 22 1014 35 10000 0.51 0 05:19 11.05.2022
2191 Clear 26 1016 29 10000 4.63 230 00:42 11.05.2022
2192 Clear 29 1014 28 10000 4.63 270 22:30 10.05.2022
2193 Clear 31 1014 25 10000 6.17 270 21:55 10.05.2022
2194 Clear 35 1013 10 10000 3.6 250 20:54 10.05.2022
2195 Clear 37 1013 9 10000 2.57 260 19:26 10.05.2022
2196 Clear 37 1014 9 10000 4.63 300 17:49 10.05.2022
2197 Clear 37 1014 12 10000 3.6 300 16:56 10.05.2022
2198 Clouds 36 1013 7 10000 4.15 307 14:48 10.05.2022
2199 Clear 31 1016 22 10000 1.03 0 12:39 10.05.2022
2200 Clear 29 1016 24 10000 1.54 340 11:49 10.05.2022
2201 Clear 28 1016 24 10000 1.54 0 11:18 10.05.2022
2202 Clear 24 1016 33 10000 1.54 70 10:22 10.05.2022
2203 Clear 23 1016 35 10000 1.03 0 09:25 10.05.2022
2204 Clear 22 1015 33 10000 1.03 0 06:46 10.05.2022
2205 Clear 24 1016 29 10000 1.03 0 03:29 10.05.2022
2206 Clear 28 1017 20 10000 1.03 0 00:38 10.05.2022
2207 Clear 31 1016 19 10000 3.09 350 22:52 09.05.2022
2208 Clouds 33 1015 17 8000 4.12 360 21:50 09.05.2022
2209 Clear 36 1014 12 8000 5.66 330 20:30 09.05.2022
2210 Clear 39 1013 8 8000 3.6 300 18:43 09.05.2022
2211 Clear 40 1013 9 8000 4.63 290 17:40 09.05.2022
2212 Clear 39 1013 8 8000 3.09 290 16:30 09.05.2022
2213 Clear 39 1013 8 8000 3.09 290 16:30 09.05.2022
2214 Clear 39 1014 8 8000 3.6 310 15:51 09.05.2022
2215 Clear 37 1014 11 10000 2.06 260 14:54 09.05.2022
2216 Clear 36 1015 13 10000 2.06 0 14:22 09.05.2022
2217 Clear 34 1015 15 10000 2.57 0 13:36 09.05.2022
2218 Clear 34 1015 15 10000 2.57 0 13:36 09.05.2022
2219 Clear 33 1015 17 10000 1.54 0 12:18 09.05.2022
2220 Clouds 28 1016 23 10000 2.06 80 10:55 09.05.2022
2221 Clouds 26 1015 25 10000 3.09 70 10:36 09.05.2022
2222 Clouds 19 1015 37 10000 2.57 90 08:31 09.05.2022
2223 Clear 20 1015 34 10000 3.09 90 07:49 09.05.2022
2224 Clear 24 1016 31 10000 0.51 0 02:55 09.05.2022
2225 Clear 30 1016 19 10000 3.09 30 23:29 08.05.2022
2226 Clear 30 1015 19 10000 4.12 20 22:51 08.05.2022
2227 Clear 32 1014 17 10000 5.66 360 21:48 08.05.2022
2228 Clear 35 1013 13 10000 4.63 340 20:33 08.05.2022
2229 Clear 37 1012 10 10000 5.14 270 19:37 08.05.2022
2230 Clear 37 1012 11 10000 2.06 0 18:51 08.05.2022
2231 Clear 37 1012 10 10000 3.6 300 17:52 08.05.2022
2232 Clear 36 1013 11 10000 3.6 0 16:33 08.05.2022
2233 Clear 36 1014 11 10000 3.09 300 15:25 08.05.2022
2234 Clear 35 1014 13 10000 2.57 320 14:27 08.05.2022
2235 Clear 30 1015 23 10000 2.06 100 11:53 08.05.2022
2236 Clear 24 1016 33 10000 2.57 90 10:27 08.05.2022
2237 Clear 21 1016 40 10000 2.57 70 09:55 08.05.2022
2238 Clear 18 1016 48 10000 3.09 90 08:37 08.05.2022
2239 Clear 19 1016 45 10000 1.54 100 06:32 08.05.2022
2240 Clear 21 1017 40 10000 1.03 0 03:25 08.05.2022
2241 Clear 25 1017 31 10000 2.06 50 01:25 08.05.2022
2242 Clear 26 1017 29 10000 3.6 70 00:20 08.05.2022
2243 Clear 27 1017 28 10000 3.09 50 23:41 07.05.2022
2244 Clear 28 1016 24 10000 5.14 30 22:46 07.05.2022
2245 Clear 30 1015 17 10000 4.63 360 21:57 07.05.2022
2246 Clear 31 1015 16 10000 4.63 350 21:32 07.05.2022
2247 Clouds 33 1014 15 10000 3.6 350 20:27 07.05.2022
2248 Clouds 34 1015 14 10000 2.57 0 18:59 07.05.2022
2249 Clear 34 1015 15 10000 4.12 0 16:51 07.05.2022
2250 Clear 33 1017 15 10000 2.06 0 15:18 07.05.2022
2251 Clear 29 1018 24 10000 1.54 20 12:23 07.05.2022
2252 Clear 24 1018 35 10000 1.54 40 10:18 07.05.2022
2253 Clear 18 1018 42 10000 1.54 130 08:34 07.05.2022
2254 Clear 17 1018 51 10000 0.51 0 07:30 07.05.2022
2255 Clear 18 1017 48 10000 0.51 0 06:42 07.05.2022
2256 Clear 21 1018 43 10000 1.54 90 04:19 07.05.2022
2257 Clear 24 1019 38 10000 3.09 70 00:49 07.05.2022
2258 Clear 28 1018 28 10000 4.63 10 22:41 06.05.2022
2259 Clear 28 1018 28 10000 4.63 10 22:21 06.05.2022
2260 Clear 30 1017 20 10000 4.63 360 21:31 06.05.2022
2261 Clear 33 1016 16 10000 3.09 360 19:49 06.05.2022
2262 Clear 33 1017 16 10000 3.09 0 19:25 06.05.2022
2263 Clear 33 1017 16 10000 4.12 340 18:34 06.05.2022
2264 Clear 34 1017 15 10000 2.06 0 17:36 06.05.2022
2265 Clear 33 1018 18 10000 3.09 350 15:53 06.05.2022
2266 Clear 33 1018 19 10000 2.06 0 15:28 06.05.2022
2267 Clear 29 1019 26 10000 2.57 0 13:49 06.05.2022
2268 Clear 27 1019 32 10000 2.57 60 12:50 06.05.2022
2269 Clear 24 1019 41 10000 2.06 0 11:58 06.05.2022
2270 Clear 22 1019 46 10000 3.09 80 11:24 06.05.2022
2271 Clear 19 1019 55 10000 3.6 90 09:47 06.05.2022
2272 Clear 18 1019 55 10000 3.09 100 09:18 06.05.2022
2273 Clear 16 1018 55 10000 2.57 90 07:49 06.05.2022
2274 Clear 18 1018 52 10000 2.06 30 06:26 06.05.2022
2275 Clear 20 1019 52 10000 2.57 70 02:58 06.05.2022
2276 Clear 21 1019 49 10000 3.6 60 02:38 06.05.2022
2277 Clouds 26 1017 24 10000 3.09 40 22:58 05.05.2022
2278 Clouds 27 1016 21 10000 3.09 40 21:49 05.05.2022
2279 Clouds 29 1016 20 10000 4.12 30 20:36 05.05.2022
2280 Clouds 29 1016 21 10000 4.12 30 18:54 05.05.2022
2281 Clouds 27 1016 28 10000 4.12 40 16:42 05.05.2022
2282 Clear 27 1017 29 10000 4.12 40 15:30 05.05.2022
2283 Clear 24 1018 38 10000 3.09 60 13:30 05.05.2022
2284 Clear 23 1018 43 10000 3.6 30 12:56 05.05.2022
2285 Clear 20 1018 56 10000 2.57 80 11:22 05.05.2022
2286 Clear 16 1018 72 8000 3.6 80 09:40 05.05.2022
2287 Clear 14 1017 82 10000 2.57 70 08:34 05.05.2022
2288 Clear 15 1016 72 10000 1.03 0 06:23 05.05.2022
2289 Clear 17 1017 67 10000 4.12 60 02:23 05.05.2022
2290 Clear 17 1017 67 10000 5.14 50 01:37 05.05.2022
2291 Clear 18 1017 63 10000 5.66 20 00:43 05.05.2022
2292 Clouds 21 1016 46 10000 5.14 30 22:57 04.05.2022
2293 Clouds 22 1015 37 10000 5.14 40 21:59 04.05.2022
2294 Clouds 23 1014 35 10000 4.12 30 21:30 04.05.2022
2295 Clouds 23 1014 35 10000 5.14 30 20:42 04.05.2022
2296 Clouds 24 1014 31 10000 3.6 0 19:59 04.05.2022
2297 Clouds 24 1014 31 10000 3.6 50 19:35 04.05.2022
2298 Clouds 24 1014 31 10000 3.6 0 18:23 04.05.2022
2299 Clouds 24 1014 31 10000 3.6 0 17:59 04.05.2022
2300 Clouds 24 1014 35 10000 2.06 0 16:29 04.05.2022
2301 Clouds 23 1014 38 10000 2.57 0 15:32 04.05.2022
2302 Clouds 21 1015 43 10000 3.09 0 14:38 04.05.2022
2303 Clouds 21 1015 43 10000 3.09 0 14:18 04.05.2022
2304 Clouds 19 1016 52 10000 2.06 10 12:34 04.05.2022
2305 Clouds 18 1015 59 10000 1.54 0 11:25 04.05.2022
2306 Clouds 15 1015 67 10000 2.06 50 09:46 04.05.2022
2307 Clouds 14 1014 72 10000 2.06 60 08:56 04.05.2022
2308 Clouds 14 1014 72 10000 2.57 30 07:33 04.05.2022
2309 Clouds 15 1014 67 10000 2.06 30 03:50 04.05.2022
2310 Clouds 16 1015 63 10000 2.06 30 01:41 04.05.2022
2311 Clouds 17 1013 55 10000 5.14 350 22:59 03.05.2022
2312 Clouds 18 1012 52 10000 4.12 350 21:47 03.05.2022
2313 Clouds 19 1012 52 10000 4.63 330 21:21 03.05.2022
2314 Clouds 19 1012 52 10000 4.12 340 21:21 03.05.2022
2315 Clouds 20 1012 49 10000 5.14 330 20:38 03.05.2022
2316 Clouds 21 1012 49 10000 5.66 330 18:55 03.05.2022
2317 Clouds 23 1011 40 10000 3.6 0 18:37 03.05.2022
2318 Clouds 22 1012 43 10000 4.63 310 17:20 03.05.2022
2319 Clouds 22 1012 43 10000 4.63 310 17:20 03.05.2022
2320 Clouds 22 1013 40 10000 3.09 310 15:48 03.05.2022
2321 Clouds 21 1014 46 10000 3.09 0 14:22 03.05.2022
2322 Clouds 18 1014 59 10000 2.06 310 12:31 03.05.2022
2323 Clouds 17 1014 63 10000 0.51 0 11:24 03.05.2022
2324 Clouds 16 1014 67 10000 1.03 0 10:25 03.05.2022
2325 Clouds 15 1014 67 10000 2.06 40 08:18 03.05.2022
2326 Clouds 15 1013 67 10000 3.09 30 06:45 03.05.2022
2327 Clouds 17 1016 59 10000 3.6 20 01:56 03.05.2022
2328 Clouds 19 1017 52 10000 4.12 360 22:47 02.05.2022
2329 Clear 20 1017 49 10000 3.6 360 22:28 02.05.2022
2330 Clear 21 1016 46 10000 5.14 340 21:26 02.05.2022
2331 Clear 27 1015 29 10000 3.6 300 18:57 02.05.2022
2332 Clear 27 1015 29 10000 3.6 330 18:25 02.05.2022
2333 Clear 27 1015 29 10000 3.6 0 17:38 02.05.2022
2334 Clear 28 1016 30 10000 2.06 0 16:37 02.05.2022
2335 Clear 26 1017 31 10000 2.06 10 15:41 02.05.2022
2336 Clear 24 1017 33 10000 2.06 280 14:20 02.05.2022
2337 Clear 23 1019 40 10000 2.06 0 12:52 02.05.2022
2338 Clear 20 1019 37 10000 2.06 60 11:41 02.05.2022
2339 Clear 15 1019 72 10000 2.06 260 09:32 02.05.2022
2340 Clear 14 1019 67 10000 1.54 240 07:57 02.05.2022
2341 Clear 16 1019 55 10000 1.54 0 05:59 02.05.2022
2342 Clear 22 1021 37 10000 2.57 10 00:44 02.05.2022
2343 Clear 22 1021 37 10000 3.6 20 00:21 02.05.2022
2344 Clouds 25 1019 36 10000 4.63 340 22:53 01.05.2022
2345 Clouds 27 1018 28 10000 4.63 340 21:41 01.05.2022
2346 Clouds 29 1018 23 10000 3.6 330 20:29 01.05.2022
2347 Clear 30 1018 21 10000 4.63 310 19:20 01.05.2022
2348 Clear 31 1017 19 10000 3.6 310 18:52 01.05.2022
2349 Clear 31 1018 16 10000 4.12 290 17:49 01.05.2022
2350 Clear 31 1018 22 10000 3.09 320 16:29 01.05.2022
2351 Clear 30 1019 23 10000 2.57 0 15:45 01.05.2022
2352 Clear 29 1019 26 10000 2.06 20 14:45 01.05.2022
2353 Clear 25 1020 36 10000 1.54 0 12:23 01.05.2022
2354 Clear 19 1020 52 10000 1.03 0 09:34 01.05.2022
2355 Clear 16 1020 59 10000 0.51 0 08:49 01.05.2022
2356 Clear 17 1019 51 10000 1.03 0 05:42 01.05.2022
2357 Clear 20 1020 45 10000 4.12 230 01:32 01.05.2022
2358 Clear 25 1018 33 10000 5.14 280 22:18 30.04.2022
2359 Clear 26 1017 31 10000 6.17 270 21:32 30.04.2022
2360 Clear 29 1016 20 10000 7.2 260 19:53 30.04.2022
2361 Clear 30 1016 17 10000 4.12 270 18:52 30.04.2022
2362 Clear 30 1016 19 10000 3.6 300 17:26 30.04.2022
2363 Clear 30 1017 17 10000 3.6 330 15:51 30.04.2022
2364 Clear 30 1018 17 10000 1.03 0 14:58 30.04.2022
2365 Clear 28 1018 24 10000 2.06 0 13:41 30.04.2022
2366 Clear 23 1018 43 10000 0.51 0 11:41 30.04.2022
2367 Clear 20 1018 45 10000 0.51 0 10:56 30.04.2022
2368 Clear 18 1018 59 10000 0.51 0 09:54 30.04.2022
2369 Clear 13 1016 71 10000 0 0 07:36 30.04.2022
2370 Clear 16 1017 59 10000 3.09 250 03:53 30.04.2022
2371 Clear 21 1017 46 10000 4.63 30 23:55 29.04.2022
2372 Clear 25 1015 19 10000 2.57 30 22:37 29.04.2022
2373 Clear 26 1015 18 10000 3.09 40 21:55 29.04.2022
2374 Clear 26 1014 18 10000 3.6 40 21:24 29.04.2022
2375 Clear 28 1014 15 10000 4.12 20 19:55 29.04.2022
2376 Clear 28 1013 15 10000 4.63 30 19:26 29.04.2022
2377 Clear 28 1013 17 10000 5.14 40 17:34 29.04.2022
2378 Clear 26 1014 21 10000 4.63 30 16:36 29.04.2022
2379 Clear 25 1015 22 10000 5.14 40 14:34 29.04.2022
2380 Clouds 23 1016 38 10000 3.6 20 13:27 29.04.2022
2381 Clouds 21 1016 49 10000 3.6 50 12:36 29.04.2022
2382 Clouds 16 1017 59 10000 4.63 80 10:29 29.04.2022
2383 Clouds 13 1016 71 10000 3.09 80 07:52 29.04.2022
2384 Clouds 13 1015 71 10000 3.09 60 07:25 29.04.2022
2385 Clouds 14 1015 72 10000 4.12 40 06:29 29.04.2022
2386 Clear 16 1018 67 10000 5.66 50 00:52 29.04.2022
2387 Clear 16 1018 67 10000 6.17 40 23:52 28.04.2022
2388 Clear 17 1017 63 10000 6.17 30 23:25 28.04.2022
2389 Clear 20 1015 52 10000 6.17 20 22:19 28.04.2022
2390 Clear 24 1015 27 10000 5.14 20 21:41 28.04.2022
2391 Clouds 24 1015 25 10000 3.6 10 20:43 28.04.2022
2392 Clouds 25 1015 23 10000 4.12 40 19:49 28.04.2022
2393 Clouds 26 1014 22 10000 3.09 10 19:24 28.04.2022
2394 Clouds 26 1014 22 10000 3.09 10 19:24 28.04.2022
2395 Clouds 26 1014 27 10000 3.09 60 18:45 28.04.2022
2396 Clear 26 1015 27 10000 3.09 50 17:42 28.04.2022
2397 Clear 25 1016 31 10000 3.09 20 16:51 28.04.2022
2398 Clear 24 1016 35 10000 2.57 0 16:20 28.04.2022
2399 Clear 24 1016 35 10000 2.57 0 16:20 28.04.2022
2400 Clear 23 1016 40 10000 3.6 30 15:43 28.04.2022
2401 Clear 23 1017 40 10000 3.6 10 14:58 28.04.2022
2402 Clear 20 1018 52 10000 3.6 50 13:33 28.04.2022
2403 Clear 18 1018 55 10000 3.6 30 12:28 28.04.2022
2404 Clouds 16 1019 59 10000 3.09 50 10:59 28.04.2022
2405 Clouds 15 1019 67 10000 3.6 50 10:26 28.04.2022
2406 Clouds 14 1019 72 10000 3.09 40 09:47 28.04.2022
2407 Clouds 13 1019 71 10000 3.6 30 07:40 28.04.2022
2408 Clouds 13 1018 71 10000 3.09 30 06:42 28.04.2022
2409 Clouds 13 1018 67 10000 2.57 30 05:52 28.04.2022
2410 Clouds 15 1018 55 10000 3.09 40 04:42 28.04.2022
2411 Clouds 17 1018 63 10000 6.17 50 00:52 28.04.2022
2412 Clouds 19 1017 59 10000 6.17 30 23:25 27.04.2022
2413 Clouds 21 1016 49 10000 6.69 20 22:18 27.04.2022
2414 Clouds 23 1015 43 10000 5.66 360 21:34 27.04.2022
2415 Clouds 24 1015 38 10000 5.14 360 20:45 27.04.2022
2416 Clouds 26 1015 25 10000 2.06 70 19:54 27.04.2022
2417 Clouds 26 1015 25 10000 2.57 330 19:31 27.04.2022
2418 Clouds 26 1015 29 10000 3.09 0 18:38 27.04.2022
2419 Clouds 27 1015 29 10000 2.57 30 17:41 27.04.2022
2420 Clouds 23 1016 43 10000 1.54 0 15:56 27.04.2022
2421 Clouds 19 1017 55 10000 2.06 0 12:50 27.04.2022
2422 Clouds 16 1017 72 10000 1.54 0 11:23 27.04.2022
2423 Clouds 15 1017 72 10000 2.06 60 10:27 27.04.2022
2424 Clouds 13 1016 76 8000 2.57 80 07:53 27.04.2022
2425 Clouds 13 1016 67 8000 2.06 250 06:36 27.04.2022
2426 Clouds 17 1015 55 8000 2.57 20 02:25 27.04.2022
2427 Clouds 18 1016 52 8000 3.6 30 01:21 27.04.2022
2428 Clouds 18 1015 48 8000 3.6 30 00:27 27.04.2022
2429 Clouds 19 1015 45 8000 4.12 30 23:24 26.04.2022
2430 Clouds 20 1014 42 8000 5.66 350 22:44 26.04.2022
2431 Clouds 21 1013 40 8000 6.69 360 21:57 26.04.2022
2432 Clouds 22 1012 40 8000 5.66 360 21:18 26.04.2022
2433 Clouds 24 1012 33 10000 3.6 340 20:36 26.04.2022
2434 Clouds 24 1012 33 10000 3.6 340 19:44 26.04.2022
2435 Clouds 24 1012 35 10000 4.12 340 19:24 26.04.2022
2436 Clouds 26 1011 29 10000 4.12 10 18:20 26.04.2022
2437 Clouds 26 1011 27 10000 3.09 350 17:34 26.04.2022
2438 Clouds 24 1012 35 10000 3.6 310 14:58 26.04.2022
2439 Clouds 21 1012 49 8000 2.57 330 13:38 26.04.2022
2440 Clouds 19 1012 55 8000 2.57 310 12:35 26.04.2022
2441 Clouds 17 1012 63 8000 1.54 300 10:57 26.04.2022
2442 Clouds 16 1012 67 8000 2.06 300 10:29 26.04.2022
2443 Clouds 14 1011 72 8000 2.06 240 08:29 26.04.2022
2444 Clouds 15 1011 63 8000 2.57 270 04:38 26.04.2022
2445 Clouds 16 1011 59 8000 2.57 250 03:25 26.04.2022
2446 Clouds 18 1011 55 8000 4.12 30 00:39 26.04.2022
2447 Clouds 19 1011 52 8000 4.12 20 23:44 25.04.2022
2448 Clouds 23 1009 33 8000 3.09 330 21:44 25.04.2022
2449 Clouds 23 1009 33 8000 3.09 340 20:49 25.04.2022
2450 Clouds 25 1009 29 8000 2.57 0 19:39 25.04.2022
2451 Clouds 24 1009 33 8000 2.06 0 18:25 25.04.2022
2452 Clouds 24 1009 33 8000 2.06 0 17:39 25.04.2022
2453 Clouds 24 1009 35 8000 1.03 0 15:51 25.04.2022
2454 Clouds 23 1010 38 8000 2.06 0 15:18 25.04.2022
2455 Clouds 20 1011 45 8000 3.09 330 13:59 25.04.2022
2456 Clouds 19 1011 52 8000 2.57 340 12:22 25.04.2022
2457 Clouds 15 1011 72 8000 1.54 280 10:29 25.04.2022
2458 Clouds 13 1011 76 8000 2.06 240 09:23 25.04.2022
2459 Clear 12 1011 76 8000 2.57 230 07:34 25.04.2022
2460 Clear 12 1012 79 10000 1.08 39 05:53 25.04.2022
2461 Clouds 14 1013 60 10000 4.71 15 01:24 25.04.2022
2462 Clouds 19 1012 45 10000 4.63 20 23:54 24.04.2022
2463 Clouds 20 1012 45 10000 3.09 180 22:53 24.04.2022
2464 Clouds 20 1011 49 10000 4.12 170 22:32 24.04.2022
2465 Clouds 20 1011 49 10000 4.63 160 21:54 24.04.2022
2466 Clouds 21 1011 43 10000 3.09 0 21:20 24.04.2022
2467 Clouds 21 1011 40 10000 2.06 130 20:39 24.04.2022
2468 Clouds 22 1011 40 10000 1.54 0 19:51 24.04.2022
2469 Clouds 21 1011 43 10000 2.57 0 18:28 24.04.2022
2470 Clouds 21 1011 43 10000 2.57 70 17:40 24.04.2022
2471 Clouds 21 1011 43 10000 2.57 70 17:20 24.04.2022
2472 Clouds 21 1011 43 10000 3.6 90 16:49 24.04.2022
2473 Clouds 21 1011 43 10000 2.57 70 16:20 24.04.2022
2474 Clouds 20 1012 45 10000 3.09 90 15:32 24.04.2022
2475 Clouds 19 1012 48 10000 3.09 30 14:30 24.04.2022
2476 Clouds 19 1013 48 10000 1.03 0 13:26 24.04.2022
2477 Clouds 18 1013 52 10000 2.06 0 12:37 24.04.2022
2478 Clouds 16 1013 55 10000 1.54 360 11:39 24.04.2022
2479 Clouds 16 1013 51 10000 1.54 0 10:32 24.04.2022
2480 Clouds 14 1012 54 10000 1.54 40 09:39 24.04.2022
2481 Clouds 14 1012 58 10000 2.57 40 07:31 24.04.2022
2482 Clouds 14 1013 62 10000 2.57 30 04:44 24.04.2022
2483 Clouds 15 1014 63 10000 4.63 30 01:39 24.04.2022
2484 Clouds 16 1014 59 10000 5.66 20 00:30 24.04.2022
2485 Clouds 17 1014 51 10000 5.14 360 23:45 23.04.2022
2486 Clouds 18 1014 52 10000 4.63 360 23:22 23.04.2022
2487 Clouds 19 1013 52 10000 3.09 350 21:54 23.04.2022
2488 Clouds 19 1013 52 10000 3.6 360 21:34 23.04.2022
2489 Clouds 19 1013 52 10000 3.6 10 20:57 23.04.2022
2490 Clouds 20 1013 49 10000 4.12 360 19:48 23.04.2022
2491 Clouds 21 1012 43 10000 3.6 340 19:19 23.04.2022
2492 Clouds 22 1012 40 10000 2.57 340 18:52 23.04.2022
2493 Clouds 21 1012 43 10000 2.06 10 17:51 23.04.2022
2494 Clouds 21 1013 43 10000 4.12 340 17:30 23.04.2022
2495 Clouds 22 1013 43 10000 2.57 0 16:42 23.04.2022
2496 Clouds 20 1013 52 10000 2.57 0 15:28 23.04.2022
2497 Clouds 18 1014 63 10000 1.54 0 12:44 23.04.2022
2498 Clouds 15 1015 77 10000 1.54 0 10:49 23.04.2022
2499 Clouds 13 1014 82 10000 1.54 270 09:38 23.04.2022
2500 Clouds 14 1013 67 10000 2.57 270 06:41 23.04.2022
2501 Clouds 13 1013 71 10000 2.06 290 03:54 23.04.2022
2502 Clouds 14 1013 72 10000 5.66 290 01:20 23.04.2022
2503 Clouds 15 1013 67 10000 4.63 290 23:30 22.04.2022
2504 Clouds 17 1012 55 10000 7.2 270 22:20 22.04.2022
2505 Clouds 17 1011 51 10000 6.69 270 21:43 22.04.2022
2506 Clouds 20 1010 42 10000 7.72 280 20:48 22.04.2022
2507 Clouds 21 1010 40 10000 7.2 290 20:27 22.04.2022
2508 Clouds 22 1010 37 10000 6.69 270 19:20 22.04.2022
2509 Clouds 22 1010 37 10000 6.69 280 18:42 22.04.2022
2510 Clouds 22 1010 37 10000 7.72 280 17:41 22.04.2022
2511 Clouds 22 1010 37 10000 6.69 280 16:46 22.04.2022
2512 Clouds 21 1010 40 10000 5.14 280 15:44 22.04.2022
2513 Clouds 21 1010 43 10000 4.63 300 15:18 22.04.2022
2514 Clear 19 1011 42 10000 5.14 270 13:50 22.04.2022
2515 Clear 17 1012 51 10000 3.6 260 12:58 22.04.2022
2516 Clear 15 1012 58 10000 3.6 270 11:50 22.04.2022
2517 Clear 14 1011 62 10000 4.12 280 11:22 22.04.2022
2518 Clear 14 1011 62 10000 4.12 280 10:50 22.04.2022
2519 Clear 13 1011 67 10000 3.6 270 10:30 22.04.2022
2520 Clear 12 1011 66 10000 3.09 250 09:50 22.04.2022
2521 Clear 10 1011 76 10000 2.57 240 08:50 22.04.2022
2522 Clear 9 1010 71 10000 2.06 260 07:20 22.04.2022
2523 Clear 13 1012 54 10000 1.54 250 03:30 22.04.2022
2524 Clear 15 1012 47 10000 4.63 30 00:51 22.04.2022
2525 Clear 17 1012 45 10000 5.66 10 23:24 21.04.2022
2526 Clear 20 1012 26 10000 3.6 40 22:27 21.04.2022
2527 Clear 22 1012 21 10000 3.6 50 20:37 21.04.2022
2528 Clear 22 1012 21 10000 3.6 50 20:18 21.04.2022
2529 Clear 22 1012 24 10000 3.09 360 18:42 21.04.2022
2530 Clear 23 1012 25 10000 3.09 50 17:57 21.04.2022
2531 Clear 21 1013 28 10000 3.6 40 16:35 21.04.2022
2532 Clear 20 1014 32 10000 3.09 40 15:21 21.04.2022
2533 Clear 19 1014 34 10000 3.6 0 14:47 21.04.2022
2534 Clear 17 1015 39 10000 3.6 60 13:23 21.04.2022
2535 Clear 17 1016 42 10000 3.6 50 12:53 21.04.2022
2536 Clear 14 1016 54 10000 4.63 50 10:47 21.04.2022
2537 Clear 11 1016 66 10000 2.57 90 08:56 21.04.2022
2538 Clouds 11 1016 66 10000 3.09 70 07:24 21.04.2022
2539 Clouds 12 1016 62 10000 3.6 60 05:42 21.04.2022
2540 Clouds 12 1017 66 10000 5.14 50 03:30 21.04.2022
2541 Clouds 12 1018 66 10000 4.63 40 02:47 21.04.2022
2542 Clouds 13 1018 62 10000 5.14 30 00:45 21.04.2022
2543 Clouds 15 1017 51 10000 4.63 20 23:50 20.04.2022
2544 Clouds 16 1016 48 10000 4.63 10 23:22 20.04.2022
2545 Clouds 16 1016 48 10000 4.63 10 22:49 20.04.2022
2546 Clouds 17 1016 42 10000 5.66 10 22:30 20.04.2022
2547 Clouds 18 1016 39 10000 4.63 360 21:27 20.04.2022
2548 Clouds 20 1015 34 10000 4.12 330 20:24 20.04.2022
2549 Clouds 20 1015 34 10000 4.12 10 19:52 20.04.2022
2550 Clouds 20 1015 34 10000 3.6 360 19:20 20.04.2022
2551 Clouds 20 1015 37 10000 4.12 0 17:56 20.04.2022
2552 Clouds 20 1016 37 10000 3.6 20 16:54 20.04.2022
2553 Clouds 20 1016 37 10000 3.6 30 16:36 20.04.2022
2554 Clouds 16 1018 55 10000 2.06 0 13:59 20.04.2022
2555 Clouds 14 1017 58 10000 3.09 130 11:50 20.04.2022
2556 Clouds 13 1017 67 10000 4.12 110 11:21 20.04.2022
2557 Clouds 12 1017 66 10000 3.6 90 10:19 20.04.2022
2558 Clouds 12 1017 71 10000 3.6 80 09:25 20.04.2022
2559 Clouds 12 1017 66 10000 3.6 70 08:22 20.04.2022
2560 Clear 11 1017 71 10000 3.09 80 07:36 20.04.2022
2561 Clear 13 1017 62 10000 5.14 50 03:38 20.04.2022
2562 Clouds 15 1018 58 10000 5.14 30 00:23 20.04.2022
2563 Clouds 15 1018 58 10000 5.14 40 23:56 19.04.2022
2564 Clouds 18 1016 48 10000 4.63 360 22:27 19.04.2022
2565 Clouds 19 1016 45 10000 5.14 360 21:57 19.04.2022
2566 Clouds 20 1015 42 10000 5.14 10 21:24 19.04.2022
2567 Clouds 21 1015 40 10000 5.66 350 20:45 19.04.2022
2568 Clouds 24 1014 38 10000 4.12 340 19:57 19.04.2022
2569 Clouds 24 1014 41 10000 2.06 0 18:49 19.04.2022
2570 Clouds 25 1015 41 10000 2.06 0 17:50 19.04.2022
2571 Clouds 23 1016 49 10000 2.06 0 16:43 19.04.2022
2572 Clouds 22 1016 53 10000 2.06 0 16:23 19.04.2022
2573 Clouds 20 1017 60 10000 1.54 0 14:50 19.04.2022
2574 Clouds 18 1017 72 10000 1.54 20 13:54 19.04.2022
2575 Clouds 16 1017 77 10000 2.06 0 12:50 19.04.2022
2576 Clouds 16 1017 77 10000 2.06 20 12:20 19.04.2022
2577 Clouds 15 1017 82 7000 1.03 0 10:46 19.04.2022
2578 Clouds 14 1017 88 8000 1.03 0 09:22 19.04.2022
2579 Clear 14 1016 82 10000 3.6 230 05:59 19.04.2022
2580 Clear 16 1017 72 10000 2.57 260 03:37 19.04.2022
2581 Clear 19 1018 63 10000 3.09 290 00:55 19.04.2022
2582 Clear 20 1018 60 10000 4.12 300 23:31 18.04.2022
2583 Clear 26 1014 41 10000 5.66 350 21:30 18.04.2022
2584 Clear 28 1014 34 10000 5.66 350 20:56 18.04.2022
2585 Clear 30 1014 21 10000 4.12 300 20:32 18.04.2022
2586 Clear 31 1013 20 10000 4.63 300 19:51 18.04.2022
2587 Clear 32 1013 15 10000 5.66 280 18:57 18.04.2022
2588 Clear 32 1013 15 10000 4.63 0 17:58 18.04.2022
2589 Clear 32 1013 15 10000 3.09 0 17:34 18.04.2022
2590 Clear 32 1014 15 10000 3.6 270 16:59 18.04.2022
2591 Clear 32 1014 18 10000 3.09 0 16:32 18.04.2022
2592 Clear 29 1015 24 10000 2.06 50 14:59 18.04.2022
2593 Clear 28 1016 30 10000 1.03 0 13:39 18.04.2022
2594 Clear 26 1016 36 10000 1.03 0 12:32 18.04.2022
2595 Clear 23 1016 46 10000 1.54 310 11:35 18.04.2022
2596 Clear 21 1016 49 10000 1.54 300 10:32 18.04.2022
2597 Clear 18 1015 55 10000 1.54 270 09:31 18.04.2022
2598 Clear 17 1015 55 10000 1.54 250 07:54 18.04.2022
2599 Clear 19 1014 48 10000 2.06 230 05:45 18.04.2022
2600 Clear 24 1016 33 10000 2.06 100 00:49 18.04.2022
2601 Clear 27 1015 28 10000 5.14 10 22:42 17.04.2022
2602 Clear 29 1015 20 10000 3.09 330 21:49 17.04.2022
2603 Clear 30 1014 19 10000 3.09 340 21:27 17.04.2022
2604 Clear 31 1014 18 10000 3.09 290 20:41 17.04.2022
2605 Clear 32 1014 18 10000 4.12 290 19:40 17.04.2022
2606 Clouds 31 1013 11 10000 5.35 295 18:21 17.04.2022
2607 Clear 33 1015 16 10000 2.06 360 16:27 17.04.2022
2608 Clear 32 1016 17 10000 2.06 0 15:26 17.04.2022
2609 Clear 32 1016 20 10000 2.06 10 14:19 17.04.2022
2610 Clear 30 1017 25 10000 1.54 0 13:18 17.04.2022
2611 Clear 28 1017 24 10000 1.54 0 12:27 17.04.2022
2612 Clear 28 1017 24 10000 1.54 0 12:27 17.04.2022
2613 Clear 24 1017 33 10000 1.03 0 10:46 17.04.2022
2614 Clear 23 1017 33 10000 1.03 0 10:28 17.04.2022
2615 Clear 20 1017 37 10000 2.57 180 09:37 17.04.2022
2616 Clear 19 1017 39 10000 2.57 180 08:53 17.04.2022
2617 Clear 19 1016 42 10000 1.54 170 07:37 17.04.2022
2618 Clear 20 1016 40 10000 1.54 230 04:30 17.04.2022
2619 Clear 24 1017 33 10000 1.54 170 01:27 17.04.2022
2620 Clear 26 1017 29 10000 3.6 30 23:52 16.04.2022
2621 Clear 28 1016 18 10000 1.54 20 22:39 16.04.2022
2622 Clear 30 1015 16 10000 2.06 340 21:39 16.04.2022
2623 Clear 32 1015 17 10000 2.57 340 20:32 16.04.2022
2624 Clear 33 1015 16 10000 2.06 340 18:59 16.04.2022
2625 Clear 33 1015 14 10000 1.54 150 17:52 16.04.2022
2626 Clear 33 1015 16 10000 1.54 0 16:40 16.04.2022
2627 Clear 31 1016 18 10000 1.54 0 15:45 16.04.2022
2628 Clear 30 1016 21 10000 2.06 0 14:56 16.04.2022
2629 Clear 29 1017 24 10000 1.54 360 13:58 16.04.2022
2630 Clear 28 1017 28 10000 1.03 0 13:37 16.04.2022
2631 Clear 26 1017 29 10000 1.03 0 12:26 16.04.2022
2632 Clear 21 1017 40 10000 1.54 30 10:50 16.04.2022
2633 Clear 20 1017 45 10000 0.51 0 09:56 16.04.2022
2634 Clear 14 1016 62 10000 1.54 100 08:57 16.04.2022
2635 Clear 14 1016 62 10000 1.54 80 07:52 16.04.2022
2636 Clear 16 1016 59 10000 1.03 0 06:58 16.04.2022
2637 Clear 20 1017 42 10000 4.12 110 02:52 16.04.2022
2638 Clear 23 1017 35 10000 4.63 60 00:30 16.04.2022
2639 Clear 23 1016 31 10000 2.57 70 23:21 15.04.2022
2640 Clear 25 1016 25 10000 2.57 70 22:32 15.04.2022
2641 Clear 26 1015 24 10000 3.6 60 21:50 15.04.2022
2642 Clear 28 1015 21 10000 4.12 90 21:18 15.04.2022
2643 Clear 29 1014 21 10000 4.12 90 20:22 15.04.2022
2644 Clear 29 1014 20 10000 5.14 70 19:40 15.04.2022
2645 Clear 30 1014 19 10000 3.6 50 18:54 15.04.2022
2646 Clear 29 1014 20 10000 4.12 50 18:25 15.04.2022
2647 Clear 29 1015 21 10000 4.12 20 17:34 15.04.2022
2648 Clear 29 1015 23 10000 4.63 50 16:48 15.04.2022
2649 Clear 28 1015 23 10000 4.63 40 16:18 15.04.2022
2650 Clear 27 1016 26 10000 3.09 0 14:51 15.04.2022
2651 Clear 24 1017 35 10000 3.09 0 13:40 15.04.2022
2652 Clear 22 1017 46 10000 2.06 50 12:40 15.04.2022
2653 Clear 20 1017 45 10000 3.6 60 11:56 15.04.2022
2654 Clear 19 1017 52 10000 3.09 70 11:30 15.04.2022
2655 Clear 17 1017 59 10000 3.6 70 10:40 15.04.2022
2656 Clear 14 1016 72 10000 4.12 90 09:44 15.04.2022
2657 Clear 14 1016 72 10000 4.12 90 09:19 15.04.2022
2658 Clear 13 1016 76 10000 3.09 80 07:32 15.04.2022
2659 Clear 14 1015 72 10000 4.12 100 06:28 15.04.2022
2660 Clear 17 1017 59 10000 3.09 70 02:39 15.04.2022
2661 Clear 20 1016 52 10000 7.72 40 23:31 14.04.2022
2662 Clear 21 1016 46 10000 7.72 30 22:49 14.04.2022
2663 Clear 23 1015 21 10000 3.6 40 22:29 14.04.2022
2664 Clear 23 1014 20 10000 3.6 40 21:59 14.04.2022
2665 Clear 25 1014 19 10000 3.6 40 20:43 14.04.2022
2666 Clear 26 1014 19 10000 3.6 30 19:23 14.04.2022
2667 Clear 26 1014 21 10000 3.6 70 18:22 14.04.2022
2668 Clear 26 1014 22 10000 3.09 0 17:40 14.04.2022
2669 Clear 25 1014 23 10000 3.6 0 16:46 14.04.2022
2670 Clear 25 1014 27 10000 4.63 30 15:24 14.04.2022
2671 Clear 22 1015 43 10000 3.6 70 13:46 14.04.2022
2672 Clear 21 1016 46 10000 4.63 60 12:56 14.04.2022
2673 Clear 19 1016 52 10000 4.63 50 12:31 14.04.2022
2674 Clear 17 1016 59 10000 4.12 50 11:29 14.04.2022
2675 Clear 15 1015 72 10000 4.12 90 10:53 14.04.2022
2676 Clear 14 1015 72 10000 4.12 90 10:26 14.04.2022
2677 Clear 13 1015 76 10000 3.6 80 09:24 14.04.2022
2678 Clear 12 1014 76 10000 2.57 90 07:27 14.04.2022
2679 Clear 14 1016 72 10000 3.09 80 03:32 14.04.2022
2680 Clear 18 1014 52 10000 5.66 20 23:26 13.04.2022
2681 Clear 20 1013 42 10000 5.14 30 22:20 13.04.2022
2682 Clear 21 1013 37 10000 4.12 30 21:36 13.04.2022
2683 Clouds 23 1012 35 10000 4.12 40 20:23 13.04.2022
2684 Clouds 23 1012 35 10000 4.12 50 19:37 13.04.2022
2685 Clouds 23 1012 38 10000 3.6 20 18:36 13.04.2022
2686 Clouds 23 1012 35 10000 4.12 30 17:24 13.04.2022
2687 Clouds 23 1013 40 10000 4.12 50 16:37 13.04.2022
2688 Clouds 22 1013 43 10000 3.6 0 15:41 13.04.2022
2689 Clouds 22 1014 43 10000 3.6 20 14:51 13.04.2022
2690 Clouds 20 1014 45 10000 3.6 30 14:28 13.04.2022
2691 Clouds 20 1015 49 10000 3.6 80 13:29 13.04.2022
2692 Clouds 17 1015 63 10000 3.6 70 12:30 13.04.2022
2693 Clouds 15 1015 72 10000 3.6 70 10:55 13.04.2022
2694 Clouds 14 1015 77 10000 3.09 50 09:44 13.04.2022
2695 Clouds 14 1014 77 8000 3.09 90 08:43 13.04.2022
2696 Clouds 14 1014 77 8000 2.57 50 06:52 13.04.2022
2697 Clouds 14 1014 77 8000 1.54 60 06:26 13.04.2022
2698 Clouds 14 1014 77 8000 2.57 60 05:52 13.04.2022
2699 Clouds 16 1016 63 10000 3.6 360 00:23 13.04.2022
2700 Clouds 16 1015 63 10000 3.6 10 23:46 12.04.2022
2701 Clouds 18 1014 55 10000 5.14 360 22:19 12.04.2022
2702 Clouds 20 1013 42 10000 3.09 310 21:29 12.04.2022
2703 Clouds 20 1013 42 10000 3.09 300 20:41 12.04.2022
2704 Clouds 21 1013 40 10000 3.6 340 19:53 12.04.2022
2705 Clouds 22 1013 40 10000 4.12 290 19:32 12.04.2022
2706 Clouds 22 1012 37 10000 3.6 260 18:42 12.04.2022
2707 Clouds 22 1013 43 8000 2.57 300 17:30 12.04.2022
2708 Clouds 21 1014 46 8000 3.6 290 16:23 12.04.2022
2709 Clouds 19 1014 52 8000 3.09 300 15:33 12.04.2022
2710 Clouds 18 1015 59 8000 3.09 0 14:29 12.04.2022
2711 Clouds 17 1015 63 8000 3.6 310 13:37 12.04.2022
2712 Clouds 17 1016 67 8000 4.63 320 12:52 12.04.2022
2713 Clouds 17 1015 67 8000 3.09 290 11:47 12.04.2022
2714 Clouds 16 1015 72 8000 2.06 290 10:47 12.04.2022
2715 Clouds 14 1014 82 8000 2.57 280 09:24 12.04.2022
2716 Clouds 13 1013 82 8000 1.03 0 07:56 12.04.2022
2717 Clouds 14 1013 77 8000 1.54 240 06:32 12.04.2022
2718 Clouds 14 1013 77 8000 1.54 240 06:32 12.04.2022
2719 Clouds 14 1013 77 8000 2.06 230 05:34 12.04.2022
2720 Clouds 16 1014 63 8000 3.6 290 00:46 12.04.2022
2721 Clouds 17 1014 63 8000 4.63 280 22:47 11.04.2022
2722 Clouds 17 1013 59 8000 5.14 280 21:49 11.04.2022
2723 Clouds 18 1013 59 8000 5.66 300 20:59 11.04.2022
2724 Clouds 18 1012 59 8000 6.17 310 20:29 11.04.2022
2725 Clouds 20 1012 56 8000 5.14 290 19:55 11.04.2022
2726 Clouds 20 1012 56 8000 3.6 300 19:18 11.04.2022
2727 Clouds 20 1011 56 8000 4.12 260 18:47 11.04.2022
2728 Clouds 21 1012 56 8000 6.69 290 17:57 11.04.2022
2729 Clouds 21 1011 52 8000 6.17 270 16:54 11.04.2022
2730 Clouds 21 1011 52 8000 6.17 270 16:54 11.04.2022
2731 Clouds 21 1012 52 8000 5.66 270 15:56 11.04.2022
2732 Clouds 19 1012 63 8000 1.03 0 14:24 11.04.2022
2733 Clouds 16 1013 72 8000 2.57 310 12:53 11.04.2022
2734 Clouds 15 1013 77 8000 2.57 330 12:33 11.04.2022
2735 Clouds 14 1013 77 8000 3.6 290 11:33 11.04.2022
2736 Clouds 13 1012 88 8000 3.09 280 10:28 11.04.2022
2737 Clouds 13 1012 82 8000 4.12 280 09:20 11.04.2022
2738 Clear 14 1010 82 10000 2.57 280 06:24 11.04.2022
2739 Clear 18 1012 59 10000 3.09 250 01:53 11.04.2022
2740 Clear 23 1011 49 10000 2.57 290 22:37 10.04.2022
2741 Clouds 24 1011 43 8000 3.09 310 21:55 10.04.2022
2742 Clouds 25 1010 44 8000 3.6 290 21:29 10.04.2022
2743 Clouds 27 1010 39 8000 3.6 310 20:30 10.04.2022
2744 Clouds 28 1009 36 8000 4.63 300 19:43 10.04.2022
2745 Clouds 28 1009 36 8000 4.63 300 19:18 10.04.2022
2746 Clouds 30 1009 26 8000 5.66 290 18:41 10.04.2022
2747 Clouds 30 1009 25 8000 5.66 300 17:52 10.04.2022
2748 Clouds 31 1009 19 8000 4.63 290 17:32 10.04.2022
2749 Clouds 31 1010 18 8000 4.63 290 16:21 10.04.2022
2750 Clear 30 1011 21 8000 3.6 340 14:59 10.04.2022
2751 Clear 30 1011 25 10000 2.57 360 13:54 10.04.2022
2752 Clear 27 1011 28 10000 1.03 0 12:33 10.04.2022
2753 Clear 24 1011 35 10000 1.54 220 11:46 10.04.2022
2754 Clear 24 1011 35 10000 1.54 220 11:28 10.04.2022
2755 Clear 23 1012 38 10000 1.54 200 10:41 10.04.2022
2756 Clear 19 1011 55 10000 0.51 0 09:50 10.04.2022
2757 Clear 14 1011 62 10000 0.51 0 08:56 10.04.2022
2758 Clear 14 1011 58 10000 2.06 250 08:21 10.04.2022
2759 Clear 16 1011 55 10000 1.54 70 06:59 10.04.2022
2760 Clear 18 1013 52 10000 1.54 120 04:42 10.04.2022
2761 Clear 20 1015 45 10000 2.57 190 02:20 10.04.2022
2762 Clear 24 1015 33 10000 2.57 230 23:54 09.04.2022
2763 Clear 24 1015 33 10000 2.57 230 23:29 09.04.2022
2764 Clear 25 1015 27 10000 1.54 290 22:39 09.04.2022
2765 Clear 27 1014 24 10000 3.09 310 21:31 09.04.2022
2766 Clear 29 1014 20 10000 2.06 340 20:35 09.04.2022
2767 Clear 29 1014 20 10000 2.57 310 19:59 09.04.2022
2768 Clear 29 1014 20 10000 2.57 310 19:41 09.04.2022
2769 Clear 31 1014 16 10000 2.06 320 18:26 09.04.2022
2770 Clear 30 1014 16 10000 2.57 300 17:52 09.04.2022
2771 Clear 30 1014 16 10000 3.6 340 17:18 09.04.2022
2772 Clear 30 1015 17 10000 1.54 0 16:42 09.04.2022
2773 Clear 29 1015 18 10000 1.54 0 15:51 09.04.2022
2774 Clear 28 1016 21 10000 1.54 0 15:26 09.04.2022
2775 Clear 27 1017 29 10000 2.57 50 14:26 09.04.2022
2776 Clear 25 1018 38 10000 2.57 60 13:34 09.04.2022
2777 Clear 23 1018 46 10000 2.06 40 12:57 09.04.2022
2778 Clear 20 1018 60 10000 2.57 70 11:51 09.04.2022
2779 Clear 18 1018 72 10000 2.06 90 10:52 09.04.2022
2780 Clear 16 1018 82 10000 3.6 110 10:18 09.04.2022
2781 Clear 14 1018 88 10000 3.09 100 09:23 09.04.2022
2782 Clear 13 1018 82 10000 2.06 70 08:35 09.04.2022
2783 Clear 15 1018 77 10000 2.06 110 05:21 09.04.2022
2784 Clear 19 1021 59 10000 2.57 20 00:35 09.04.2022
2785 Clear 20 1021 56 10000 4.12 20 23:24 08.04.2022
2786 Clear 23 1020 38 10000 3.6 10 21:54 08.04.2022
2787 Clear 24 1019 33 10000 4.12 10 20:45 08.04.2022
2788 Clear 26 1019 31 10000 3.6 360 19:57 08.04.2022
2789 Clear 26 1019 34 10000 3.6 320 18:59 08.04.2022
2790 Clear 26 1019 36 10000 2.57 340 18:24 08.04.2022
2791 Clear 27 1020 34 10000 2.06 0 17:38 08.04.2022
2792 Clear 27 1020 34 10000 2.06 0 17:19 08.04.2022
2793 Clear 25 1020 41 10000 2.06 0 16:32 08.04.2022
2794 Clear 24 1021 46 10000 1.54 0 15:38 08.04.2022
2795 Clear 23 1021 49 10000 2.57 280 14:52 08.04.2022
2796 Clear 22 1022 53 10000 1.54 0 14:21 08.04.2022
2797 Clear 22 1022 53 10000 1.54 0 13:41 08.04.2022
2798 Clear 20 1022 60 10000 2.06 350 13:22 08.04.2022
2799 Clear 18 1022 72 10000 1.03 0 11:43 08.04.2022
2800 Clear 15 1021 82 10000 1.54 90 10:26 08.04.2022
2801 Clear 12 1021 94 8000 2.06 90 09:20 08.04.2022
2802 Clouds 12 1020 87 10000 2.06 90 07:58 08.04.2022
2803 Clear 12 1020 87 10000 3.09 90 06:46 08.04.2022
2804 Clear 14 1022 77 10000 1.54 80 03:48 08.04.2022
2805 Clouds 17 1022 67 10000 3.6 40 00:31 08.04.2022
2806 Clouds 17 1022 63 10000 4.12 30 23:53 07.04.2022
2807 Clouds 19 1021 52 10000 3.6 10 22:57 07.04.2022
2808 Clouds 20 1021 42 10000 2.06 360 22:37 07.04.2022
2809 Clouds 20 1021 42 10000 2.06 360 22:19 07.04.2022
2810 Clouds 21 1021 37 10000 3.09 10 21:33 07.04.2022
2811 Clouds 22 1020 35 10000 3.09 10 20:56 07.04.2022
2812 Clouds 22 1020 35 10000 2.57 30 20:26 07.04.2022
2813 Clouds 22 1020 37 10000 3.6 30 17:45 07.04.2022
2814 Clouds 22 1020 37 10000 3.6 30 17:23 07.04.2022
2815 Clouds 22 1020 37 10000 3.6 20 16:42 07.04.2022
2816 Clouds 21 1020 40 10000 2.57 0 15:56 07.04.2022
2817 Clouds 20 1021 49 10000 4.63 50 14:28 07.04.2022
2818 Clouds 18 1022 55 10000 3.6 60 13:41 07.04.2022
2819 Clear 16 1022 63 10000 2.57 50 12:28 07.04.2022
2820 Clear 14 1022 72 10000 3.09 70 10:56 07.04.2022
2821 Clear 11 1021 82 10000 2.06 70 09:34 07.04.2022
2822 Clear 10 1021 87 10000 0.51 0 08:27 07.04.2022
2823 Clouds 11 1020 82 10000 2.06 40 06:18 07.04.2022
2824 Clouds 14 1021 67 10000 5.14 70 02:38 07.04.2022
2825 Clouds 14 1021 67 10000 5.14 60 01:27 07.04.2022
2826 Clouds 15 1021 63 10000 5.14 40 23:53 06.04.2022
2827 Clouds 15 1021 63 10000 5.66 30 22:45 06.04.2022
2828 Clouds 15 1020 67 10000 4.63 10 22:24 06.04.2022
2829 Clouds 17 1019 51 10000 5.14 360 21:18 06.04.2022
2830 Clouds 18 1019 45 10000 3.6 360 20:27 06.04.2022
2831 Clouds 18 1019 45 10000 2.57 360 19:52 06.04.2022
2832 Clouds 18 1018 45 10000 3.6 20 18:50 06.04.2022
2833 Clouds 18 1018 48 10000 3.6 350 17:52 06.04.2022
2834 Clouds 18 1019 48 10000 3.09 360 17:28 06.04.2022
2835 Clouds 18 1019 45 10000 2.57 10 16:35 06.04.2022
2836 Clouds 20 1019 40 10000 1.54 0 15:47 06.04.2022
2837 Clouds 18 1020 52 10000 2.06 0 14:23 06.04.2022
2838 Clouds 15 1021 67 10000 1.03 0 12:58 06.04.2022
2839 Clouds 15 1020 67 10000 1.03 0 11:54 06.04.2022
2840 Clouds 14 1020 77 10000 0.51 0 10:45 06.04.2022
2841 Clouds 13 1020 88 10000 0.51 0 10:20 06.04.2022
2842 Clouds 10 1019 87 10000 0.51 0 09:27 06.04.2022
2843 Clouds 10 1019 87 10000 0.51 0 08:30 06.04.2022
2844 Clouds 11 1018 87 10000 3.09 210 07:38 06.04.2022
2845 Clouds 11 1018 87 8000 2.57 220 02:57 06.04.2022
2846 Clouds 11 1018 82 6000 4.63 270 23:51 05.04.2022
2847 Clouds 12 1016 76 10000 3.6 260 22:30 05.04.2022
2848 Clouds 12 1016 71 8000 7.72 270 21:18 05.04.2022
2849 Clouds 14 1015 62 8000 6.69 280 20:25 05.04.2022
2850 Clouds 15 1014 55 8000 9.77 270 19:26 05.04.2022
2851 Clouds 16 1014 51 8000 8.75 270 17:52 05.04.2022
2852 Clouds 16 1014 48 8000 10.29 260 16:51 05.04.2022
2853 Clouds 17 1014 48 8000 10.8 260 15:53 05.04.2022
2854 Clouds 15 1014 55 8000 11.32 260 15:33 05.04.2022
2855 Clouds 15 1014 55 8000 9.26 270 14:22 05.04.2022
2856 Clouds 13 1013 67 8000 6.17 290 12:56 05.04.2022
2857 Clouds 13 1013 67 8000 7.72 270 11:50 05.04.2022
2858 Clouds 12 1013 71 8000 6.17 260 11:32 05.04.2022
2859 Clouds 9 1012 81 8000 2.57 250 09:52 05.04.2022
2860 Clouds 9 1011 81 8000 3.6 260 08:52 05.04.2022
2861 Clouds 9 1010 87 8000 2.57 230 06:52 05.04.2022
2862 Clouds 11 1009 87 8000 3.09 260 00:41 05.04.2022
2863 Clouds 12 1008 82 8000 4.63 280 22:41 04.04.2022
2864 Clouds 12 1007 87 7000 6.17 280 22:19 04.04.2022
2865 Clouds 13 1006 82 7000 5.14 260 21:21 04.04.2022
2866 Clouds 13 1006 82 7000 5.14 260 20:49 04.04.2022
2867 Clouds 13 1005 82 5000 7.2 280 19:44 04.04.2022
2868 Clouds 12 1005 87 8000 4.12 240 19:25 04.04.2022
2869 Clouds 14 1004 88 4000 6.69 280 17:55 04.04.2022
2870 Clouds 14 1003 82 5000 6.69 280 16:36 04.04.2022
2871 Clouds 15 1002 77 8000 6.69 290 15:43 04.04.2022
2872 Clouds 15 1002 77 8000 6.69 290 15:25 04.04.2022
2873 Clouds 16 1002 77 8000 6.69 280 14:46 04.04.2022
2874 Clouds 16 1002 82 8000 3.6 290 13:22 04.04.2022
2875 Clouds 14 1003 74 10000 4.99 279 11:55 04.04.2022
2876 Clouds 11 1002 93 3000 2.57 240 11:28 04.04.2022
2877 Clouds 11 1000 93 5000 2.57 290 08:36 04.04.2022
2878 Clouds 13 1002 76 8000 1.03 0 04:18 04.04.2022
2879 Clouds 15 1004 72 8000 3.09 280 00:44 04.04.2022
2880 Clouds 16 1005 67 8000 6.17 270 22:40 03.04.2022
2881 Clouds 17 1004 63 8000 5.14 290 21:45 03.04.2022
2882 Clouds 17 1004 63 8000 5.66 300 20:54 03.04.2022
2883 Clouds 19 1004 59 8000 3.6 290 19:50 03.04.2022
2884 Clouds 19 1004 63 8000 3.09 300 18:32 03.04.2022
2885 Clouds 19 1004 63 8000 3.09 290 17:47 03.04.2022
2886 Clouds 19 1005 63 8000 3.6 300 16:57 03.04.2022
2887 Clouds 19 1005 59 8000 4.12 290 16:39 03.04.2022
2888 Clouds 19 1005 63 8000 3.09 300 14:48 03.04.2022
2889 Clouds 17 1006 67 8000 4.63 270 13:53 03.04.2022
2890 Clouds 15 1006 77 8000 3.6 290 12:42 03.04.2022
2891 Clouds 13 1007 82 8000 4.12 240 10:58 03.04.2022
2892 Clouds 12 1006 82 8000 3.09 280 09:38 03.04.2022
2893 Clouds 12 1006 82 8000 4.12 250 08:36 03.04.2022
2894 Clear 13 1005 71 10000 2.06 270 05:38 03.04.2022
2895 Clear 17 1007 59 10000 1.54 230 01:54 03.04.2022
2896 Clouds 22 1007 35 8000 3.09 10 23:21 02.04.2022
2897 Clouds 23 1007 28 8000 2.57 10 22:18 02.04.2022
2898 Clouds 24 1006 25 8000 2.57 40 21:47 02.04.2022
2899 Clear 24 1006 25 8000 2.57 50 21:18 02.04.2022
2900 Clear 26 1007 24 8000 3.6 360 20:29 02.04.2022
2901 Clear 27 1007 24 10000 2.57 10 18:23 02.04.2022
2902 Clear 27 1007 26 10000 1.54 70 17:53 02.04.2022
2903 Clear 25 1008 29 10000 2.06 0 16:29 02.04.2022
2904 Clear 25 1009 29 10000 2.06 0 15:22 02.04.2022
2905 Clear 24 1010 35 10000 2.06 10 14:51 02.04.2022
2906 Clear 21 1010 43 10000 3.09 60 13:51 02.04.2022
2907 Clear 21 1010 46 10000 3.6 40 13:19 02.04.2022
2908 Clear 16 1011 67 10000 2.06 50 11:39 02.04.2022
2909 Clear 11 1010 82 10000 2.06 70 09:31 02.04.2022
2910 Clear 11 1011 82 10000 3.09 90 06:56 02.04.2022
2911 Clear 14 1012 67 10000 3.6 60 03:55 02.04.2022
2912 Clear 17 1014 59 10000 4.12 40 00:19 02.04.2022
2913 Clear 19 1014 42 10000 5.14 40 23:40 01.04.2022
2914 Clear 20 1013 40 10000 4.63 40 21:55 01.04.2022
2915 Clear 22 1013 35 10000 4.63 40 20:53 01.04.2022
2916 Clear 23 1013 33 10000 4.12 50 20:31 01.04.2022
2917 Clear 23 1013 35 10000 4.63 20 19:38 01.04.2022
2918 Clear 23 1012 38 10000 5.14 50 18:52 01.04.2022
2919 Clear 24 1012 35 10000 3.6 30 17:59 01.04.2022
2920 Clear 24 1012 38 10000 4.12 50 17:35 01.04.2022
2921 Clear 22 1014 43 10000 4.12 80 15:43 01.04.2022
2922 Clear 20 1015 49 10000 5.14 50 14:39 01.04.2022
2923 Clouds 20 1014 40 10000 4.73 48 13:35 01.04.2022
2924 Clouds 16 1016 67 10000 5.14 80 12:33 01.04.2022
2925 Clouds 16 1016 67 10000 5.14 80 12:33 01.04.2022
2926 Clouds 16 1016 67 10000 4.63 70 11:44 01.04.2022
2927 Clouds 14 1017 77 10000 3.6 70 10:19 01.04.2022
2928 Clouds 13 1017 82 10000 3.09 70 09:29 01.04.2022
2929 Clouds 14 1016 77 8000 3.6 50 06:55 01.04.2022
2930 Clouds 14 1016 82 8000 3.6 60 04:53 01.04.2022
2931 Clouds 14 1016 82 8000 3.6 60 04:34 01.04.2022
2932 Clouds 14 1017 82 8000 1.54 80 01:59 01.04.2022
2933 Clouds 15 1018 77 10000 3.6 40 00:44 01.04.2022
2934 Clouds 19 1016 48 10000 3.6 10 21:55 31.03.2022
2935 Clouds 19 1015 45 10000 3.09 330 21:33 31.03.2022
2936 Clouds 21 1015 37 10000 2.06 0 20:30 31.03.2022
2937 Clouds 22 1015 35 10000 1.03 0 19:50 31.03.2022
2938 Clouds 22 1015 35 10000 2.57 0 18:52 31.03.2022
2939 Clouds 21 1015 40 10000 2.57 310 17:50 31.03.2022
2940 Clouds 20 1015 42 10000 2.57 50 16:40 31.03.2022
2941 Clouds 20 1016 49 10000 1.03 0 15:48 31.03.2022
2942 Clear 19 1016 38 10000 2.84 352 15:20 31.03.2022
2943 Clouds 18 1017 59 10000 1.03 0 14:40 31.03.2022
2944 Clouds 16 1018 72 10000 1.54 0 12:30 31.03.2022
2945 Clouds 16 1018 72 10000 1.54 0 12:30 31.03.2022
2946 Clouds 14 1017 77 10000 2.06 90 11:26 31.03.2022
2947 Clouds 12 1016 87 10000 2.57 50 09:50 31.03.2022
2948 Clouds 10 1015 93 10000 1.54 100 08:23 31.03.2022
2949 Clouds 12 1015 82 10000 1.54 70 05:42 31.03.2022
2950 Clouds 13 1017 82 10000 2.57 350 00:32 31.03.2022
2951 Clouds 14 1016 77 10000 3.09 340 23:23 30.03.2022
2952 Clouds 15 1015 67 8000 4.63 340 21:41 30.03.2022
2953 Clouds 16 1014 63 8000 4.63 340 20:55 30.03.2022
2954 Clouds 17 1014 63 8000 4.12 340 20:20 30.03.2022
2955 Clouds 18 1013 59 8000 4.12 330 19:35 30.03.2022
2956 Clouds 18 1013 63 8000 4.63 320 18:29 30.03.2022
2957 Clouds 18 1013 59 8000 4.12 310 17:48 30.03.2022
2958 Clouds 19 1013 63 8000 3.6 290 16:57 30.03.2022
2959 Clouds 17 1014 67 8000 2.57 0 16:38 30.03.2022
2960 Clouds 18 1014 72 8000 2.57 340 15:24 30.03.2022
2961 Clouds 14 1015 94 8000 2.06 310 13:44 30.03.2022
2962 Clouds 13 1015 94 8000 1.03 0 12:58 30.03.2022
2963 Clouds 14 1014 94 7000 4.12 270 11:34 30.03.2022
2964 Clouds 14 1014 94 7000 4.12 270 11:34 30.03.2022
2965 Clouds 13 1013 94 7000 3.6 270 10:28 30.03.2022
2966 Clouds 12 1013 94 7000 3.09 280 09:24 30.03.2022
2967 Clouds 12 1011 94 5000 4.12 260 07:33 30.03.2022
2968 Clouds 12 1011 87 8000 3.6 250 05:41 30.03.2022
2969 Clouds 13 1011 76 8000 2.57 250 03:59 30.03.2022
2970 Clouds 13 1013 76 8000 2.06 260 00:42 30.03.2022
2971 Clouds 15 1012 67 10000 4.63 280 22:28 29.03.2022
2972 Clouds 16 1012 63 10000 5.14 260 21:45 29.03.2022
2973 Clouds 16 1012 67 10000 5.14 270 20:53 29.03.2022
2974 Clouds 17 1011 59 10000 7.2 270 20:18 29.03.2022
2975 Clouds 19 1010 59 10000 7.72 270 18:56 29.03.2022
2976 Clouds 18 1010 63 10000 6.69 290 18:21 29.03.2022
2977 Clouds 18 1010 68 10000 7.72 280 17:35 29.03.2022
2978 Clouds 17 1010 77 6000 6.69 290 16:57 29.03.2022
2979 Clouds 18 1010 68 6000 10.8 280 15:57 29.03.2022
2980 Clouds 21 1009 60 6000 10.29 280 14:52 29.03.2022
2981 Clouds 22 1009 49 8000 4.12 290 13:58 29.03.2022
2982 Clouds 21 1009 56 8000 2.06 340 12:51 29.03.2022
2983 Clouds 18 1010 68 8000 1.54 320 11:43 29.03.2022
2984 Clouds 16 1010 77 8000 1.54 270 10:30 29.03.2022
2985 Clouds 15 1009 82 8000 2.06 290 09:41 29.03.2022
2986 Clouds 16 1009 77 10000 1.54 180 06:58 29.03.2022
2987 Clouds 16 1011 72 8000 1.54 270 03:54 29.03.2022
2988 Clouds 18 1013 63 8000 3.6 320 00:33 29.03.2022
2989 Clouds 18 1013 63 8000 3.09 340 23:22 28.03.2022
2990 Clouds 19 1013 63 8000 3.6 330 22:51 28.03.2022
2991 Clouds 19 1013 63 8000 3.6 310 22:23 28.03.2022
2992 Clouds 20 1012 60 8000 3.6 300 20:56 28.03.2022
2993 Clouds 20 1012 60 8000 4.63 300 20:21 28.03.2022
2994 Clouds 21 1011 56 8000 4.63 310 19:41 28.03.2022
2995 Clouds 22 1011 53 8000 4.63 320 18:56 28.03.2022
2996 Clouds 23 1011 49 8000 4.63 320 18:36 28.03.2022
2997 Clouds 23 1011 49 8000 5.66 310 17:39 28.03.2022
2998 Clouds 23 1012 49 8000 6.17 290 16:19 28.03.2022
2999 Clouds 22 1012 49 8000 6.69 300 14:27 28.03.2022
3000 Clouds 22 1012 43 8000 5.14 310 13:47 28.03.2022
3001 Clouds 22 1013 37 8000 1.54 0 11:58 28.03.2022
3002 Clouds 21 1013 40 8000 1.54 220 11:23 28.03.2022
3003 Clouds 16 1012 51 8000 1.54 190 09:41 28.03.2022
3004 Clouds 15 1012 55 8000 0.51 0 09:19 28.03.2022
3005 Clouds 16 1012 51 8000 2.06 110 08:22 28.03.2022
3006 Clouds 17 1012 45 8000 3.09 210 07:27 28.03.2022
3007 Clear 18 1011 59 8000 3.6 100 03:27 28.03.2022
3008 Clouds 22 1013 37 8000 5.14 110 23:24 27.03.2022
3009 Clouds 22 1013 37 8000 3.6 100 22:23 27.03.2022
3010 Clouds 23 1013 33 8000 3.09 70 21:41 27.03.2022
3011 Clouds 24 1013 27 8000 2.57 50 20:54 27.03.2022
3012 Clouds 26 1013 25 8000 2.06 350 19:46 27.03.2022
3013 Clouds 26 1013 34 8000 1.03 0 18:55 27.03.2022
3014 Clouds 25 1012 38 8000 2.06 320 18:27 27.03.2022
3015 Clouds 24 1012 41 8000 3.09 310 17:38 27.03.2022
3016 Clouds 23 1012 46 8000 1.54 0 15:59 27.03.2022
3017 Clouds 22 1012 49 8000 2.06 40 14:55 27.03.2022
3018 Clouds 21 1013 52 8000 1.54 0 13:54 27.03.2022
3019 Clouds 18 1014 68 8000 2.06 210 12:20 27.03.2022
3020 Clouds 15 1013 77 8000 2.06 190 10:47 27.03.2022
3021 Clouds 10 1011 93 8000 2.06 70 08:37 27.03.2022
3022 Mist 11 1012 93 3000 1.54 280 05:45 27.03.2022
3023 Clear 15 1012 63 8000 1.54 80 00:47 27.03.2022
3024 Clear 17 1013 59 8000 3.09 100 23:34 26.03.2022
3025 Clear 18 1013 52 8000 2.06 20 22:35 26.03.2022
3026 Clear 18 1012 55 8000 2.57 300 21:33 26.03.2022
3027 Clear 19 1011 48 8000 3.6 300 20:20 26.03.2022
3028 Clouds 21 1011 40 8000 3.09 320 19:19 26.03.2022
3029 Clouds 22 1011 37 8000 1.03 0 17:47 26.03.2022
3030 Clouds 21 1011 40 8000 2.06 40 17:28 26.03.2022
3031 Clouds 22 1011 37 8000 1.03 0 16:25 26.03.2022
3032 Clouds 20 1011 49 8000 3.09 50 14:51 26.03.2022
3033 Clouds 19 1012 55 8000 1.54 0 13:52 26.03.2022
3034 Clouds 18 1014 59 8000 1.03 0 12:44 26.03.2022
3035 Clouds 16 1014 72 8000 1.54 0 11:29 26.03.2022
3036 Clouds 12 1013 94 7000 0 0 09:23 26.03.2022
3037 Clouds 10 1012 93 8000 0.51 0 08:28 26.03.2022
3038 Clouds 11 1011 87 8000 1.03 0 05:54 26.03.2022
3039 Clouds 12 1012 87 8000 1.54 270 03:58 26.03.2022
3040 Clouds 14 1013 77 8000 2.57 310 23:39 25.03.2022
3041 Clouds 15 1012 63 8000 2.57 300 21:28 25.03.2022
3042 Clouds 15 1012 63 8000 3.09 310 20:45 25.03.2022
3043 Clouds 17 1011 48 8000 3.6 290 19:28 25.03.2022
3044 Clouds 17 1011 48 8000 4.63 280 18:46 25.03.2022
3045 Clouds 18 1011 42 8000 4.63 270 18:46 25.03.2022
3046 Clouds 18 1011 45 8000 3.09 310 17:35 25.03.2022
3047 Clouds 18 1011 48 8000 3.6 290 16:41 25.03.2022
3048 Clouds 18 1011 52 8000 3.6 300 15:52 25.03.2022
3049 Clouds 16 1012 63 8000 4.12 280 13:51 25.03.2022
3050 Clouds 14 1012 72 8000 5.14 290 12:32 25.03.2022
3051 Clouds 12 1012 82 8000 3.6 260 09:52 25.03.2022
3052 Clouds 11 1012 87 8000 3.09 260 09:23 25.03.2022
3053 Clouds 11 1011 82 8000 2.57 260 07:48 25.03.2022
3054 Clouds 11 1010 82 8000 2.06 250 07:21 25.03.2022
3055 Clouds 11 1009 82 8000 1.54 140 04:47 25.03.2022
3056 Clouds 11 1010 82 8000 2.06 80 00:29 25.03.2022
3057 Clouds 11 1010 82 8000 2.06 80 22:29 24.03.2022
3058 Clouds 12 1009 76 8000 3.09 110 21:34 24.03.2022
3059 Clouds 12 1009 71 8000 2.06 20 19:50 24.03.2022
3060 Clouds 12 1008 71 8000 3.6 310 18:54 24.03.2022
3061 Clouds 14 1008 62 8000 7.2 280 17:39 24.03.2022
3062 Clouds 16 1007 51 10000 6.17 290 16:44 24.03.2022
3063 Clouds 16 1008 51 10000 5.14 300 14:59 24.03.2022
3064 Clouds 16 1008 51 10000 4.12 300 14:41 24.03.2022
3065 Clouds 16 1008 51 10000 4.12 300 14:41 24.03.2022
3066 Clouds 14 1009 58 10000 4.63 290 13:54 24.03.2022
3067 Clouds 14 1010 62 10000 4.63 260 12:39 24.03.2022
3068 Clouds 14 1010 62 10000 3.6 260 11:31 24.03.2022
3069 Clouds 11 1010 82 8000 1.54 190 09:36 24.03.2022
3070 Clouds 9 1010 87 8000 1.03 0 08:40 24.03.2022
3071 Clouds 10 1010 81 8000 3.6 220 06:19 24.03.2022
3072 Clouds 9 1013 93 8000 4.12 140 01:28 24.03.2022
3073 Drizzle 9 1015 87 5000 0.51 0 22:29 23.03.2022
3074 Drizzle 9 1014 93 5000 2.06 350 21:25 23.03.2022
3075 Clouds 9 1014 93 7000 1.54 40 20:47 23.03.2022
3076 Clouds 10 1014 87 5000 1.03 0 19:40 23.03.2022
3077 Clouds 11 1014 82 5000 5.66 290 18:22 23.03.2022
3078 Clouds 11 1013 87 5000 6.69 300 17:36 23.03.2022
3079 Clouds 14 1012 67 6000 7.2 290 16:18 23.03.2022
3080 Clouds 19 1012 55 7000 7.72 290 14:50 23.03.2022
3081 Clouds 19 1012 52 8000 5.66 290 13:51 23.03.2022
3082 Clouds 17 1014 72 8000 3.6 260 11:51 23.03.2022
3083 Clouds 13 1014 88 6000 1.54 280 09:21 23.03.2022
3084 Clouds 13 1014 88 8000 2.06 260 06:29 23.03.2022
3085 Clouds 12 1015 87 10000 4.12 260 03:57 23.03.2022
3086 Clouds 15 1016 72 10000 1.03 0 00:29 23.03.2022
3087 Clouds 17 1016 63 10000 4.12 360 22:26 22.03.2022
3088 Clouds 19 1016 52 10000 2.57 10 21:29 22.03.2022
3089 Clouds 20 1015 49 10000 3.09 360 20:39 22.03.2022
3090 Clouds 20 1015 49 10000 1.03 0 19:31 22.03.2022
3091 Clouds 21 1015 46 10000 1.03 0 18:57 22.03.2022
3092 Clouds 22 1015 46 10000 3.09 310 17:47 22.03.2022
3093 Clouds 22 1015 46 10000 3.09 310 17:23 22.03.2022
3094 Clouds 21 1016 52 10000 2.06 0 15:54 22.03.2022
3095 Clouds 20 1016 56 10000 2.06 360 15:22 22.03.2022
3096 Clouds 20 1016 52 10000 1.54 0 14:46 22.03.2022
3097 Clouds 19 1017 55 10000 2.06 0 14:25 22.03.2022
3098 Clouds 17 1018 72 8000 1.54 0 12:46 22.03.2022
3099 Clouds 16 1018 77 8000 0.51 0 11:36 22.03.2022
3100 Clouds 14 1018 82 8000 1.54 250 10:23 22.03.2022
3101 Clouds 11 1018 87 8000 2.57 250 07:57 22.03.2022
3102 Clouds 12 1017 82 8000 2.06 240 05:20 22.03.2022
3103 Clouds 13 1018 76 8000 2.57 220 03:41 22.03.2022
3104 Clouds 15 1019 67 8000 4.12 30 23:49 21.03.2022
3105 Clouds 18 1019 48 8000 2.06 350 21:58 21.03.2022
3106 Clouds 19 1018 45 8000 2.57 290 20:45 21.03.2022
3107 Clouds 19 1018 45 8000 2.57 300 20:27 21.03.2022
3108 Clouds 19 1017 45 8000 3.09 310 19:57 21.03.2022
3109 Clouds 20 1017 42 8000 3.09 290 19:23 21.03.2022
3110 Clouds 22 1017 40 8000 2.06 0 17:45 21.03.2022
3111 Clouds 21 1017 43 8000 3.09 270 17:18 21.03.2022
3112 Clouds 21 1017 43 8000 2.57 0 16:39 21.03.2022
3113 Clouds 21 1018 46 8000 2.57 280 15:47 21.03.2022
3114 Clouds 19 1018 52 8000 2.06 0 14:51 21.03.2022
3115 Clouds 19 1019 52 8000 2.57 10 13:43 21.03.2022
3116 Clouds 17 1019 59 8000 2.06 310 12:33 21.03.2022
3117 Clouds 16 1019 63 8000 1.54 0 11:44 21.03.2022
3118 Clouds 14 1019 72 8000 1.54 320 10:34 21.03.2022
3119 Clouds 12 1018 82 8000 1.54 270 08:29 21.03.2022
3120 Clouds 12 1018 76 10000 2.06 280 06:36 21.03.2022
3121 Clouds 14 1018 67 8000 1.54 260 02:40 21.03.2022
3122 Clouds 15 1019 67 8000 2.57 290 23:41 20.03.2022
3123 Clouds 15 1019 67 8000 2.57 290 22:43 20.03.2022
3124 Clouds 15 1018 67 8000 3.6 290 21:50 20.03.2022
3125 Clouds 15 1018 67 8000 4.12 300 21:20 20.03.2022
3126 Clouds 15 1018 67 8000 4.12 310 20:43 20.03.2022
3127 Clouds 16 1017 63 8000 5.14 310 19:57 20.03.2022
3128 Clouds 16 1017 67 8000 4.12 300 19:28 20.03.2022
3129 Clouds 17 1016 63 8000 5.14 290 18:19 20.03.2022
3130 Clouds 18 1016 59 8000 5.14 300 17:33 20.03.2022
3131 Clouds 19 1015 52 8000 5.14 280 16:57 20.03.2022
3132 Clouds 19 1015 52 8000 4.63 270 15:28 20.03.2022
3133 Clouds 17 1016 63 8000 3.09 270 14:23 20.03.2022
3134 Clouds 15 1016 77 8000 3.09 300 12:30 20.03.2022
3135 Clouds 14 1016 82 6000 3.6 260 11:22 20.03.2022
3136 Clouds 13 1015 94 5000 2.57 240 08:59 20.03.2022
3137 Clouds 13 1014 94 5000 4.12 280 07:26 20.03.2022
3138 Clouds 15 1013 77 8000 1.54 300 04:23 20.03.2022
3139 Clouds 17 1014 72 8000 3.09 230 01:29 20.03.2022
3140 Clouds 17 1015 72 8000 3.6 230 00:39 20.03.2022
3141 Clouds 18 1015 63 8000 2.06 260 23:19 19.03.2022
3142 Clouds 20 1015 52 7000 3.09 270 21:27 19.03.2022
3143 Clouds 21 1014 49 7000 2.57 290 20:49 19.03.2022
3144 Clouds 23 1014 40 7000 4.12 290 18:58 19.03.2022
3145 Clouds 24 1014 35 8000 4.63 290 18:23 19.03.2022
3146 Clouds 24 1014 35 8000 3.6 310 17:35 19.03.2022
3147 Clouds 24 1014 35 8000 3.6 300 15:44 19.03.2022
3148 Clouds 24 1015 38 8000 2.06 340 14:44 19.03.2022
3149 Clear 22 1016 43 8000 2.06 10 13:19 19.03.2022
3150 Clear 20 1016 60 8000 1.54 10 12:40 19.03.2022
3151 Clear 19 1016 68 8000 1.54 60 11:54 19.03.2022
3152 Clear 17 1016 77 8000 1.03 0 10:47 19.03.2022
3153 Mist 12 1015 94 3000 1.03 0 06:51 19.03.2022
3154 Clear 12 1016 87 10000 1.54 240 03:24 19.03.2022
3155 Clear 13 1016 76 10000 1.03 0 02:29 19.03.2022
3156 Clouds 17 1017 59 8000 2.06 20 23:44 18.03.2022
3157 Clouds 18 1017 52 8000 2.06 20 22:28 18.03.2022
3158 Clouds 18 1017 52 8000 2.57 10 21:45 18.03.2022
3159 Clouds 20 1015 49 8000 3.09 290 19:51 18.03.2022
3160 Clouds 20 1015 49 8000 3.09 300 19:21 18.03.2022
3161 Clouds 22 1015 43 8000 2.06 0 17:50 18.03.2022
3162 Clouds 21 1015 46 8000 2.06 0 16:48 18.03.2022
3163 Clouds 21 1016 46 8000 2.57 350 15:26 18.03.2022
3164 Clouds 20 1017 52 8000 1.54 0 14:22 18.03.2022
3165 Clear 17 1017 67 7000 2.06 50 12:27 18.03.2022
3166 Clear 15 1017 77 7000 2.57 70 10:52 18.03.2022
3167 Clear 11 1017 100 6000 0.51 0 09:30 18.03.2022
3168 Clear 9 1017 93 6000 1.03 0 08:32 18.03.2022
3169 Clear 10 1016 93 6000 2.06 80 06:35 18.03.2022
3170 Clear 11 1017 87 7000 1.03 0 02:57 18.03.2022
3171 Clouds 14 1018 77 6000 2.06 100 00:23 18.03.2022
3172 Mist 14 1018 77 4500 2.06 60 23:24 17.03.2022
3173 Mist 15 1017 72 4000 2.57 50 22:24 17.03.2022
3174 Mist 15 1017 72 4000 3.09 30 21:48 17.03.2022
3175 Mist 16 1017 67 4000 1.54 20 21:23 17.03.2022
3176 Mist 16 1017 67 4000 1.54 40 20:44 17.03.2022
3177 Mist 17 1016 63 4000 1.03 0 19:48 17.03.2022
3178 Mist 17 1016 63 4000 1.54 30 18:59 17.03.2022
3179 Mist 17 1016 63 4000 2.57 50 18:39 17.03.2022
3180 Mist 17 1016 63 4000 2.06 50 16:49 17.03.2022
3181 Clouds 17 1016 67 5000 1.54 0 15:44 17.03.2022
3182 Clouds 17 1017 67 5000 1.03 0 15:24 17.03.2022
3183 Clouds 16 1017 77 6000 1.03 0 14:28 17.03.2022
3184 Clouds 14 1018 82 7000 2.57 240 12:51 17.03.2022
3185 Clouds 13 1018 88 7000 2.57 230 12:23 17.03.2022
3186 Clouds 12 1018 94 7000 2.57 230 11:27 17.03.2022
3187 Drizzle 11 1018 100 7000 2.06 240 10:29 17.03.2022
3188 Clouds 11 1017 93 3500 1.54 290 08:34 17.03.2022
3189 Clouds 11 1016 93 7000 2.06 290 07:33 17.03.2022
3190 Clouds 11 1017 93 10000 0.51 0 05:47 17.03.2022
3191 Clouds 12 1017 87 8000 2.57 240 01:23 17.03.2022
3192 Clouds 12 1017 82 8000 2.57 240 23:46 16.03.2022
3193 Clouds 13 1017 76 8000 1.54 340 22:45 16.03.2022
3194 Clouds 13 1016 76 8000 1.54 10 22:21 16.03.2022
3195 Clouds 13 1015 76 8000 1.03 0 21:37 16.03.2022
3196 Clouds 15 1014 63 8000 3.09 300 19:41 16.03.2022
3197 Clouds 15 1014 63 8000 3.09 300 19:20 16.03.2022
3198 Clouds 15 1013 63 8000 3.09 260 18:36 16.03.2022
3199 Clouds 15 1013 63 8000 4.63 260 17:41 16.03.2022
3200 Clouds 15 1013 63 8000 6.17 250 16:56 16.03.2022
3201 Clouds 16 1014 59 8000 4.12 270 15:55 16.03.2022
3202 Clouds 13 1014 71 8000 4.12 250 14:25 16.03.2022
3203 Clouds 12 1015 82 8000 2.57 250 13:27 16.03.2022
3204 Clouds 12 1015 82 8000 3.09 270 11:54 16.03.2022
3205 Clouds 12 1015 82 8000 4.12 270 11:20 16.03.2022
3206 Clouds 10 1014 93 8000 2.57 270 10:22 16.03.2022
3207 Clouds 9 1013 93 8000 2.57 230 08:52 16.03.2022
3208 Clouds 9 1011 87 7000 2.06 240 04:45 16.03.2022
3209 Clouds 10 1011 81 7000 4.63 280 01:35 16.03.2022
3210 Clouds 11 1009 76 8000 5.14 280 22:38 15.03.2022
3211 Clouds 11 1009 71 8000 7.72 280 21:52 15.03.2022
3212 Clouds 13 1007 62 8000 7.72 280 20:18 15.03.2022
3213 Clouds 15 1005 51 8000 6.69 290 18:54 15.03.2022
3214 Clouds 16 1004 48 8000 4.12 320 16:55 15.03.2022
3215 Clouds 16 1005 51 8000 4.12 300 16:28 15.03.2022
3216 Clouds 17 1005 45 8000 2.06 0 14:57 15.03.2022
3217 Clouds 16 1005 44 8000 1.03 0 14:39 15.03.2022
3218 Clouds 15 1005 51 8000 3.09 80 13:28 15.03.2022
3219 Clouds 14 1006 62 8000 3.09 80 12:21 15.03.2022
3220 Clouds 12 1006 66 8000 5.14 90 11:29 15.03.2022
3221 Clouds 7 1005 93 8000 4.12 100 09:39 15.03.2022
3222 Clouds 6 1005 93 8000 3.09 80 08:42 15.03.2022
3223 Clouds 5 1005 93 8000 3.09 80 07:50 15.03.2022
3224 Clouds 6 1004 93 8000 3.09 100 06:54 15.03.2022
3225 Clouds 8 1006 87 8000 2.57 90 02:59 15.03.2022
3226 Clouds 9 1007 81 8000 2.57 60 23:40 14.03.2022
3227 Clouds 9 1007 81 8000 2.57 60 23:21 14.03.2022
3228 Clouds 10 1006 76 8000 1.54 20 22:26 14.03.2022
3229 Clouds 10 1006 81 8000 1.54 300 21:26 14.03.2022
3230 Clouds 10 1005 81 8000 2.57 210 20:35 14.03.2022
3231 Clouds 10 1005 81 8000 2.57 200 19:59 14.03.2022
3232 Clouds 9 1005 87 6000 3.09 270 18:42 14.03.2022
3233 Clouds 9 1004 87 5000 3.6 280 17:54 14.03.2022
3234 Clouds 9 1005 81 5000 5.66 260 16:58 14.03.2022
3235 Clouds 9 1005 87 5000 7.2 290 15:37 14.03.2022
3236 Clouds 9 1005 93 5000 7.72 300 14:38 14.03.2022
3237 Clouds 15 1004 72 8000 2.06 0 12:21 14.03.2022
3238 Clouds 13 1006 82 8000 2.06 200 10:51 14.03.2022
3239 Clouds 12 1007 87 6000 3.09 220 09:41 14.03.2022
3240 Clouds 12 1007 87 6000 4.12 200 09:21 14.03.2022
3241 Clouds 12 1007 87 6000 4.12 200 08:55 14.03.2022
3242 Clouds 11 1008 93 6000 3.6 190 07:28 14.03.2022
3243 Clouds 10 1009 93 3000 4.63 280 05:44 14.03.2022
3244 Clouds 14 1010 77 8000 3.09 260 01:52 14.03.2022
3245 Clouds 14 1010 77 8000 4.12 280 01:20 14.03.2022
3246 Clouds 17 1012 67 8000 3.6 310 22:43 13.03.2022
3247 Clouds 18 1012 63 8000 6.17 300 21:29 13.03.2022
3248 Clouds 19 1012 55 8000 5.66 290 20:55 13.03.2022
3249 Clouds 21 1011 46 8000 4.63 270 20:30 13.03.2022
3250 Clouds 21 1011 46 10000 4.63 270 19:49 13.03.2022
3251 Clouds 21 1011 43 10000 5.14 270 19:27 13.03.2022
3252 Clouds 22 1012 43 10000 5.14 280 18:59 13.03.2022
3253 Clouds 22 1012 43 10000 2.57 270 18:31 13.03.2022
3254 Clouds 23 1012 43 10000 2.57 0 17:40 13.03.2022
3255 Clouds 23 1012 43 10000 2.57 0 16:57 13.03.2022
3256 Clouds 22 1013 46 10000 3.09 270 16:29 13.03.2022
3257 Clouds 23 1013 46 8000 1.03 0 15:44 13.03.2022
3258 Clouds 21 1014 52 8000 2.06 0 14:51 13.03.2022
3259 Clear 20 1016 56 8000 1.54 0 13:33 13.03.2022
3260 Clouds 18 1017 63 8000 1.54 50 12:37 13.03.2022
3261 Clouds 17 1017 67 8000 2.06 30 11:51 13.03.2022
3262 Clouds 17 1017 67 8000 1.54 0 11:30 13.03.2022
3263 Clouds 16 1017 72 8000 1.03 0 10:46 13.03.2022
3264 Clouds 16 1017 72 8000 0.51 0 09:53 13.03.2022
3265 Clouds 13 1017 82 8000 0.51 0 09:29 13.03.2022
3266 Clouds 10 1017 87 8000 1.54 230 08:40 13.03.2022
3267 Clouds 10 1017 87 8000 1.54 250 07:37 13.03.2022
3268 Clouds 12 1017 82 8000 1.54 230 05:39 13.03.2022
3269 Clouds 13 1019 76 8000 2.06 240 02:27 13.03.2022
3270 Clouds 15 1020 67 8000 3.09 350 23:31 12.03.2022
3271 Clouds 18 1019 59 8000 2.06 250 21:49 12.03.2022
3272 Clouds 19 1018 48 8000 2.57 240 20:29 12.03.2022
3273 Clouds 21 1017 40 8000 4.12 250 19:47 12.03.2022
3274 Clouds 21 1017 40 8000 4.12 280 18:47 12.03.2022
3275 Clouds 22 1017 33 8000 3.09 270 18:20 12.03.2022
3276 Clouds 23 1018 35 8000 1.54 0 16:32 12.03.2022
3277 Clouds 21 1018 37 8000 1.54 0 15:55 12.03.2022
3278 Clouds 21 1018 40 8000 2.06 20 15:22 12.03.2022
3279 Clouds 19 1020 48 8000 2.06 0 13:54 12.03.2022
3280 Clouds 19 1021 55 8000 1.03 0 12:33 12.03.2022
3281 Clouds 18 1021 59 8000 1.54 0 11:55 12.03.2022
3282 Clouds 16 1021 67 8000 1.03 0 11:34 12.03.2022
3283 Clouds 15 1021 72 8000 1.03 0 10:32 12.03.2022
3284 Clouds 14 1020 82 8000 0.51 0 09:44 12.03.2022
3285 Clouds 9 1020 87 8000 1.03 0 08:24 12.03.2022
3286 Clouds 10 1020 87 8000 1.54 270 06:44 12.03.2022
3287 Clouds 12 1021 76 8000 1.54 270 01:44 12.03.2022
3288 Clouds 14 1021 67 8000 3.09 230 23:46 11.03.2022
3289 Clouds 16 1022 59 8000 2.57 290 22:36 11.03.2022
3290 Clouds 17 1020 55 8000 3.6 260 21:24 11.03.2022
3291 Clouds 17 1020 51 8000 3.6 270 20:48 11.03.2022
3292 Clouds 18 1020 52 8000 3.6 290 20:26 11.03.2022
3293 Clouds 20 1020 49 8000 5.66 280 19:35 11.03.2022
3294 Clouds 22 1019 37 8000 5.66 280 18:33 11.03.2022
3295 Clouds 22 1018 37 8000 3.6 290 17:26 11.03.2022
3296 Clouds 22 1018 40 8000 3.6 290 16:25 11.03.2022
3297 Clouds 22 1018 43 8000 2.57 340 15:36 11.03.2022
3298 Clouds 21 1020 52 8000 1.54 0 13:42 11.03.2022
3299 Clouds 19 1020 59 8000 2.06 0 12:41 11.03.2022
3300 Clouds 18 1021 63 8000 2.57 0 12:19 11.03.2022
3301 Clouds 16 1021 72 8000 1.03 0 10:53 11.03.2022
3302 Clear 12 1020 87 8000 1.54 200 09:35 11.03.2022
3303 Clear 9 1019 87 8000 1.54 270 08:28 11.03.2022
3304 Clear 10 1019 87 10000 0.51 0 07:48 11.03.2022
3305 Clear 11 1018 87 10000 1.03 0 06:42 11.03.2022
3306 Clear 11 1019 82 10000 1.54 250 04:40 11.03.2022
3307 Clear 14 1020 67 10000 1.54 240 01:29 11.03.2022
3308 Clear 17 1020 51 8000 2.06 310 22:32 10.03.2022
3309 Clear 17 1019 51 8000 1.54 270 21:54 10.03.2022
3310 Clear 17 1019 48 8000 2.06 270 21:25 10.03.2022
3311 Clear 19 1019 42 8000 2.57 250 20:36 10.03.2022
3312 Clouds 21 1019 40 8000 3.6 260 19:20 10.03.2022
3313 Clouds 22 1018 35 8000 3.09 300 17:51 10.03.2022
3314 Clouds 22 1019 43 8000 1.54 0 16:52 10.03.2022
3315 Clear 20 1019 52 8000 3.09 300 15:28 10.03.2022
3316 Clear 18 1020 72 6000 1.54 0 13:45 10.03.2022
3317 Clear 16 1021 77 5000 1.54 310 12:41 10.03.2022
3318 Clouds 13 1021 94 5000 0.51 0 11:28 10.03.2022
3319 Mist 10 1021 100 1200 0.51 0 09:42 10.03.2022
3320 Fog 10 1020 93 200 2.06 300 07:48 10.03.2022
3321 Clear 11 1020 87 8000 4.12 230 05:30 10.03.2022
3322 Clear 12 1020 82 10000 2.06 250 02:33 10.03.2022
3323 Clear 15 1020 67 10000 3.09 230 23:32 09.03.2022
3324 Clear 18 1018 55 10000 5.14 10 22:22 09.03.2022
3325 Clear 18 1018 55 10000 5.14 10 21:44 09.03.2022
3326 Clear 20 1017 42 10000 3.09 250 20:36 09.03.2022
3327 Clear 23 1016 33 10000 3.6 280 18:41 09.03.2022
3328 Clear 24 1016 31 10000 3.09 310 17:28 09.03.2022
3329 Clouds 24 1016 25 10000 3.09 0 16:39 09.03.2022
3330 Clear 22 1017 30 10000 2.06 0 15:32 09.03.2022
3331 Clear 22 1018 37 10000 1.54 0 14:19 09.03.2022
3332 Clear 20 1018 45 10000 1.54 40 12:59 09.03.2022
3333 Clear 19 1019 52 10000 1.03 0 12:20 09.03.2022
3334 Clear 18 1019 55 10000 1.03 0 11:45 09.03.2022
3335 Clear 16 1019 59 10000 0.51 0 10:49 09.03.2022
3336 Clear 10 1018 81 10000 0.51 0 09:22 09.03.2022
3337 Clear 10 1018 81 10000 0.51 0 08:42 09.03.2022
3338 Clear 10 1017 81 10000 1.54 140 04:49 09.03.2022
3339 Clear 14 1018 62 10000 3.09 20 00:55 09.03.2022
3340 Clear 15 1019 55 10000 2.57 80 23:21 08.03.2022
3341 Clear 15 1019 55 10000 2.57 80 22:45 08.03.2022
3342 Clear 17 1019 45 10000 3.6 60 21:28 08.03.2022
3343 Clear 18 1019 42 10000 4.12 50 20:54 08.03.2022
3344 Clear 19 1019 39 10000 4.63 40 19:55 08.03.2022
3345 Clear 21 1018 35 10000 4.12 30 18:45 08.03.2022
3346 Clear 22 1018 33 10000 3.09 10 17:50 08.03.2022
3347 Clear 22 1018 37 10000 2.06 0 16:35 08.03.2022
3348 Clear 18 1019 52 10000 2.57 60 14:23 08.03.2022
3349 Clear 16 1021 59 10000 2.57 40 12:44 08.03.2022
3350 Clear 14 1021 67 10000 3.09 70 11:53 08.03.2022
3351 Clear 14 1021 67 10000 2.57 0 11:34 08.03.2022
3352 Clouds 12 1020 76 10000 3.09 110 10:27 08.03.2022
3353 Clouds 9 1020 87 10000 2.06 120 08:28 08.03.2022
3354 Clouds 11 1019 76 8000 1.54 150 05:47 08.03.2022
3355 Clouds 9 1020 87 10000 2.06 250 01:48 08.03.2022
3356 Clouds 12 1019 71 10000 2.06 260 22:24 07.03.2022
3357 Clouds 14 1018 62 10000 1.54 240 21:35 07.03.2022
3358 Clouds 15 1018 58 10000 1.54 240 20:54 07.03.2022
3359 Clouds 15 1017 58 10000 2.06 270 20:22 07.03.2022
3360 Clear 16 1017 51 10000 2.57 280 19:38 07.03.2022
3361 Clouds 17 1017 48 10000 2.57 270 18:47 07.03.2022
3362 Clouds 17 1016 45 10000 3.6 300 17:58 07.03.2022
3363 Clouds 18 1016 45 10000 2.06 0 16:56 07.03.2022
3364 Clouds 18 1016 45 10000 2.06 0 16:30 07.03.2022
3365 Clouds 16 1016 55 10000 2.06 0 14:31 07.03.2022
3366 Clouds 14 1017 62 10000 1.54 0 12:33 07.03.2022
3367 Clear 14 1017 77 10000 0.51 0 10:45 07.03.2022
3368 Clear 13 1017 76 10000 0.51 0 10:24 07.03.2022
3369 Clouds 7 1015 93 6000 1.03 0 06:35 07.03.2022
3370 Clouds 10 1016 87 10000 1.54 250 00:24 07.03.2022
3371 Clouds 10 1016 87 10000 1.54 240 23:58 06.03.2022
3372 Clouds 10 1016 87 10000 1.54 240 23:18 06.03.2022
3373 Clouds 12 1016 76 10000 2.06 320 22:24 06.03.2022
3374 Clouds 12 1014 87 10000 3.09 290 20:56 06.03.2022
3375 Clouds 11 1014 87 10000 3.09 240 20:28 06.03.2022
3376 Clouds 12 1013 87 10000 4.63 230 19:31 06.03.2022
3377 Clouds 11 1012 93 8000 4.63 220 18:25 06.03.2022
3378 Clouds 11 1012 87 6000 2.06 260 17:22 06.03.2022
3379 Clouds 11 1012 87 6000 2.06 260 16:52 06.03.2022
3380 Clouds 12 1012 87 8000 3.6 220 16:20 06.03.2022
3381 Clouds 11 1012 87 8000 4.12 250 15:19 06.03.2022
3382 Clouds 12 1012 87 8000 4.63 190 14:41 06.03.2022
3383 Clouds 12 1013 87 8000 5.14 220 13:47 06.03.2022
3384 Clouds 12 1014 87 8000 5.66 220 12:36 06.03.2022
3385 Clouds 9 1013 93 6000 4.12 240 11:27 06.03.2022
3386 Clouds 10 1013 87 6000 3.6 250 10:29 06.03.2022
3387 Clouds 10 1013 87 8000 3.6 220 08:40 06.03.2022
3388 Clouds 10 1013 87 8000 3.6 220 08:20 06.03.2022
3389 Clouds 10 1013 76 10000 5.66 240 06:33 06.03.2022
3390 Clear 10 1016 66 10000 3.6 240 01:32 06.03.2022
3391 Clear 10 1017 62 10000 4.12 240 00:33 06.03.2022
3392 Clear 11 1017 58 10000 4.12 240 23:41 05.03.2022
3393 Clear 12 1017 54 10000 2.57 250 23:18 05.03.2022
3394 Clear 14 1017 51 10000 3.09 330 22:25 05.03.2022
3395 Clear 16 1017 39 10000 2.57 350 21:24 05.03.2022
3396 Clear 17 1016 31 10000 2.57 350 19:56 05.03.2022
3397 Clear 19 1016 27 10000 2.57 300 18:56 05.03.2022
3398 Clear 20 1016 26 10000 1.03 0 18:34 05.03.2022
3399 Clear 20 1017 28 10000 2.57 0 16:57 05.03.2022
3400 Clear 18 1017 34 10000 3.09 340 15:43 05.03.2022
3401 Clear 17 1018 42 10000 2.57 260 14:52 05.03.2022
3402 Clouds 16 1018 44 10000 2.06 330 14:34 05.03.2022
3403 Clouds 15 1020 47 10000 2.57 30 13:34 05.03.2022
3404 Clouds 13 1021 54 10000 2.57 80 11:55 05.03.2022
3405 Clouds 11 1021 62 10000 2.57 70 11:20 05.03.2022
3406 Clouds 11 1021 62 10000 2.06 60 10:23 05.03.2022
3407 Clouds 9 1021 66 10000 2.06 90 09:28 05.03.2022
3408 Clear 8 1021 71 10000 1.54 110 07:58 05.03.2022
3409 Clouds 9 1020 66 10000 1.54 70 05:43 05.03.2022
3410 Clouds 9 1020 66 10000 3.09 50 04:33 05.03.2022
3411 Clouds 11 1021 58 10000 6.17 40 23:38 04.03.2022
3412 Clouds 13 1021 54 10000 5.66 30 22:44 04.03.2022
3413 Clouds 13 1021 54 10000 5.66 30 22:23 04.03.2022
3414 Clouds 14 1020 47 10000 5.14 30 21:24 04.03.2022
3415 Clouds 16 1020 41 10000 4.12 40 20:28 04.03.2022
3416 Clouds 17 1019 36 8000 4.12 60 19:36 04.03.2022
3417 Clouds 17 1019 42 8000 4.63 40 18:46 04.03.2022
3418 Clouds 17 1019 42 8000 4.63 40 18:20 04.03.2022
3419 Clouds 18 1020 39 8000 2.57 0 17:28 04.03.2022
3420 Clouds 17 1021 45 8000 4.63 40 15:31 04.03.2022
3421 Clouds 16 1022 51 8000 4.63 70 14:36 04.03.2022
3422 Clouds 15 1023 51 8000 5.66 60 13:27 04.03.2022
3423 Clouds 13 1024 62 8000 5.14 80 11:56 04.03.2022
3424 Clouds 12 1024 66 8000 5.66 80 10:57 04.03.2022
3425 Clouds 12 1023 71 8000 4.63 70 10:18 04.03.2022
3426 Clouds 11 1023 71 8000 4.63 50 08:48 04.03.2022
3427 Clouds 11 1022 82 8000 5.66 40 07:41 04.03.2022
3428 Clouds 10 1022 71 10000 1.54 260 04:59 04.03.2022
3429 Clear 13 1024 67 10000 2.06 50 00:41 04.03.2022
3430 Clouds 15 1024 58 10000 1.54 40 22:53 03.03.2022
3431 Clouds 16 1023 55 10000 3.09 10 21:57 03.03.2022
3432 Clouds 16 1023 55 10000 3.6 360 21:34 03.03.2022
3433 Clouds 19 1022 39 10000 4.12 350 20:21 03.03.2022
3434 Clear 21 1021 35 10000 4.12 360 18:57 03.03.2022
3435 Clear 22 1021 30 10000 3.6 360 18:25 03.03.2022
3436 Clear 23 1021 28 10000 3.6 340 17:31 03.03.2022
3437 Clear 22 1021 35 10000 2.06 0 16:28 03.03.2022
3438 Clear 22 1021 43 10000 2.57 360 15:41 03.03.2022
3439 Clear 21 1022 43 10000 2.57 340 14:44 03.03.2022
3440 Clear 20 1022 45 10000 2.06 330 14:25 03.03.2022
3441 Clear 17 1024 55 10000 2.06 120 12:28 03.03.2022
3442 Clear 14 1025 67 10000 1.03 0 10:56 03.03.2022
3443 Clear 12 1025 71 10000 1.54 0 09:56 03.03.2022
3444 Clear 8 1024 76 10000 1.54 240 08:34 03.03.2022
3445 Clear 9 1023 66 10000 1.03 0 06:38 03.03.2022
3446 Clear 11 1023 66 10000 2.57 170 05:20 03.03.2022
3447 Clouds 15 1024 51 10000 3.6 40 23:45 02.03.2022
3448 Clouds 16 1024 44 10000 3.6 40 22:53 02.03.2022
3449 Clouds 16 1024 44 10000 3.6 40 22:53 02.03.2022
3450 Clouds 16 1024 48 10000 4.12 40 22:31 02.03.2022
3451 Clouds 19 1023 42 10000 6.17 360 20:59 02.03.2022
3452 Clouds 20 1022 42 10000 2.06 50 20:25 02.03.2022
3453 Clouds 22 1022 37 10000 1.03 0 19:37 02.03.2022
3454 Clouds 23 1022 35 10000 1.54 0 18:58 02.03.2022
3455 Clouds 23 1022 38 10000 2.06 140 18:26 02.03.2022
3456 Clouds 23 1022 38 10000 1.54 0 17:41 02.03.2022
3457 Clouds 22 1022 40 10000 1.54 0 16:52 02.03.2022
3458 Clouds 22 1022 43 10000 1.54 0 15:46 02.03.2022
3459 Clouds 19 1024 52 10000 3.09 340 13:52 02.03.2022
3460 Clear 18 1024 59 10000 2.57 300 12:56 02.03.2022
3461 Clear 17 1025 63 10000 2.06 330 12:34 02.03.2022
3462 Clear 15 1025 72 10000 1.54 330 11:27 02.03.2022
3463 Clouds 16 1024 49 10000 1.69 334 10:39 02.03.2022
3464 Clear 10 1024 87 10000 2.06 260 09:36 02.03.2022
3465 Clear 9 1023 81 10000 2.06 250 08:36 02.03.2022
3466 Clear 9 1023 87 10000 2.06 250 07:23 02.03.2022
3467 Clear 10 1023 81 10000 2.57 240 04:51 02.03.2022
3468 Clear 15 1023 51 10000 3.09 230 00:40 02.03.2022
3469 Clear 17 1022 48 10000 2.06 330 23:35 01.03.2022
3470 Clear 19 1021 34 10000 2.57 330 22:40 01.03.2022
3471 Clear 20 1021 32 10000 2.57 330 21:53 01.03.2022
3472 Clouds 21 1020 35 10000 3.09 260 20:41 01.03.2022
3473 Clouds 21 1020 35 10000 3.09 260 20:20 01.03.2022
3474 Clouds 24 1019 33 10000 3.6 330 18:58 01.03.2022
3475 Clouds 25 1019 31 10000 4.63 290 18:25 01.03.2022
3476 Clouds 25 1019 29 10000 4.12 300 17:54 01.03.2022
3477 Clouds 25 1019 36 10000 3.6 300 16:37 01.03.2022
3478 Clouds 25 1019 36 10000 2.57 280 15:48 01.03.2022
3479 Clouds 24 1020 38 10000 3.09 0 14:54 01.03.2022
3480 Clouds 24 1020 41 10000 2.06 310 14:31 01.03.2022
3481 Clouds 23 1021 43 10000 2.06 340 13:26 01.03.2022
3482 Clear 21 1022 49 10000 2.06 310 12:38 01.03.2022
3483 Clear 19 1022 55 10000 2.06 350 11:44 01.03.2022
3484 Clear 16 1021 63 9000 1.54 220 09:53 01.03.2022
3485 Clear 13 1021 67 9000 4.12 170 08:31 01.03.2022
3486 Clear 13 1021 67 9000 3.6 160 07:32 01.03.2022
3487 Clear 15 1019 58 10000 1.54 120 03:27 01.03.2022
3488 Clouds 17 1020 51 9000 2.06 80 00:58 01.03.2022
3489 Clouds 18 1020 52 9000 4.63 60 23:47 28.02.2022
3490 Clouds 19 1020 55 9000 5.14 40 22:50 28.02.2022
3491 Clouds 20 1019 56 10000 4.63 30 21:48 28.02.2022
3492 Clouds 20 1018 49 10000 1.54 60 20:56 28.02.2022
3493 Clouds 22 1018 46 10000 3.6 40 19:51 28.02.2022
3494 Clouds 22 1018 43 8000 3.6 60 19:22 28.02.2022
3495 Clouds 23 1018 43 8000 4.63 50 18:35 28.02.2022
3496 Clear 23 1016 37 10000 5.31 33 17:23 28.02.2022
3497 Clouds 24 1018 41 8000 4.12 50 16:32 28.02.2022
3498 Clouds 23 1018 40 8000 4.63 70 15:21 28.02.2022
3499 Clouds 22 1019 43 8000 4.12 40 14:29 28.02.2022
3500 Clouds 21 1020 56 8000 3.6 70 13:34 28.02.2022
3501 Clouds 19 1021 68 8000 2.57 70 12:31 28.02.2022
3502 Clouds 17 1021 72 7000 3.6 40 11:37 28.02.2022
3503 Clouds 16 1021 77 7000 2.57 50 10:24 28.02.2022
3504 Clouds 15 1020 82 7000 3.09 70 09:59 28.02.2022
3505 Clouds 15 1020 82 7000 3.09 110 09:27 28.02.2022
3506 Clouds 15 1019 82 6000 2.57 110 08:26 28.02.2022
3507 Clouds 15 1019 82 6000 2.57 110 08:26 28.02.2022
3508 Clouds 14 1019 88 6000 3.09 50 06:53 28.02.2022
3509 Clouds 14 1019 88 6000 2.06 60 04:31 28.02.2022
3510 Clouds 14 1019 88 6000 2.06 20 02:41 28.02.2022
3511 Clouds 14 1019 82 8000 0.51 0 23:26 27.02.2022
3512 Clouds 15 1018 82 8000 2.57 170 22:33 27.02.2022
3513 Clouds 16 1018 77 8000 2.57 160 21:47 27.02.2022
3514 Clouds 15 1018 77 8000 0.51 0 20:54 27.02.2022
3515 Clouds 16 1017 72 8000 0 0 20:27 27.02.2022
3516 Clouds 16 1017 77 8000 0.51 0 19:56 27.02.2022
3517 Clouds 17 1017 72 8000 1.03 0 19:26 27.02.2022
3518 Clouds 17 1017 72 6000 1.54 160 18:39 27.02.2022
3519 Clouds 17 1017 72 6000 1.54 180 17:54 27.02.2022
3520 Clouds 16 1016 77 6000 2.06 140 16:37 27.02.2022
3521 Clouds 16 1017 77 6000 2.57 70 15:55 27.02.2022
3522 Clouds 16 1017 82 5000 3.09 30 12:53 27.02.2022
3523 Clouds 15 1018 82 5000 3.6 30 12:29 27.02.2022
3524 Clouds 15 1017 88 5000 2.06 40 10:50 27.02.2022
3525 Clouds 15 1016 82 5000 3.09 30 09:58 27.02.2022
3526 Clouds 15 1016 88 5000 3.09 50 09:37 27.02.2022
3527 Clouds 15 1016 88 5000 3.09 50 09:18 27.02.2022
3528 Mist 14 1015 88 4000 1.03 0 06:43 27.02.2022
3529 Mist 13 1015 88 4000 1.03 0 05:36 27.02.2022
3530 Clouds 15 1016 82 5000 2.06 330 00:52 27.02.2022
3531 Clouds 16 1016 77 5000 1.54 240 22:56 26.02.2022
3532 Clouds 16 1015 77 5000 2.06 280 21:39 26.02.2022
3533 Clouds 16 1015 77 5000 1.54 280 20:52 26.02.2022
3534 Clouds 16 1015 77 5000 2.06 270 20:19 26.02.2022
3535 Mist 16 1014 77 3000 3.09 230 19:41 26.02.2022
3536 Clouds 16 1014 77 5000 3.09 230 18:49 26.02.2022
3537 Clouds 16 1014 77 5000 3.09 220 17:45 26.02.2022
3538 Clouds 17 1014 72 5000 4.63 260 16:49 26.02.2022
3539 Clouds 16 1013 77 5000 2.57 270 15:49 26.02.2022
3540 Clouds 16 1013 77 5000 2.06 290 15:22 26.02.2022
3541 Clouds 16 1013 77 5000 2.57 290 14:53 26.02.2022
3542 Clouds 15 1013 82 5000 2.57 270 14:33 26.02.2022
3543 Clouds 15 1014 82 5000 2.06 310 13:19 26.02.2022
3544 Clouds 15 1014 82 5000 2.06 310 13:19 26.02.2022
3545 Clouds 15 1015 82 5000 2.57 320 12:23 26.02.2022
3546 Clouds 15 1014 88 5000 2.57 320 11:28 26.02.2022
3547 Clouds 13 1015 94 5000 2.57 280 10:40 26.02.2022
3548 Mist 13 1013 94 2000 3.6 280 08:53 26.02.2022
3549 Mist 14 1012 94 2000 3.6 270 06:51 26.02.2022
3550 Clouds 17 1013 82 6000 1.54 0 00:56 26.02.2022
3551 Clouds 18 1014 77 6000 2.06 310 22:49 25.02.2022
3552 Clouds 20 1014 60 6000 2.57 310 21:43 25.02.2022
3553 Clouds 20 1014 60 6000 3.09 340 21:25 25.02.2022
3554 Clouds 22 1013 53 6000 3.09 330 20:33 25.02.2022
3555 Clouds 23 1012 46 6000 4.12 270 19:18 25.02.2022
3556 Clouds 25 1012 38 8000 3.09 290 17:29 25.02.2022
3557 Clouds 25 1012 38 8000 4.12 280 16:32 25.02.2022
3558 Clouds 25 1012 41 8000 3.6 300 15:48 25.02.2022
3559 Clouds 24 1013 43 8000 3.6 290 15:22 25.02.2022
3560 Clouds 24 1014 46 8000 3.09 300 14:42 25.02.2022
3561 Clouds 22 1014 49 8000 3.6 310 13:51 25.02.2022
3562 Clouds 22 1014 56 8000 3.09 310 13:18 25.02.2022
3563 Clouds 19 1014 63 8000 1.54 300 11:28 25.02.2022
3564 Clouds 16 1014 77 8000 1.54 280 10:43 25.02.2022
3565 Clouds 16 1014 77 8000 0.51 0 10:22 25.02.2022
3566 Clouds 14 1014 82 8000 1.03 0 09:30 25.02.2022
3567 Clouds 13 1013 82 8000 1.54 0 07:42 25.02.2022
3568 Clouds 14 1013 77 8000 3.6 230 05:51 25.02.2022
3569 Clouds 15 1013 67 8000 3.09 230 04:41 25.02.2022
3570 Clouds 18 1016 59 8000 6.69 90 00:27 25.02.2022
3571 Clouds 19 1016 63 6000 5.14 70 21:59 24.02.2022
3572 Thunderstorm 19 1017 59 6000 4.63 60 21:40 24.02.2022
3573 Clouds 20 1017 56 6000 2.57 40 21:20 24.02.2022
3574 Thunderstorm 21 1016 52 6000 3.6 30 19:53 24.02.2022
3575 Thunderstorm 22 1014 49 6000 5.14 40 18:45 24.02.2022
3576 Thunderstorm 23 1014 46 6000 5.66 30 18:19 24.02.2022
3577 Thunderstorm 24 1014 43 6000 5.14 360 17:40 24.02.2022
3578 Thunderstorm 25 1015 41 6000 4.12 350 16:50 24.02.2022
3579 Clouds 24 1015 46 4000 5.66 340 16:24 24.02.2022
3580 Dust 25 1015 38 2000 9.77 220 14:56 24.02.2022
3581 Dust 26 1015 34 2000 9.26 200 14:36 24.02.2022
3582 Clouds 23 1016 49 7000 3.09 80 13:41 24.02.2022
3583 Clouds 21 1016 52 7000 3.6 60 13:21 24.02.2022
3584 Clouds 15 1018 82 7000 2.06 40 10:41 24.02.2022
3585 Clouds 13 1017 88 7000 1.54 0 09:40 24.02.2022
3586 Clouds 12 1017 94 7000 0.51 0 08:42 24.02.2022
3587 Clouds 14 1016 88 10000 3.09 90 05:59 24.02.2022
3588 Clouds 14 1018 82 8000 3.09 260 02:59 24.02.2022
3589 Clouds 18 1020 63 8000 2.57 280 23:45 23.02.2022
3590 Clouds 20 1019 60 8000 3.09 120 21:55 23.02.2022
3591 Clouds 19 1019 63 8000 3.09 80 20:32 23.02.2022
3592 Clouds 20 1019 60 8000 5.14 110 19:55 23.02.2022
3593 Clouds 20 1019 60 8000 4.12 340 18:57 23.02.2022
3594 Clouds 21 1018 56 6000 5.14 310 17:46 23.02.2022
3595 Clouds 28 1017 28 8000 2.57 130 15:28 23.02.2022
3596 Clouds 28 1019 28 10000 1.03 0 13:34 23.02.2022
3597 Clouds 25 1021 33 10000 2.06 100 12:26 23.02.2022
3598 Clouds 22 1021 40 10000 3.09 90 10:45 23.02.2022
3599 Clouds 19 1020 45 10000 2.06 90 09:24 23.02.2022
3600 Clear 18 1019 48 10000 1.03 0 08:27 23.02.2022
3601 Clear 20 1019 42 10000 4.12 260 07:19 23.02.2022
3602 Clear 20 1019 42 10000 4.12 260 07:19 23.02.2022
3603 Clouds 22 1019 33 8000 4.12 160 01:22 23.02.2022
3604 Clouds 24 1020 22 8000 3.6 210 23:40 22.02.2022
3605 Clouds 22 1019 23 8000 3.09 170 22:59 22.02.2022
3606 Clouds 22 1019 23 8000 1.03 0 21:58 22.02.2022
3607 Clouds 23 1019 20 8000 2.57 90 21:40 22.02.2022
3608 Clouds 23 1019 20 8000 2.57 90 21:18 22.02.2022
3609 Clouds 24 1018 19 8000 1.03 0 20:31 22.02.2022
3610 Clouds 25 1018 16 8000 1.03 0 19:53 22.02.2022
3611 Clouds 26 1018 15 8000 1.03 0 19:33 22.02.2022
3612 Clouds 28 1018 14 8000 2.06 40 18:27 22.02.2022
3613 Clouds 28 1018 14 8000 1.54 360 17:26 22.02.2022
3614 Clouds 28 1019 14 8000 1.03 0 16:42 22.02.2022
3615 Clouds 28 1019 15 8000 2.06 0 15:59 22.02.2022
3616 Clouds 27 1020 18 8000 2.06 70 14:52 22.02.2022
3617 Clouds 24 1022 25 8000 3.09 70 12:52 22.02.2022
3618 Clouds 17 1023 36 8000 2.57 80 10:54 22.02.2022
3619 Clear 11 1022 46 10000 3.09 90 08:56 22.02.2022
3620 Clear 12 1021 43 10000 3.09 110 07:28 22.02.2022
3621 Clear 13 1021 41 10000 2.06 140 06:53 22.02.2022
3622 Clear 14 1022 41 10000 1.03 0 02:48 22.02.2022
3623 Clear 17 1022 34 10000 2.06 70 23:18 21.02.2022
3624 Clear 20 1022 28 10000 2.57 60 21:56 21.02.2022
3625 Clear 23 1021 23 10000 4.12 40 20:38 21.02.2022
3626 Clear 25 1020 22 10000 5.66 30 18:47 21.02.2022
3627 Clear 27 1020 21 10000 1.54 50 18:18 21.02.2022
3628 Clear 25 1021 31 10000 2.57 360 15:36 21.02.2022
3629 Clear 23 1022 40 10000 2.57 350 14:22 21.02.2022
3630 Clear 21 1023 46 10000 2.06 350 13:30 21.02.2022
3631 Clear 21 1023 49 10000 1.03 0 12:41 21.02.2022
3632 Clear 20 1023 52 10000 1.03 0 12:20 21.02.2022
3633 Clear 14 1024 67 10000 2.06 200 10:26 21.02.2022
3634 Clear 12 1020 62 10000 2.57 180 05:40 21.02.2022
3635 Clouds 15 1021 55 10000 2.57 200 00:30 21.02.2022
3636 Clouds 17 1020 48 10000 2.06 20 22:32 20.02.2022
3637 Clouds 17 1020 48 10000 1.54 360 21:43 20.02.2022
3638 Clouds 18 1020 45 10000 2.06 320 21:21 20.02.2022
3639 Clouds 19 1019 42 10000 1.54 340 20:43 20.02.2022
3640 Clouds 19 1019 45 10000 1.03 0 19:48 20.02.2022
3641 Clouds 20 1018 42 10000 2.57 70 18:55 20.02.2022
3642 Clouds 20 1018 42 10000 2.57 60 18:34 20.02.2022
3643 Clouds 20 1018 42 10000 2.57 60 17:55 20.02.2022
3644 Clouds 20 1018 45 10000 3.09 30 16:18 20.02.2022
3645 Clouds 18 1019 52 10000 2.57 50 14:53 20.02.2022
3646 Clouds 18 1019 52 10000 2.57 50 14:53 20.02.2022
3647 Clouds 16 1020 55 10000 2.57 350 13:58 20.02.2022
3648 Clouds 14 1021 58 10000 2.57 40 12:35 20.02.2022
3649 Clouds 13 1021 62 10000 3.09 70 10:52 20.02.2022
3650 Clouds 12 1021 66 10000 3.09 80 10:20 20.02.2022
3651 Clouds 12 1020 62 10000 2.57 80 08:58 20.02.2022
3652 Clouds 12 1022 71 10000 3.6 50 01:19 20.02.2022
3653 Clouds 12 1022 71 10000 4.63 50 00:30 20.02.2022
3654 Clouds 12 1022 71 10000 4.63 40 23:19 19.02.2022
3655 Clouds 12 1022 76 10000 4.63 40 22:23 19.02.2022
3656 Clouds 13 1021 71 10000 6.17 30 21:39 19.02.2022
3657 Clouds 14 1020 72 10000 5.14 30 19:58 19.02.2022
3658 Clouds 15 1020 67 10000 5.66 10 19:33 19.02.2022
3659 Clouds 17 1020 59 10000 6.17 20 18:38 19.02.2022
3660 Clouds 18 1019 52 10000 5.14 350 17:37 19.02.2022
3661 Clouds 18 1019 48 10000 1.54 0 16:34 19.02.2022
3662 Clouds 19 1020 45 10000 1.54 0 15:19 19.02.2022
3663 Clouds 18 1020 48 10000 1.54 0 14:52 19.02.2022
3664 Clouds 18 1021 55 10000 1.54 0 13:47 19.02.2022
3665 Clouds 14 1022 72 8000 2.57 100 11:39 19.02.2022
3666 Clouds 12 1022 82 8000 2.06 140 10:30 19.02.2022
3667 Clouds 10 1021 87 8000 2.06 260 07:56 19.02.2022
3668 Clouds 10 1020 81 8000 1.54 240 04:32 19.02.2022
3669 Clouds 14 1021 67 8000 3.09 250 23:45 18.02.2022
3670 Clouds 17 1020 55 8000 3.6 360 21:54 18.02.2022
3671 Clouds 18 1019 45 10000 3.09 240 20:57 18.02.2022
3672 Clouds 19 1019 42 10000 2.57 250 19:54 18.02.2022
3673 Clouds 21 1019 35 10000 4.63 280 18:50 18.02.2022
3674 Clouds 22 1019 33 10000 4.12 290 18:22 18.02.2022
3675 Clouds 22 1019 33 10000 4.12 290 17:55 18.02.2022
3676 Clouds 20 1019 49 10000 3.6 300 15:22 18.02.2022
3677 Clear 19 1021 55 10000 3.09 290 13:55 18.02.2022
3678 Clear 17 1021 51 10000 2.57 290 12:55 18.02.2022
3679 Clear 16 1022 51 10000 2.06 280 12:36 18.02.2022
3680 Clear 13 1022 47 10000 3.09 270 11:40 18.02.2022
3681 Clear 12 1021 40 10000 0.51 0 10:23 18.02.2022
3682 Clear 9 1020 66 10000 2.06 40 06:57 18.02.2022
3683 Clear 9 1020 66 10000 1.54 80 05:41 18.02.2022
3684 Clear 16 1021 55 10000 2.57 90 23:34 17.02.2022
3685 Clear 18 1020 13 10000 1.03 0 21:46 17.02.2022
3686 Clear 18 1020 13 10000 1.03 0 21:20 17.02.2022
3687 Clear 21 1020 10 10000 1.54 360 20:39 17.02.2022
3688 Clear 22 1020 10 10000 2.06 360 19:50 17.02.2022
3689 Clear 25 1019 9 10000 3.09 360 18:52 17.02.2022
3690 Clear 26 1020 10 10000 2.57 40 17:55 17.02.2022
3691 Clear 26 1020 10 10000 2.06 30 16:42 17.02.2022
3692 Clear 25 1021 10 10000 3.6 90 15:38 17.02.2022
3693 Clear 24 1023 14 10000 3.09 80 14:28 17.02.2022
3694 Clear 20 1025 22 10000 2.06 30 12:43 17.02.2022
3695 Clear 18 1026 25 10000 3.09 70 11:27 17.02.2022
3696 Clear 8 1025 49 10000 2.57 90 08:53 17.02.2022
3697 Clear 12 1026 37 10000 1.54 80 04:20 17.02.2022
3698 Clear 15 1028 36 10000 2.06 90 23:21 16.02.2022
3699 Clear 20 1027 26 10000 3.09 50 21:44 16.02.2022
3700 Clouds 22 1027 23 10000 3.6 30 19:57 16.02.2022
3701 Clouds 24 1026 20 10000 2.57 350 18:43 16.02.2022
3702 Clouds 25 1026 20 10000 3.09 350 17:53 16.02.2022
3703 Clear 24 1027 27 10000 2.06 340 15:40 16.02.2022
3704 Clear 24 1027 27 10000 2.06 340 15:19 16.02.2022
3705 Clear 20 1029 34 10000 2.06 360 13:28 16.02.2022
3706 Clear 17 1030 42 10000 2.06 30 12:20 16.02.2022
3707 Clear 15 1030 51 10000 1.03 0 11:28 16.02.2022
3708 Clear 12 1030 58 10000 1.03 0 10:34 16.02.2022
3709 Clear 7 1028 70 10000 1.54 260 08:20 16.02.2022
3710 Clear 7 1027 70 10000 1.03 0 06:29 16.02.2022
3711 Clouds 13 1026 54 10000 2.06 90 23:45 15.02.2022
3712 Clouds 16 1025 44 10000 3.6 30 22:30 15.02.2022
3713 Clouds 17 1025 45 10000 2.06 20 21:47 15.02.2022
3714 Clouds 17 1024 45 10000 2.06 30 21:27 15.02.2022
3715 Clouds 18 1024 42 10000 2.06 30 20:56 15.02.2022
3716 Clouds 18 1023 42 10000 2.06 50 19:57 15.02.2022
3717 Clouds 20 1023 40 10000 4.63 50 18:56 15.02.2022
3718 Clouds 20 1023 40 10000 4.63 40 18:22 15.02.2022
3719 Clouds 20 1023 40 10000 4.12 40 17:50 15.02.2022
3720 Clouds 21 1023 43 10000 5.14 50 17:19 15.02.2022
3721 Clouds 20 1024 42 10000 3.6 50 15:30 15.02.2022
3722 Clouds 18 1026 59 10000 2.06 350 13:28 15.02.2022
3723 Clear 15 1026 67 10000 2.06 20 12:37 15.02.2022
3724 Clear 13 1026 71 10000 3.09 50 11:40 15.02.2022
3725 Clear 10 1025 87 10000 0.51 0 09:31 15.02.2022
3726 Clear 9 1024 87 10000 1.03 0 06:59 15.02.2022
3727 Clear 10 1024 81 10000 1.54 120 05:32 15.02.2022
3728 Clear 14 1024 67 10000 3.6 40 23:33 14.02.2022
3729 Clear 17 1023 51 10000 3.6 10 21:47 14.02.2022
3730 Clouds 18 1022 36 10000 2.06 20 20:40 14.02.2022
3731 Clouds 20 1022 32 10000 1.54 310 19:36 14.02.2022
3732 Clouds 20 1022 32 10000 2.06 330 18:44 14.02.2022
3733 Clouds 20 1021 32 10000 1.54 320 18:23 14.02.2022
3734 Clouds 20 1021 32 10000 1.54 0 17:26 14.02.2022
3735 Clouds 23 1022 31 10000 1.54 0 16:25 14.02.2022
3736 Clouds 20 1023 40 10000 1.54 0 14:31 14.02.2022
3737 Clouds 18 1024 48 10000 2.06 0 13:33 14.02.2022
3738 Clouds 17 1024 48 10000 1.54 20 12:52 14.02.2022
3739 Clouds 14 1024 62 10000 2.06 330 11:54 14.02.2022
3740 Clear 13 1024 67 10000 1.03 0 10:56 14.02.2022
3741 Clear 9 1023 71 10000 1.03 0 08:45 14.02.2022
3742 Clear 10 1022 71 10000 2.06 220 07:32 14.02.2022
3743 Clear 10 1022 57 10000 2.06 260 02:27 14.02.2022
3744 Clear 16 1021 29 10000 2.57 90 22:42 13.02.2022
3745 Clear 16 1021 29 10000 2.57 90 22:24 13.02.2022
3746 Clear 17 1020 27 10000 2.06 50 21:32 13.02.2022
3747 Clear 19 1020 24 10000 1.54 10 20:36 13.02.2022
3748 Clear 20 1020 22 10000 2.06 350 19:45 13.02.2022
3749 Clear 21 1019 21 10000 2.57 350 18:54 13.02.2022
3750 Clear 22 1019 21 10000 3.09 340 18:35 13.02.2022
3751 Clear 22 1020 20 10000 3.09 340 16:34 13.02.2022
3752 Clear 22 1020 21 10000 1.54 0 15:24 13.02.2022
3753 Clear 21 1021 26 10000 2.57 0 14:36 13.02.2022
3754 Clear 20 1023 28 10000 0.51 0 12:51 13.02.2022
3755 Clouds 18 1023 36 10000 1.03 0 11:58 13.02.2022
3756 Clouds 15 1022 41 10000 0.51 0 10:35 13.02.2022
3757 Clouds 12 1022 54 10000 0.51 0 09:47 13.02.2022
3758 Clear 8 1021 61 8000 0.51 0 07:51 13.02.2022
3759 Clear 14 1022 54 10000 2.57 70 00:36 13.02.2022
3760 Clear 15 1022 55 10000 2.57 60 23:53 12.02.2022
3761 Clear 16 1022 48 8000 1.54 30 22:33 12.02.2022
3762 Clear 16 1021 31 8000 1.54 80 21:31 12.02.2022
3763 Clear 18 1021 27 8000 2.06 40 20:47 12.02.2022
3764 Clouds 20 1020 22 10000 4.12 60 19:35 12.02.2022
3765 Clouds 21 1020 19 10000 4.63 60 18:53 12.02.2022
3766 Clouds 21 1020 21 10000 4.12 60 18:35 12.02.2022
3767 Clouds 22 1019 21 10000 4.63 40 17:37 12.02.2022
3768 Clouds 22 1019 21 10000 5.14 50 16:43 12.02.2022
3769 Clouds 22 1020 28 10000 3.09 70 15:51 12.02.2022
3770 Clouds 21 1021 35 10000 3.6 40 14:44 12.02.2022
3771 Clouds 20 1022 37 10000 4.12 50 14:24 12.02.2022
3772 Clouds 16 1023 51 8000 1.03 0 11:18 12.02.2022
3773 Clouds 14 1023 54 8000 0.51 0 10:23 12.02.2022
3774 Clouds 9 1022 66 8000 3.6 100 09:32 12.02.2022
3775 Clouds 7 1022 76 8000 1.54 80 08:45 12.02.2022
3776 Clear 9 1021 71 10000 2.06 90 05:40 12.02.2022
3777 Clear 9 1021 66 10000 2.57 100 04:33 12.02.2022
3778 Clear 11 1022 66 10000 2.06 90 02:18 12.02.2022
3779 Clouds 14 1023 58 8000 1.54 100 22:55 11.02.2022
3780 Clouds 15 1023 55 8000 1.54 40 22:20 11.02.2022
3781 Clouds 16 1022 51 8000 3.09 40 20:52 11.02.2022
3782 Clouds 17 1022 45 8000 2.57 20 19:50 11.02.2022
3783 Clouds 18 1022 42 8000 3.6 30 19:27 11.02.2022
3784 Clouds 19 1021 42 8000 4.12 360 18:28 11.02.2022
3785 Clouds 20 1022 40 8000 2.06 340 17:26 11.02.2022
3786 Clouds 20 1022 32 8000 1.54 0 16:26 11.02.2022
3787 Clouds 20 1022 24 10000 4.78 26 14:57 11.02.2022
3788 Clouds 20 1022 24 10000 4.78 26 14:36 11.02.2022
3789 Clouds 20 1023 22 10000 3.98 43 14:18 11.02.2022
3790 Clouds 20 1023 22 10000 3.97 43 13:39 11.02.2022
3791 Clouds 15 1025 38 8000 1.03 0 12:19 11.02.2022
3792 Clouds 13 1024 38 10000 2.06 90 10:28 11.02.2022
3793 Clouds 12 1023 40 10000 1.03 0 09:19 11.02.2022
3794 Clouds 12 1023 35 10000 2.06 20 08:28 11.02.2022
3795 Clouds 12 1023 35 8000 1.03 0 07:34 11.02.2022
3796 Clouds 13 1024 35 8000 1.03 0 02:40 11.02.2022
3797 Clear 13 1024 35 8000 1.03 0 02:20 11.02.2022
3798 Clear 16 1025 33 8000 1.03 0 23:36 10.02.2022
3799 Clear 20 1024 24 8000 2.06 340 21:53 10.02.2022
3800 Clear 21 1024 21 8000 3.6 330 21:24 10.02.2022
3801 Clear 22 1024 17 8000 2.57 340 20:48 10.02.2022
3802 Clouds 24 1023 13 8000 3.09 330 19:26 10.02.2022
3803 Clouds 25 1023 12 8000 2.57 310 18:47 10.02.2022
3804 Clouds 26 1022 12 8000 3.6 300 17:39 10.02.2022
3805 Clouds 26 1022 12 8000 3.6 300 17:19 10.02.2022
3806 Clouds 26 1023 11 8000 3.6 300 16:20 10.02.2022
3807 Clouds 25 1023 18 8000 3.09 290 15:33 10.02.2022
3808 Clouds 26 1023 18 8000 3.09 290 14:49 10.02.2022
3809 Clouds 25 1024 19 8000 3.09 280 14:29 10.02.2022
3810 Clouds 23 1025 25 8000 2.06 320 13:33 10.02.2022
3811 Clouds 22 1025 30 8000 1.54 340 12:51 10.02.2022
3812 Clouds 20 1026 34 8000 1.03 0 11:38 10.02.2022
3813 Clouds 20 1026 34 8000 1.03 0 11:20 10.02.2022
3814 Clouds 17 1026 36 8000 4.12 180 10:18 10.02.2022
3815 Clouds 12 1025 47 8000 1.03 0 09:25 10.02.2022
3816 Clouds 13 1025 44 8000 1.54 150 07:40 10.02.2022
3817 Clear 14 1024 41 8000 0.51 0 05:52 10.02.2022
3818 Clear 17 1025 34 8000 4.12 230 01:57 10.02.2022
3819 Clouds 18 1025 36 8000 4.63 220 00:50 10.02.2022
3820 Clear 18 1025 36 8000 4.63 220 00:50 10.02.2022
3821 Clouds 19 1025 34 8000 3.6 210 00:29 10.02.2022
3822 Clouds 18 1025 34 8000 0.51 0 23:26 09.02.2022
3823 Clouds 20 1024 32 8000 3.6 230 22:37 09.02.2022
3824 Clouds 19 1024 34 8000 1.03 0 21:56 09.02.2022
3825 Clouds 20 1024 32 8000 1.03 0 21:32 09.02.2022
3826 Clouds 23 1023 27 8000 1.03 0 20:51 09.02.2022
3827 Clouds 23 1023 27 8000 1.03 0 20:31 09.02.2022
3828 Clouds 24 1023 25 8000 2.06 300 19:59 09.02.2022
3829 Clouds 25 1023 23 8000 3.09 300 19:38 09.02.2022
3830 Clouds 26 1023 22 8000 1.54 0 17:39 09.02.2022
3831 Clouds 26 1023 24 8000 2.06 310 16:53 09.02.2022
3832 Clouds 26 1023 24 8000 2.57 20 15:52 09.02.2022
3833 Clouds 26 1024 24 8000 2.06 0 14:42 09.02.2022
3834 Clear 23 1025 28 8000 1.54 360 12:30 09.02.2022
3835 Clear 22 1025 30 8000 0.51 0 11:19 09.02.2022
3836 Clear 17 1025 42 8000 1.03 0 10:30 09.02.2022
3837 Clear 12 1025 54 8000 1.03 0 09:40 09.02.2022
3838 Clear 12 1025 54 8000 1.03 0 09:19 09.02.2022
3839 Clear 12 1024 50 8000 1.54 100 07:55 09.02.2022
3840 Clear 15 1023 38 10000 1.1 155 05:30 09.02.2022
3841 Clear 16 1023 39 8000 2.57 170 03:50 09.02.2022
3842 Clouds 17 1024 39 8000 2.57 120 01:27 09.02.2022
3843 Clouds 19 1024 34 8000 2.06 0 23:34 08.02.2022
3844 Clouds 20 1023 32 8000 3.6 170 22:50 08.02.2022
3845 Clouds 21 1023 30 8000 4.12 150 22:22 08.02.2022
3846 Clouds 21 1023 30 8000 5.66 150 21:49 08.02.2022
3847 Clouds 22 1022 28 8000 6.17 140 21:21 08.02.2022
3848 Clouds 23 1022 23 8000 3.6 110 20:45 08.02.2022
3849 Clouds 24 1021 19 8000 3.09 50 19:46 08.02.2022
3850 Clouds 23 1020 17 10000 3.3 40 18:48 08.02.2022
3851 Clouds 27 1020 18 8000 1.54 0 17:43 08.02.2022
3852 Clouds 26 1020 13 10000 4.29 15 16:34 08.02.2022
3853 Clear 26 1020 13 10000 3.97 9 15:30 08.02.2022
3854 Clear 26 1022 22 8000 2.57 350 14:38 08.02.2022
3855 Clouds 25 1023 23 8000 1.54 0 13:24 08.02.2022
3856 Clouds 21 1023 35 8000 1.03 0 11:55 08.02.2022
3857 Clouds 14 1023 44 8000 1.54 70 10:23 08.02.2022
3858 Clouds 15 1023 41 8000 1.54 80 10:23 08.02.2022
3859 Clouds 14 1023 44 8000 1.54 70 09:45 08.02.2022
3860 Clear 12 1022 50 8000 2.57 110 07:55 08.02.2022
3861 Clouds 14 1021 47 10000 1.54 100 05:41 08.02.2022
3862 Clouds 17 1022 39 10000 2.06 0 04:39 08.02.2022
3863 Clouds 17 1022 39 10000 2.06 0 04:21 08.02.2022
3864 Clouds 16 1022 41 10000 0.51 0 03:36 08.02.2022
3865 Clouds 16 1022 41 10000 0.51 0 03:18 08.02.2022
3866 Clouds 16 1022 41 10000 1.54 130 02:59 08.02.2022
3867 Clouds 17 1022 39 10000 1.03 0 02:36 08.02.2022
3868 Clouds 17 1022 39 10000 1.03 0 02:18 08.02.2022
3869 Clouds 18 1022 36 10000 1.54 0 02:18 08.02.2022
3870 Clouds 19 1022 37 10000 3.6 210 01:44 08.02.2022
3871 Clouds 19 1022 37 10000 3.6 210 01:24 08.02.2022
3872 Clouds 17 1022 39 10000 2.06 250 00:54 08.02.2022
3873 Clear 18 1022 34 10000 2.57 240 23:57 07.02.2022
3874 Clear 19 1022 34 10000 2.57 210 23:39 07.02.2022
3875 Clear 19 1022 34 10000 2.57 210 23:18 07.02.2022
3876 Clouds 20 1022 30 8000 3.09 220 22:20 07.02.2022
3877 Clouds 21 1021 28 8000 3.6 180 21:55 07.02.2022
3878 Clouds 22 1021 26 8000 3.09 180 21:29 07.02.2022
3879 Clouds 20 1021 30 8000 1.54 230 20:59 07.02.2022
3880 Clouds 22 1020 24 8000 2.57 230 20:40 07.02.2022
3881 Clouds 22 1020 23 8000 1.03 0 19:54 07.02.2022
3882 Clouds 23 1020 21 8000 1.54 230 19:36 07.02.2022
3883 Clouds 25 1019 20 8000 2.06 330 18:18 07.02.2022
3884 Clouds 26 1019 19 8000 3.09 280 16:53 07.02.2022
3885 Clear 26 1019 22 8000 3.6 0 15:49 07.02.2022
3886 Clear 26 1020 22 8000 2.06 310 14:56 07.02.2022
3887 Clear 25 1021 33 8000 1.54 0 13:28 07.02.2022
3888 Clear 23 1021 35 8000 2.57 40 12:52 07.02.2022
3889 Clear 20 1021 42 8000 2.06 80 11:58 07.02.2022
3890 Clear 18 1021 48 8000 2.57 80 11:35 07.02.2022
3891 Clouds 17 1021 51 10000 2.06 50 10:50 07.02.2022
3892 Clouds 18 1021 52 10000 0.51 0 10:30 07.02.2022
3893 Clouds 15 1021 58 10000 2.06 130 09:53 07.02.2022
3894 Clouds 13 1020 62 10000 3.09 90 09:18 07.02.2022
3895 Clouds 12 1020 66 10000 1.03 0 08:36 07.02.2022
3896 Clear 13 1020 62 10000 0.51 0 06:54 07.02.2022
3897 Clear 13 1020 62 10000 1.54 120 06:34 07.02.2022
3898 Clear 15 1020 58 10000 1.54 80 02:59 07.02.2022
3899 Clouds 16 1021 55 10000 2.06 100 00:45 07.02.2022
3900 Clouds 16 1021 55 10000 2.06 100 00:45 07.02.2022
3901 Clouds 16 1021 55 10000 2.06 90 23:47 06.02.2022
3902 Clouds 18 1021 52 8000 2.57 60 22:48 06.02.2022
3903 Clouds 20 1021 42 8000 4.12 50 21:54 06.02.2022
3904 Clouds 19 1021 42 8000 2.06 70 21:35 06.02.2022
3905 Clouds 20 1020 40 8000 2.57 80 20:54 06.02.2022
3906 Clouds 21 1020 37 8000 3.09 80 20:31 06.02.2022
3907 Clouds 23 1019 33 8000 2.57 20 19:38 06.02.2022
3908 Clouds 24 1019 33 8000 2.57 10 18:40 06.02.2022
3909 Clouds 24 1019 33 8000 2.06 310 17:55 06.02.2022
3910 Clouds 25 1018 33 8000 2.06 320 17:19 06.02.2022
3911 Clouds 25 1019 31 8000 2.06 0 16:38 06.02.2022
3912 Clouds 24 1019 35 8000 1.54 0 15:48 06.02.2022
3913 Clouds 24 1019 33 10000 2.06 30 15:26 06.02.2022
3914 Clouds 23 1020 40 10000 1.54 0 14:36 06.02.2022
3915 Clouds 23 1020 40 10000 1.54 0 14:36 06.02.2022
3916 Clouds 20 1021 49 10000 2.06 50 13:25 06.02.2022
3917 Clouds 19 1021 52 10000 2.57 40 12:52 06.02.2022
3918 Clouds 16 1022 63 10000 2.57 70 11:32 06.02.2022
3919 Clouds 15 1022 67 10000 2.06 70 10:30 06.02.2022
3920 Clouds 14 1021 72 10000 3.09 80 08:53 06.02.2022
3921 Clouds 14 1021 72 10000 2.06 110 08:30 06.02.2022
3922 Clouds 15 1020 63 10000 0.51 0 05:31 06.02.2022
3923 Clouds 15 1021 63 10000 1.03 0 02:49 06.02.2022
3924 Clouds 15 1021 63 10000 1.03 0 02:24 06.02.2022
3925 Clouds 16 1021 59 10000 3.09 50 00:27 06.02.2022
3926 Clouds 19 1021 48 10000 5.14 40 22:22 05.02.2022
3927 Clouds 20 1020 37 10000 2.06 60 21:18 05.02.2022
3928 Clouds 21 1020 35 10000 2.57 50 20:24 05.02.2022
3929 Clouds 21 1020 35 10000 3.09 40 19:46 05.02.2022
3930 Clouds 22 1019 33 10000 4.12 40 18:52 05.02.2022
3931 Clear 23 1019 31 10000 3.09 360 17:39 05.02.2022
3932 Clear 23 1019 31 10000 3.09 360 17:39 05.02.2022
3933 Clear 24 1019 29 10000 4.12 30 16:48 05.02.2022
3934 Clear 25 1019 23 10000 3.09 50 15:34 05.02.2022
3935 Clear 24 1019 25 10000 3.09 50 14:53 05.02.2022
3936 Clouds 20 1022 34 8000 2.57 40 12:47 05.02.2022
3937 Clouds 19 1022 37 8000 2.57 50 11:49 05.02.2022
3938 Clouds 17 1022 39 8000 1.54 60 10:47 05.02.2022
3939 Clear 14 1022 51 10000 1.03 0 09:53 05.02.2022
3940 Clear 12 1021 54 10000 1.03 0 09:29 05.02.2022
3941 Clear 12 1021 50 10000 1.54 110 07:38 05.02.2022
3942 Clear 12 1021 50 10000 2.06 100 06:56 05.02.2022
3943 Clouds 14 1022 47 10000 1.54 110 04:28 05.02.2022
3944 Clouds 17 1022 36 10000 3.09 80 01:19 05.02.2022
3945 Clouds 17 1023 36 10000 3.09 90 00:51 05.02.2022
3946 Clouds 18 1022 34 10000 2.06 90 23:38 04.02.2022
3947 Clouds 18 1022 34 10000 2.06 90 23:20 04.02.2022
3948 Clouds 22 1022 26 10000 2.57 40 21:37 04.02.2022
3949 Clouds 22 1022 26 10000 2.57 40 21:18 04.02.2022
3950 Clouds 22 1022 26 10000 3.09 20 20:50 04.02.2022
3951 Clouds 24 1021 23 10000 2.57 20 19:33 04.02.2022
3952 Clouds 25 1020 23 10000 1.54 320 17:27 04.02.2022
3953 Clear 25 1021 22 10000 1.54 0 15:38 04.02.2022
3954 Clouds 24 1021 23 7000 2.06 0 14:52 04.02.2022
3955 Clouds 22 1023 30 6000 1.54 10 12:43 04.02.2022
3956 Clear 21 1023 32 10000 1.54 360 11:47 04.02.2022
3957 Clear 18 1023 36 10000 1.03 0 11:22 04.02.2022
3958 Clear 16 1023 41 10000 1.54 170 10:32 04.02.2022
3959 Clouds 14 1022 47 8000 2.06 130 08:34 04.02.2022
3960 Clear 14 1022 47 10000 2.06 90 05:19 04.02.2022
3961 Clear 15 1024 44 10000 1.03 0 02:39 04.02.2022
3962 Clear 17 1024 39 10000 4.12 220 00:26 04.02.2022
3963 Clouds 18 1024 42 8000 4.12 220 23:21 03.02.2022
3964 Clouds 18 1024 42 8000 4.12 230 22:26 03.02.2022
3965 Clouds 19 1024 39 8000 3.09 240 21:47 03.02.2022
3966 Clouds 22 1023 28 8000 4.63 230 20:26 03.02.2022
3967 Clouds 22 1023 26 8000 3.09 200 19:57 03.02.2022
3968 Clouds 22 1023 26 8000 2.57 200 19:23 03.02.2022
3969 Clouds 23 1022 25 8000 3.6 240 18:26 03.02.2022
3970 Clouds 24 1022 23 8000 3.6 260 17:27 03.02.2022
3971 Clouds 26 1022 21 8000 1.03 0 15:44 03.02.2022
3972 Clouds 25 1023 22 8000 1.54 360 14:22 03.02.2022
3973 Clouds 24 1024 25 8000 1.54 60 12:37 03.02.2022
3974 Clouds 11 1024 46 8000 1.03 0 09:29 03.02.2022
3975 Clear 11 1023 46 10000 2.06 130 08:19 03.02.2022
3976 Clear 14 1023 38 8000 1.03 0 02:56 03.02.2022
3977 Clouds 17 1024 31 8000 1.54 170 00:29 03.02.2022
3978 Clouds 20 1023 26 8000 2.57 210 22:42 02.02.2022
3979 Clouds 18 1023 29 8000 0.51 0 21:53 02.02.2022
3980 Clouds 19 1023 30 8000 1.54 250 21:29 02.02.2022
3981 Clouds 21 1022 26 8000 2.06 240 20:28 02.02.2022
3982 Clouds 21 1022 24 8000 1.54 260 19:49 02.02.2022
3983 Clouds 23 1022 23 8000 2.06 240 19:20 02.02.2022
3984 Clouds 25 1021 19 8000 3.09 270 18:25 02.02.2022
3985 Clear 26 1021 18 10000 2.06 290 17:23 02.02.2022
3986 Clear 26 1021 18 10000 3.09 310 16:59 02.02.2022
3987 Clear 27 1021 17 10000 2.57 320 15:49 02.02.2022
3988 Clear 22 1023 23 10000 2.57 80 12:50 02.02.2022
3989 Clear 18 1024 29 10000 2.57 80 11:51 02.02.2022
3990 Clear 18 1024 29 10000 2.57 80 11:51 02.02.2022
3991 Clear 16 1024 31 10000 2.57 110 11:30 02.02.2022
3992 Clear 9 1023 53 8000 2.06 70 09:22 02.02.2022
3993 Clouds 9 1023 53 8000 2.06 80 05:29 02.02.2022
3994 Clouds 17 1024 29 8000 2.57 100 22:36 01.02.2022
3995 Clear 20 1023 22 8000 3.09 50 20:58 01.02.2022
3996 Clear 23 1022 20 10000 4.12 30 19:39 01.02.2022
3997 Clear 26 1022 19 10000 2.57 0 17:37 01.02.2022
3998 Clear 26 1022 21 10000 2.06 0 16:31 01.02.2022
3999 Clouds 23 1025 31 8000 2.06 50 13:27 01.02.2022
4000 Clouds 20 1026 34 8000 1.54 90 12:28 01.02.2022
4001 Clouds 13 1025 54 8000 3.09 90 10:42 01.02.2022
4002 Clouds 13 1025 54 8000 2.06 60 02:24 01.02.2022
4003 Clouds 16 1025 48 8000 3.09 90 23:39 31.01.2022
4004 Clouds 17 1025 45 8000 3.6 100 22:42 31.01.2022
4005 Clouds 20 1024 37 8000 2.57 60 21:36 31.01.2022
4006 Clouds 21 1024 35 8000 1.54 90 20:35 31.01.2022
4007 Clouds 22 1024 33 8000 1.54 70 19:59 31.01.2022
4008 Clouds 24 1023 29 8000 2.06 50 18:47 31.01.2022
4009 Clouds 25 1023 27 8000 2.06 30 18:18 31.01.2022
4010 Clouds 25 1023 29 8000 1.54 30 17:24 31.01.2022
4011 Clouds 25 1024 29 8000 2.57 60 16:25 31.01.2022
4012 Clouds 25 1024 31 8000 2.57 80 14:53 31.01.2022
4013 Clouds 23 1026 40 8000 2.57 40 13:35 31.01.2022
4014 Clouds 21 1027 43 8000 2.57 40 12:38 31.01.2022
4015 Clouds 21 1026 43 8000 1.03 0 11:26 31.01.2022
4016 Clouds 17 1026 55 8000 2.06 50 10:48 31.01.2022
4017 Clouds 16 1025 55 8000 1.54 40 09:37 31.01.2022
4018 Clouds 15 1025 58 8000 2.57 90 08:56 31.01.2022
4019 Clouds 15 1025 55 8000 2.57 90 08:20 31.01.2022
4020 Clouds 15 1024 58 8000 1.03 0 07:40 31.01.2022
4021 Clouds 17 1023 48 8000 2.06 50 05:33 31.01.2022
4022 Clouds 21 1024 35 10000 5.14 200 00:36 31.01.2022
4023 Clouds 22 1023 28 10000 7.72 190 22:33 30.01.2022
4024 Clouds 22 1023 26 10000 4.12 200 21:46 30.01.2022
4025 Clouds 22 1022 26 7000 4.63 210 21:26 30.01.2022
4026 Clouds 22 1022 26 7000 5.66 210 20:54 30.01.2022
4027 Clouds 23 1021 23 7000 6.69 200 20:31 30.01.2022
4028 Clouds 23 1021 23 7000 7.2 200 19:56 30.01.2022
4029 Clouds 24 1020 22 7000 3.6 90 18:52 30.01.2022
4030 Clouds 24 1020 22 7000 3.09 100 18:22 30.01.2022
4031 Clouds 25 1020 19 7000 3.09 80 17:31 30.01.2022
4032 Clouds 25 1020 19 7000 3.09 80 17:31 30.01.2022
4033 Clouds 25 1020 19 7000 3.09 80 17:31 30.01.2022
4034 Clouds 25 1020 19 7000 3.09 90 16:44 30.01.2022
4035 Clouds 25 1021 19 8000 3.6 100 16:23 30.01.2022
4036 Clouds 25 1020 19 7000 3.09 80 16:23 30.01.2022
4037 Clouds 25 1021 19 8000 3.6 100 15:55 30.01.2022
4038 Clouds 25 1021 20 8000 2.06 70 15:33 30.01.2022
4039 Clouds 25 1022 20 8000 3.09 100 14:48 30.01.2022
4040 Clouds 23 1023 25 8000 1.54 0 13:49 30.01.2022
4041 Clouds 21 1024 30 10000 1.54 60 12:46 30.01.2022
4042 Clouds 14 1024 47 10000 1.54 90 11:23 30.01.2022
4043 Clouds 13 1024 50 10000 3.09 90 10:26 30.01.2022
4044 Clouds 10 1023 57 10000 0.51 0 09:23 30.01.2022
4045 Clouds 10 1023 53 10000 1.54 100 08:32 30.01.2022
4046 Clouds 12 1023 50 10000 1.54 90 02:55 30.01.2022
4047 Clouds 13 1023 47 10000 3.09 110 01:54 30.01.2022
4048 Clouds 14 1022 44 8000 1.54 260 23:49 29.01.2022
4049 Clouds 15 1022 41 10000 0.51 0 22:57 29.01.2022
4050 Clouds 18 1021 34 10000 1.54 110 21:35 29.01.2022
4051 Clouds 19 1021 32 10000 1.54 60 20:59 29.01.2022
4052 Clouds 21 1020 28 10000 2.06 40 20:20 29.01.2022
4053 Clouds 21 1020 28 10000 2.06 60 19:33 29.01.2022
4054 Clouds 23 1020 25 10000 1.54 40 18:44 29.01.2022
4055 Clouds 24 1019 22 10000 3.09 30 17:56 29.01.2022
4056 Clouds 24 1019 22 10000 4.12 360 17:19 29.01.2022
4057 Clouds 24 1020 22 10000 2.57 350 15:35 29.01.2022
4058 Clouds 24 1021 22 10000 1.54 0 13:58 29.01.2022
4059 Clouds 23 1021 23 10000 1.03 0 13:28 29.01.2022
4060 Clouds 23 1022 23 10000 2.06 140 12:59 29.01.2022
4061 Clouds 20 1022 30 8000 4.12 90 11:39 29.01.2022
4062 Clouds 20 1022 30 8000 4.12 90 11:39 29.01.2022
4063 Clouds 18 1021 36 8000 2.57 90 10:34 29.01.2022
4064 Clouds 16 1021 39 8000 2.06 10 08:20 29.01.2022
4065 Clouds 11 1020 58 8000 1.54 100 02:48 29.01.2022
4066 Clouds 14 1020 47 8000 0.51 0 00:32 29.01.2022
4067 Clouds 15 1020 44 8000 1.03 0 23:31 28.01.2022
4068 Clouds 15 1019 44 8000 0.51 0 22:47 28.01.2022
4069 Clouds 17 1019 36 8000 1.03 0 22:19 28.01.2022
4070 Clouds 17 1018 39 10000 1.54 270 20:41 28.01.2022
4071 Clouds 20 1018 30 10000 0.51 0 19:58 28.01.2022
4072 Clouds 21 1017 28 10000 1.54 360 18:52 28.01.2022
4073 Clouds 22 1017 24 8000 2.06 340 18:34 28.01.2022
4074 Clear 23 1017 25 10000 1.54 0 16:23 28.01.2022
4075 Clear 23 1018 27 10000 2.57 20 14:54 28.01.2022
4076 Clear 20 1019 32 10000 3.6 60 12:42 28.01.2022
4077 Clear 18 1020 39 10000 4.12 70 11:49 28.01.2022
4078 Clouds 14 1020 58 10000 2.06 50 10:27 28.01.2022
4079 Clouds 13 1020 62 10000 1.54 70 09:46 28.01.2022
4080 Clouds 12 1019 66 10000 2.57 80 07:41 28.01.2022
4081 Clouds 13 1019 67 10000 1.54 240 05:31 28.01.2022
4082 Clouds 14 1019 62 10000 2.06 30 03:51 28.01.2022
4083 Clouds 14 1019 58 10000 2.06 240 02:27 28.01.2022
4084 Clouds 15 1019 51 10000 2.06 220 01:37 28.01.2022
4085 Clouds 15 1019 51 10000 2.06 220 01:37 28.01.2022
4086 Clouds 14 1019 58 10000 3.09 130 00:42 28.01.2022
4087 Clouds 16 1018 48 10000 4.12 170 22:20 27.01.2022
4088 Clouds 17 1018 45 10000 3.09 190 21:34 27.01.2022
4089 Clouds 17 1017 42 10000 3.6 210 20:59 27.01.2022
4090 Clouds 18 1016 36 10000 2.06 200 19:37 27.01.2022
4091 Clouds 19 1016 37 10000 2.57 220 18:19 27.01.2022
4092 Clouds 20 1016 32 10000 2.06 270 16:45 27.01.2022
4093 Clouds 20 1018 34 10000 1.03 0 13:57 27.01.2022
4094 Clouds 18 1019 45 10000 1.54 0 12:49 27.01.2022
4095 Clouds 16 1020 59 10000 1.03 0 11:53 27.01.2022
4096 Clouds 10 1019 76 10000 1.54 100 09:48 27.01.2022
4097 Clouds 8 1018 81 10000 3.09 100 08:40 27.01.2022
4098 Clouds 9 1018 81 10000 2.06 80 07:31 27.01.2022
4099 Clouds 10 1019 87 10000 2.57 170 03:19 27.01.2022
4100 Clouds 10 1019 81 10000 1.54 260 00:23 27.01.2022
4101 Thunderstorm 12 1019 71 10000 0.51 0 22:27 26.01.2022
4102 Thunderstorm 14 1019 62 10000 1.54 150 21:44 26.01.2022
4103 Clouds 14 1018 67 10000 0.51 0 20:43 26.01.2022
4104 Clouds 14 1018 67 10000 0.51 0 20:24 26.01.2022
4105 Clouds 15 1018 63 10000 1.54 270 19:38 26.01.2022
4106 Clouds 16 1018 59 10000 2.06 280 18:47 26.01.2022
4107 Clouds 17 1018 55 10000 2.06 240 18:18 26.01.2022
4108 Clouds 16 1017 59 10000 2.06 290 17:33 26.01.2022
4109 Clouds 16 1017 63 10000 3.6 270 16:47 26.01.2022
4110 Clouds 17 1017 63 10000 3.09 280 15:56 26.01.2022
4111 Clouds 16 1018 63 10000 3.09 270 14:32 26.01.2022
4112 Clouds 14 1019 77 7000 1.03 0 12:18 26.01.2022
4113 Clouds 11 1019 87 7000 1.54 220 10:50 26.01.2022
4114 Clouds 8 1018 93 7000 1.03 0 09:52 26.01.2022
4115 Clouds 8 1018 87 7000 1.54 70 08:46 26.01.2022
4116 Clouds 9 1017 87 7000 2.06 40 06:28 26.01.2022
4117 Clouds 10 1022 93 6000 5.14 280 00:21 26.01.2022
4118 Clouds 10 1021 93 6000 5.66 270 23:37 25.01.2022
4119 Clouds 11 1021 87 6000 5.14 270 22:48 25.01.2022
4120 Clouds 11 1020 87 6000 5.14 270 22:18 25.01.2022
4121 Clouds 12 1020 76 6000 3.09 240 21:23 25.01.2022
4122 Clouds 13 1019 71 6000 3.09 0 20:45 25.01.2022
4123 Clouds 16 1018 59 6000 3.09 340 19:54 25.01.2022
4124 Thunderstorm 16 1017 59 6000 4.12 320 18:50 25.01.2022
4125 Clouds 18 1017 52 6000 1.54 310 17:47 25.01.2022
4126 Clouds 18 1017 52 6000 1.54 310 17:18 25.01.2022
4127 Clouds 18 1017 52 10000 2.06 20 16:34 25.01.2022
4128 Clouds 18 1018 59 6000 1.54 0 15:39 25.01.2022
4129 Clouds 18 1018 59 6000 1.54 0 15:18 25.01.2022
4130 Clouds 18 1018 59 6000 1.54 320 14:43 25.01.2022
4131 Clouds 15 1021 82 6000 1.03 0 11:52 25.01.2022
4132 Clouds 12 1020 94 6000 2.06 270 09:21 25.01.2022
4133 Clouds 13 1019 88 6000 1.03 0 07:46 25.01.2022
4134 Clouds 13 1019 88 6000 1.54 270 06:54 25.01.2022
4135 Clouds 12 1020 94 6000 0.51 0 05:23 25.01.2022
4136 Clouds 12 1020 94 6000 0.51 0 05:23 25.01.2022
4137 Clouds 12 1021 76 8000 3.09 240 00:28 25.01.2022
4138 Clouds 13 1021 71 8000 3.09 250 23:36 24.01.2022
4139 Clouds 13 1021 67 8000 3.09 250 23:18 24.01.2022
4140 Clouds 13 1021 67 8000 3.09 250 22:42 24.01.2022
4141 Clouds 15 1021 58 8000 2.57 260 21:57 24.01.2022
4142 Clouds 15 1020 58 8000 2.06 270 21:32 24.01.2022
4143 Clouds 17 1020 55 7000 3.6 230 20:34 24.01.2022
4144 Clouds 18 1020 52 7000 2.57 230 19:58 24.01.2022
4145 Clouds 19 1020 48 7000 3.09 240 19:37 24.01.2022
4146 Clouds 20 1019 45 7000 2.57 240 18:37 24.01.2022
4147 Clouds 20 1020 45 7000 2.06 330 17:24 24.01.2022
4148 Clouds 20 1020 45 7000 2.06 310 16:55 24.01.2022
4149 Clouds 20 1020 49 7000 3.09 310 16:29 24.01.2022
4150 Clouds 19 1020 55 7000 2.06 290 14:54 24.01.2022
4151 Clouds 18 1022 63 7000 1.03 0 13:38 24.01.2022
4152 Clouds 16 1022 77 7000 1.54 0 12:32 24.01.2022
4153 Clouds 15 1022 77 7000 2.06 130 11:21 24.01.2022
4154 Clouds 12 1022 82 7000 1.54 110 09:49 24.01.2022
4155 Clouds 12 1022 82 7000 1.03 0 09:20 24.01.2022
4156 Clouds 11 1021 87 8000 0.51 0 07:28 24.01.2022
4157 Clouds 11 1021 76 8000 2.06 250 01:34 24.01.2022
4158 Clouds 12 1021 71 8000 2.06 270 00:46 24.01.2022
4159 Clouds 12 1021 71 8000 2.06 250 00:27 24.01.2022
4160 Clouds 15 1021 63 8000 1.54 250 22:46 23.01.2022
4161 Clouds 17 1021 59 8000 2.06 330 21:50 23.01.2022
4162 Clouds 17 1020 55 8000 2.57 300 21:27 23.01.2022
4163 Clouds 18 1020 52 8000 2.57 300 20:54 23.01.2022
4164 Clouds 19 1020 45 8000 2.06 270 19:55 23.01.2022
4165 Clouds 21 1019 43 8000 3.09 290 18:52 23.01.2022
4166 Clouds 22 1019 37 8000 5.14 290 17:54 23.01.2022
4167 Clouds 23 1018 33 8000 4.63 300 16:52 23.01.2022
4168 Clouds 23 1019 33 8000 3.6 330 15:18 23.01.2022
4169 Clouds 22 1019 33 8000 3.6 330 14:33 23.01.2022
4170 Clouds 21 1020 37 6000 2.57 320 13:27 23.01.2022
4171 Clouds 21 1021 35 6000 0.51 0 12:36 23.01.2022
4172 Clouds 19 1021 39 6000 1.03 0 12:18 23.01.2022
4173 Clouds 19 1021 42 6000 0.51 0 11:24 23.01.2022
4174 Clouds 17 1021 45 6000 0.51 0 10:57 23.01.2022
4175 Clouds 15 1020 47 6000 1.03 0 10:21 23.01.2022
4176 Clouds 11 1020 58 8000 0.51 0 09:22 23.01.2022
4177 Clouds 14 1019 54 8000 1.54 260 05:59 23.01.2022
4178 Clouds 17 1018 39 8000 2.06 240 02:25 23.01.2022
4179 Clouds 18 1019 32 8000 2.06 210 01:35 23.01.2022
4180 Clouds 19 1019 27 8000 2.57 50 00:41 23.01.2022
4181 Clouds 21 1018 26 8000 3.6 40 23:57 22.01.2022
4182 Clouds 21 1019 26 8000 2.57 160 22:47 22.01.2022
4183 Clouds 22 1019 23 8000 0.51 0 21:58 22.01.2022
4184 Clouds 23 1018 23 8000 2.57 260 20:26 22.01.2022
4185 Clouds 25 1018 20 5000 4.12 200 19:34 22.01.2022
4186 Clouds 25 1017 20 5000 0.51 0 18:36 22.01.2022
4187 Clouds 26 1016 19 5000 1.54 340 17:42 22.01.2022
4188 Clouds 26 1016 19 5000 1.54 0 16:57 22.01.2022
4189 Clouds 26 1016 19 5000 3.09 60 16:20 22.01.2022
4190 Clouds 28 1016 17 5000 4.63 200 15:42 22.01.2022
4191 Clouds 25 1018 25 8000 3.6 60 13:59 22.01.2022
4192 Clouds 25 1018 25 8000 3.09 50 13:27 22.01.2022
4193 Clouds 21 1019 35 8000 2.57 50 12:32 22.01.2022
4194 Clouds 21 1019 32 8000 2.06 60 11:58 22.01.2022
4195 Clouds 14 1019 44 8000 2.06 60 10:39 22.01.2022
4196 Clouds 14 1019 44 8000 2.06 60 10:19 22.01.2022
4197 Clouds 13 1019 44 8000 1.03 0 08:54 22.01.2022
4198 Clouds 13 1018 44 8000 2.06 240 08:31 22.01.2022
4199 Clouds 14 1017 44 8000 5.14 100 05:20 22.01.2022
4200 Clouds 14 1018 41 8000 1.54 100 01:58 22.01.2022
4201 Clouds 14 1019 38 8000 1.54 130 23:49 21.01.2022
4202 Clouds 14 1019 38 8000 1.54 130 23:49 21.01.2022
4203 Clouds 15 1018 36 8000 1.54 120 22:58 21.01.2022
4204 Clear 18 1018 34 10000 2.06 360 20:48 21.01.2022
4205 Clear 20 1017 28 10000 1.03 0 19:20 21.01.2022
4206 Clouds 23 1017 25 10000 1.54 350 17:48 21.01.2022
4207 Clouds 23 1018 21 10000 2.06 20 15:48 21.01.2022
4208 Clear 22 1019 23 10000 2.06 360 14:37 21.01.2022
4209 Clear 19 1021 27 10000 1.03 0 12:43 21.01.2022
4210 Clear 17 1021 34 10000 0.51 0 11:29 21.01.2022
4211 Clear 12 1021 43 10000 0.51 0 10:27 21.01.2022
4212 Clear 7 1020 53 10000 1.54 80 08:50 21.01.2022
4213 Clear 7 1020 53 10000 3.09 50 07:48 21.01.2022
4214 Clear 10 1021 40 10000 0.51 0 01:48 21.01.2022
4215 Clear 14 1021 33 10000 1.03 0 22:47 20.01.2022
4216 Clear 14 1021 33 10000 2.06 100 21:48 20.01.2022
4217 Clouds 15 1021 31 10000 1.03 0 21:24 20.01.2022
4218 Clouds 17 1020 27 10000 1.54 260 19:46 20.01.2022
4219 Clouds 18 1020 25 10000 1.03 0 19:18 20.01.2022
4220 Clouds 21 1020 21 10000 2.57 300 17:37 20.01.2022
4221 Clouds 20 1020 22 10000 2.06 310 15:59 20.01.2022
4222 Clouds 20 1021 24 10000 2.57 340 15:29 20.01.2022
4223 Clouds 20 1022 26 10000 2.57 300 14:18 20.01.2022
4224 Clear 18 1023 29 10000 1.03 0 12:48 20.01.2022
4225 Clear 17 1024 31 10000 1.03 0 12:27 20.01.2022
4226 Clear 12 1023 43 10000 0.51 0 10:59 20.01.2022
4227 Clear 9 1023 49 10000 0.51 0 09:44 20.01.2022
4228 Clear 5 1022 60 10000 1.54 140 08:37 20.01.2022
4229 Clear 6 1022 52 10000 1.54 110 06:49 20.01.2022
4230 Clear 11 1025 37 10000 1.03 0 00:30 20.01.2022
4231 Clear 13 1024 28 10000 2.57 120 22:38 19.01.2022
4232 Clouds 15 1024 25 10000 1.54 70 21:33 19.01.2022
4233 Clouds 16 1024 23 10000 2.06 50 20:55 19.01.2022
4234 Clouds 17 1023 23 10000 2.06 50 20:30 19.01.2022
4235 Clouds 21 1023 19 10000 3.09 30 18:52 19.01.2022
4236 Clouds 22 1023 20 10000 2.06 20 17:51 19.01.2022
4237 Clouds 22 1023 21 10000 2.06 340 17:18 19.01.2022
4238 Clouds 22 1023 21 10000 2.06 340 17:18 19.01.2022
4239 Clouds 22 1023 21 10000 2.06 340 17:18 19.01.2022
4240 Clouds 21 1024 24 10000 1.54 330 15:31 19.01.2022
4241 Clear 19 1026 32 10000 1.03 0 13:20 19.01.2022
4242 Clear 16 1027 36 10000 2.06 40 11:58 19.01.2022
4243 Clear 15 1027 38 10000 1.54 70 11:38 19.01.2022
4244 Clear 7 1026 57 10000 2.06 100 09:35 19.01.2022
4245 Clear 7 1026 57 10000 2.06 80 08:33 19.01.2022
4246 Clear 11 1025 43 10000 2.06 30 05:19 19.01.2022
4247 Clear 11 1026 43 10000 1.03 0 00:18 19.01.2022
4248 Clear 10 1027 46 10000 1.54 260 23:18 18.01.2022
4249 Clear 14 1026 38 10000 1.54 80 21:44 18.01.2022
4250 Clear 17 1025 31 10000 2.06 30 20:22 18.01.2022
4251 Clear 18 1025 29 10000 2.57 20 19:45 18.01.2022
4252 Clear 18 1025 29 10000 3.09 10 19:25 18.01.2022
4253 Clear 19 1024 27 10000 3.6 320 18:18 18.01.2022
4254 Clear 20 1024 26 10000 3.09 310 17:31 18.01.2022
4255 Clear 22 1024 21 10000 2.06 0 16:20 18.01.2022
4256 Clear 21 1024 23 10000 2.06 0 15:25 18.01.2022
4257 Clear 19 1026 30 10000 2.06 40 14:22 18.01.2022
4258 Clear 14 1027 41 10000 2.06 100 11:31 18.01.2022
4259 Clear 9 1026 49 10000 1.54 60 09:59 18.01.2022
4260 Clouds 8 1025 53 10000 2.06 100 08:29 18.01.2022
4261 Clouds 9 1025 49 10000 2.06 80 07:42 18.01.2022
4262 Clouds 9 1025 49 10000 1.54 80 00:38 18.01.2022
4263 Clouds 11 1026 40 10000 2.57 110 22:39 17.01.2022
4264 Clouds 13 1026 41 10000 1.03 0 21:41 17.01.2022
4265 Clouds 13 1026 38 10000 2.06 250 20:44 17.01.2022
4266 Clouds 19 1024 26 10000 1.54 80 18:46 17.01.2022
4267 Clouds 19 1024 26 10000 1.54 80 18:24 17.01.2022
4268 Clear 20 1025 24 10000 2.06 360 17:19 17.01.2022
4269 Clear 20 1026 26 10000 1.03 0 15:54 17.01.2022
4270 Clear 18 1026 29 10000 1.54 350 14:58 17.01.2022
4271 Clear 18 1026 29 10000 1.54 310 14:31 17.01.2022
4272 Clouds 17 1028 36 8000 0.51 0 13:18 17.01.2022
4273 Clear 13 1028 44 10000 1.54 50 11:53 17.01.2022
4274 Clear 11 1029 46 10000 1.03 0 10:52 17.01.2022
4275 Clear 7 1028 49 10000 1.54 140 09:46 17.01.2022
4276 Clear 7 1027 53 10000 1.54 100 08:43 17.01.2022
4277 Clear 8 1027 49 10000 1.54 170 07:20 17.01.2022
4278 Clear 10 1025 43 10000 1.54 110 00:59 17.01.2022
4279 Clear 13 1025 38 10000 2.57 10 23:27 16.01.2022
4280 Clear 17 1025 25 10000 2.06 50 20:50 16.01.2022
4281 Clear 18 1024 25 10000 3.6 40 19:56 16.01.2022
4282 Clear 20 1024 24 10000 4.12 40 18:45 16.01.2022
4283 Clear 22 1023 21 10000 3.6 40 17:47 16.01.2022
4284 Clear 23 1023 21 10000 2.57 0 16:52 16.01.2022
4285 Clear 22 1024 26 10000 3.09 50 15:39 16.01.2022
4286 Clear 21 1025 30 10000 1.54 0 14:29 16.01.2022
4287 Clear 21 1025 30 10000 1.54 0 14:29 16.01.2022
4288 Clear 20 1026 30 10000 2.06 40 13:21 16.01.2022
4289 Clear 16 1027 41 10000 2.06 90 11:56 16.01.2022
4290 Clear 14 1027 47 10000 2.57 90 11:27 16.01.2022
4291 Clear 10 1027 57 10000 1.54 80 10:27 16.01.2022
4292 Clear 8 1026 61 10000 2.06 70 09:57 16.01.2022
4293 Clear 6 1026 65 10000 1.03 0 09:23 16.01.2022
4294 Clear 5 1026 70 10000 2.06 90 08:53 16.01.2022
4295 Clear 7 1025 65 10000 1.54 150 05:51 16.01.2022
4296 Clear 11 1025 43 10000 3.6 270 00:18 16.01.2022
4297 Clouds 14 1025 41 10000 2.57 130 22:38 15.01.2022
4298 Clouds 15 1024 36 10000 2.57 100 21:21 15.01.2022
4299 Clouds 17 1024 31 10000 3.09 50 20:43 15.01.2022
4300 Clouds 18 1023 29 10000 3.6 40 19:58 15.01.2022
4301 Clouds 20 1023 26 10000 3.6 30 19:23 15.01.2022
4302 Clouds 22 1023 24 10000 3.09 60 17:49 15.01.2022
4303 Clouds 22 1023 24 10000 3.6 40 16:42 15.01.2022
4304 Clouds 20 1025 30 10000 2.57 70 14:32 15.01.2022
4305 Clear 17 1026 39 10000 2.06 110 12:33 15.01.2022
4306 Clear 12 1026 50 10000 1.54 110 11:19 15.01.2022
4307 Clear 7 1026 61 10000 2.06 80 09:21 15.01.2022
4308 Clouds 13 1026 44 10000 0.51 0 00:52 15.01.2022
4309 Clear 15 1025 36 10000 2.06 90 21:57 14.01.2022
4310 Clear 17 1025 34 10000 3.09 40 20:51 14.01.2022
4311 Clear 18 1025 32 10000 2.57 40 20:23 14.01.2022
4312 Clear 19 1024 30 10000 3.09 30 19:48 14.01.2022
4313 Clouds 22 1023 24 10000 0.51 0 18:28 14.01.2022
4314 Clouds 22 1023 26 10000 1.54 360 16:51 14.01.2022
4315 Clouds 22 1023 28 10000 1.54 10 16:33 14.01.2022
4316 Clouds 21 1024 32 10000 2.57 350 14:47 14.01.2022
4317 Clouds 20 1025 32 10000 1.54 340 13:48 14.01.2022
4318 Clouds 18 1026 36 10000 1.03 0 12:34 14.01.2022
4319 Clouds 15 1026 44 10000 1.54 100 11:29 14.01.2022
4320 Clear 9 1025 57 10000 2.06 70 09:51 14.01.2022
4321 Clear 9 1025 53 8000 1.03 0 08:52 14.01.2022
4322 Clear 8 1024 57 8000 2.06 180 07:21 14.01.2022
4323 Clear 11 1024 54 8000 1.54 230 01:43 14.01.2022
4324 Clear 15 1024 38 10000 1.54 10 23:36 13.01.2022
4325 Clear 15 1023 36 10000 2.06 80 21:42 13.01.2022
4326 Clear 16 1023 33 10000 2.57 110 21:23 13.01.2022
4327 Clouds 19 1022 30 10000 2.57 30 19:41 13.01.2022
4328 Clouds 20 1021 28 10000 2.06 20 19:22 13.01.2022
4329 Clouds 23 1021 21 10000 2.57 50 17:56 13.01.2022
4330 Clouds 23 1021 23 10000 2.57 0 16:22 13.01.2022
4331 Clouds 22 1021 24 10000 3.09 60 15:38 13.01.2022
4332 Clouds 22 1021 26 10000 2.57 50 14:49 13.01.2022
4333 Clear 18 1023 34 10000 1.54 30 12:46 13.01.2022
4334 Clear 11 1023 54 10000 1.03 0 10:25 13.01.2022
4335 Clear 6 1022 61 10000 2.06 80 09:20 13.01.2022
4336 Clear 6 1022 61 10000 2.06 80 08:27 13.01.2022
4337 Clear 6 1021 61 10000 2.06 100 07:24 13.01.2022
4338 Clear 7 1021 61 10000 2.06 280 06:38 13.01.2022
4339 Clear 7 1021 61 10000 1.03 0 05:20 13.01.2022
4340 Clear 8 1021 57 10000 1.54 80 02:33 13.01.2022
4341 Clear 12 1021 47 8000 1.03 0 00:56 13.01.2022
4342 Clear 13 1021 44 8000 2.06 200 23:50 12.01.2022
4343 Clear 13 1021 44 8000 2.57 180 23:24 12.01.2022
4344 Clear 13 1021 47 10000 0.51 0 21:58 12.01.2022
4345 Clear 14 1020 44 10000 0.51 0 21:23 12.01.2022
4346 Clear 16 1020 39 10000 0.51 0 20:57 12.01.2022
4347 Clear 17 1020 36 10000 2.06 230 19:55 12.01.2022
4348 Clear 20 1019 30 10000 2.57 290 18:43 12.01.2022
4349 Clear 22 1019 23 10000 2.57 320 17:50 12.01.2022
4350 Clear 22 1018 28 10000 2.57 340 16:38 12.01.2022
4351 Clear 21 1019 30 10000 1.54 350 14:49 12.01.2022
4352 Clouds 20 1020 34 8000 1.03 0 13:34 12.01.2022
4353 Clear 16 1021 41 8000 2.06 90 12:34 12.01.2022
4354 Clear 4 1019 87 8000 2.06 90 08:45 12.01.2022
4355 Clear 5 1019 81 8000 1.03 0 07:52 12.01.2022
4356 Clear 5 1019 81 8000 1.54 150 07:32 12.01.2022
4357 Clouds 10 1019 62 8000 1.54 180 01:26 12.01.2022
4358 Clouds 11 1019 66 8000 1.03 0 23:25 11.01.2022
4359 Clouds 12 1019 62 8000 1.03 0 22:24 11.01.2022
4360 Clouds 14 1019 58 8000 1.54 190 21:25 11.01.2022
4361 Clouds 15 1019 58 8000 2.06 230 20:33 11.01.2022
4362 Clouds 17 1018 51 8000 3.6 280 18:52 11.01.2022
4363 Clouds 18 1017 42 8000 3.6 280 17:46 11.01.2022
4364 Clouds 18 1017 45 8000 3.6 300 16:39 11.01.2022
4365 Clouds 18 1017 45 8000 3.6 300 16:18 11.01.2022
4366 Clouds 17 1018 42 8000 3.09 300 14:44 11.01.2022
4367 Clouds 17 1018 42 8000 2.57 320 14:18 11.01.2022
4368 Clouds 16 1018 44 8000 2.06 320 13:42 11.01.2022
4369 Clouds 15 1019 47 8000 1.54 0 13:24 11.01.2022
4370 Clouds 14 1019 51 8000 2.06 260 12:23 11.01.2022
4371 Clouds 9 1018 49 8000 2.06 250 10:25 11.01.2022
4372 Clouds 9 1017 46 8000 1.54 180 07:35 11.01.2022
4373 Clouds 9 1018 49 8000 1.54 70 02:57 11.01.2022
4374 Clouds 11 1019 40 8000 0.51 0 00:24 11.01.2022
4375 Clouds 12 1019 37 8000 1.03 0 23:38 10.01.2022
4376 Clouds 12 1019 37 8000 1.54 240 22:20 10.01.2022
4377 Clouds 12 1019 37 8000 2.06 240 21:55 10.01.2022
4378 Clouds 13 1019 35 8000 1.54 290 21:32 10.01.2022
4379 Clouds 13 1019 35 8000 2.06 250 20:58 10.01.2022
4380 Clouds 14 1019 35 8000 1.54 280 20:29 10.01.2022
4381 Clouds 15 1019 31 8000 1.03 0 19:47 10.01.2022
4382 Clouds 16 1019 31 8000 1.03 0 19:23 10.01.2022
4383 Clouds 17 1019 27 8000 1.03 0 18:54 10.01.2022
4384 Clouds 18 1019 27 8000 1.03 0 18:34 10.01.2022
4385 Clouds 19 1019 27 8000 2.06 320 16:43 10.01.2022
4386 Clouds 19 1019 27 8000 2.06 290 16:18 10.01.2022
4387 Clouds 19 1020 27 8000 2.57 280 14:41 10.01.2022
4388 Clouds 15 1022 33 8000 1.54 350 12:43 10.01.2022
4389 Clouds 12 1022 40 8000 1.54 60 11:40 10.01.2022
4390 Clouds 11 1022 43 8000 2.06 110 10:45 10.01.2022
4391 Clear 4 1022 60 10000 1.54 110 08:59 10.01.2022
4392 Clouds 8 1022 46 10000 1.54 180 05:51 10.01.2022
4393 Clear 9 1023 46 10000 2.06 70 01:35 10.01.2022
4394 Clear 10 1023 43 10000 1.54 110 00:44 10.01.2022
4395 Clear 11 1024 40 10000 2.06 110 00:19 10.01.2022
4396 Clear 13 1024 35 10000 1.54 70 22:43 09.01.2022
4397 Clear 13 1024 33 10000 3.6 110 21:47 09.01.2022
4398 Clear 14 1024 33 8000 2.06 90 21:25 09.01.2022
4399 Clear 15 1024 31 8000 2.57 70 20:58 09.01.2022
4400 Clear 16 1024 29 8000 2.57 80 20:39 09.01.2022
4401 Clear 16 1024 29 8000 2.57 80 20:21 09.01.2022
4402 Clear 19 1024 24 8000 3.09 50 19:38 09.01.2022
4403 Clear 19 1024 24 8000 3.09 50 19:18 09.01.2022
4404 Clear 22 1023 21 10000 3.09 50 18:37 09.01.2022
4405 Clear 23 1024 17 10000 1.54 360 17:48 09.01.2022
4406 Clear 23 1024 18 10000 1.54 40 17:29 09.01.2022
4407 Clear 23 1024 20 10000 2.57 50 16:40 09.01.2022
4408 Clear 23 1025 21 10000 2.06 0 15:40 09.01.2022
4409 Clear 22 1025 23 10000 1.54 350 14:50 09.01.2022
4410 Clear 21 1026 26 10000 2.06 340 14:24 09.01.2022
4411 Clear 21 1026 28 10000 2.06 360 13:48 09.01.2022
4412 Clear 17 1028 34 10000 3.09 90 11:56 09.01.2022
4413 Clear 16 1028 36 10000 2.06 70 11:26 09.01.2022
4414 Clear 7 1027 61 10000 2.57 90 09:55 09.01.2022
4415 Clear 5 1027 65 10000 3.6 90 08:59 09.01.2022
4416 Clear 7 1026 57 10000 1.54 100 06:56 09.01.2022
4417 Clear 12 1026 40 10000 1.54 130 01:29 09.01.2022
4418 Clear 11 1026 43 10000 2.57 180 00:37 09.01.2022
4419 Clear 12 1026 37 10000 0.74 119 23:31 08.01.2022
4420 Clear 13 1026 41 10000 1.54 70 22:48 08.01.2022
4421 Clear 16 1025 36 10000 1.54 110 21:28 08.01.2022
4422 Clear 17 1025 34 10000 1.54 30 20:43 08.01.2022
4423 Clear 17 1025 34 10000 1.54 30 20:22 08.01.2022
4424 Clear 20 1025 30 10000 1.54 350 19:22 08.01.2022
4425 Clear 23 1024 25 10000 2.06 330 17:38 08.01.2022
4426 Clear 23 1024 27 10000 2.57 340 16:45 08.01.2022
4427 Clear 23 1024 28 10000 2.06 320 15:33 08.01.2022
4428 Clear 21 1025 35 10000 1.03 0 13:58 08.01.2022
4429 Clear 15 1026 51 10000 1.54 120 11:43 08.01.2022
4430 Clear 9 1025 66 10000 1.54 100 10:40 08.01.2022
4431 Clear 9 1025 66 10000 1.54 100 10:21 08.01.2022
4432 Clear 6 1025 75 10000 1.54 130 09:34 08.01.2022
4433 Clear 6 1023 75 10000 2.57 100 06:18 08.01.2022
4434 Clear 9 1024 66 10000 1.54 90 01:46 08.01.2022
4435 Clear 12 1023 54 10000 1.03 0 23:36 07.01.2022
4436 Clear 13 1023 50 10000 1.54 100 21:49 07.01.2022
4437 Clear 16 1022 44 10000 3.09 50 20:34 07.01.2022
4438 Clear 17 1021 45 10000 3.09 40 19:27 07.01.2022
4439 Clear 18 1021 45 10000 3.6 20 18:49 07.01.2022
4440 Clear 19 1021 42 10000 3.09 10 18:24 07.01.2022
4441 Clear 19 1021 45 10000 3.09 20 17:24 07.01.2022
4442 Clear 18 1021 48 10000 2.57 90 14:56 07.01.2022
4443 Clear 17 1022 51 10000 2.57 50 13:52 07.01.2022
4444 Clear 17 1022 51 10000 2.57 50 13:52 07.01.2022
4445 Clear 15 1023 55 10000 2.57 60 12:51 07.01.2022
4446 Clear 12 1023 66 10000 3.09 80 11:28 07.01.2022
4447 Clouds 8 1022 87 10000 2.06 110 04:56 07.01.2022
4448 Clouds 9 1021 81 10000 1.03 0 02:53 07.01.2022
4449 Clouds 11 1021 82 10000 3.09 150 01:50 07.01.2022
4450 Clouds 10 1021 81 10000 3.09 100 01:26 07.01.2022
4451 Clouds 11 1021 76 10000 2.06 80 00:31 07.01.2022
4452 Clouds 13 1021 71 10000 3.6 60 22:42 06.01.2022
4453 Clouds 15 1020 58 10000 4.63 50 20:54 06.01.2022
4454 Clouds 16 1020 55 10000 3.6 50 20:18 06.01.2022
4455 Clouds 17 1020 51 10000 4.12 50 19:39 06.01.2022
4456 Clouds 19 1019 42 10000 3.6 30 17:52 06.01.2022
4457 Clouds 19 1019 39 10000 3.6 30 17:28 06.01.2022
4458 Clouds 20 1020 28 10000 3.09 20 16:38 06.01.2022
4459 Clouds 19 1020 27 10000 2.57 360 15:44 06.01.2022
4460 Clouds 18 1020 32 10000 3.09 10 15:23 06.01.2022
4461 Clouds 17 1021 42 10000 2.06 20 14:20 06.01.2022
4462 Clouds 17 1022 42 10000 1.54 0 13:41 06.01.2022
4463 Clear 15 1023 51 10000 3.09 110 12:28 06.01.2022
4464 Clear 12 1023 66 10000 3.6 110 11:41 06.01.2022
4465 Clear 12 1023 66 10000 3.6 110 11:19 06.01.2022
4466 Clear 6 1022 81 10000 2.06 80 06:59 06.01.2022
4467 Clear 11 1022 71 10000 5.14 50 00:35 06.01.2022
4468 Clear 12 1022 62 10000 4.63 60 23:34 05.01.2022
4469 Clear 12 1022 58 10000 3.6 70 22:48 05.01.2022
4470 Clear 13 1022 58 10000 4.12 50 22:29 05.01.2022
4471 Clear 14 1022 51 10000 4.12 40 21:44 05.01.2022
4472 Clouds 15 1021 47 10000 4.63 40 20:44 05.01.2022
4473 Clouds 16 1021 48 10000 4.63 40 19:46 05.01.2022
4474 Clouds 18 1021 42 10000 4.63 30 18:27 05.01.2022
4475 Clouds 19 1020 45 10000 4.12 20 16:58 05.01.2022
4476 Clouds 19 1021 45 10000 4.12 40 16:21 05.01.2022
4477 Clouds 18 1021 52 10000 4.12 30 15:20 05.01.2022
4478 Clouds 17 1023 55 10000 4.63 60 13:35 05.01.2022
4479 Clouds 16 1023 67 10000 5.14 60 12:46 05.01.2022
4480 Clouds 11 1024 82 8000 2.57 90 08:47 05.01.2022
4481 Clouds 11 1024 82 8000 3.6 120 07:19 05.01.2022
4482 Clear 11 1023 71 10000 1.03 0 01:58 05.01.2022
4483 Clear 12 1024 71 10000 1.03 0 23:44 04.01.2022
4484 Clear 13 1025 67 10000 1.54 280 23:26 04.01.2022
4485 Clear 14 1025 67 10000 1.03 0 22:19 04.01.2022
4486 Clear 16 1024 59 10000 2.06 20 20:46 04.01.2022
4487 Clear 20 1022 28 10000 2.57 240 18:44 04.01.2022
4488 Clear 22 1022 23 10000 3.6 300 17:34 04.01.2022
4489 Clear 23 1022 21 10000 3.09 300 16:39 04.01.2022
4490 Clear 22 1022 24 10000 3.09 310 16:20 04.01.2022
4491 Clear 21 1023 28 10000 3.09 290 14:42 04.01.2022
4492 Clear 21 1023 30 10000 3.09 280 14:23 04.01.2022
4493 Clear 19 1025 32 10000 2.57 280 12:37 04.01.2022
4494 Clear 14 1024 44 10000 0.51 0 10:28 04.01.2022
4495 Clear 8 1023 53 10000 1.03 0 08:59 04.01.2022
4496 Clear 8 1022 57 10000 1.54 80 06:46 04.01.2022
4497 Clear 13 1024 41 10000 1.03 0 00:44 04.01.2022
4498 Clear 13 1025 41 10000 1.03 0 23:56 03.01.2022
4499 Clear 15 1024 36 10000 1.03 0 22:28 03.01.2022
4500 Clear 16 1024 36 10000 0.51 0 21:41 03.01.2022
4501 Clear 16 1024 33 10000 0.51 0 20:42 03.01.2022
4502 Clear 19 1024 30 10000 1.54 270 19:43 03.01.2022
4503 Clear 24 1024 20 10000 2.57 280 18:32 03.01.2022
4504 Clear 25 1024 20 10000 2.06 320 17:34 03.01.2022
4505 Clear 25 1024 22 10000 3.09 320 16:56 03.01.2022
4506 Clear 24 1025 25 10000 1.54 330 14:33 03.01.2022
4507 Clear 23 1026 27 10000 1.54 0 13:25 03.01.2022
4508 Clear 20 1027 32 10000 1.03 0 12:28 03.01.2022
4509 Clear 16 1026 41 10000 1.54 110 11:30 03.01.2022
4510 Clear 10 1026 53 10000 2.06 90 09:41 03.01.2022
4511 Clear 11 1025 46 10000 2.57 180 08:18 03.01.2022
4512 Clear 9 1025 57 10000 0.51 0 05:21 03.01.2022
4513 Clear 14 1027 44 10000 1.03 0 23:44 02.01.2022
4514 Clear 14 1026 44 10000 1.54 120 22:57 02.01.2022
4515 Clear 15 1026 41 10000 2.06 120 22:37 02.01.2022
4516 Clear 18 1026 36 10000 2.57 120 21:26 02.01.2022
4517 Clear 18 1026 34 10000 1.54 70 20:30 02.01.2022
4518 Clear 22 1025 28 10000 1.03 0 19:32 02.01.2022
4519 Clear 23 1025 27 10000 2.57 340 18:56 02.01.2022
4520 Clear 25 1025 23 10000 1.03 0 18:30 02.01.2022
4521 Clear 25 1025 23 10000 1.54 0 17:42 02.01.2022
4522 Clear 25 1025 20 10000 1.54 0 17:21 02.01.2022
4523 Clear 25 1025 20 10000 1.54 0 16:30 02.01.2022
4524 Clear 25 1025 22 10000 1.54 0 15:39 02.01.2022
4525 Clear 23 1027 23 10000 2.06 10 13:57 02.01.2022
4526 Clear 21 1028 24 8000 1.54 10 12:32 02.01.2022
4527 Clear 21 1028 26 8000 0.51 0 11:55 02.01.2022
4528 Clear 16 1028 33 8000 1.54 110 10:55 02.01.2022
4529 Clear 11 1028 50 8000 1.03 0 10:18 02.01.2022
4530 Clear 7 1026 61 8000 1.03 0 07:44 02.01.2022
4531 Clear 10 1026 53 8000 2.06 80 02:57 02.01.2022
4532 Clear 14 1027 44 8000 1.03 0 23:50 01.01.2022
4533 Clear 15 1027 38 8000 1.54 90 23:27 01.01.2022
4534 Clear 16 1027 36 8000 3.6 110 22:26 01.01.2022
4535 Clear 17 1027 36 8000 3.09 90 21:54 01.01.2022
4536 Clear 17 1026 36 8000 3.09 120 21:36 01.01.2022
4537 Clear 20 1026 30 8000 1.03 0 20:27 01.01.2022
4538 Clear 23 1025 23 8000 2.57 20 19:45 01.01.2022
4539 Clear 25 1025 20 8000 1.03 0 18:52 01.01.2022
4540 Clear 27 1025 17 8000 1.54 40 17:41 01.01.2022
4541 Clear 27 1025 17 8000 2.06 350 16:35 01.01.2022
4542 Clear 27 1025 18 8000 1.54 350 15:42 01.01.2022
4543 Clear 25 1026 22 8000 2.06 340 14:39 01.01.2022
4544 Clear 24 1026 27 8000 1.54 40 13:42 01.01.2022
4545 Clear 21 1027 30 8000 1.54 70 12:25 01.01.2022
4546 Clear 18 1027 34 8000 1.54 90 11:26 01.01.2022
4547 Clear 17 1027 39 8000 0.51 0 10:58 01.01.2022
4548 Clear 10 1026 57 8000 1.54 90 09:48 01.01.2022
4549 Clear 8 1025 57 10000 2.06 90 08:39 01.01.2022
4550 Clear 8 1025 57 10000 2.06 90 08:18 01.01.2022
4551 Clear 10 1025 53 10000 1.54 160 07:38 01.01.2022
4552 Clear 8 1025 61 10000 2.57 80 06:44 01.01.2022
4553 Clear 10 1025 57 10000 2.57 80 05:24 01.01.2022
4554 Clear 10 1025 57 10000 2.06 120 04:35 01.01.2022
4555 Clear 15 1025 41 8000 0.51 0 00:23 01.01.2022
4556 Clear 16 1025 44 8000 1.54 0 22:30 31.12.2021
4557 Clear 17 1025 42 8000 3.09 170 21:47 31.12.2021
4558 Clear 20 1024 37 8000 2.06 250 19:48 31.12.2021
4559 Clear 21 1024 35 8000 1.03 0 19:28 31.12.2021
4560 Clear 24 1023 29 8000 2.57 300 18:18 31.12.2021
4561 Clear 26 1023 25 8000 3.6 290 17:28 31.12.2021
4562 Clear 26 1022 24 8000 3.09 290 16:52 31.12.2021
4563 Clear 26 1022 25 8000 2.06 330 16:18 31.12.2021
4564 Clear 26 1022 25 8000 2.06 330 15:50 31.12.2021
4565 Clear 25 1022 27 8000 2.06 350 15:27 31.12.2021
4566 Clear 25 1023 29 8000 1.54 0 14:41 31.12.2021
4567 Clear 24 1023 29 8000 1.54 20 13:55 31.12.2021
4568 Clear 22 1024 35 8000 1.03 0 12:51 31.12.2021
4569 Clear 20 1024 40 8000 1.54 60 12:21 31.12.2021
4570 Clear 19 1025 42 8000 1.03 0 11:42 31.12.2021
4571 Clear 16 1025 48 10000 1.03 0 10:56 31.12.2021
4572 Clear 14 1024 54 10000 1.03 0 10:28 31.12.2021
4573 Clear 10 1024 66 10000 1.03 0 09:35 31.12.2021
4574 Clear 9 1024 71 10000 2.06 140 08:54 31.12.2021
4575 Clear 10 1023 62 10000 1.54 160 07:59 31.12.2021
4576 Clear 10 1024 66 10000 0.51 0 04:55 31.12.2021
4577 Clear 15 1024 51 10000 2.57 90 23:18 30.12.2021
4578 Clear 17 1024 45 10000 3.09 110 22:32 30.12.2021
4579 Clear 17 1024 45 10000 3.6 110 21:39 30.12.2021
4580 Clear 18 1024 42 10000 2.57 100 21:19 30.12.2021
4581 Clear 20 1024 37 10000 1.54 60 20:40 30.12.2021
4582 Clear 21 1024 35 10000 1.03 0 19:56 30.12.2021
4583 Clear 22 1023 33 10000 2.06 30 19:31 30.12.2021
4584 Clear 25 1023 25 10000 2.57 10 18:28 30.12.2021
4585 Clear 27 1022 24 10000 1.03 0 16:53 30.12.2021
4586 Clear 26 1022 25 10000 2.06 30 15:54 30.12.2021
4587 Clear 26 1022 25 10000 2.06 360 15:21 30.12.2021
4588 Clear 26 1022 27 10000 1.03 0 14:36 30.12.2021
4589 Clear 23 1023 38 10000 1.54 90 13:26 30.12.2021
4590 Clear 19 1024 48 10000 1.03 0 11:58 30.12.2021
4591 Clear 13 1023 67 10000 1.03 0 10:40 30.12.2021
4592 Clear 11 1023 71 10000 2.06 80 09:50 30.12.2021
4593 Clear 9 1023 71 10000 1.54 80 07:25 30.12.2021
4594 Clear 9 1022 76 10000 1.54 130 06:32 30.12.2021
4595 Clear 11 1022 66 10000 2.06 100 03:41 30.12.2021
4596 Clear 12 1022 66 10000 1.54 60 02:35 30.12.2021
4597 Clear 16 1023 51 10000 1.54 140 23:40 29.12.2021
4598 Clear 17 1023 48 10000 1.03 0 22:59 29.12.2021
4599 Clear 18 1023 45 10000 4.12 170 22:18 29.12.2021
4600 Clear 18 1022 48 10000 2.06 190 21:19 29.12.2021
4601 Clear 18 1022 48 10000 1.03 0 20:30 29.12.2021
4602 Clear 18 1022 48 10000 1.03 0 20:30 29.12.2021
4603 Clear 21 1022 40 10000 1.54 250 19:43 29.12.2021
4604 Clear 24 1022 33 10000 2.57 270 18:44 29.12.2021
4605 Clear 25 1022 29 10000 3.6 270 17:52 29.12.2021
4606 Clear 25 1022 29 10000 3.6 280 17:27 29.12.2021
4607 Clear 25 1021 33 10000 4.12 290 16:22 29.12.2021
4608 Clear 25 1021 33 10000 4.12 290 15:42 29.12.2021
4609 Clouds 24 1023 38 8000 1.03 0 13:53 29.12.2021
4610 Clouds 19 1024 55 8000 2.06 30 12:36 29.12.2021
4611 Clouds 17 1024 67 6000 2.06 80 11:26 29.12.2021
4612 Clouds 11 1024 87 6000 1.54 90 09:46 29.12.2021
4613 Clear 8 1023 87 10000 2.06 80 07:47 29.12.2021
4614 Clear 9 1023 87 10000 1.03 0 06:37 29.12.2021
4615 Clear 9 1023 81 10000 2.06 70 05:58 29.12.2021
4616 Clear 9 1023 87 10000 1.54 80 05:36 29.12.2021
4617 Clear 12 1024 82 10000 1.54 160 02:22 29.12.2021
4618 Clear 13 1024 76 10000 0.51 0 00:19 29.12.2021
4619 Clear 14 1024 72 10000 1.54 80 23:31 28.12.2021
4620 Clear 15 1024 72 10000 3.09 120 22:29 28.12.2021
4621 Clear 16 1024 67 10000 2.57 110 21:57 28.12.2021
4622 Clear 16 1024 67 10000 2.06 90 21:36 28.12.2021
4623 Clear 18 1023 59 10000 2.57 60 20:35 28.12.2021
4624 Clear 22 1023 49 10000 3.6 40 18:59 28.12.2021
4625 Clear 23 1023 43 7000 3.6 40 18:35 28.12.2021
4626 Clear 24 1022 41 10000 4.12 30 17:57 28.12.2021
4627 Clear 24 1022 41 7000 4.12 50 16:34 28.12.2021
4628 Clear 24 1022 41 7000 3.6 40 15:49 28.12.2021
4629 Clear 23 1022 43 7000 3.09 30 15:20 28.12.2021
4630 Clear 22 1023 46 7000 3.09 40 14:46 28.12.2021
4631 Clear 22 1023 49 7000 2.57 30 14:20 28.12.2021
4632 Clear 21 1024 52 7000 2.06 30 13:42 28.12.2021
4633 Clear 21 1024 52 7000 1.54 0 13:24 28.12.2021
4634 Clear 18 1025 68 7000 2.06 90 12:39 28.12.2021
4635 Clear 16 1026 77 7000 1.03 0 11:33 28.12.2021
4636 Clouds 10 1024 93 8000 3.09 120 07:41 28.12.2021
4637 Clouds 10 1023 87 8000 2.06 40 06:41 28.12.2021
4638 Clouds 13 1024 88 8000 1.54 110 23:43 27.12.2021
4639 Clouds 15 1024 82 8000 1.54 80 22:58 27.12.2021
4640 Clouds 16 1023 77 7000 2.06 90 21:33 27.12.2021
4641 Clouds 17 1023 77 7000 2.06 50 20:57 27.12.2021
4642 Clouds 19 1022 63 7000 2.57 50 19:58 27.12.2021
4643 Clouds 20 1022 60 7000 3.09 40 19:39 27.12.2021
4644 Clouds 22 1021 49 7000 2.06 30 18:23 27.12.2021
4645 Clouds 22 1021 49 8000 2.57 50 17:46 27.12.2021
4646 Clouds 22 1021 53 8000 2.57 30 16:38 27.12.2021
4647 Clouds 22 1021 53 8000 2.57 20 15:51 27.12.2021
4648 Clouds 21 1022 60 8000 2.57 130 14:32 27.12.2021
4649 Clouds 19 1023 77 6000 2.06 80 13:39 27.12.2021
4650 Mist 15 1023 88 4000 3.09 360 11:53 27.12.2021
4651 Mist 14 1022 94 4000 1.54 210 10:29 27.12.2021
4652 Mist 12 1022 100 4000 2.57 170 09:47 27.12.2021
4653 Clouds 10 1021 100 8000 0.51 0 07:35 27.12.2021
4654 Clouds 11 1021 93 8000 1.03 0 06:56 27.12.2021
4655 Clouds 13 1021 94 8000 2.57 120 02:18 27.12.2021
4656 Clouds 15 1022 88 8000 1.03 0 23:58 26.12.2021
4657 Clouds 15 1022 88 8000 0.51 0 23:35 26.12.2021
4658 Clouds 16 1021 82 10000 0.51 0 21:59 26.12.2021
4659 Clouds 17 1021 77 10000 1.03 0 20:54 26.12.2021
4660 Clouds 18 1020 77 10000 1.03 0 19:47 26.12.2021
4661 Clouds 18 1020 77 10000 1.03 0 19:47 26.12.2021
4662 Clouds 20 1019 68 10000 1.03 0 18:24 26.12.2021
4663 Clouds 21 1019 68 10000 2.06 20 16:55 26.12.2021
4664 Clouds 20 1020 77 10000 1.54 0 14:28 26.12.2021
4665 Clouds 19 1021 82 8000 1.03 0 13:40 26.12.2021
4666 Clouds 19 1021 82 8000 1.03 0 13:19 26.12.2021
4667 Clouds 17 1022 88 8000 1.03 0 12:33 26.12.2021
4668 Clouds 16 1021 94 8000 0.51 0 10:34 26.12.2021
4669 Clouds 14 1020 100 8000 1.03 0 09:21 26.12.2021
4670 Clouds 14 1020 94 8000 1.03 0 08:44 26.12.2021
4671 Clouds 15 1019 94 8000 1.54 220 07:49 26.12.2021
4672 Clouds 15 1018 94 8000 1.03 0 01:27 26.12.2021
4673 Clouds 15 1019 88 8000 1.03 0 23:56 25.12.2021
4674 Clouds 15 1019 88 8000 0.51 0 23:27 25.12.2021
4675 Clouds 15 1019 88 8000 2.06 260 22:26 25.12.2021
4676 Clouds 15 1018 88 6000 1.54 90 20:59 25.12.2021
4677 Clouds 15 1017 82 5000 1.54 150 19:26 25.12.2021
4678 Clouds 15 1017 82 5000 2.06 130 18:55 25.12.2021
4679 Clouds 16 1017 77 5000 1.03 0 17:37 25.12.2021
4680 Clouds 15 1017 77 5000 1.54 200 16:36 25.12.2021
4681 Clouds 14 1017 82 5000 4.12 180 15:18 25.12.2021
4682 Clouds 16 1018 63 5000 2.57 210 13:31 25.12.2021
4683 Clouds 17 1018 59 8000 2.57 280 11:51 25.12.2021
4684 Clouds 14 1017 77 7000 2.06 180 09:57 25.12.2021
4685 Clouds 14 1017 72 8000 2.06 240 09:37 25.12.2021
4686 Clear 14 1016 77 10000 2.06 150 04:34 25.12.2021
4687 Clouds 14 1016 77 10000 1.54 180 01:25 25.12.2021
4688 Clouds 13 1017 82 10000 0 0 23:42 24.12.2021
4689 Clouds 18 1016 52 10000 1.03 0 19:46 24.12.2021
4690 Clouds 18 1016 52 10000 1.03 0 19:23 24.12.2021
4691 Clouds 21 1016 43 10000 2.57 290 16:59 24.12.2021
4692 Clouds 22 1016 43 10000 2.06 280 16:22 24.12.2021
4693 Clouds 22 1016 43 10000 1.54 280 15:48 24.12.2021
4694 Clouds 21 1016 46 10000 1.03 0 15:18 24.12.2021
4695 Clouds 22 1017 49 10000 1.54 0 14:31 24.12.2021
4696 Clouds 22 1016 31 10000 4.34 287 13:42 24.12.2021
4697 Clouds 20 1019 42 10000 4.12 310 12:49 24.12.2021
4698 Clouds 18 1019 52 10000 1.54 100 12:21 24.12.2021
4699 Clouds 16 1019 59 10000 2.06 110 11:30 24.12.2021
4700 Clouds 14 1019 67 10000 1.54 100 10:59 24.12.2021
4701 Clouds 13 1018 67 10000 1.54 80 10:31 24.12.2021
4702 Clear 10 1018 81 10000 2.06 60 08:36 24.12.2021
4703 Clear 10 1018 76 10000 2.06 80 07:58 24.12.2021
4704 Clear 10 1018 76 10000 1.03 0 06:18 24.12.2021
4705 Clear 14 1019 67 10000 0.51 0 00:20 24.12.2021
4706 Clear 15 1019 63 10000 0.51 0 23:33 23.12.2021
4707 Clear 16 1019 63 10000 2.57 170 22:44 23.12.2021
4708 Clear 16 1019 63 10000 2.57 170 22:22 23.12.2021
4709 Clear 17 1019 59 10000 1.03 0 21:39 23.12.2021
4710 Clouds 17 1019 59 10000 1.03 0 20:22 23.12.2021
4711 Clouds 19 1019 52 10000 2.06 300 19:27 23.12.2021
4712 Clouds 21 1019 46 10000 3.09 300 17:58 23.12.2021
4713 Clouds 22 1019 43 10000 2.06 320 17:18 23.12.2021
4714 Clouds 23 1019 46 10000 1.54 0 16:26 23.12.2021
4715 Clouds 22 1019 49 10000 2.06 0 15:32 23.12.2021
4716 Clouds 22 1019 49 10000 1.54 0 14:58 23.12.2021
4717 Clouds 21 1020 52 10000 1.54 360 14:38 23.12.2021
4718 Clear 20 1021 56 10000 2.57 340 13:25 23.12.2021
4719 Clouds 15 1022 77 10000 1.03 0 11:20 23.12.2021
4720 Clouds 12 1021 87 10000 1.03 0 09:53 23.12.2021
4721 Clouds 10 1021 87 10000 1.54 100 09:33 23.12.2021
4722 Clouds 10 1021 87 10000 1.54 90 08:25 23.12.2021
4723 Clouds 11 1021 87 10000 1.54 100 05:23 23.12.2021
4724 Clouds 16 1022 72 10000 1.03 0 00:34 23.12.2021
4725 Clouds 17 1022 67 10000 1.03 0 22:50 22.12.2021
4726 Clouds 18 1022 63 10000 2.57 350 21:59 22.12.2021
4727 Clouds 18 1022 63 10000 2.06 350 21:30 22.12.2021
4728 Clouds 19 1021 59 10000 1.03 0 20:58 22.12.2021
4729 Clouds 19 1021 59 10000 1.03 0 20:40 22.12.2021
4730 Clouds 19 1021 59 10000 1.03 0 19:42 22.12.2021
4731 Clouds 21 1020 52 10000 2.06 250 18:25 22.12.2021
4732 Clouds 21 1020 52 10000 2.06 300 17:38 22.12.2021
4733 Clouds 22 1020 46 10000 2.57 310 15:50 22.12.2021
4734 Clouds 21 1021 49 10000 2.06 360 13:57 22.12.2021
4735 Clouds 20 1021 52 10000 1.54 10 12:53 22.12.2021
4736 Clouds 17 1021 72 8000 1.03 0 11:39 22.12.2021
4737 Clouds 14 1021 82 8000 1.54 100 09:52 22.12.2021
4738 Clouds 14 1020 82 8000 1.54 110 07:56 22.12.2021
4739 Clouds 16 1019 67 8000 1.54 60 05:51 22.12.2021
4740 Clouds 17 1020 63 8000 3.6 170 05:33 22.12.2021
4741 Clouds 17 1020 63 8000 3.6 180 04:55 22.12.2021
4742 Clouds 15 1020 77 8000 1.54 90 04:35 22.12.2021
4743 Clouds 15 1020 72 8000 3.09 100 03:37 22.12.2021
4744 Clouds 15 1021 72 8000 3.09 100 03:18 22.12.2021
4745 Clouds 16 1022 77 8000 1.54 80 23:47 21.12.2021
4746 Clouds 16 1022 72 8000 2.57 230 22:36 21.12.2021
4747 Clouds 16 1022 72 8000 2.06 270 21:55 21.12.2021
4748 Clouds 18 1021 59 8000 2.57 310 21:31 21.12.2021
4749 Clouds 21 1019 40 6000 5.14 200 20:24 21.12.2021
4750 Clouds 21 1019 40 6000 5.14 190 19:52 21.12.2021
4751 Clouds 20 1019 45 6000 4.63 210 19:31 21.12.2021
4752 Clouds 21 1019 43 6000 3.6 190 18:23 21.12.2021
4753 Dust 21 1019 43 4000 7.2 260 17:52 21.12.2021
4754 Clouds 24 1018 33 10000 4.12 300 16:47 21.12.2021
4755 Clouds 25 1017 31 10000 4.63 330 15:34 21.12.2021
4756 Clouds 25 1018 33 10000 4.12 110 13:55 21.12.2021
4757 Clouds 24 1019 33 10000 3.09 110 13:36 21.12.2021
4758 Clouds 22 1020 37 10000 1.54 150 12:25 21.12.2021
4759 Clouds 15 1020 55 10000 1.03 0 10:38 21.12.2021
4760 Clouds 14 1019 58 10000 1.54 0 09:42 21.12.2021
4761 Clouds 11 1019 66 8000 2.57 90 08:55 21.12.2021
4762 Clouds 11 1019 66 8000 3.6 110 07:42 21.12.2021
4763 Clouds 11 1018 66 8000 2.06 70 07:19 21.12.2021
4764 Clouds 15 1019 55 8000 2.06 100 03:24 21.12.2021
4765 Clouds 16 1020 48 8000 4.63 90 01:19 21.12.2021
4766 Clouds 18 1021 45 8000 2.57 150 23:54 20.12.2021
4767 Clouds 18 1020 45 8000 1.54 90 22:35 20.12.2021
4768 Clouds 19 1020 42 8000 2.06 80 21:51 20.12.2021
4769 Clouds 20 1020 40 10000 2.57 150 21:24 20.12.2021
4770 Clouds 19 1020 39 10000 1.54 70 20:50 20.12.2021
4771 Clouds 20 1019 40 10000 2.06 70 19:55 20.12.2021
4772 Clouds 20 1019 40 10000 2.06 70 19:55 20.12.2021
4773 Clouds 22 1019 35 10000 2.06 50 19:36 20.12.2021
4774 Clouds 22 1019 35 10000 2.06 50 19:18 20.12.2021
4775 Clouds 24 1019 31 10000 2.57 30 18:28 20.12.2021
4776 Clouds 25 1019 29 10000 2.06 20 17:49 20.12.2021
4777 Clouds 26 1019 25 10000 2.57 30 16:44 20.12.2021
4778 Clouds 26 1019 25 10000 3.6 40 15:52 20.12.2021
4779 Clouds 25 1019 29 10000 3.6 50 15:31 20.12.2021
4780 Clouds 23 1020 35 8000 3.09 70 13:31 20.12.2021
4781 Clouds 17 1021 48 8000 3.09 80 11:36 20.12.2021
4782 Clouds 10 1021 71 8000 2.57 70 09:56 20.12.2021
4783 Clouds 9 1021 76 8000 2.57 90 09:32 20.12.2021
4784 Clear 8 1021 76 8000 1.54 90 08:43 20.12.2021
4785 Clouds 8 1020 76 8000 2.06 80 07:57 20.12.2021
4786 Clouds 9 1020 71 8000 2.06 70 07:31 20.12.2021
4787 Clear 9 1020 71 8000 1.54 80 05:25 20.12.2021
4788 Clear 13 1020 62 8000 1.54 140 00:19 20.12.2021
4789 Clear 14 1020 54 8000 1.03 0 22:55 19.12.2021
4790 Clear 17 1020 51 8000 2.06 330 21:55 19.12.2021
4791 Clear 18 1020 45 8000 2.57 310 21:31 19.12.2021
4792 Clear 18 1019 39 8000 1.54 250 20:34 19.12.2021
4793 Clear 19 1018 37 8000 2.06 280 19:52 19.12.2021
4794 Clouds 20 1018 32 8000 2.57 250 19:32 19.12.2021
4795 Clouds 23 1017 28 8000 5.14 260 18:30 19.12.2021
4796 Clouds 25 1017 33 8000 3.09 300 17:53 19.12.2021
4797 Clouds 26 1016 31 8000 2.57 320 17:21 19.12.2021
4798 Clouds 26 1016 29 8000 2.06 170 16:27 19.12.2021
4799 Clouds 26 1017 29 7000 4.63 210 15:43 19.12.2021
4800 Clouds 26 1017 29 7000 7.2 220 15:21 19.12.2021
4801 Clouds 25 1017 31 5000 7.72 180 14:42 19.12.2021
4802 Clouds 19 1019 45 5000 1.54 70 13:24 19.12.2021
4803 Clouds 18 1019 45 5000 2.06 50 12:46 19.12.2021
4804 Clouds 18 1019 45 5000 2.06 50 12:23 19.12.2021
4805 Clouds 20 1019 45 6000 2.57 190 11:26 19.12.2021
4806 Clouds 13 1019 44 6000 1.03 0 10:28 19.12.2021
4807 Clouds 13 1018 44 6000 1.03 0 09:48 19.12.2021
4808 Clear 10 1018 50 10000 2.57 90 08:43 19.12.2021
4809 Clear 10 1016 50 10000 1.54 0 04:45 19.12.2021
4810 Clear 12 1018 40 10000 1.03 0 01:33 19.12.2021
4811 Clear 12 1018 40 10000 2.06 90 00:52 19.12.2021
4812 Clouds 16 1018 31 10000 3.09 100 22:42 18.12.2021
4813 Clouds 16 1018 31 10000 4.63 100 21:58 18.12.2021
4814 Clouds 16 1018 31 10000 4.12 100 21:36 18.12.2021
4815 Clouds 17 1018 29 10000 5.14 100 20:44 18.12.2021
4816 Clouds 16 1017 29 10000 2.57 90 20:19 18.12.2021
4817 Clouds 19 1017 24 10000 2.06 70 19:25 18.12.2021
4818 Clouds 23 1016 18 10000 3.09 60 18:22 18.12.2021
4819 Clouds 23 1016 18 10000 3.09 60 17:48 18.12.2021
4820 Clouds 24 1016 17 10000 3.6 40 16:26 18.12.2021
4821 Clouds 23 1017 20 10000 4.12 50 15:27 18.12.2021
4822 Clouds 23 1017 20 10000 4.12 40 14:48 18.12.2021
4823 Clouds 20 1019 26 10000 3.09 80 13:28 18.12.2021
4824 Clouds 15 1021 38 10000 2.57 80 11:22 18.12.2021
4825 Clear 6 1020 65 10000 2.57 100 09:40 18.12.2021
4826 Clear 5 1020 70 10000 3.09 90 08:47 18.12.2021
4827 Clouds 6 1020 65 8000 3.09 100 08:24 18.12.2021
4828 Clouds 11 1020 50 8000 4.12 170 03:58 18.12.2021
4829 Clear 12 1020 47 8000 1.03 0 00:29 18.12.2021
4830 Clear 12 1020 50 8000 1.54 160 23:46 17.12.2021
4831 Clear 15 1020 47 8000 2.06 100 21:58 17.12.2021
4832 Clear 15 1020 44 8000 2.06 80 21:19 17.12.2021
4833 Clear 16 1020 39 8000 0.51 0 20:40 17.12.2021
4834 Clouds 17 1019 36 8000 1.54 270 19:28 17.12.2021
4835 Clouds 20 1019 32 8000 1.03 0 18:39 17.12.2021
4836 Clouds 21 1019 30 8000 2.06 330 17:33 17.12.2021
4837 Clouds 21 1019 28 8000 1.54 350 16:49 17.12.2021
4838 Clouds 21 1019 28 8000 2.06 0 16:22 17.12.2021
4839 Clouds 21 1019 30 8000 2.57 340 15:25 17.12.2021
4840 Clouds 20 1019 30 8000 2.57 340 14:40 17.12.2021
4841 Clear 20 1021 34 8000 1.03 0 13:21 17.12.2021
4842 Clear 15 1021 51 8000 1.03 0 11:50 17.12.2021
4843 Clear 11 1021 62 8000 1.54 110 10:37 17.12.2021
4844 Clear 7 1021 76 8000 2.06 100 09:34 17.12.2021
4845 Clear 7 1020 70 10000 1.54 80 08:30 17.12.2021
4846 Clear 8 1020 66 10000 1.54 150 06:47 17.12.2021
4847 Clear 10 1019 62 10000 1.54 230 02:54 17.12.2021
4848 Clear 12 1018 62 10000 1.54 270 23:40 16.12.2021
4849 Clouds 13 1018 62 10000 1.03 0 22:24 16.12.2021
4850 Clouds 13 1018 62 10000 1.03 0 22:24 16.12.2021
4851 Clouds 14 1018 54 10000 2.06 110 21:50 16.12.2021
4852 Clouds 15 1017 55 10000 1.54 60 21:25 16.12.2021
4853 Clouds 16 1017 48 8000 2.06 40 20:31 16.12.2021
4854 Clouds 17 1016 45 8000 2.06 50 19:44 16.12.2021
4855 Clouds 20 1016 40 8000 1.03 0 18:39 16.12.2021
4856 Clouds 20 1016 40 8000 1.03 0 17:56 16.12.2021
4857 Clouds 21 1016 37 8000 0.51 0 17:31 16.12.2021
4858 Clouds 21 1016 40 8000 2.06 0 16:22 16.12.2021
4859 Clouds 20 1016 40 8000 2.06 0 14:50 16.12.2021
4860 Clouds 18 1018 45 10000 1.54 0 13:29 16.12.2021
4861 Clouds 16 1019 51 10000 1.03 0 11:20 16.12.2021
4862 Clouds 14 1018 54 8000 2.06 120 10:59 16.12.2021
4863 Clouds 11 1018 66 8000 2.57 120 10:20 16.12.2021
4864 Clouds 10 1018 66 10000 2.06 270 07:48 16.12.2021
4865 Clouds 12 1017 58 8000 1.54 210 06:21 16.12.2021
4866 Clouds 13 1017 54 8000 1.54 160 01:25 16.12.2021
4867 Clouds 13 1017 54 8000 1.03 0 23:33 15.12.2021
4868 Clouds 12 1017 58 6000 0.51 0 22:43 15.12.2021
4869 Clouds 12 1017 58 6000 0.51 0 21:56 15.12.2021
4870 Clouds 13 1017 58 6000 0.51 0 21:27 15.12.2021
4871 Clouds 14 1016 54 8000 1.54 60 20:18 15.12.2021
4872 Clouds 15 1016 51 8000 0.51 0 19:50 15.12.2021
4873 Clouds 16 1016 48 10000 1.03 0 18:37 15.12.2021
4874 Clouds 17 1016 45 10000 0.51 0 17:53 15.12.2021
4875 Clouds 17 1016 45 10000 0.51 0 17:34 15.12.2021
4876 Clouds 17 1016 45 10000 1.03 0 16:28 15.12.2021
4877 Clouds 16 1016 48 10000 2.57 260 15:46 15.12.2021
4878 Clouds 16 1016 48 10000 2.57 260 15:27 15.12.2021
4879 Clouds 15 1017 51 10000 1.54 300 14:29 15.12.2021
4880 Clouds 13 1018 54 10000 1.03 0 12:37 15.12.2021
4881 Clouds 12 1018 58 10000 2.57 80 10:42 15.12.2021
4882 Clouds 7 1017 70 10000 2.06 100 08:55 15.12.2021
4883 Clear 8 1017 66 10000 1.54 160 07:25 15.12.2021
4884 Clear 12 1018 54 10000 0.51 0 01:20 15.12.2021
4885 Clear 15 1018 47 10000 3.09 230 23:42 14.12.2021
4886 Clear 15 1018 47 10000 1.54 280 22:49 14.12.2021
4887 Clouds 16 1018 44 10000 2.06 250 22:24 14.12.2021
4888 Clouds 18 1018 39 10000 1.54 240 20:29 14.12.2021
4889 Clouds 18 1017 42 10000 1.54 250 19:43 14.12.2021
4890 Clouds 19 1017 39 10000 2.06 280 19:19 14.12.2021
4891 Clouds 20 1017 37 10000 3.6 250 18:25 14.12.2021
4892 Clouds 21 1017 32 10000 3.6 270 17:33 14.12.2021
4893 Clouds 22 1017 33 10000 1.54 10 16:40 14.12.2021
4894 Clouds 22 1017 33 10000 1.54 320 15:36 14.12.2021
4895 Clouds 21 1019 35 8000 1.54 350 13:31 14.12.2021
4896 Clouds 17 1020 45 8000 1.54 20 11:59 14.12.2021
4897 Clouds 16 1020 48 8000 1.54 140 11:24 14.12.2021
4898 Clouds 12 1020 58 8000 2.06 70 10:23 14.12.2021
4899 Clouds 10 1020 62 10000 1.03 0 09:43 14.12.2021
4900 Clouds 8 1020 66 10000 0.51 0 08:27 14.12.2021
4901 Clouds 9 1020 61 10000 0.51 0 07:43 14.12.2021
4902 Clouds 13 1021 50 10000 1.03 0 02:37 14.12.2021
4903 Clouds 16 1021 41 10000 2.06 70 22:56 13.12.2021
4904 Clouds 18 1022 36 10000 3.6 150 21:53 13.12.2021
4905 Clouds 16 1021 41 10000 1.54 160 21:32 13.12.2021
4906 Clouds 15 1022 44 10000 2.57 110 20:43 13.12.2021
4907 Clouds 18 1021 36 10000 1.54 240 19:53 13.12.2021
4908 Clouds 19 1021 34 10000 1.54 240 18:33 13.12.2021
4909 Clouds 20 1021 30 10000 2.57 270 17:26 13.12.2021
4910 Clouds 20 1021 32 10000 3.09 240 15:54 13.12.2021
4911 Clouds 21 1021 30 10000 3.09 270 15:32 13.12.2021
4912 Clouds 20 1022 30 10000 1.54 220 13:45 13.12.2021
4913 Clouds 19 1023 32 10000 0.51 0 12:49 13.12.2021
4914 Clouds 17 1023 36 10000 1.03 0 11:59 13.12.2021
4915 Clouds 14 1023 44 10000 2.06 100 11:35 13.12.2021
4916 Clouds 13 1023 47 10000 1.03 0 10:47 13.12.2021
4917 Clouds 8 1022 61 10000 2.06 80 09:32 13.12.2021
4918 Clear 7 1022 61 10000 1.54 70 07:53 13.12.2021
4919 Clear 8 1021 53 10000 1.54 140 05:36 13.12.2021
4920 Clear 10 1021 46 10000 1.54 120 03:28 13.12.2021
4921 Clear 13 1022 41 10000 2.06 160 23:22 12.12.2021
4922 Clear 14 1022 41 10000 1.54 120 21:40 12.12.2021
4923 Clear 18 1021 34 10000 2.06 240 19:57 12.12.2021
4924 Clear 21 1021 28 10000 2.57 250 18:43 12.12.2021
4925 Clear 24 1020 22 10000 2.57 300 17:38 12.12.2021
4926 Clear 25 1020 23 10000 2.57 320 16:28 12.12.2021
4927 Clear 25 1020 25 10000 3.09 320 15:46 12.12.2021
4928 Clear 25 1020 25 10000 3.09 320 15:25 12.12.2021
4929 Clear 24 1020 29 10000 2.57 330 14:34 12.12.2021
4930 Clear 22 1021 33 10000 1.54 350 13:26 12.12.2021
4931 Clear 20 1022 34 10000 1.54 90 12:30 12.12.2021
4932 Clear 17 1022 48 10000 1.03 0 11:44 12.12.2021
4933 Clear 15 1022 55 10000 1.03 0 11:20 12.12.2021
4934 Clear 12 1021 62 10000 1.54 80 10:22 12.12.2021
4935 Clear 8 1021 71 10000 2.06 100 09:38 12.12.2021
4936 Clear 7 1020 70 10000 2.06 70 07:57 12.12.2021
4937 Clear 7 1020 70 10000 2.06 100 05:57 12.12.2021
4938 Clear 8 1020 66 10000 1.54 110 04:56 12.12.2021
4939 Clear 8 1020 66 10000 2.57 110 03:27 12.12.2021
4940 Clear 12 1020 62 10000 1.03 0 23:39 11.12.2021
4941 Clear 14 1020 58 10000 1.54 150 22:22 11.12.2021
4942 Clear 14 1020 58 10000 1.54 150 21:51 11.12.2021
4943 Clear 15 1020 55 10000 1.03 0 20:51 11.12.2021
4944 Clear 18 1019 48 10000 1.54 20 19:23 11.12.2021
4945 Clear 19 1019 42 10000 3.09 20 18:52 11.12.2021
4946 Clear 21 1019 37 10000 3.6 50 18:21 11.12.2021
4947 Clear 22 1019 35 10000 2.06 340 17:20 11.12.2021
4948 Clear 22 1019 40 10000 1.03 0 15:53 11.12.2021
4949 Clear 21 1020 43 10000 2.06 350 15:27 11.12.2021
4950 Clear 16 1022 55 10000 2.57 30 12:50 11.12.2021
4951 Clear 16 1022 55 10000 2.57 30 12:50 11.12.2021
4952 Clear 13 1023 62 10000 2.57 40 11:25 11.12.2021
4953 Clear 9 1022 76 10000 2.57 80 09:45 11.12.2021
4954 Clear 7 1022 81 10000 3.6 90 07:49 11.12.2021
4955 Clear 10 1024 71 10000 3.6 60 02:23 11.12.2021
4956 Clear 11 1025 71 10000 1.54 80 23:58 10.12.2021
4957 Clear 12 1025 66 10000 2.06 70 23:20 10.12.2021
4958 Clear 12 1024 58 10000 2.57 110 21:56 10.12.2021
4959 Clear 14 1025 54 10000 2.57 80 20:57 10.12.2021
4960 Clear 16 1024 44 10000 1.54 40 19:21 10.12.2021
4961 Clear 20 1024 40 10000 3.6 30 17:59 10.12.2021
4962 Clear 20 1024 40 10000 2.57 30 16:56 10.12.2021
4963 Clear 20 1024 40 10000 3.09 40 16:28 10.12.2021
4964 Clear 19 1025 45 10000 2.57 0 15:40 10.12.2021
4965 Clear 19 1025 45 10000 2.57 0 15:21 10.12.2021
4966 Clear 17 1026 51 10000 3.09 40 13:51 10.12.2021
4967 Clear 16 1026 55 10000 2.57 30 13:26 10.12.2021
4968 Clear 14 1026 58 10000 2.06 20 12:36 10.12.2021
4969 Clear 13 1026 67 10000 2.06 90 11:28 10.12.2021
4970 Clear 11 1027 71 10000 1.54 60 10:26 10.12.2021
4971 Clear 6 1026 81 10000 2.06 90 08:52 10.12.2021
4972 Clear 7 1025 81 10000 1.54 70 06:22 10.12.2021
4973 Clear 10 1024 71 10000 2.57 70 02:48 10.12.2021
4974 Clear 11 1025 66 10000 2.06 80 23:54 09.12.2021
4975 Clear 12 1025 66 10000 2.06 70 23:20 09.12.2021
4976 Clear 14 1025 58 10000 3.09 50 22:24 09.12.2021
4977 Clear 14 1025 58 10000 2.57 50 21:59 09.12.2021
4978 Clear 15 1025 55 10000 3.6 40 20:44 09.12.2021
4979 Clear 16 1025 51 10000 3.09 40 20:21 09.12.2021
4980 Clear 16 1024 48 10000 2.06 90 19:21 09.12.2021
4981 Clear 18 1024 45 10000 4.12 60 18:46 09.12.2021
4982 Clear 19 1024 42 10000 5.14 60 17:52 09.12.2021
4983 Clear 19 1024 42 10000 6.17 40 17:26 09.12.2021
4984 Clear 19 1023 45 10000 5.66 40 16:54 09.12.2021
4985 Clouds 19 1023 48 10000 5.14 60 15:34 09.12.2021
4986 Clouds 18 1024 55 10000 6.17 60 14:46 09.12.2021
4987 Clouds 16 1026 63 10000 3.6 70 13:20 09.12.2021
4988 Clouds 15 1026 63 10000 3.6 100 12:37 09.12.2021
4989 Clouds 13 1027 71 10000 2.57 90 11:24 09.12.2021
4990 Clouds 9 1026 81 7000 2.06 80 09:21 09.12.2021
4991 Clouds 11 1025 82 7000 2.57 80 06:44 09.12.2021
4992 Clouds 12 1026 71 7000 2.06 40 03:40 09.12.2021
4993 Clear 10 1026 66 10000 1.54 110 23:44 08.12.2021
4994 Clear 11 1026 62 10000 1.03 0 23:21 08.12.2021
4995 Clear 11 1026 62 10000 1.03 0 22:48 08.12.2021
4996 Clear 13 1026 58 10000 1.03 0 21:42 08.12.2021
4997 Clear 14 1025 54 10000 1.54 30 21:24 08.12.2021
4998 Clear 16 1024 44 10000 1.54 10 19:58 08.12.2021
4999 Clear 16 1024 44 10000 1.03 0 19:33 08.12.2021
5000 Clear 17 1024 42 10000 1.03 0 18:45 08.12.2021
5001 Clear 19 1024 39 10000 2.06 20 17:36 08.12.2021
5002 Clear 19 1024 39 10000 2.06 20 17:36 08.12.2021
5003 Clear 19 1024 39 10000 2.06 0 15:51 08.12.2021
5004 Clear 18 1024 42 10000 1.54 340 15:28 08.12.2021
5005 Clear 17 1024 45 10000 2.06 360 14:31 08.12.2021
5006 Clear 13 1026 58 10000 1.54 140 11:19 08.12.2021
5007 Clear 12 1026 62 10000 0.51 0 10:31 08.12.2021
5008 Clear 12 1026 62 10000 0.51 0 10:31 08.12.2021
5009 Clear 5 1025 75 10000 1.54 130 08:56 08.12.2021
5010 Clear 7 1025 70 10000 3.09 350 07:25 08.12.2021
5011 Clear 6 1025 70 10000 1.03 0 04:24 08.12.2021
5012 Clear 12 1025 54 10000 3.09 210 23:33 07.12.2021
5013 Clear 12 1025 47 10000 1.54 270 21:43 07.12.2021
5014 Clear 13 1025 44 10000 2.06 270 21:23 07.12.2021
5015 Clear 14 1024 41 10000 1.03 0 20:20 07.12.2021
5016 Clear 19 1024 27 10000 1.54 300 18:43 07.12.2021
5017 Clear 19 1024 27 10000 2.06 290 17:52 07.12.2021
5018 Clear 20 1024 26 10000 2.06 300 17:19 07.12.2021
5019 Clear 20 1024 24 10000 3.09 300 16:31 07.12.2021
5020 Clear 21 1024 24 10000 3.09 310 15:33 07.12.2021
5021 Clear 22 1025 26 10000 1.54 20 14:18 07.12.2021
5022 Clear 20 1025 32 10000 1.54 10 12:49 07.12.2021
5023 Clear 16 1026 41 10000 1.03 0 11:29 07.12.2021
5024 Clear 12 1026 58 10000 1.54 90 10:33 07.12.2021
5025 Clear 4 1025 75 10000 2.57 90 08:26 07.12.2021
5026 Clear 5 1024 75 10000 3.09 100 06:19 07.12.2021
5027 Clear 5 1024 75 10000 1.54 110 05:33 07.12.2021
5028 Clear 10 1024 62 10000 0.51 0 23:47 06.12.2021
5029 Clear 11 1024 58 10000 0.51 0 22:57 06.12.2021
5030 Clear 12 1024 54 10000 1.03 0 22:35 06.12.2021
5031 Clear 11 1024 54 10000 1.54 160 21:51 06.12.2021
5032 Clear 15 1024 38 10000 1.03 0 20:33 06.12.2021
5033 Clear 16 1024 39 10000 1.54 40 19:56 06.12.2021
5034 Clear 17 1024 36 10000 2.57 50 19:21 06.12.2021
5035 Clear 20 1023 34 10000 3.6 30 18:28 06.12.2021
5036 Clear 21 1023 32 10000 4.63 30 17:40 06.12.2021
5037 Clear 21 1023 32 10000 4.63 30 17:40 06.12.2021
5038 Clear 22 1023 24 10000 3.6 70 16:48 06.12.2021
5039 Clear 21 1023 43 10000 2.06 290 15:39 06.12.2021
5040 Clear 17 1026 48 10000 3.09 70 13:46 06.12.2021
5041 Clear 14 1027 58 10000 2.06 90 12:39 06.12.2021
5042 Clear 12 1027 71 10000 2.06 100 11:36 06.12.2021
5043 Clear 5 1026 93 10000 3.09 90 08:46 06.12.2021
5044 Clear 5 1026 87 10000 2.57 110 06:42 06.12.2021
5045 Clear 11 1026 58 10000 2.06 20 23:38 05.12.2021
5046 Clear 12 1026 54 10000 2.57 110 21:51 05.12.2021
5047 Clear 12 1026 54 10000 3.09 110 21:19 05.12.2021
5048 Clear 13 1026 47 10000 2.06 90 20:19 05.12.2021
5049 Clear 16 1025 39 10000 2.57 50 19:33 05.12.2021
5050 Clear 17 1025 39 10000 2.57 50 18:47 05.12.2021
5051 Clear 19 1025 34 10000 3.6 40 18:19 05.12.2021
5052 Clear 19 1025 34 10000 4.12 60 17:48 05.12.2021
5053 Clear 20 1025 34 10000 5.14 40 16:47 05.12.2021
5054 Clear 20 1025 34 10000 4.12 50 16:26 05.12.2021
5055 Clear 20 1025 37 10000 3.09 50 15:48 05.12.2021
5056 Clear 18 1026 48 10000 2.06 10 14:41 05.12.2021
5057 Clear 17 1027 48 10000 4.12 40 14:23 05.12.2021
5058 Clear 17 1027 48 10000 3.09 40 13:22 05.12.2021
5059 Clear 15 1027 55 10000 2.06 90 12:40 05.12.2021
5060 Clear 15 1027 55 10000 2.06 90 12:18 05.12.2021
5061 Clear 11 1028 66 10000 3.6 80 11:29 05.12.2021
5062 Clear 7 1027 81 10000 3.09 90 09:59 05.12.2021
5063 Clear 4 1027 87 10000 2.57 90 08:24 05.12.2021
5064 Clear 6 1026 81 10000 2.06 80 03:27 05.12.2021
5065 Clear 9 1026 71 10000 1.54 120 23:45 04.12.2021
5066 Clear 12 1026 58 10000 3.6 100 21:55 04.12.2021
5067 Clear 13 1026 54 10000 2.06 70 20:57 04.12.2021
5068 Clear 14 1025 51 10000 2.57 30 20:20 04.12.2021
5069 Clear 16 1025 48 10000 1.54 20 19:32 04.12.2021
5070 Clear 19 1025 37 10000 0.51 0 18:21 04.12.2021
5071 Clear 20 1025 37 10000 0.51 0 17:39 04.12.2021
5072 Clear 19 1025 37 10000 1.54 60 16:51 04.12.2021
5073 Clear 19 1025 39 10000 1.54 0 16:31 04.12.2021
5074 Clear 19 1025 37 10000 1.54 350 15:40 04.12.2021
5075 Clear 14 1027 58 10000 1.03 0 11:54 04.12.2021
5076 Clear 13 1027 62 10000 0.51 0 11:32 04.12.2021
5077 Clear 11 1027 71 10000 1.03 0 10:53 04.12.2021
5078 Clear 3 1026 87 10000 2.06 80 08:49 04.12.2021
5079 Clear 3 1025 93 10000 1.54 70 06:42 04.12.2021
5080 Clear 4 1024 87 10000 2.57 100 04:42 04.12.2021
5081 Clear 8 1025 71 10000 1.54 70 00:35 04.12.2021
5082 Clear 10 1024 71 10000 2.06 20 23:27 03.12.2021
5083 Clear 9 1024 71 10000 2.06 110 22:48 03.12.2021
5084 Clear 10 1024 66 10000 2.06 110 21:42 03.12.2021
5085 Clear 11 1024 62 10000 1.54 60 20:55 03.12.2021
5086 Clear 12 1024 58 10000 2.57 50 20:26 03.12.2021
5087 Clear 14 1023 47 10000 2.57 80 18:44 03.12.2021
5088 Clear 16 1023 36 10000 3.6 50 18:20 03.12.2021
5089 Clear 16 1022 39 10000 3.6 60 16:43 03.12.2021
5090 Clear 14 1023 62 8000 5.66 70 13:27 03.12.2021
5091 Clear 13 1024 76 8000 4.12 90 12:20 03.12.2021
5092 Clouds 10 1023 87 6000 4.12 80 10:56 03.12.2021
5093 Clear 7 1022 100 8000 4.12 90 08:31 03.12.2021
5094 Clear 7 1022 93 8000 3.6 80 07:43 03.12.2021
5095 Clear 7 1022 93 8000 3.6 80 07:43 03.12.2021
5096 Clear 7 1022 93 8000 3.6 80 07:43 03.12.2021
5097 Clouds 7 1021 100 8000 2.06 80 05:42 03.12.2021
5098 Clouds 11 1022 93 8000 2.57 80 00:48 03.12.2021
5099 Clouds 12 1022 87 8000 2.06 90 23:47 02.12.2021
5100 Clouds 12 1021 87 8000 2.57 90 22:48 02.12.2021
5101 Clouds 12 1021 87 8000 3.09 30 21:41 02.12.2021
5102 Clouds 12 1021 94 6000 1.54 360 20:44 02.12.2021
5103 Clouds 12 1021 94 6000 2.57 340 20:22 02.12.2021
5104 Clouds 13 1019 82 6000 3.09 240 18:47 02.12.2021
5105 Clouds 16 1019 55 10000 6.17 270 16:35 02.12.2021
5106 Clouds 17 1019 51 10000 4.63 280 15:41 02.12.2021
5107 Clouds 17 1019 51 10000 4.63 280 15:41 02.12.2021
5108 Clouds 17 1020 51 10000 4.12 250 14:52 02.12.2021
5109 Clouds 16 1021 51 10000 3.6 200 13:36 02.12.2021
5110 Clouds 15 1023 58 8000 2.57 180 12:24 02.12.2021
5111 Clouds 12 1023 66 6000 2.06 190 10:42 02.12.2021
5112 Clear 8 1023 76 8000 1.54 170 09:26 02.12.2021
5113 Clear 8 1022 76 8000 2.57 180 07:19 02.12.2021
5114 Clear 10 1025 71 8000 1.54 80 01:26 02.12.2021
5115 Clear 12 1025 66 8000 2.57 60 00:26 02.12.2021
5116 Clear 14 1025 62 8000 3.6 50 22:31 01.12.2021
5117 Clear 14 1025 58 8000 3.09 70 21:44 01.12.2021
5118 Clear 16 1024 51 8000 1.54 330 20:23 01.12.2021
5119 Clear 17 1023 42 10000 2.06 290 19:42 01.12.2021
5120 Clear 18 1023 39 10000 2.57 270 18:47 01.12.2021
5121 Clear 21 1023 32 10000 2.57 300 17:24 01.12.2021
5122 Clear 21 1024 30 10000 3.09 340 16:21 01.12.2021
5123 Clouds 20 1025 37 10000 1.54 0 14:30 01.12.2021
5124 Clouds 19 1026 37 10000 2.06 10 13:37 01.12.2021
5125 Clouds 14 1026 51 10000 0.51 0 10:44 01.12.2021
5126 Clouds 11 1026 62 10000 1.03 0 10:22 01.12.2021
5127 Clouds 5 1025 75 10000 2.06 90 08:52 01.12.2021
5128 Clear 5 1025 75 10000 2.06 100 07:58 01.12.2021
5129 Clear 5 1024 75 10000 2.06 70 07:31 01.12.2021
5130 Clear 9 1024 61 10000 0.51 0 03:57 01.12.2021
5131 Clear 9 1024 61 10000 1.54 0 03:27 01.12.2021
5132 Clear 10 1025 66 10000 1.03 0 00:34 01.12.2021
5133 Clear 12 1025 62 10000 1.03 0 23:29 30.11.2021
5134 Clear 12 1025 62 10000 1.03 0 23:29 30.11.2021
5135 Clear 12 1025 62 10000 1.54 130 22:32 30.11.2021
5136 Clear 15 1024 51 10000 2.06 40 20:47 30.11.2021
5137 Clear 16 1024 48 10000 2.57 40 20:25 30.11.2021
5138 Clear 17 1023 45 10000 1.03 0 19:39 30.11.2021
5139 Clear 18 1023 39 10000 1.03 0 18:54 30.11.2021
5140 Clear 20 1023 34 10000 1.54 70 17:46 30.11.2021
5141 Clear 20 1023 34 10000 1.03 0 16:19 30.11.2021
5142 Clear 18 1024 36 10000 1.54 0 14:34 30.11.2021
5143 Clear 18 1025 39 10000 1.03 0 13:41 30.11.2021
5144 Clear 16 1025 48 10000 1.54 0 12:54 30.11.2021
5145 Clear 15 1026 47 10000 1.54 0 11:59 30.11.2021
5146 Clear 13 1026 54 10000 2.57 90 11:25 30.11.2021
5147 Clear 11 1026 62 10000 2.06 90 10:36 30.11.2021
5148 Clear 5 1025 75 10000 0.51 0 08:57 30.11.2021
5149 Clear 5 1025 70 10000 0.51 0 08:32 30.11.2021
5150 Clear 6 1025 70 10000 0.51 0 07:59 30.11.2021
5151 Clear 6 1024 70 10000 1.54 170 06:38 30.11.2021
5152 Clear 7 1025 61 10000 1.54 100 01:50 30.11.2021
5153 Clear 8 1025 57 10000 1.54 80 01:28 30.11.2021
5154 Clear 10 1025 50 10000 1.54 100 23:40 29.11.2021
5155 Clear 10 1025 50 10000 1.54 30 23:19 29.11.2021
5156 Clear 11 1026 46 10000 1.54 90 22:38 29.11.2021
5157 Clear 12 1026 43 10000 2.57 110 21:56 29.11.2021
5158 Clear 13 1026 41 10000 1.54 110 21:20 29.11.2021
5159 Clear 12 1026 43 10000 1.54 80 20:48 29.11.2021
5160 Clear 15 1025 38 10000 2.06 60 19:59 29.11.2021
5161 Clear 15 1025 38 10000 2.06 60 19:41 29.11.2021
5162 Clear 17 1025 31 10000 3.6 40 18:59 29.11.2021
5163 Clear 15 1025 38 10000 3.36 57 18:41 29.11.2021
5164 Clear 17 1024 27 10000 5.1 49 17:22 29.11.2021
5165 Clear 17 1024 27 10000 5.11 49 16:45 29.11.2021
5166 Clear 17 1024 25 10000 5.07 48 16:24 29.11.2021
5167 Clear 17 1025 24 10000 4.68 49 14:46 29.11.2021
5168 Clear 17 1026 26 10000 4.42 52 14:23 29.11.2021
5169 Clear 15 1027 30 10000 4.89 58 12:59 29.11.2021
5170 Clear 14 1027 36 10000 4.95 62 12:19 29.11.2021
5171 Clear 12 1028 43 10000 4.13 60 11:28 29.11.2021
5172 Clear 6 1028 81 8000 2.06 90 09:59 29.11.2021
5173 Clear 4 1027 81 8000 3.6 100 07:47 29.11.2021
5174 Clear 6 1027 75 8000 2.57 90 05:51 29.11.2021
5175 Clear 9 1027 71 8000 2.57 130 01:24 29.11.2021
5176 Clear 9 1027 66 8000 2.06 100 23:54 28.11.2021
5177 Clear 9 1026 71 8000 2.06 120 23:36 28.11.2021
5178 Clear 10 1026 66 8000 2.57 90 22:20 28.11.2021
5179 Clouds 12 1025 58 8000 3.09 70 21:39 28.11.2021
5180 Clouds 13 1025 54 8000 3.6 60 20:44 28.11.2021
5181 Clouds 14 1024 47 8000 3.09 40 19:51 28.11.2021
5182 Clouds 15 1023 47 8000 4.12 60 18:40 28.11.2021
5183 Clouds 15 1023 47 8000 4.12 60 18:18 28.11.2021
5184 Clouds 16 1023 44 8000 4.12 50 17:34 28.11.2021
5185 Clouds 17 1023 45 8000 4.12 80 16:47 28.11.2021
5186 Clouds 16 1023 44 8000 4.12 50 16:28 28.11.2021
5187 Clouds 16 1023 44 8000 4.63 80 15:50 28.11.2021
5188 Clouds 16 1023 55 8000 3.09 40 14:55 28.11.2021
5189 Clouds 15 1024 63 8000 3.6 110 14:28 28.11.2021
5190 Clouds 14 1025 67 8000 4.12 100 12:54 28.11.2021
5191 Clouds 12 1024 82 5000 2.57 120 11:39 28.11.2021
5192 Clouds 11 1023 82 5000 2.57 120 10:34 28.11.2021
5193 Clouds 10 1023 81 6000 1.54 110 09:51 28.11.2021
5194 Clouds 10 1023 81 6000 1.54 110 09:30 28.11.2021
5195 Clear 9 1019 71 10000 1.54 110 00:53 28.11.2021
5196 Clear 11 1019 66 10000 1.54 50 22:58 27.11.2021
5197 Clouds 14 1018 54 10000 2.06 350 19:51 27.11.2021
5198 Clouds 16 1016 48 10000 4.63 360 18:26 27.11.2021
5199 Clouds 18 1015 45 10000 0.51 0 16:19 27.11.2021
5200 Clouds 15 1016 58 10000 2.06 0 14:51 27.11.2021
5201 Clouds 15 1016 63 10000 2.06 90 13:40 27.11.2021
5202 Clouds 14 1017 62 10000 3.6 60 12:19 27.11.2021
5203 Clouds 11 1016 82 10000 3.09 10 10:27 27.11.2021
5204 Clouds 11 1015 82 10000 2.57 20 09:18 27.11.2021
5205 Clouds 11 1014 82 8000 1.03 0 06:59 27.11.2021
5206 Clouds 11 1014 87 8000 2.06 100 04:53 27.11.2021
5207 Clouds 13 1015 71 10000 3.09 20 00:26 27.11.2021
5208 Clouds 13 1014 71 10000 4.63 360 22:51 26.11.2021
5209 Clouds 14 1014 72 10000 3.09 320 22:24 26.11.2021
5210 Clouds 14 1014 72 10000 2.06 320 21:33 26.11.2021
5211 Clouds 14 1014 72 10000 2.57 320 20:42 26.11.2021
5212 Clouds 14 1013 67 10000 2.06 330 19:56 26.11.2021
5213 Clouds 14 1013 67 10000 2.57 330 19:18 26.11.2021
5214 Clouds 15 1012 63 10000 2.06 290 17:54 26.11.2021
5215 Clouds 15 1012 63 10000 2.06 300 17:21 26.11.2021
5216 Clouds 15 1012 63 10000 3.6 300 15:29 26.11.2021
5217 Clouds 17 1014 51 10000 2.57 280 13:35 26.11.2021
5218 Clouds 15 1014 51 10000 2.06 280 11:30 26.11.2021
5219 Clouds 15 1014 51 10000 1.03 260 10:35 26.11.2021
5220 Clouds 11 1013 62 10000 0 0 08:56 26.11.2021
5221 Clouds 12 1013 58 10000 2.57 180 08:21 26.11.2021
5222 Clouds 13 1013 58 10000 2.06 190 07:24 26.11.2021
5223 Clouds 12 1013 74 10000 2.33 273 06:25 26.11.2021
5224 Clouds 11 1012 66 10000 1.54 260 03:54 26.11.2021
5225 Clouds 12 1013 62 10000 0.51 0 01:27 26.11.2021
5226 Clouds 12 1015 66 10000 2.06 250 22:46 25.11.2021
5227 Clouds 12 1015 66 10000 2.06 270 21:24 25.11.2021
5228 Clouds 14 1014 58 10000 2.06 280 19:55 25.11.2021
5229 Clouds 15 1014 55 10000 2.06 310 18:45 25.11.2021
5230 Clouds 16 1014 48 10000 2.57 310 17:47 25.11.2021
5231 Clouds 16 1014 48 10000 2.57 330 17:25 25.11.2021
5232 Clouds 17 1014 45 10000 1.54 360 16:30 25.11.2021
5233 Clouds 18 1015 42 10000 2.57 350 14:59 25.11.2021
5234 Clouds 17 1016 45 10000 2.06 0 13:26 25.11.2021
5235 Clouds 18 1018 39 10000 1.03 60 12:23 25.11.2021
5236 Clouds 16 1018 48 10000 1.03 120 11:48 25.11.2021
5237 Clouds 10 1018 71 10000 1.54 170 09:25 25.11.2021
5238 Clouds 10 1018 87 10000 1.03 0 05:27 25.11.2021
5239 Clouds 11 1018 76 10000 1.54 300 02:48 25.11.2021
5240 Clouds 13 1020 82 10000 2.06 230 22:55 24.11.2021
5241 Clouds 14 1020 77 10000 1.54 330 22:23 24.11.2021
5242 Clouds 14 1019 72 10000 2.57 340 21:28 24.11.2021
5243 Clouds 14 1019 62 10000 2.57 310 20:46 24.11.2021
5244 Clouds 14 1018 58 10000 1.54 300 20:46 24.11.2021
5245 Clouds 14 1018 58 10000 1.54 300 20:18 24.11.2021
5246 Clouds 17 1018 48 10000 2.57 300 18:30 24.11.2021
5247 Clouds 17 1018 48 10000 2.57 320 17:53 24.11.2021
5248 Clouds 18 1018 48 10000 2.57 330 15:23 24.11.2021
5249 Clouds 19 1019 45 10000 2.57 300 14:47 24.11.2021
5250 Clouds 18 1019 48 10000 2.06 310 14:19 24.11.2021
5251 Clouds 18 1021 59 8000 1.54 0 12:28 24.11.2021
5252 Clouds 15 1021 67 8000 2.57 10 11:20 24.11.2021
5253 Clouds 15 1021 67 8000 2.57 10 10:47 24.11.2021
5254 Clouds 14 1020 77 8000 2.06 10 10:21 24.11.2021
5255 Clouds 13 1019 76 6000 1.54 40 07:52 24.11.2021
5256 Clouds 14 1019 77 6000 1.54 110 06:54 24.11.2021
5257 Clouds 14 1019 82 6000 2.06 20 03:50 24.11.2021
5258 Clouds 14 1019 94 6000 2.57 240 00:43 24.11.2021
5259 Clouds 15 1019 94 6000 3.6 290 22:40 23.11.2021
5260 Clouds 15 1019 94 6000 3.6 290 22:18 23.11.2021
5261 Clouds 15 1018 94 6000 3.6 300 21:44 23.11.2021
5262 Clouds 17 1017 77 8000 5.14 300 19:37 23.11.2021
5263 Clouds 17 1017 77 8000 5.14 300 19:37 23.11.2021
5264 Clouds 18 1016 72 8000 4.63 320 18:41 23.11.2021
5265 Clouds 19 1016 63 8000 5.14 310 18:20 23.11.2021
5266 Clouds 22 1015 49 8000 6.69 280 16:58 23.11.2021
5267 Clouds 21 1015 52 8000 6.17 300 15:59 23.11.2021
5268 Clouds 22 1015 49 8000 5.14 300 15:22 23.11.2021
5269 Clouds 22 1016 43 8000 5.66 250 13:50 23.11.2021
5270 Clouds 19 1017 48 8000 2.57 280 11:42 23.11.2021
5271 Clouds 15 1016 67 8000 0.51 0 09:59 23.11.2021
5272 Clouds 10 1015 76 8000 0.51 0 08:46 23.11.2021
5273 Clear 13 1015 67 10000 0.51 0 06:41 23.11.2021
5274 Clouds 15 1016 63 8000 3.09 220 03:51 23.11.2021
5275 Clouds 16 1016 63 8000 3.6 230 00:58 23.11.2021
5276 Clouds 18 1016 52 8000 2.57 190 23:21 22.11.2021
5277 Clouds 18 1016 52 8000 2.57 190 22:34 22.11.2021
5278 Clouds 18 1015 52 8000 2.57 190 21:49 22.11.2021
5279 Clouds 18 1015 52 8000 3.09 180 21:31 22.11.2021
5280 Clouds 18 1015 52 8000 1.03 0 20:50 22.11.2021
5281 Clouds 18 1015 55 8000 1.54 290 19:47 22.11.2021
5282 Clouds 19 1014 48 8000 2.06 270 19:18 22.11.2021
5283 Clouds 21 1014 43 8000 2.06 270 18:38 22.11.2021
5284 Clouds 22 1014 40 8000 2.06 0 17:20 22.11.2021
5285 Clouds 22 1014 40 8000 2.57 290 15:47 22.11.2021
5286 Clouds 21 1015 52 8000 1.54 0 13:58 22.11.2021
5287 Clouds 18 1016 63 6000 1.03 0 11:50 22.11.2021
5288 Clouds 15 1016 72 6000 1.03 0 10:39 22.11.2021
5289 Clouds 13 1015 76 6000 0.51 0 09:26 22.11.2021
5290 Clouds 13 1015 76 6000 0.51 0 08:39 22.11.2021
5291 Clouds 14 1014 72 8000 0.51 0 04:33 22.11.2021
5292 Clouds 17 1016 67 8000 1.54 220 23:24 21.11.2021
5293 Clouds 16 1015 72 8000 1.03 0 22:48 21.11.2021
5294 Clouds 16 1016 67 8000 1.54 250 21:51 21.11.2021
5295 Clouds 17 1015 63 8000 2.06 240 20:42 21.11.2021
5296 Clouds 17 1015 63 8000 1.54 250 19:46 21.11.2021
5297 Clouds 19 1015 55 10000 2.57 300 18:18 21.11.2021
5298 Clouds 19 1015 52 10000 2.57 320 17:38 21.11.2021
5299 Clouds 20 1015 49 10000 2.06 350 15:28 21.11.2021
5300 Clouds 20 1015 49 10000 2.06 360 14:45 21.11.2021
5301 Clouds 20 1016 52 10000 2.57 20 13:46 21.11.2021
5302 Clouds 19 1017 55 10000 2.57 90 12:35 21.11.2021
5303 Clouds 18 1018 63 10000 3.09 90 11:42 21.11.2021
5304 Clouds 17 1018 72 10000 1.54 60 11:23 21.11.2021
5305 Clouds 15 1018 82 10000 1.54 70 10:18 21.11.2021
5306 Clouds 10 1017 93 10000 1.54 70 08:42 21.11.2021
5307 Clouds 10 1017 93 10000 1.54 90 08:22 21.11.2021
5308 Clouds 10 1017 93 10000 2.06 70 07:43 21.11.2021
5309 Clouds 12 1018 82 10000 1.03 0 05:49 21.11.2021
5310 Clouds 12 1018 87 10000 0.51 0 05:19 21.11.2021
5311 Clouds 13 1019 88 10000 1.54 220 03:18 21.11.2021
5312 Clouds 13 1019 88 10000 1.54 210 02:50 21.11.2021
5313 Clouds 13 1019 82 10000 0.51 0 00:56 21.11.2021
5314 Clouds 14 1019 77 10000 1.54 250 23:43 20.11.2021
5315 Clouds 18 1019 63 10000 1.54 290 21:40 20.11.2021
5316 Clouds 18 1019 59 10000 1.03 0 20:54 20.11.2021
5317 Clouds 18 1018 59 10000 2.06 300 18:46 20.11.2021
5318 Clouds 19 1018 55 10000 2.57 310 18:26 20.11.2021
5319 Clouds 20 1018 52 10000 3.09 300 17:26 20.11.2021
5320 Clouds 21 1018 52 10000 4.12 290 16:46 20.11.2021
5321 Clouds 21 1019 52 10000 3.09 310 14:46 20.11.2021
5322 Clouds 20 1019 60 10000 2.06 330 14:23 20.11.2021
5323 Clouds 19 1021 77 8000 1.03 0 11:57 20.11.2021
5324 Clouds 16 1021 88 8000 1.54 100 10:35 20.11.2021
5325 Clouds 14 1020 94 8000 1.54 100 09:39 20.11.2021
5326 Clouds 14 1019 94 8000 2.06 80 07:28 20.11.2021
5327 Clouds 14 1019 94 8000 2.57 100 05:27 20.11.2021
5328 Clouds 14 1019 94 7000 2.06 80 04:50 20.11.2021
5329 Clouds 14 1019 94 5000 1.54 270 01:55 20.11.2021
5330 Clouds 14 1019 94 7000 2.06 270 00:40 20.11.2021
5331 Clouds 14 1018 94 8000 2.57 230 22:58 19.11.2021
5332 Clouds 14 1017 88 8000 1.54 200 21:58 19.11.2021
5333 Clouds 14 1017 88 8000 2.06 260 20:58 19.11.2021
5334 Clouds 14 1016 88 8000 3.09 280 20:36 19.11.2021
5335 Clouds 15 1016 82 8000 2.57 280 19:50 19.11.2021
5336 Clouds 17 1015 63 8000 3.09 260 18:54 19.11.2021
5337 Clouds 17 1015 63 8000 3.09 270 18:22 19.11.2021
5338 Clouds 18 1015 59 8000 3.6 300 17:31 19.11.2021
5339 Clouds 19 1014 59 8000 1.03 0 15:51 19.11.2021
5340 Clouds 19 1015 59 8000 1.03 0 13:28 19.11.2021
5341 Clouds 15 1015 63 8000 1.54 90 10:27 19.11.2021
5342 Clouds 15 1015 63 8000 1.54 90 10:27 19.11.2021
5343 Clouds 15 1014 58 9000 1.54 110 09:37 19.11.2021
5344 Clouds 15 1014 58 10000 0.51 0 08:20 19.11.2021
5345 Clouds 15 1014 55 10000 2.06 150 04:51 19.11.2021
5346 Clouds 18 1014 42 10000 2.57 210 02:27 19.11.2021
5347 Clouds 17 1014 55 10000 3.6 250 23:51 18.11.2021
5348 Clouds 19 1013 39 10000 5.14 230 21:55 18.11.2021
5349 Clouds 19 1013 42 10000 2.57 270 20:49 18.11.2021
5350 Clouds 19 1012 42 10000 3.09 260 20:30 18.11.2021
5351 Clouds 19 1012 45 10000 2.06 250 19:52 18.11.2021
5352 Clouds 20 1012 42 10000 2.57 260 19:33 18.11.2021
5353 Clouds 22 1011 37 10000 2.57 270 18:33 18.11.2021
5354 Clouds 22 1011 35 10000 2.57 290 17:51 18.11.2021
5355 Clouds 24 1011 27 10000 2.06 260 16:44 18.11.2021
5356 Clouds 24 1011 27 10000 2.57 310 15:46 18.11.2021
5357 Clouds 21 1013 40 10000 1.54 360 13:40 18.11.2021
5358 Clouds 19 1014 42 10000 1.54 360 12:34 18.11.2021
5359 Clouds 18 1014 48 10000 1.03 0 11:43 18.11.2021
5360 Clouds 18 1014 48 10000 0.51 0 11:24 18.11.2021
5361 Clear 13 1014 62 10000 0.51 0 09:44 18.11.2021
5362 Clear 8 1013 71 8000 1.54 50 07:35 18.11.2021
5363 Clear 9 1013 71 8000 1.54 160 05:55 18.11.2021
5364 Clear 9 1013 71 8000 0.51 0 05:36 18.11.2021
5365 Clouds 12 1013 66 8000 1.03 0 01:24 18.11.2021
5366 Clouds 12 1013 66 8000 1.03 0 01:24 18.11.2021
5367 Clear 15 1014 55 10000 1.54 20 23:18 17.11.2021
5368 Clouds 14 1013 54 10000 2.57 100 22:21 17.11.2021
5369 Clouds 15 1013 55 10000 2.06 90 21:53 17.11.2021
5370 Clouds 16 1013 51 10000 2.06 60 21:34 17.11.2021
5371 Clouds 19 1012 45 10000 1.03 0 18:47 17.11.2021
5372 Clouds 21 1011 43 10000 1.54 0 17:28 17.11.2021
5373 Clouds 19 1012 48 10000 2.57 50 14:52 17.11.2021
5374 Clear 17 1014 59 8000 2.57 50 12:42 17.11.2021
5375 Clear 16 1015 63 8000 2.06 130 11:52 17.11.2021
5376 Clear 15 1015 67 8000 1.03 0 10:50 17.11.2021
5377 Clear 11 1014 82 8000 1.54 150 09:27 17.11.2021
5378 Clear 10 1014 87 8000 2.06 190 07:45 17.11.2021
5379 Clouds 9 1013 81 8000 2.06 240 06:20 17.11.2021
5380 Clouds 12 1015 71 8000 2.06 220 02:42 17.11.2021
5381 Clouds 12 1014 58 8000 2.57 270 23:27 16.11.2021
5382 Clouds 13 1014 54 10000 1.54 240 21:51 16.11.2021
5383 Clouds 16 1013 44 10000 2.57 270 20:19 16.11.2021
5384 Clouds 18 1013 39 10000 2.06 300 19:23 16.11.2021
5385 Clear 21 1013 35 10000 2.57 270 18:38 16.11.2021
5386 Clear 22 1013 33 10000 2.06 330 17:44 16.11.2021
5387 Clear 22 1013 35 10000 1.54 0 16:58 16.11.2021
5388 Clear 22 1013 35 10000 2.57 0 16:19 16.11.2021
5389 Clear 22 1013 35 10000 2.57 0 15:41 16.11.2021
5390 Clear 18 1016 52 10000 1.54 320 12:43 16.11.2021
5391 Clear 12 1016 50 10000 2.06 260 10:21 16.11.2021
5392 Clear 12 1016 50 10000 1.03 0 09:38 16.11.2021
5393 Clear 9 1015 57 8000 0.51 0 07:34 16.11.2021
5394 Clear 10 1015 53 8000 0.51 0 05:27 16.11.2021
5395 Clear 15 1018 41 10000 1.54 40 23:26 15.11.2021
5396 Clear 15 1018 38 10000 2.06 120 22:40 15.11.2021
5397 Clear 17 1018 36 10000 3.09 110 21:56 15.11.2021
5398 Clear 16 1018 36 10000 1.54 80 21:30 15.11.2021
5399 Clear 19 1017 32 10000 1.54 40 20:32 15.11.2021
5400 Clear 22 1017 26 10000 2.06 30 18:54 15.11.2021
5401 Clear 24 1017 27 10000 3.09 20 17:31 15.11.2021
5402 Clear 25 1017 29 10000 2.06 0 15:50 15.11.2021
5403 Clear 24 1018 31 10000 2.57 340 15:30 15.11.2021
5404 Clear 23 1018 35 10000 2.57 20 14:18 15.11.2021
5405 Clear 21 1020 43 10000 1.54 340 12:21 15.11.2021
5406 Clear 12 1020 58 10000 0.51 0 09:31 15.11.2021
5407 Clear 11 1020 62 10000 2.57 170 08:57 15.11.2021
5408 Clear 10 1018 62 10000 1.03 0 06:32 15.11.2021
5409 Clear 14 1019 62 10000 0.51 0 00:34 15.11.2021
5410 Clouds 16 1018 48 10000 2.57 230 22:41 14.11.2021
5411 Clear 16 1018 48 10000 1.03 0 21:18 14.11.2021
5412 Clouds 20 1016 37 10000 2.06 240 19:18 14.11.2021
5413 Clouds 21 1016 37 10000 3.09 250 18:54 14.11.2021
5414 Clouds 23 1016 33 10000 3.09 270 18:36 14.11.2021
5415 Clouds 23 1016 33 10000 3.09 270 18:18 14.11.2021
5416 Clouds 23 1015 33 10000 3.6 270 17:57 14.11.2021
5417 Clouds 23 1015 35 10000 2.06 290 17:39 14.11.2021
5418 Clouds 23 1015 35 10000 2.06 290 17:21 14.11.2021
5419 Clouds 24 1015 31 10000 2.57 300 16:55 14.11.2021
5420 Clouds 24 1015 33 10000 2.57 280 16:37 14.11.2021
5421 Clouds 24 1015 33 10000 2.57 280 16:18 14.11.2021
5422 Clouds 24 1015 33 10000 2.06 320 15:19 14.11.2021
5423 Clouds 23 1015 35 10000 3.09 350 14:43 14.11.2021
5424 Clouds 23 1015 38 10000 2.57 320 14:20 14.11.2021
5425 Clouds 22 1016 40 10000 2.57 310 13:51 14.11.2021
5426 Clouds 21 1016 43 10000 2.06 320 13:26 14.11.2021
5427 Clear 19 1017 55 10000 1.03 0 12:21 14.11.2021
5428 Clear 17 1017 59 10000 0.51 0 10:54 14.11.2021
5429 Clear 16 1016 59 10000 0.51 0 10:31 14.11.2021
5430 Clouds 12 1016 62 10000 1.03 0 09:22 14.11.2021
5431 Clouds 9 1015 66 10000 0.51 0 08:46 14.11.2021
5432 Clouds 11 1014 62 8000 0.51 0 04:46 14.11.2021
5433 Clear 16 1014 44 10000 1.54 260 22:31 13.11.2021
5434 Clear 17 1014 42 10000 1.54 140 21:59 13.11.2021
5435 Clear 17 1014 39 10000 2.06 110 21:30 13.11.2021
5436 Clear 19 1013 37 10000 2.06 30 20:26 13.11.2021
5437 Clouds 21 1012 37 10000 1.54 340 18:54 13.11.2021
5438 Clouds 22 1012 35 10000 1.03 0 18:32 13.11.2021
5439 Clouds 23 1012 33 10000 2.06 40 17:34 13.11.2021
5440 Clouds 22 1012 40 10000 2.06 0 15:45 13.11.2021
5441 Clear 22 1012 37 10000 3.09 60 14:41 13.11.2021
5442 Clear 20 1014 49 7000 2.57 10 13:46 13.11.2021
5443 Clouds 20 1014 49 7000 1.54 0 12:43 13.11.2021
5444 Clear 18 1015 59 10000 1.03 0 11:46 13.11.2021
5445 Clear 18 1015 59 10000 0.51 0 11:18 13.11.2021
5446 Clear 16 1015 63 10000 0.51 0 10:32 13.11.2021
5447 Clear 14 1015 67 10000 1.54 160 09:43 13.11.2021
5448 Clouds 12 1014 76 8000 1.54 90 09:22 13.11.2021
5449 Clouds 10 1014 81 8000 1.03 0 08:42 13.11.2021
5450 Clear 11 1013 76 10000 3.09 180 07:26 13.11.2021
5451 Clear 11 1013 82 8000 2.06 240 04:40 13.11.2021
5452 Clear 11 1013 76 10000 1.03 0 02:41 13.11.2021
5453 Clear 15 1014 72 10000 3.6 70 23:33 12.11.2021
5454 Clear 17 1015 63 10000 5.14 30 21:54 12.11.2021
5455 Clear 19 1014 37 10000 2.06 360 20:35 12.11.2021
5456 Clear 20 1013 32 10000 1.54 340 19:31 12.11.2021
5457 Clear 21 1013 30 10000 2.06 330 18:54 12.11.2021
5458 Clear 22 1013 30 10000 1.54 320 18:18 12.11.2021
5459 Clear 23 1013 28 10000 2.06 320 18:18 12.11.2021
5460 Clear 22 1013 35 10000 2.06 0 15:54 12.11.2021
5461 Clear 21 1015 43 10000 1.03 0 13:27 12.11.2021
5462 Clear 16 1017 59 10000 1.03 0 11:24 12.11.2021
5463 Clear 16 1017 59 10000 1.03 0 11:24 12.11.2021
5464 Clear 13 1017 67 8000 1.54 270 09:55 12.11.2021
5465 Clear 9 1017 76 10000 0.51 0 08:51 12.11.2021
5466 Clear 10 1016 71 10000 0.51 0 06:35 12.11.2021
5467 Clear 13 1018 50 10000 1.54 240 00:21 12.11.2021
5468 Clear 16 1018 48 10000 1.54 60 22:49 11.11.2021
5469 Clear 18 1018 39 10000 2.57 360 21:57 11.11.2021
5470 Clear 18 1018 42 10000 2.06 260 20:52 11.11.2021
5471 Clear 19 1017 39 10000 1.54 270 19:56 11.11.2021
5472 Clear 24 1017 29 10000 1.54 290 18:27 11.11.2021
5473 Clear 24 1017 29 10000 1.54 290 18:27 11.11.2021
5474 Clear 24 1017 29 10000 2.06 310 17:41 11.11.2021
5475 Clear 23 1016 31 10000 2.57 340 15:29 11.11.2021
5476 Clear 23 1017 28 10000 2.06 0 14:39 11.11.2021
5477 Clear 23 1017 28 10000 2.06 0 14:20 11.11.2021
5478 Clear 22 1018 30 10000 1.54 0 13:35 11.11.2021
5479 Clear 20 1019 34 10000 0.51 0 12:26 11.11.2021
5480 Clear 15 1019 44 10000 0.51 0 09:55 11.11.2021
5481 Clear 9 1019 53 10000 1.54 100 08:47 11.11.2021
5482 Clear 10 1018 50 10000 1.03 0 06:45 11.11.2021
5483 Clear 14 1018 54 10000 1.54 300 00:38 11.11.2021
5484 Clear 17 1018 42 10000 3.09 180 22:42 10.11.2021
5485 Clear 16 1017 39 10000 1.54 240 21:53 10.11.2021
5486 Clear 17 1017 39 10000 1.54 260 20:55 10.11.2021
5487 Clear 18 1016 36 10000 2.06 290 19:55 10.11.2021
5488 Clear 19 1016 34 10000 2.06 260 19:35 10.11.2021
5489 Clear 24 1016 22 10000 1.03 0 17:22 10.11.2021
5490 Clear 23 1016 21 10000 2.57 0 15:46 10.11.2021
5491 Clear 22 1016 21 10000 2.06 0 14:24 10.11.2021
5492 Clear 21 1017 24 10000 2.06 0 13:36 10.11.2021
5493 Clear 18 1018 32 8000 1.54 50 12:23 10.11.2021
5494 Clear 10 1018 46 8000 1.54 80 09:18 10.11.2021
5495 Clear 9 1018 46 10000 1.54 110 08:41 10.11.2021
5496 Clear 9 1017 46 10000 1.03 0 06:45 10.11.2021
5497 Clear 10 1016 43 10000 2.57 170 05:58 10.11.2021
5498 Clear 11 1017 32 10000 0.51 0 01:56 10.11.2021
5499 Clear 13 1016 33 10000 0.51 0 22:29 09.11.2021
5500 Clear 16 1016 25 10000 1.03 0 20:43 09.11.2021
5501 Clear 20 1015 21 10000 1.54 340 19:33 09.11.2021
5502 Clear 21 1015 19 10000 2.06 350 18:49 09.11.2021
5503 Clear 23 1015 17 10000 2.06 320 16:54 09.11.2021
5504 Clear 22 1016 18 10000 1.54 0 15:20 09.11.2021
5505 Clear 21 1016 21 10000 2.57 360 13:50 09.11.2021
5506 Clear 19 1017 24 10000 2.06 10 12:47 09.11.2021
5507 Clear 17 1018 27 10000 0.51 0 10:58 09.11.2021
5508 Clear 13 1018 30 10000 0.51 0 09:59 09.11.2021
5509 Clear 11 1018 37 10000 0.51 0 09:21 09.11.2021
5510 Clear 9 1017 37 10000 1.54 170 07:52 09.11.2021
5511 Clear 9 1017 40 10000 2.57 70 02:37 09.11.2021
5512 Clear 10 1017 37 10000 2.06 110 01:51 09.11.2021
5513 Clear 12 1018 35 10000 1.54 80 00:39 09.11.2021
5514 Clear 12 1019 32 10000 2.57 100 23:31 08.11.2021
5515 Clear 13 1019 26 10000 2.06 90 22:45 08.11.2021
5516 Clear 16 1019 23 10000 2.57 30 21:45 08.11.2021
5517 Clear 17 1018 23 10000 2.06 30 20:34 08.11.2021
5518 Clear 19 1018 22 10000 2.06 20 19:27 08.11.2021
5519 Clear 22 1018 17 10000 2.06 340 17:41 08.11.2021
5520 Clear 23 1018 18 10000 1.03 0 15:56 08.11.2021
5521 Clear 21 1018 21 10000 1.54 0 14:56 08.11.2021
5522 Clear 21 1019 21 10000 2.06 330 14:25 08.11.2021
5523 Clear 19 1019 27 10000 1.54 0 12:59 08.11.2021
5524 Clear 17 1020 34 10000 1.03 0 11:54 08.11.2021
5525 Clear 15 1020 41 10000 1.03 0 10:49 08.11.2021
5526 Clear 7 1019 57 10000 2.06 90 08:58 08.11.2021
5527 Clear 6 1019 61 10000 0.51 0 08:19 08.11.2021
5528 Clear 7 1019 53 10000 1.03 0 06:56 08.11.2021
5529 Clear 9 1019 53 10000 2.57 60 03:35 08.11.2021
5530 Clear 10 1019 46 10000 2.57 110 01:24 08.11.2021
5531 Clear 14 1019 35 10000 2.06 50 22:58 07.11.2021
5532 Clear 16 1019 31 10000 4.12 40 21:25 07.11.2021
5533 Clear 16 1018 23 10000 1.54 70 20:25 07.11.2021
5534 Clouds 19 1018 20 10000 3.09 60 18:47 07.11.2021
5535 Clouds 21 1018 23 10000 2.57 60 17:43 07.11.2021
5536 Clouds 21 1018 23 10000 3.6 40 16:26 07.11.2021
5537 Clear 22 1018 24 10000 2.06 0 15:25 07.11.2021
5538 Clear 20 1019 28 10000 2.57 10 14:27 07.11.2021
5539 Clear 17 1020 36 10000 2.57 40 12:50 07.11.2021
5540 Clear 15 1020 41 10000 2.06 10 11:41 07.11.2021
5541 Clear 9 1020 57 10000 1.03 0 08:59 07.11.2021
5542 Clear 9 1019 61 10000 2.06 100 02:58 07.11.2021
5543 Clear 9 1019 66 10000 1.54 80 02:22 07.11.2021
5544 Clear 13 1020 54 10000 6.69 50 22:56 06.11.2021
5545 Clear 14 1019 41 10000 6.17 40 21:59 06.11.2021
5546 Clear 16 1019 36 10000 5.14 20 21:22 06.11.2021
5547 Clear 17 1018 34 10000 4.12 30 20:29 06.11.2021
5548 Clear 21 1018 18 10000 4.12 40 17:32 06.11.2021
5549 Clear 21 1018 19 10000 3.6 30 16:35 06.11.2021
5550 Clear 19 1019 32 10000 3.09 20 13:45 06.11.2021
5551 Clear 18 1020 36 10000 3.09 50 12:58 06.11.2021
5552 Clear 15 1021 47 10000 5.14 70 11:24 06.11.2021
5553 Clear 9 1020 66 10000 4.12 100 09:20 06.11.2021
5554 Clear 10 1019 57 10000 2.57 70 04:52 06.11.2021
5555 Clear 13 1020 54 10000 3.09 50 00:43 06.11.2021
5556 Clear 14 1020 51 10000 6.69 50 23:31 05.11.2021
5557 Clear 15 1019 41 10000 4.12 60 22:33 05.11.2021
5558 Clear 15 1019 41 10000 4.12 60 22:33 05.11.2021
5559 Clear 17 1018 36 10000 4.63 40 20:41 05.11.2021
5560 Clear 18 1018 32 10000 4.12 40 20:18 05.11.2021
5561 Clouds 19 1017 30 10000 4.63 30 18:56 05.11.2021
5562 Clouds 20 1017 30 10000 4.63 30 18:37 05.11.2021
5563 Clouds 21 1017 28 10000 3.09 60 16:49 05.11.2021
5564 Clouds 20 1018 40 10000 3.09 0 14:33 05.11.2021
5565 Clouds 18 1020 45 10000 4.12 360 12:50 05.11.2021
5566 Clouds 14 1020 62 8000 3.09 30 09:51 05.11.2021
5567 Clouds 13 1018 67 8000 2.57 60 08:38 05.11.2021
5568 Clouds 13 1018 67 8000 3.09 100 06:40 05.11.2021
5569 Clouds 13 1018 71 8000 4.63 40 03:38 05.11.2021
5570 Clear 14 1018 67 8000 2.57 40 02:21 05.11.2021
5571 Clouds 15 1018 63 8000 4.63 50 00:30 05.11.2021
5572 Clouds 16 1017 63 8000 4.63 50 22:37 04.11.2021
5573 Clouds 16 1017 63 8000 4.63 50 22:18 04.11.2021
5574 Clouds 17 1017 59 8000 6.69 30 21:28 04.11.2021
5575 Clouds 18 1016 55 8000 4.63 30 20:29 04.11.2021
5576 Clouds 19 1016 52 8000 3.6 30 19:49 04.11.2021
5577 Clouds 19 1016 52 8000 4.12 30 19:28 04.11.2021
5578 Clouds 20 1015 49 8000 3.6 20 18:29 04.11.2021
5579 Clouds 21 1015 46 8000 3.6 40 17:27 04.11.2021
5580 Clouds 21 1015 46 8000 2.57 40 16:23 04.11.2021
5581 Clouds 20 1016 56 8000 3.09 70 13:50 04.11.2021
5582 Clouds 18 1016 59 8000 4.12 30 10:48 04.11.2021
5583 Clouds 17 1015 63 7000 3.09 50 08:41 04.11.2021
5584 Clouds 16 1015 77 6000 2.57 40 07:49 04.11.2021
5585 Clouds 16 1015 77 6000 3.09 40 07:31 04.11.2021
5586 Clouds 19 1016 72 8000 2.57 50 23:23 03.11.2021
5587 Clouds 19 1016 77 8000 3.6 50 22:29 03.11.2021
5588 Clouds 19 1016 77 8000 4.12 30 21:37 03.11.2021
5589 Clouds 21 1015 64 8000 3.09 40 20:44 03.11.2021
5590 Clouds 21 1015 64 8000 3.09 40 20:26 03.11.2021
5591 Clouds 21 1015 60 8000 1.54 360 19:37 03.11.2021
5592 Clouds 22 1015 60 8000 3.6 330 18:27 03.11.2021
5593 Clouds 22 1015 60 8000 3.6 330 18:27 03.11.2021
5594 Clouds 23 1015 60 8000 4.12 340 17:48 03.11.2021
5595 Clouds 23 1015 60 8000 3.6 340 16:49 03.11.2021
5596 Clouds 24 1015 50 8000 2.57 340 15:49 03.11.2021
5597 Clouds 24 1015 46 8000 3.09 360 15:30 03.11.2021
5598 Clouds 26 1016 53 8000 1.54 0 13:42 03.11.2021
5599 Clouds 21 1018 73 6000 1.03 0 11:37 03.11.2021
5600 Clouds 19 1018 77 6000 2.06 0 10:50 03.11.2021
5601 Clouds 18 1018 77 6000 3.09 180 09:47 03.11.2021
5602 Clouds 18 1018 77 6000 3.09 180 08:53 03.11.2021
5603 Clouds 17 1017 82 6000 3.09 160 07:55 03.11.2021
5604 Clouds 17 1017 82 6000 1.54 160 07:32 03.11.2021
5605 Clouds 17 1016 82 8000 2.57 220 04:23 03.11.2021
5606 Clouds 19 1018 72 8000 1.03 0 00:58 03.11.2021
5607 Clouds 20 1019 73 8000 1.54 110 23:24 02.11.2021
5608 Clouds 21 1018 68 8000 4.63 360 21:59 02.11.2021
5609 Clouds 24 1017 53 8000 3.09 330 20:43 02.11.2021
5610 Clouds 25 1017 47 8000 1.54 310 19:58 02.11.2021
5611 Clouds 26 1017 44 8000 2.06 270 19:27 02.11.2021
5612 Clouds 28 1016 39 8000 1.54 360 18:35 02.11.2021
5613 Clouds 28 1016 42 8000 2.06 330 17:46 02.11.2021
5614 Clouds 28 1016 42 8000 2.06 20 17:21 02.11.2021
5615 Clouds 28 1016 44 8000 2.06 0 15:58 02.11.2021
5616 Clouds 27 1017 50 8000 1.54 0 14:57 02.11.2021
5617 Clouds 24 1019 60 8000 2.57 360 13:30 02.11.2021
5618 Clouds 23 1019 68 8000 2.57 350 12:52 02.11.2021
5619 Clouds 20 1020 83 5000 1.03 0 11:40 02.11.2021
5620 Clouds 18 1020 88 5000 1.54 100 10:59 02.11.2021
5621 Clouds 18 1020 88 5000 2.06 100 10:32 02.11.2021
5622 Clouds 18 1020 88 5000 1.54 80 09:45 02.11.2021
5623 Clouds 17 1019 88 6000 1.03 0 07:46 02.11.2021
5624 Clear 16 1019 82 8000 1.54 270 05:55 02.11.2021
5625 Clear 17 1019 72 8000 1.03 0 03:24 02.11.2021
5626 Clear 21 1020 73 8000 2.57 70 23:58 01.11.2021
5627 Clear 23 1020 38 10000 2.06 20 21:49 01.11.2021
5628 Clear 23 1020 31 10000 1.54 60 20:44 01.11.2021
5629 Clear 24 1020 29 10000 1.54 40 20:18 01.11.2021
5630 Clear 26 1019 25 10000 2.06 40 19:41 01.11.2021
5631 Clear 25 1019 27 10000 1.54 30 19:41 01.11.2021
5632 Clear 29 1019 21 10000 2.57 360 18:34 01.11.2021
5633 Clear 29 1019 21 10000 2.57 360 17:49 01.11.2021
5634 Clear 29 1019 21 10000 3.09 20 16:57 01.11.2021
5635 Clear 29 1017 20 10000 4.54 11 16:23 01.11.2021
5636 Clear 30 1019 23 10000 2.06 0 15:29 01.11.2021
5637 Clear 30 1020 25 10000 2.06 0 14:47 01.11.2021
5638 Clear 29 1020 26 10000 2.06 40 14:26 01.11.2021
5639 Clear 27 1020 29 10000 3.09 60 13:50 01.11.2021
5640 Clear 24 1022 43 10000 2.06 30 12:38 01.11.2021
5641 Clear 23 1022 49 10000 1.54 50 11:34 01.11.2021
5642 Clear 18 1022 59 8000 2.57 80 10:20 01.11.2021
5643 Clear 14 1022 67 8000 2.06 60 08:18 01.11.2021
5644 Clear 14 1022 67 8000 2.06 60 07:46 01.11.2021
5645 Clear 17 1023 72 8000 2.57 230 03:51 01.11.2021
5646 Clouds 17 1023 67 8000 2.57 250 01:44 01.11.2021
5647 Clear 21 1023 52 8000 4.12 230 22:48 31.10.2021
5648 Clear 24 1022 31 10000 1.03 0 20:50 31.10.2021
5649 Clear 26 1021 27 10000 2.57 270 19:22 31.10.2021
5650 Clear 28 1021 24 10000 3.09 270 18:41 31.10.2021
5651 Clear 30 1021 21 10000 2.57 300 17:54 31.10.2021
5652 Clear 31 1021 22 10000 2.57 300 16:25 31.10.2021
5653 Clear 31 1021 22 10000 2.06 330 14:39 31.10.2021
5654 Clear 29 1023 24 10000 1.54 20 12:54 31.10.2021
5655 Clear 25 1023 33 10000 1.03 0 11:42 31.10.2021
5656 Clear 23 1024 38 10000 1.03 0 10:47 31.10.2021
5657 Clear 17 1023 48 10000 2.06 100 09:22 31.10.2021
5658 Clear 15 1023 55 10000 2.57 120 08:41 31.10.2021
5659 Clear 19 1023 45 10000 0.51 0 02:19 31.10.2021
5660 Clear 22 1022 37 10000 2.06 220 23:41 30.10.2021
5661 Clear 23 1021 31 10000 2.06 290 21:36 30.10.2021
5662 Clear 25 1021 27 10000 2.06 290 20:52 30.10.2021
5663 Clear 28 1020 28 10000 4.12 270 19:19 30.10.2021
5664 Clear 29 1019 24 10000 3.09 330 17:27 30.10.2021
5665 Clear 28 1019 28 10000 3.6 310 15:26 30.10.2021
5666 Clear 25 1020 41 10000 1.54 330 13:40 30.10.2021
5667 Clear 25 1020 41 10000 1.54 330 13:21 30.10.2021
5668 Clear 24 1021 43 10000 1.54 290 12:57 30.10.2021
5669 Clear 21 1021 49 8000 0.51 0 11:46 30.10.2021
5670 Clear 19 1020 59 8000 0.51 0 10:32 30.10.2021
5671 Clouds 14 1019 72 10000 2.06 110 08:53 30.10.2021
5672 Clouds 14 1019 72 8000 2.06 90 07:42 30.10.2021
5673 Clouds 16 1018 72 8000 1.54 80 05:44 30.10.2021
5674 Clear 17 1020 72 10000 1.54 270 01:37 30.10.2021
5675 Clear 20 1019 56 10000 2.06 260 22:54 29.10.2021
5676 Clear 21 1019 52 10000 2.57 260 22:32 29.10.2021
5677 Clear 23 1018 43 10000 2.06 250 20:47 29.10.2021
5678 Clouds 24 1016 35 10000 4.16 295 20:26 29.10.2021
5679 Clear 27 1016 34 10000 3.09 300 18:38 29.10.2021
5680 Clear 28 1016 36 10000 2.57 260 17:24 29.10.2021
5681 Clouds 26 1017 44 8000 1.54 0 15:21 29.10.2021
5682 Clouds 21 1020 78 8000 1.54 20 12:26 29.10.2021
5683 Clouds 17 1019 94 6000 0.51 0 10:46 29.10.2021
5684 Fog 14 1018 94 200 1.54 250 08:47 29.10.2021
5685 Clouds 19 1018 59 10000 1.03 0 00:37 29.10.2021
5686 Clouds 20 1017 56 10000 1.03 0 23:41 28.10.2021
5687 Clouds 22 1017 53 10000 2.57 10 22:19 28.10.2021
5688 Clouds 24 1016 41 10000 1.54 280 20:54 28.10.2021
5689 Clouds 26 1015 36 10000 2.06 310 19:52 28.10.2021
5690 Clouds 27 1014 34 10000 2.06 330 18:30 28.10.2021
5691 Clouds 28 1014 34 10000 2.57 320 17:19 28.10.2021
5692 Clouds 28 1015 34 10000 1.54 0 16:20 28.10.2021
5693 Clouds 25 1016 47 8000 1.54 0 14:39 28.10.2021
5694 Clear 23 1017 56 8000 2.06 290 13:29 28.10.2021
5695 Clear 23 1017 56 8000 1.03 0 12:44 28.10.2021
5696 Clouds 19 1017 77 8000 1.03 0 11:19 28.10.2021
5697 Clouds 14 1016 82 8000 0 0 09:40 28.10.2021
5698 Clouds 14 1016 82 8000 0 0 09:22 28.10.2021
5699 Clouds 14 1015 82 8000 2.06 110 08:35 28.10.2021
5700 Clouds 14 1015 82 8000 0 0 07:40 28.10.2021
5701 Clouds 20 1016 60 8000 1.54 30 00:40 28.10.2021
5702 Clouds 20 1016 56 8000 1.54 270 22:45 27.10.2021
5703 Clouds 22 1015 49 8000 1.54 260 21:35 27.10.2021
5704 Clouds 23 1015 49 8000 2.06 260 20:58 27.10.2021
5705 Clouds 24 1015 46 8000 2.06 290 20:39 27.10.2021
5706 Clouds 24 1015 46 8000 2.57 280 19:44 27.10.2021
5707 Clouds 26 1014 41 8000 1.54 0 18:55 27.10.2021
5708 Clouds 25 1015 44 8000 2.06 320 16:49 27.10.2021
5709 Clouds 25 1015 47 6000 2.06 340 16:24 27.10.2021
5710 Clouds 24 1016 50 6000 2.06 0 15:24 27.10.2021
5711 Clouds 21 1017 64 6000 1.54 0 13:42 27.10.2021
5712 Clouds 18 1018 82 6000 0.51 0 11:18 27.10.2021
5713 Clouds 16 1017 82 6000 1.54 260 10:36 27.10.2021
5714 Clouds 14 1017 88 6000 2.06 250 08:58 27.10.2021
5715 Clear 15 1016 88 10000 2.57 220 07:39 27.10.2021
5716 Clear 14 1016 82 10000 1.54 240 05:37 27.10.2021
5717 Clear 17 1017 77 10000 2.57 50 01:21 27.10.2021
5718 Clear 18 1017 68 10000 3.09 40 00:39 27.10.2021
5719 Clear 19 1017 63 10000 2.06 30 23:52 26.10.2021
5720 Clear 20 1017 56 10000 3.6 360 22:43 26.10.2021
5721 Clouds 21 1017 49 10000 4.12 360 22:21 26.10.2021
5722 Clouds 23 1016 43 10000 2.57 350 21:32 26.10.2021
5723 Clouds 24 1016 41 10000 2.57 320 19:34 26.10.2021
5724 Clouds 25 1016 38 8000 2.57 320 18:54 26.10.2021
5725 Clouds 25 1016 44 8000 2.06 330 17:45 26.10.2021
5726 Clouds 24 1016 53 8000 2.06 0 15:46 26.10.2021
5727 Clouds 18 1019 77 6000 1.54 320 12:33 26.10.2021
5728 Clouds 17 1019 82 6000 2.57 280 10:48 26.10.2021
5729 Clouds 16 1018 94 6000 2.06 240 08:24 26.10.2021
5730 Clouds 15 1017 94 6000 1.03 0 07:21 26.10.2021
5731 Clouds 19 1018 68 10000 3.09 270 00:19 26.10.2021
5732 Clouds 21 1017 60 10000 3.09 40 23:28 25.10.2021
5733 Clouds 23 1017 49 10000 4.12 30 22:28 25.10.2021
5734 Clouds 24 1016 43 10000 4.12 30 21:42 25.10.2021
5735 Clouds 26 1016 29 8000 3.09 30 20:28 25.10.2021
5736 Clouds 27 1016 26 8000 2.57 340 19:43 25.10.2021
5737 Clouds 28 1015 24 8000 3.09 10 19:22 25.10.2021
5738 Clouds 28 1016 28 8000 2.06 330 18:35 25.10.2021
5739 Clouds 28 1016 30 8000 1.54 0 17:26 25.10.2021
5740 Clouds 25 1017 33 8000 2.57 300 14:48 25.10.2021
5741 Clouds 24 1018 38 8000 1.54 0 12:31 25.10.2021
5742 Clear 21 1018 43 10000 2.06 120 10:46 25.10.2021
5743 Clear 17 1018 55 10000 1.03 0 08:58 25.10.2021
5744 Clear 17 1017 51 10000 1.03 0 06:28 25.10.2021
5745 Clear 17 1017 51 10000 1.03 0 06:28 25.10.2021
5746 Clear 17 1017 51 10000 1.03 0 06:28 25.10.2021
5747 Clear 18 1018 48 10000 3.09 240 04:35 25.10.2021
5748 Clear 22 1018 33 10000 2.06 80 00:51 25.10.2021
5749 Clear 22 1018 35 10000 2.57 90 00:33 25.10.2021
5750 Clear 23 1018 33 10000 1.54 80 23:33 24.10.2021
5751 Clear 24 1018 31 10000 1.03 0 22:38 24.10.2021
5752 Clear 24 1018 31 10000 1.03 0 22:19 24.10.2021
5753 Clear 25 1018 31 10000 1.03 0 20:57 24.10.2021
5754 Clear 26 1018 29 10000 1.03 0 20:32 24.10.2021
5755 Clouds 27 1018 28 10000 1.03 0 19:36 24.10.2021
5756 Clouds 28 1018 26 10000 2.57 350 18:29 24.10.2021
5757 Clouds 28 1018 28 10000 3.09 330 17:44 24.10.2021
5758 Clouds 28 1018 30 10000 1.54 0 15:56 24.10.2021
5759 Clouds 27 1019 32 10000 2.06 60 14:41 24.10.2021
5760 Clouds 23 1020 40 10000 1.54 320 12:58 24.10.2021
5761 Clouds 21 1020 46 10000 1.03 0 11:45 24.10.2021
5762 Clear 19 1019 48 10000 1.03 0 11:25 24.10.2021
5763 Clear 16 1019 59 10000 2.06 250 10:27 24.10.2021
5764 Clear 13 1017 67 10000 0.51 0 07:47 24.10.2021
5765 Clear 18 1018 39 10000 2.57 80 01:21 24.10.2021
5766 Clear 20 1018 34 10000 2.06 110 23:48 23.10.2021
5767 Clear 22 1017 33 10000 2.06 50 22:18 23.10.2021
5768 Clear 25 1016 33 10000 2.06 50 20:37 23.10.2021
5769 Clear 27 1016 32 10000 2.06 0 18:59 23.10.2021
5770 Clear 27 1015 34 10000 2.57 360 18:29 23.10.2021
5771 Clear 27 1015 36 10000 2.06 0 17:43 23.10.2021
5772 Clear 27 1015 39 10000 1.54 0 16:24 23.10.2021
5773 Clear 23 1017 53 10000 2.57 20 14:32 23.10.2021
5774 Clouds 16 1018 72 10000 3.09 70 03:34 23.10.2021
5775 Clouds 18 1018 63 10000 4.12 20 00:19 23.10.2021
5776 Clouds 19 1018 59 10000 5.14 30 22:53 22.10.2021
5777 Clouds 23 1017 53 10000 2.06 130 20:37 22.10.2021
5778 Clear 25 1017 50 10000 1.03 0 18:45 22.10.2021
5779 Clouds 24 1017 53 10000 2.57 20 17:43 22.10.2021
5780 Clouds 22 1018 60 8000 1.03 0 15:26 22.10.2021
5781 Clouds 21 1019 68 8000 1.54 0 13:52 22.10.2021
5782 Clouds 19 1019 77 8000 2.57 30 11:26 22.10.2021
5783 Clouds 19 1019 77 8000 2.57 20 10:41 22.10.2021
5784 Clouds 19 1018 77 8000 2.57 40 09:56 22.10.2021
5785 Clouds 19 1018 77 8000 2.06 90 08:36 22.10.2021
5786 Clouds 19 1018 77 8000 3.09 70 07:23 22.10.2021
5787 Clear 19 1019 77 10000 2.06 40 02:57 22.10.2021
5788 Clear 21 1020 68 10000 2.57 40 23:57 21.10.2021
5789 Clear 22 1020 64 10000 3.6 360 23:38 21.10.2021
5790 Clear 24 1019 57 10000 4.12 350 22:21 21.10.2021
5791 Clear 27 1018 36 10000 3.6 340 20:42 21.10.2021
5792 Clear 27 1018 36 10000 3.6 340 20:19 21.10.2021
5793 Clear 29 1019 32 10000 2.06 0 19:29 21.10.2021
5794 Clear 30 1018 32 10000 2.57 340 18:46 21.10.2021
5795 Clear 30 1019 32 10000 1.54 0 18:18 21.10.2021
5796 Clear 30 1019 35 10000 3.09 350 17:37 21.10.2021
5797 Clear 29 1019 34 10000 3.09 310 15:54 21.10.2021
5798 Clear 27 1020 39 10000 4.12 320 15:20 21.10.2021
5799 Clouds 26 1021 47 8000 2.57 320 14:38 21.10.2021
5800 Clouds 24 1021 57 8000 2.06 0 13:20 21.10.2021
5801 Clouds 20 1022 73 8000 1.54 290 11:27 21.10.2021
5802 Clear 16 1021 72 10000 1.54 270 08:55 21.10.2021
5803 Clear 16 1020 67 10000 2.06 250 07:29 21.10.2021
5804 Clear 19 1021 59 10000 1.54 280 03:31 21.10.2021
5805 Clear 23 1022 56 10000 3.6 220 23:31 20.10.2021
5806 Clear 26 1021 38 10000 3.09 280 22:18 20.10.2021
5807 Clear 28 1021 34 10000 3.6 300 21:38 20.10.2021
5808 Clear 29 1021 30 10000 3.6 300 20:54 20.10.2021
5809 Clear 30 1020 26 10000 3.6 300 20:33 20.10.2021
5810 Clouds 28 1019 20 10000 6.71 302 19:57 20.10.2021
5811 Clear 33 1019 21 10000 4.63 300 18:54 20.10.2021
5812 Clear 34 1020 21 10000 4.12 280 17:50 20.10.2021
5813 Clear 33 1020 24 10000 2.57 300 15:39 20.10.2021
5814 Clear 26 1021 31 10000 0.51 0 11:42 20.10.2021
5815 Clear 17 1019 55 10000 1.03 0 08:54 20.10.2021
5816 Clear 20 1019 52 10000 1.03 0 04:50 20.10.2021
5817 Clear 24 1020 43 10000 1.54 230 00:47 20.10.2021
5818 Clear 26 1020 41 10000 2.06 220 00:18 20.10.2021
5819 Clear 29 1019 28 10000 1.54 330 21:44 19.10.2021
5820 Clear 31 1018 22 10000 2.57 330 20:54 19.10.2021
5821 Clear 32 1018 20 10000 2.57 310 20:25 19.10.2021
5822 Clear 33 1017 18 10000 3.09 280 19:41 19.10.2021
5823 Clear 34 1017 17 10000 3.6 240 19:19 19.10.2021
5824 Clear 35 1017 15 10000 3.09 360 17:59 19.10.2021
5825 Clear 34 1018 16 10000 2.57 360 15:48 19.10.2021
5826 Clear 34 1018 17 10000 1.54 0 15:20 19.10.2021
5827 Clear 33 1019 24 10000 2.06 330 14:27 19.10.2021
5828 Clear 30 1019 26 10000 2.06 310 13:35 19.10.2021
5829 Clear 26 1019 27 10000 1.03 0 11:37 19.10.2021
5830 Clear 21 1019 40 10000 1.03 0 10:36 19.10.2021
5831 Clear 17 1018 45 10000 1.54 70 08:58 19.10.2021
5832 Clear 20 1018 37 10000 2.06 180 07:20 19.10.2021
5833 Clear 25 1019 36 10000 2.06 200 00:26 19.10.2021
5834 Clear 24 1019 35 10000 2.06 230 23:50 18.10.2021
5835 Clear 24 1018 33 10000 2.06 270 23:20 18.10.2021
5836 Clear 27 1018 21 10000 1.54 240 22:53 18.10.2021
5837 Clear 28 1017 18 10000 1.03 0 21:44 18.10.2021
5838 Clear 31 1017 18 10000 1.54 360 20:42 18.10.2021
5839 Clear 30 1015 14 10000 3.22 21 20:19 18.10.2021
5840 Clear 34 1016 15 10000 2.57 330 19:30 18.10.2021
5841 Clear 34 1016 16 10000 2.57 330 18:58 18.10.2021
5842 Clear 34 1017 18 10000 2.57 360 15:56 18.10.2021
5843 Clear 32 1018 22 10000 2.06 0 14:28 18.10.2021
5844 Clear 26 1019 31 10000 0.51 0 11:20 18.10.2021
5845 Clear 17 1018 48 10000 1.03 0 09:37 18.10.2021
5846 Clear 18 1018 45 10000 0 0 05:32 18.10.2021
5847 Clear 25 1019 33 10000 1.03 0 23:45 17.10.2021
5848 Clear 28 1017 24 10000 1.54 70 21:58 17.10.2021
5849 Clear 28 1017 24 10000 1.54 70 21:40 17.10.2021
5850 Clear 31 1016 20 10000 1.03 0 20:42 17.10.2021
5851 Clear 31 1016 22 10000 2.06 330 19:44 17.10.2021
5852 Clear 32 1016 20 10000 2.06 330 19:25 17.10.2021
5853 Clouds 32 1014 13 10000 3.28 335 18:28 17.10.2021
5854 Clear 32 1016 22 10000 2.57 340 15:56 17.10.2021
5855 Clouds 30 1018 26 8000 1.54 0 14:35 17.10.2021
5856 Clear 29 1018 28 8000 1.54 0 13:56 17.10.2021
5857 Clear 28 1018 32 8000 0.51 0 12:38 17.10.2021
5858 Clouds 21 1018 49 8000 1.03 0 10:59 17.10.2021
5859 Clouds 18 1018 55 8000 1.03 0 09:56 17.10.2021
5860 Clear 17 1017 55 8000 0.51 0 07:42 17.10.2021
5861 Clouds 21 1018 43 8000 0.51 0 01:44 17.10.2021
5862 Clouds 25 1018 36 8000 2.06 110 00:29 17.10.2021
5863 Clear 28 1018 23 8000 1.54 30 22:40 16.10.2021
5864 Clear 30 1017 23 8000 2.57 240 20:36 16.10.2021
5865 Clouds 31 1017 20 8000 3.09 260 19:58 16.10.2021
5866 Clouds 32 1016 18 8000 2.57 280 19:39 16.10.2021
5867 Clouds 32 1016 18 8000 2.57 280 19:18 16.10.2021
5868 Clouds 33 1016 17 8000 2.57 300 18:43 16.10.2021
5869 Clouds 33 1016 19 8000 2.57 310 18:20 16.10.2021
5870 Clouds 33 1016 19 8000 2.57 0 17:29 16.10.2021
5871 Clouds 32 1017 22 8000 2.06 0 15:39 16.10.2021
5872 Clear 28 1018 34 8000 2.06 40 12:45 16.10.2021
5873 Clear 22 1018 46 8000 1.03 0 10:57 16.10.2021
5874 Clouds 17 1018 59 8000 2.06 80 08:56 16.10.2021
5875 Clear 23 1019 43 8000 1.03 0 01:37 16.10.2021
5876 Clear 25 1019 41 8000 1.03 0 00:29 16.10.2021
5877 Clear 25 1019 38 8000 2.06 60 23:25 15.10.2021
5878 Clear 27 1018 32 8000 1.54 350 22:20 15.10.2021
5879 Clear 28 1018 30 8000 1.54 330 21:40 15.10.2021
5880 Clear 29 1017 28 8000 2.06 330 20:52 15.10.2021
5881 Clear 30 1017 28 8000 3.09 330 20:22 15.10.2021
5882 Clear 32 1016 22 8000 3.6 310 19:19 15.10.2021
5883 Clear 33 1016 21 8000 4.12 320 18:21 15.10.2021
5884 Clear 32 1017 33 8000 2.57 0 15:46 15.10.2021
5885 Clear 30 1018 42 8000 2.06 340 13:49 15.10.2021
5886 Clear 25 1018 57 8000 1.54 60 11:52 15.10.2021
5887 Clear 22 1018 64 8000 2.06 100 10:58 15.10.2021
5888 Clear 21 1018 68 8000 1.54 100 10:22 15.10.2021
5889 Clouds 18 1017 82 8000 1.03 0 07:33 15.10.2021
5890 Clouds 19 1017 77 8000 2.06 250 04:26 15.10.2021
5891 Clouds 24 1018 57 8000 1.03 0 00:22 15.10.2021
5892 Clouds 26 1017 47 8000 1.54 360 22:54 14.10.2021
5893 Clouds 26 1017 47 8000 1.54 280 22:18 14.10.2021
5894 Clear 28 1016 44 8000 3.09 220 21:37 14.10.2021
5895 Clouds 29 1015 45 8000 2.57 250 20:20 14.10.2021
5896 Clouds 29 1015 45 8000 2.57 250 19:43 14.10.2021
5897 Clouds 31 1015 40 8000 1.54 310 18:26 14.10.2021
5898 Clouds 30 1015 42 8000 2.57 0 16:58 14.10.2021
5899 Clouds 30 1015 42 8000 1.54 0 16:31 14.10.2021
5900 Clouds 27 1016 50 8000 2.06 340 14:44 14.10.2021
5901 Clouds 27 1016 54 8000 1.54 0 14:26 14.10.2021
5902 Clouds 22 1017 68 8000 1.54 0 12:35 14.10.2021
5903 Clouds 20 1017 77 8000 1.54 280 11:26 14.10.2021
5904 Clouds 18 1015 78 10000 0.91 281 08:26 14.10.2021
5905 Clouds 19 1015 71 10000 1.33 321 05:52 14.10.2021
5906 Clouds 21 1016 63 10000 0.12 329 00:36 14.10.2021
5907 Clouds 24 1015 53 8000 4.63 20 22:39 13.10.2021
5908 Clouds 25 1015 50 8000 3.6 10 21:36 13.10.2021
5909 Clouds 26 1015 47 8000 3.6 20 20:43 13.10.2021
5910 Clouds 28 1014 42 8000 4.12 50 19:20 13.10.2021
5911 Clouds 28 1014 42 8000 2.57 340 18:37 13.10.2021
5912 Clouds 28 1014 44 8000 1.03 0 16:35 13.10.2021
5913 Clouds 25 1016 53 8000 2.57 0 14:46 13.10.2021
5914 Clouds 24 1016 57 8000 1.54 360 14:23 13.10.2021
5915 Clouds 21 1017 68 8000 1.03 0 12:24 13.10.2021
5916 Clouds 19 1018 77 8000 1.03 0 11:36 13.10.2021
5917 Clear 15 1017 88 8000 2.06 250 09:37 13.10.2021
5918 Clear 15 1016 88 8000 1.54 260 07:50 13.10.2021
5919 Clear 17 1016 82 8000 3.6 240 02:58 13.10.2021
5920 Clear 18 1016 77 8000 3.09 240 02:19 13.10.2021
5921 Clear 22 1016 64 8000 3.6 350 23:33 12.10.2021
5922 Clear 23 1016 60 8000 2.06 360 22:50 12.10.2021
5923 Clear 23 1016 60 8000 2.06 360 22:50 12.10.2021
5924 Clear 23 1016 60 8000 2.57 330 22:23 12.10.2021
5925 Clear 24 1015 57 8000 2.57 270 20:50 12.10.2021
5926 Clear 25 1015 53 8000 3.6 260 20:24 12.10.2021
5927 Clear 26 1015 50 8000 4.12 260 19:31 12.10.2021
5928 Clear 28 1014 44 8000 1.54 300 18:24 12.10.2021
5929 Clouds 27 1014 47 8000 2.06 290 17:19 12.10.2021
5930 Clouds 26 1014 53 8000 2.06 320 16:20 12.10.2021
5931 Clouds 24 1015 60 6000 2.06 290 15:29 12.10.2021
5932 Clouds 20 1016 77 6000 2.06 250 13:45 12.10.2021
5933 Clouds 18 1017 88 6000 2.06 260 12:44 12.10.2021
5934 Clouds 17 1017 94 5000 2.06 270 10:45 12.10.2021
5935 Mist 16 1016 94 2000 2.06 250 09:22 12.10.2021
5936 Mist 16 1016 94 4000 1.54 260 08:19 12.10.2021
5937 Clear 16 1016 94 7000 1.54 240 06:43 12.10.2021
5938 Clear 17 1016 82 10000 2.06 250 04:35 12.10.2021
5939 Clear 19 1016 77 10000 2.57 240 01:31 12.10.2021
5940 Clouds 21 1016 64 10000 3.6 240 23:42 11.10.2021
5941 Clouds 22 1016 60 10000 3.6 240 23:19 11.10.2021
5942 Clouds 23 1015 56 10000 4.12 260 22:31 11.10.2021
5943 Clouds 26 1014 53 10000 3.6 310 21:20 11.10.2021
5944 Clouds 30 1012 39 10000 7.72 270 19:46 11.10.2021
5945 Clouds 31 1012 37 10000 6.69 270 19:22 11.10.2021
5946 Clouds 33 1011 31 10000 6.17 290 18:20 11.10.2021
5947 Clouds 32 1011 37 10000 3.6 300 16:40 11.10.2021
5948 Clouds 31 1011 37 10000 3.6 300 16:19 11.10.2021
5949 Clouds 31 1012 37 8000 3.6 300 15:40 11.10.2021
5950 Clouds 30 1012 42 8000 2.57 310 14:53 11.10.2021
5951 Clouds 28 1013 47 8000 1.54 0 13:51 11.10.2021
5952 Clouds 27 1013 50 8000 1.03 0 13:32 11.10.2021
5953 Clouds 21 1013 68 8000 1.54 250 10:49 11.10.2021
5954 Clouds 20 1012 73 10000 0.51 0 09:45 11.10.2021
5955 Clear 20 1012 73 10000 1.54 0 07:56 11.10.2021
5956 Clear 22 1013 64 10000 2.06 260 01:43 11.10.2021
5957 Clear 23 1014 60 10000 2.06 260 00:55 11.10.2021
5958 Clear 23 1014 60 10000 2.57 250 00:33 11.10.2021
5959 Clear 28 1013 39 10000 2.57 10 22:25 10.10.2021
5960 Clear 30 1012 35 10000 2.57 360 21:36 10.10.2021
5961 Clear 30 1012 35 10000 2.57 350 20:56 10.10.2021
5962 Clear 32 1011 29 10000 3.09 340 20:36 10.10.2021
5963 Clear 33 1011 27 10000 3.09 320 20:18 10.10.2021
5964 Clear 34 1011 26 10000 2.57 290 19:40 10.10.2021
5965 Clear 34 1011 26 10000 2.06 310 18:41 10.10.2021
5966 Clear 34 1011 26 10000 3.09 320 17:50 10.10.2021
5967 Clear 33 1012 33 10000 1.54 0 15:47 10.10.2021
5968 Clear 30 1012 37 10000 2.06 360 14:45 10.10.2021
5969 Clear 27 1014 47 10000 2.06 340 13:39 10.10.2021
5970 Clear 27 1014 47 10000 1.03 0 12:43 10.10.2021
5971 Clear 23 1014 60 10000 0.51 0 11:29 10.10.2021
5972 Clear 23 1014 60 10000 0.51 0 11:29 10.10.2021
5973 Clear 19 1014 72 10000 1.54 260 10:25 10.10.2021
5974 Clear 17 1013 67 10000 2.57 240 08:54 10.10.2021
5975 Clear 17 1013 72 10000 1.54 250 07:57 10.10.2021
5976 Clear 21 1014 60 10000 1.54 80 03:47 10.10.2021
5977 Clear 23 1015 56 10000 2.57 80 01:43 10.10.2021
5978 Clear 23 1015 56 10000 1.54 50 00:41 10.10.2021
5979 Clear 23 1015 56 10000 1.54 50 00:41 10.10.2021
5980 Clear 25 1015 53 10000 3.6 30 23:23 09.10.2021
5981 Clear 28 1014 24 10000 2.06 40 21:53 09.10.2021
5982 Clear 29 1014 24 10000 2.06 30 21:29 09.10.2021
5983 Clear 31 1014 25 10000 2.57 10 19:52 09.10.2021
5984 Clear 32 1014 25 10000 1.03 0 19:34 09.10.2021
5985 Clear 33 1014 24 10000 2.57 0 18:40 09.10.2021
5986 Clear 32 1014 27 10000 3.09 10 17:51 09.10.2021
5987 Clear 32 1014 33 10000 1.54 90 16:19 09.10.2021
5988 Clouds 27 1016 50 8000 2.06 320 13:48 09.10.2021
5989 Clouds 26 1017 53 6000 2.06 0 13:25 09.10.2021
5990 Clouds 23 1017 68 6000 0.51 0 12:23 09.10.2021
5991 Clouds 19 1017 88 3000 1.03 0 10:43 09.10.2021
5992 Clouds 17 1016 88 3000 1.54 250 10:18 09.10.2021
5993 Clouds 16 1015 77 8000 2.06 270 08:33 09.10.2021
5994 Clouds 16 1015 82 8000 1.54 290 07:54 09.10.2021
5995 Clear 18 1015 82 8000 1.03 0 06:22 09.10.2021
5996 Clear 18 1016 77 8000 1.54 240 04:31 09.10.2021
5997 Clear 20 1016 68 10000 2.57 240 02:44 09.10.2021
5998 Clear 23 1017 64 10000 1.54 30 00:23 09.10.2021
5999 Clear 24 1017 57 10000 3.09 40 23:31 08.10.2021
6000 Clear 25 1016 53 10000 3.09 10 22:42 08.10.2021
6001 Clear 27 1016 36 10000 2.06 10 21:44 08.10.2021
6002 Clear 30 1015 35 10000 4.12 260 19:47 08.10.2021
6003 Clear 31 1015 35 10000 3.09 330 18:19 08.10.2021
6004 Clear 31 1015 35 10000 2.57 320 16:54 08.10.2021
6005 Clear 31 1015 37 10000 1.54 0 16:24 08.10.2021
6006 Clear 26 1017 53 10000 2.57 310 14:20 08.10.2021
6007 Clear 26 1018 53 10000 2.57 300 13:45 08.10.2021
6008 Clear 20 1018 77 8000 2.06 290 11:41 08.10.2021
6009 Clouds 18 1018 82 8000 2.57 260 10:42 08.10.2021
6010 Clouds 16 1017 88 6000 1.03 0 09:46 08.10.2021
6011 Clear 18 1017 68 10000 1.54 250 03:37 08.10.2021
6012 Clear 23 1017 43 10000 4.12 230 23:24 07.10.2021
6013 Clear 27 1017 34 8000 3.6 290 21:48 07.10.2021
6014 Clouds 29 1016 28 8000 3.09 310 21:28 07.10.2021
6015 Clear 29 1016 28 8000 3.09 310 21:28 07.10.2021
6016 Clear 31 1016 25 8000 3.09 330 20:29 07.10.2021
6017 Clear 33 1016 21 10000 5.14 270 19:32 07.10.2021
6018 Clear 34 1016 17 10000 3.6 290 18:40 07.10.2021
6019 Clear 35 1016 18 10000 4.12 290 17:27 07.10.2021
6020 Clear 34 1016 22 10000 2.57 0 15:58 07.10.2021
6021 Clear 33 1017 24 10000 2.57 0 14:48 07.10.2021
6022 Clear 31 1018 25 10000 2.57 330 13:43 07.10.2021
6023 Clear 28 1018 32 10000 1.54 360 12:49 07.10.2021
6024 Clouds 24 1018 43 10000 1.54 60 10:57 07.10.2021
6025 Clouds 22 1018 49 10000 1.03 0 10:22 07.10.2021
6026 Clouds 18 1018 63 10000 1.54 90 09:34 07.10.2021
6027 Clear 18 1018 59 10000 3.09 100 08:53 07.10.2021
6028 Clear 19 1018 55 10000 1.03 0 07:57 07.10.2021
6029 Clear 18 1017 55 10000 0.51 0 07:37 07.10.2021
6030 Clear 21 1018 49 10000 1.54 180 06:36 07.10.2021
6031 Clear 24 1018 43 10000 4.12 250 00:29 07.10.2021
6032 Clear 27 1018 36 10000 3.09 230 22:59 06.10.2021
6033 Clear 27 1018 34 10000 3.09 250 22:24 06.10.2021
6034 Clear 32 1017 22 10000 2.57 310 20:51 06.10.2021
6035 Clear 33 1017 21 10000 3.6 290 20:26 06.10.2021
6036 Clear 36 1016 15 10000 5.66 280 18:43 06.10.2021
6037 Clear 36 1016 15 10000 4.63 300 17:19 06.10.2021
6038 Clear 35 1016 20 10000 3.09 340 15:34 06.10.2021
6039 Clear 33 1017 22 10000 1.03 0 14:34 06.10.2021
6040 Clear 30 1018 28 10000 1.54 0 13:24 06.10.2021
6041 Clear 27 1019 34 10000 1.03 0 12:45 06.10.2021
6042 Clear 27 1019 34 10000 1.03 0 12:23 06.10.2021
6043 Clear 21 1018 46 10000 0.51 0 10:37 06.10.2021
6044 Clear 18 1018 55 10000 1.03 0 09:39 06.10.2021
6045 Clear 17 1017 59 10000 1.54 130 08:57 06.10.2021
6046 Clear 17 1017 55 10000 0.51 0 07:54 06.10.2021
6047 Clear 20 1017 49 10000 0.51 0 05:37 06.10.2021
6048 Clear 23 1018 43 10000 1.54 80 01:37 06.10.2021
6049 Clear 25 1019 38 10000 2.06 60 00:20 06.10.2021
6050 Clear 25 1019 38 10000 2.06 60 23:50 05.10.2021
6051 Clear 26 1019 36 10000 1.54 50 23:29 05.10.2021
6052 Clear 27 1018 34 10000 2.57 10 22:30 05.10.2021
6053 Clear 28 1018 30 10000 2.06 300 21:51 05.10.2021
6054 Clear 29 1017 28 10000 1.03 0 20:51 05.10.2021
6055 Clear 30 1017 26 10000 1.03 0 20:25 05.10.2021
6056 Clear 32 1017 23 10000 1.03 0 19:50 05.10.2021
6057 Clear 32 1017 23 10000 1.54 290 19:21 05.10.2021
6058 Clear 32 1017 25 10000 2.57 0 17:40 05.10.2021
6059 Clear 30 1018 23 10000 2.57 300 15:27 05.10.2021
6060 Clear 27 1018 34 10000 2.06 10 13:44 05.10.2021
6061 Clear 25 1019 38 10000 2.06 70 12:57 05.10.2021
6062 Clear 23 1019 40 10000 3.09 90 12:33 05.10.2021
6063 Clear 20 1019 49 10000 1.54 50 11:22 05.10.2021
6064 Clear 17 1019 63 8000 0.51 0 10:21 05.10.2021
6065 Clear 18 1017 55 8000 2.06 80 05:56 05.10.2021
6066 Clouds 22 1019 49 8000 2.57 40 00:58 05.10.2021
6067 Clear 24 1018 43 10000 5.14 30 22:51 04.10.2021
6068 Clear 27 1016 41 10000 2.57 20 20:51 04.10.2021
6069 Clear 30 1016 32 10000 2.57 40 18:47 04.10.2021
6070 Clear 29 1017 37 10000 3.6 40 16:55 04.10.2021
6071 Clear 27 1018 41 10000 2.06 0 15:32 04.10.2021
6072 Clear 26 1018 47 10000 3.6 0 14:44 04.10.2021
6073 Clear 26 1019 47 10000 3.09 30 13:58 04.10.2021
6074 Clear 24 1019 53 10000 2.06 0 13:31 04.10.2021
6075 Clear 23 1020 56 10000 2.06 0 12:31 04.10.2021
6076 Clear 21 1020 64 10000 2.06 60 11:32 04.10.2021
6077 Clear 19 1019 72 10000 2.06 40 10:41 04.10.2021
6078 Clear 17 1018 77 10000 1.54 50 09:33 04.10.2021
6079 Clear 17 1018 77 10000 1.03 0 07:52 04.10.2021
6080 Clear 19 1019 68 10000 2.57 110 03:44 04.10.2021
6081 Clear 22 1020 60 10000 3.6 30 22:48 03.10.2021
6082 Clear 23 1019 56 10000 4.63 0 21:52 03.10.2021
6083 Clouds 24 1019 53 10000 4.12 10 21:29 03.10.2021
6084 Clouds 27 1017 36 10000 4.12 360 20:43 03.10.2021
6085 Clouds 29 1016 30 10000 1.54 330 19:33 03.10.2021
6086 Clouds 29 1016 32 10000 1.03 0 18:28 03.10.2021
6087 Clear 29 1017 34 10000 1.03 0 17:31 03.10.2021
6088 Clear 26 1019 47 10000 2.06 0 14:49 03.10.2021
6089 Clear 26 1019 50 10000 2.57 320 14:28 03.10.2021
6090 Clear 24 1019 53 10000 1.54 0 13:35 03.10.2021
6091 Clear 23 1019 60 10000 1.54 320 12:43 03.10.2021
6092 Clouds 17 1019 88 8000 2.06 280 10:57 03.10.2021
6093 Clouds 16 1018 94 6000 1.54 0 09:42 03.10.2021
6094 Clear 18 1017 63 10000 3.09 260 05:25 03.10.2021
6095 Clear 28 1017 36 10000 2.06 20 22:49 02.10.2021
6096 Clear 31 1016 22 10000 2.06 350 21:35 02.10.2021
6097 Clear 34 1015 17 10000 2.57 350 20:18 02.10.2021
6098 Clear 36 1015 14 10000 4.12 350 18:56 02.10.2021
6099 Clear 37 1015 12 10000 3.09 320 18:18 02.10.2021
6100 Clear 38 1015 13 10000 3.09 310 17:36 02.10.2021
6101 Clear 37 1016 14 10000 2.57 310 16:22 02.10.2021
6102 Clouds 21 1018 46 8000 1.03 0 06:39 02.10.2021
6103 Clouds 40 1018 13 8000 3.09 350 15:37 30.09.2021
6104 Clear 37 1020 22 8000 2.06 0 13:53 30.09.2021
6105 Clear 31 1021 33 8000 1.54 40 11:42 30.09.2021
6106 Clear 27 1020 41 8000 1.54 80 10:46 30.09.2021
6107 Clear 22 1020 53 8000 1.54 90 09:44 30.09.2021
6108 Clouds 21 1019 56 8000 1.54 110 08:30 30.09.2021
6109 Clouds 21 1019 56 8000 2.06 130 07:34 30.09.2021
6110 Clouds 22 1019 60 8000 2.06 90 05:18 30.09.2021
6111 Clouds 25 1020 53 10000 1.54 110 01:20 30.09.2021
6112 Clouds 26 1020 53 10000 1.54 20 00:23 30.09.2021
6113 Clouds 29 1019 45 10000 2.06 20 22:37 29.09.2021
6114 Clouds 32 1018 29 10000 0.51 0 21:24 29.09.2021
6115 Clouds 33 1018 29 10000 1.03 0 20:27 29.09.2021
6116 Clouds 34 1018 27 10000 1.54 360 19:51 29.09.2021
6117 Clouds 35 1017 28 10000 1.03 0 18:45 29.09.2021
6118 Clouds 35 1017 31 10000 2.06 250 17:38 29.09.2021
6119 Clouds 34 1018 31 10000 2.06 260 16:47 29.09.2021
6120 Clouds 31 1018 40 10000 2.57 0 15:58 29.09.2021
6121 Clear 29 1019 42 10000 3.09 60 14:39 29.09.2021
6122 Clear 28 1019 44 10000 2.57 0 13:42 29.09.2021
6123 Clear 26 1020 50 10000 2.06 60 12:58 29.09.2021
6124 Clear 23 1021 60 10000 1.54 0 11:55 29.09.2021
6125 Clear 21 1021 68 10000 1.54 90 10:47 29.09.2021
6126 Clear 20 1020 68 10000 1.03 0 09:50 29.09.2021
6127 Clear 16 1020 77 10000 1.03 0 09:18 29.09.2021
6128 Clear 18 1020 77 10000 0.51 0 07:31 29.09.2021
6129 Clear 20 1020 64 10000 1.03 0 03:58 29.09.2021
6130 Clear 24 1021 46 10000 4.12 20 23:26 28.09.2021
6131 Clouds 27 1020 34 10000 2.06 40 22:23 28.09.2021
6132 Clouds 28 1020 34 10000 2.57 10 21:37 28.09.2021
6133 Clouds 29 1020 34 10000 1.03 0 20:36 28.09.2021
6134 Clear 30 1018 21 10000 5.12 8 19:43 28.09.2021
6135 Clouds 30 1019 37 10000 2.06 0 18:46 28.09.2021
6136 Clouds 29 1020 45 10000 4.09 350 17:54 28.09.2021
6137 Clouds 26 1021 53 10000 1.03 0 15:56 28.09.2021
6138 Clouds 22 1023 68 10000 2.06 230 13:44 28.09.2021
6139 Clouds 20 1023 83 8000 1.03 0 12:48 28.09.2021
6140 Clouds 18 1023 88 8000 1.54 150 12:19 28.09.2021
6141 Clouds 18 1023 88 8000 1.54 150 11:45 28.09.2021
6142 Clouds 18 1023 88 8000 1.03 0 10:57 28.09.2021
6143 Clouds 17 1022 94 8000 1.03 0 09:53 28.09.2021
6144 Clouds 17 1022 88 8000 1.54 270 08:58 28.09.2021
6145 Clouds 16 1021 94 8000 1.54 250 08:38 28.09.2021
6146 Clouds 16 1021 94 8000 3.09 240 07:31 28.09.2021
6147 Clear 17 1021 88 10000 3.6 240 05:28 28.09.2021
6148 Clear 23 1021 60 10000 4.12 240 01:23 28.09.2021
6149 Clear 24 1021 57 10000 4.63 240 00:25 28.09.2021
6150 Clear 25 1021 53 10000 4.12 240 23:41 27.09.2021
6151 Clear 26 1021 47 10000 3.09 250 22:55 27.09.2021
6152 Clear 29 1020 32 10000 2.06 250 21:54 27.09.2021
6153 Clear 31 1020 30 10000 2.57 240 20:44 27.09.2021
6154 Clouds 34 1020 24 10000 5.66 260 19:55 27.09.2021
6155 Clouds 35 1019 21 10000 4.63 280 19:28 27.09.2021
6156 Clouds 35 1019 21 10000 4.63 290 18:50 27.09.2021
6157 Clouds 35 1020 21 10000 4.63 270 17:29 27.09.2021
6158 Clouds 35 1020 21 10000 4.63 270 16:50 27.09.2021
6159 Clear 34 1020 26 10000 3.6 300 15:45 27.09.2021
6160 Clear 33 1021 27 10000 3.09 310 15:18 27.09.2021
6161 Clear 29 1021 42 10000 2.06 340 13:32 27.09.2021
6162 Clear 26 1021 47 10000 1.54 300 11:49 27.09.2021
6163 Clear 24 1021 53 10000 0.51 0 10:37 27.09.2021
6164 Clear 18 1021 72 10000 1.03 0 08:59 27.09.2021
6165 Clear 20 1021 64 10000 1.54 250 05:22 27.09.2021
6166 Clear 21 1021 56 10000 2.06 260 03:21 27.09.2021
6167 Clear 28 1019 24 10000 1.03 0 22:38 26.09.2021
6168 Clear 29 1019 24 10000 1.54 250 21:53 26.09.2021
6169 Clear 30 1019 23 10000 3.09 250 21:25 26.09.2021
6170 Clear 34 1018 17 10000 1.54 290 20:23 26.09.2021
6171 Clear 35 1018 17 10000 1.03 0 19:52 26.09.2021
6172 Clear 36 1018 17 10000 1.54 0 18:47 26.09.2021
6173 Clear 36 1018 16 10000 1.03 0 17:57 26.09.2021
6174 Clear 35 1019 14 10000 2.57 0 17:24 26.09.2021
6175 Clear 35 1019 17 10000 2.06 20 16:58 26.09.2021
6176 Clear 35 1019 18 10000 1.54 0 16:21 26.09.2021
6177 Clear 34 1019 20 10000 2.06 10 15:22 26.09.2021
6178 Clear 31 1020 35 10000 2.06 0 13:57 26.09.2021
6179 Clear 29 1021 37 10000 2.57 30 13:29 26.09.2021
6180 Clear 27 1021 47 10000 1.54 70 12:25 26.09.2021
6181 Clear 25 1021 50 10000 2.06 80 11:51 26.09.2021
6182 Clear 21 1021 60 10000 2.57 90 10:38 26.09.2021
6183 Clear 17 1020 72 10000 2.06 80 09:21 26.09.2021
6184 Clear 19 1020 68 10000 2.06 160 07:57 26.09.2021
6185 Clear 24 1020 53 10000 2.57 30 00:28 26.09.2021
6186 Clear 26 1019 41 10000 4.12 10 23:40 25.09.2021
6187 Clear 28 1019 34 10000 2.57 20 22:38 25.09.2021
6188 Clear 28 1019 34 10000 2.57 20 22:18 25.09.2021
6189 Clear 29 1018 34 10000 2.06 330 21:33 25.09.2021
6190 Clear 29 1018 34 10000 2.06 330 21:33 25.09.2021
6191 Clear 29 1018 34 10000 2.57 320 20:51 25.09.2021
6192 Clear 31 1017 33 10000 2.57 340 19:32 25.09.2021
6193 Clear 31 1017 33 10000 3.09 310 18:26 25.09.2021
6194 Clear 31 1017 35 10000 2.06 350 17:18 25.09.2021
6195 Clear 27 1019 47 10000 2.06 0 14:25 25.09.2021
6196 Clear 25 1019 50 10000 2.06 0 13:54 25.09.2021
6197 Clear 23 1019 56 10000 2.57 10 12:29 25.09.2021
6198 Clear 21 1019 64 10000 0.51 0 10:36 25.09.2021
6199 Clear 18 1019 72 10000 2.06 170 09:56 25.09.2021
6200 Clear 17 1019 77 10000 2.57 220 08:45 25.09.2021
6201 Clear 17 1018 77 10000 2.06 230 07:27 25.09.2021
6202 Clouds 21 1018 56 10000 3.09 310 00:50 25.09.2021
6203 Clouds 21 1018 56 10000 3.09 310 00:50 25.09.2021
6204 Clouds 26 1017 44 10000 3.09 290 21:57 24.09.2021
6205 Clouds 26 1017 44 10000 3.09 310 21:25 24.09.2021
6206 Clouds 27 1016 44 10000 2.06 300 20:19 24.09.2021
6207 Clouds 27 1016 47 10000 5.14 280 18:36 24.09.2021
6208 Clouds 28 1016 47 10000 4.12 290 17:56 24.09.2021
6209 Clouds 27 1015 47 10000 4.12 310 17:37 24.09.2021
6210 Clouds 28 1015 47 10000 5.66 290 17:19 24.09.2021
6211 Clouds 28 1015 44 10000 4.63 300 15:38 24.09.2021
6212 Clouds 26 1016 50 10000 1.54 110 13:20 24.09.2021
6213 Clouds 25 1016 57 10000 1.54 0 12:41 24.09.2021
6214 Clouds 24 1016 57 10000 2.06 190 12:23 24.09.2021
6215 Clouds 20 1016 77 8000 1.03 0 10:38 24.09.2021
6216 Clouds 19 1015 82 8000 2.57 240 08:59 24.09.2021
6217 Clouds 19 1015 82 8000 3.09 240 07:55 24.09.2021
6218 Clouds 19 1014 77 8000 3.09 240 06:51 24.09.2021
6219 Clouds 19 1014 77 8000 3.09 250 05:22 24.09.2021
6220 Clear 21 1015 68 10000 3.6 270 00:48 24.09.2021
6221 Clouds 25 1013 47 10000 2.06 260 22:36 23.09.2021
6222 Clouds 27 1013 44 10000 2.57 270 21:57 23.09.2021
6223 Clouds 28 1013 39 10000 3.6 270 20:37 23.09.2021
6224 Clouds 28 1013 39 10000 3.6 270 20:19 23.09.2021
6225 Clouds 30 1013 39 8000 1.03 0 18:27 23.09.2021
6226 Clouds 27 1013 50 8000 2.06 0 15:37 23.09.2021
6227 Clouds 27 1013 50 8000 2.06 0 15:18 23.09.2021
6228 Clouds 25 1014 57 8000 1.54 0 13:57 23.09.2021
6229 Clouds 26 1014 61 8000 0.51 0 13:23 23.09.2021
6230 Clouds 24 1014 60 8000 1.03 0 12:53 23.09.2021
6231 Clouds 22 1015 73 8000 2.57 300 12:23 23.09.2021
6232 Clouds 22 1014 68 8000 2.06 310 11:55 23.09.2021
6233 Clouds 21 1014 78 8000 1.54 0 10:28 23.09.2021
6234 Clouds 20 1013 83 10000 2.06 250 09:53 23.09.2021
6235 Clear 18 1013 88 10000 2.57 230 08:38 23.09.2021
6236 Clear 19 1013 82 10000 3.09 240 05:27 23.09.2021
6237 Clear 23 1014 60 10000 3.09 350 23:48 22.09.2021
6238 Clouds 26 1012 44 10000 5.14 340 22:44 22.09.2021
6239 Clouds 28 1012 32 10000 2.57 350 21:57 22.09.2021
6240 Clouds 28 1012 32 10000 3.09 340 21:34 22.09.2021
6241 Clouds 28 1012 34 10000 3.09 350 20:57 22.09.2021
6242 Clear 30 1012 30 10000 2.57 0 19:34 22.09.2021
6243 Clear 31 1012 33 10000 2.06 0 18:46 22.09.2021
6244 Clear 31 1012 33 10000 3.09 0 18:22 22.09.2021
6245 Clouds 30 1010 29 10000 3.79 313 16:41 22.09.2021
6246 Clouds 30 1011 32 10000 3.36 313 15:38 22.09.2021
6247 Clouds 27 1014 47 8000 2.06 340 14:25 22.09.2021
6248 Clouds 24 1015 69 7000 1.03 0 12:19 22.09.2021
6249 Clouds 21 1014 83 6000 1.03 0 10:57 22.09.2021
6250 Mist 17 1014 94 2000 2.06 250 09:29 22.09.2021
6251 Mist 18 1014 88 4000 2.06 250 08:31 22.09.2021
6252 Clear 18 1013 88 10000 1.54 260 07:25 22.09.2021
6253 Clear 18 1013 88 10000 2.57 240 06:19 22.09.2021
6254 Clear 18 1013 88 10000 3.6 230 05:38 22.09.2021
6255 Clear 19 1014 82 10000 2.57 250 03:52 22.09.2021
6256 Clear 21 1015 73 10000 3.6 240 02:43 22.09.2021
6257 Clouds 25 1015 57 10000 3.09 340 23:30 21.09.2021
6258 Clear 29 1013 34 10000 2.57 320 21:38 21.09.2021
6259 Clear 30 1011 24 10000 3.72 329 20:27 21.09.2021
6260 Clear 31 1012 30 10000 2.57 310 19:23 21.09.2021
6261 Clear 31 1011 23 10000 3.74 328 17:59 21.09.2021
6262 Clear 29 1013 39 10000 3.09 310 16:40 21.09.2021
6263 Clear 29 1014 42 10000 2.57 0 15:56 21.09.2021
6264 Clear 28 1015 44 10000 2.06 350 14:58 21.09.2021
6265 Clear 26 1015 53 8000 2.57 360 13:57 21.09.2021
6266 Clear 25 1016 61 8000 2.06 290 13:39 21.09.2021
6267 Clear 22 1016 73 8000 2.06 0 12:44 21.09.2021
6268 Mist 17 1015 94 2000 2.06 250 10:39 21.09.2021
6269 Clear 17 1015 88 8000 2.57 250 08:41 21.09.2021
6270 Clear 18 1015 82 10000 3.09 240 07:37 21.09.2021
6271 Clear 22 1018 56 10000 1.03 0 01:52 21.09.2021
6272 Clear 26 1017 44 10000 4.63 10 22:42 20.09.2021
6273 Clear 28 1016 39 10000 5.14 360 21:42 20.09.2021
6274 Clear 29 1016 32 10000 3.6 360 21:20 20.09.2021
6275 Clouds 32 1015 27 10000 2.06 20 19:46 20.09.2021
6276 Clouds 33 1016 29 10000 2.06 40 17:54 20.09.2021
6277 Clouds 32 1016 29 10000 1.54 0 16:57 20.09.2021
6278 Clouds 30 1017 35 10000 3.09 340 15:57 20.09.2021
6279 Clouds 30 1017 37 10000 2.06 0 15:33 20.09.2021
6280 Clouds 27 1018 47 10000 2.06 0 14:26 20.09.2021
6281 Clouds 24 1019 60 8000 1.54 0 12:44 20.09.2021
6282 Clouds 23 1019 68 8000 1.54 0 12:21 20.09.2021
6283 Clouds 22 1019 73 8000 1.54 270 12:21 20.09.2021
6284 Clouds 18 1019 88 6000 3.6 230 10:36 20.09.2021
6285 Clouds 17 1019 94 8000 3.09 260 09:48 20.09.2021
6286 Clouds 17 1019 94 8000 3.09 260 09:29 20.09.2021
6287 Clear 17 1018 88 8000 2.57 240 08:34 20.09.2021
6288 Clouds 22 1018 56 10000 2.06 80 02:29 20.09.2021
6289 Clouds 25 1018 50 10000 4.12 360 22:57 19.09.2021
6290 Clouds 27 1017 44 10000 2.57 10 21:48 19.09.2021
6291 Clouds 27 1017 44 10000 2.57 320 20:59 19.09.2021
6292 Clouds 28 1016 42 10000 3.6 340 19:54 19.09.2021
6293 Clouds 28 1016 44 10000 2.06 10 18:42 19.09.2021
6294 Clouds 28 1016 44 10000 2.57 340 17:33 19.09.2021
6295 Clouds 28 1016 47 10000 3.09 320 16:33 19.09.2021
6296 Clouds 27 1017 54 10000 3.09 0 15:31 19.09.2021
6297 Clouds 26 1017 53 10000 2.57 330 14:49 19.09.2021
6298 Clouds 26 1018 57 10000 2.06 0 13:52 19.09.2021
6299 Clouds 24 1018 64 10000 1.54 310 12:55 19.09.2021
6300 Clouds 23 1018 73 10000 1.54 230 11:46 19.09.2021
6301 Clouds 23 1018 73 10000 1.54 200 11:22 19.09.2021
6302 Clouds 19 1018 82 10000 2.06 250 09:51 19.09.2021
6303 Clear 18 1018 88 10000 2.57 240 09:23 19.09.2021
6304 Clear 19 1017 82 10000 2.57 240 06:48 19.09.2021
6305 Clear 19 1017 82 10000 2.57 240 06:48 19.09.2021
6306 Clear 24 1017 64 10000 3.09 40 00:48 19.09.2021
6307 Clear 26 1016 53 10000 5.14 20 22:58 18.09.2021
6308 Clouds 28 1015 44 10000 5.66 360 21:56 18.09.2021
6309 Clouds 31 1014 37 10000 4.12 350 20:46 18.09.2021
6310 Clouds 32 1014 35 10000 2.57 360 19:42 18.09.2021
6311 Clouds 33 1014 35 10000 1.03 0 19:22 18.09.2021
6312 Clouds 33 1014 35 10000 3.09 360 18:58 18.09.2021
6313 Clouds 33 1014 35 10000 2.06 60 18:29 18.09.2021
6314 Clear 31 1015 40 10000 3.6 330 16:35 18.09.2021
6315 Clear 27 1017 54 10000 2.06 0 13:53 18.09.2021
6316 Clear 27 1017 54 10000 1.54 0 13:31 18.09.2021
6317 Clear 26 1017 57 10000 1.54 0 12:52 18.09.2021
6318 Clear 24 1017 64 10000 1.03 0 11:59 18.09.2021
6319 Clear 24 1017 64 10000 1.54 160 11:29 18.09.2021
6320 Clear 20 1017 77 10000 1.54 250 10:23 18.09.2021
6321 Clear 18 1016 82 10000 2.06 240 09:23 18.09.2021
6322 Clear 18 1016 82 10000 2.57 240 08:24 18.09.2021
6323 Clear 23 1016 54 10000 3.37 36 00:52 18.09.2021
6324 Clear 23 1016 52 10000 4.6 34 23:55 17.09.2021
6325 Clear 24 1015 48 10000 7.32 17 22:45 17.09.2021
6326 Clouds 27 1015 47 10000 4.63 360 22:22 17.09.2021
6327 Clouds 28 1014 44 10000 6.17 360 21:31 17.09.2021
6328 Clouds 32 1014 35 10000 2.57 40 19:30 17.09.2021
6329 Clouds 32 1014 37 10000 2.57 110 18:30 17.09.2021
6330 Clouds 31 1015 40 10000 2.57 0 16:34 17.09.2021
6331 Clear 28 1016 51 8000 2.57 340 14:34 17.09.2021
6332 Clear 24 1017 64 8000 1.03 0 11:43 17.09.2021
6333 Clear 19 1017 77 8000 1.54 250 09:57 17.09.2021
6334 Clear 19 1016 77 10000 0.51 0 07:42 17.09.2021
6335 Clear 20 1016 73 10000 1.03 0 05:27 17.09.2021
6336 Clouds 23 1018 60 10000 4.12 70 00:29 17.09.2021
6337 Clouds 24 1018 57 10000 6.17 30 22:41 16.09.2021
6338 Clouds 25 1017 53 10000 6.69 20 22:23 16.09.2021
6339 Clouds 27 1016 47 10000 7.2 350 21:31 16.09.2021
6340 Clouds 29 1015 37 10000 2.57 360 20:29 16.09.2021
6341 Clouds 31 1015 35 10000 3.09 0 18:38 16.09.2021
6342 Clouds 31 1015 35 10000 3.09 0 18:18 16.09.2021
6343 Clouds 29 1016 42 10000 3.09 70 15:33 16.09.2021
6344 Clouds 28 1017 44 10000 3.6 40 14:43 16.09.2021
6345 Clouds 26 1018 53 10000 2.06 350 13:23 16.09.2021
6346 Clouds 25 1018 57 8000 1.54 0 12:40 16.09.2021
6347 Clouds 24 1018 64 8000 2.06 30 11:46 16.09.2021
6348 Clouds 22 1018 68 8000 2.06 20 10:51 16.09.2021
6349 Clouds 21 1018 73 8000 2.06 30 10:21 16.09.2021
6350 Clouds 21 1017 73 8000 1.03 0 09:18 16.09.2021
6351 Clouds 20 1017 77 8000 2.06 30 07:47 16.09.2021
6352 Clouds 20 1016 77 8000 2.57 10 06:56 16.09.2021
6353 Clouds 21 1016 73 8000 2.57 30 06:37 16.09.2021
6354 Clouds 22 1018 68 8000 2.57 30 03:22 16.09.2021
6355 Clouds 22 1018 64 10000 4.12 30 00:46 16.09.2021
6356 Clouds 24 1017 57 10000 4.63 360 22:59 15.09.2021
6357 Clouds 25 1017 53 10000 4.12 350 22:20 15.09.2021
6358 Clouds 26 1016 50 10000 5.14 340 21:30 15.09.2021
6359 Clouds 28 1015 42 10000 4.12 360 20:26 15.09.2021
6360 Clouds 29 1016 34 10000 3.09 340 19:31 15.09.2021
6361 Clouds 30 1015 32 10000 3.09 300 18:37 15.09.2021
6362 Clouds 30 1016 35 10000 2.57 0 17:33 15.09.2021
6363 Clouds 29 1016 39 10000 3.6 250 16:28 15.09.2021
6364 Clouds 28 1017 44 10000 1.54 0 14:53 15.09.2021
6365 Clouds 27 1017 47 10000 1.54 0 14:33 15.09.2021
6366 Clouds 26 1018 50 10000 2.06 20 13:42 15.09.2021
6367 Clouds 26 1018 53 10000 1.54 310 13:23 15.09.2021
6368 Clouds 25 1018 61 10000 1.03 0 12:23 15.09.2021
6369 Clouds 25 1018 61 10000 1.03 0 11:49 15.09.2021
6370 Clouds 22 1017 68 10000 1.54 30 10:57 15.09.2021
6371 Clouds 22 1017 68 10000 0.51 0 09:44 15.09.2021
6372 Clouds 19 1017 77 10000 1.03 0 08:41 15.09.2021
6373 Clouds 19 1016 77 10000 1.54 270 06:28 15.09.2021
6374 Clouds 22 1017 64 10000 4.63 300 00:37 15.09.2021
6375 Clouds 24 1015 57 8000 4.63 280 21:59 14.09.2021
6376 Clouds 25 1015 57 8000 6.17 290 20:56 14.09.2021
6377 Clouds 27 1014 47 8000 6.17 280 19:54 14.09.2021
6378 Clouds 29 1013 48 8000 5.66 310 18:40 14.09.2021
6379 Clouds 29 1013 48 8000 3.09 320 17:29 14.09.2021
6380 Clouds 28 1013 51 10000 3.09 0 15:58 14.09.2021
6381 Clouds 27 1014 50 10000 3.09 320 14:32 14.09.2021
6382 Clouds 26 1014 53 8000 2.06 0 13:26 14.09.2021
6383 Clouds 22 1014 73 8000 3.09 290 10:57 14.09.2021
6384 Clouds 21 1014 83 8000 3.09 230 09:51 14.09.2021
6385 Clouds 21 1014 83 8000 2.57 240 09:18 14.09.2021
6386 Clouds 21 1012 78 8000 4.63 280 07:28 14.09.2021
6387 Clouds 23 1015 68 8000 1.54 280 00:56 14.09.2021
6388 Clouds 26 1015 53 8000 4.12 280 22:58 13.09.2021
6389 Clouds 26 1015 53 8000 3.09 280 22:27 13.09.2021
6390 Clouds 27 1014 50 8000 3.6 300 21:54 13.09.2021
6391 Clouds 27 1014 50 8000 4.63 290 21:19 13.09.2021
6392 Clouds 27 1014 50 8000 3.09 300 21:19 13.09.2021
6393 Clouds 28 1012 42 8000 5.66 280 19:34 13.09.2021
6394 Clouds 28 1012 42 8000 5.66 290 18:43 13.09.2021
6395 Clouds 31 1012 33 8000 4.63 300 17:18 13.09.2021
6396 Clouds 31 1012 35 8000 6.17 290 15:50 13.09.2021
6397 Clouds 31 1013 33 10000 2.06 320 14:19 13.09.2021
6398 Clouds 30 1013 32 6000 2.57 280 11:21 13.09.2021
6399 Sand 31 1012 29 3000 6.69 190 09:54 13.09.2021
6400 Clouds 29 1012 34 8000 4.63 120 07:31 13.09.2021
6401 Clouds 25 1017 44 8000 3.09 270 23:50 12.09.2021
6402 Clouds 29 1015 37 8000 1.03 0 22:26 12.09.2021
6403 Clouds 30 1015 35 6000 1.54 100 21:51 12.09.2021
6404 Clouds 30 1015 35 6000 2.57 270 20:41 12.09.2021
6405 Clouds 31 1014 33 6000 2.06 0 19:54 12.09.2021
6406 Clouds 32 1014 31 4000 3.09 320 19:28 12.09.2021
6407 Clouds 32 1014 29 3000 4.12 310 18:32 12.09.2021
6408 Clouds 36 1013 20 3000 4.12 300 16:42 12.09.2021
6409 Clouds 40 1013 17 10000 2.57 280 15:29 12.09.2021
6410 Clouds 38 1013 22 10000 1.03 0 13:55 12.09.2021
6411 Clear 34 1014 31 10000 2.57 90 11:47 12.09.2021
6412 Clear 28 1015 39 10000 2.57 110 10:18 12.09.2021
6413 Clear 23 1015 56 10000 1.54 130 08:38 12.09.2021
6414 Clear 25 1016 53 10000 1.54 280 02:56 12.09.2021
6415 Clear 27 1017 47 10000 2.57 250 00:44 12.09.2021
6416 Clouds 32 1016 37 10000 2.57 300 22:25 11.09.2021
6417 Clouds 34 1016 29 10000 6.17 270 21:37 11.09.2021
6418 Clouds 39 1015 16 10000 4.12 290 19:33 11.09.2021
6419 Clouds 40 1015 16 10000 3.09 320 17:53 11.09.2021
6420 Clouds 39 1015 19 10000 2.57 0 16:24 11.09.2021
6421 Clear 37 1017 20 10000 1.54 0 14:27 11.09.2021
6422 Clear 35 1018 26 10000 1.03 0 13:20 11.09.2021
6423 Clear 28 1018 44 10000 1.03 0 11:34 11.09.2021
6424 Clear 23 1017 49 10000 1.03 0 09:41 11.09.2021
6425 Clear 22 1017 60 10000 1.54 100 07:53 11.09.2021
6426 Clear 22 1017 60 10000 1.03 0 07:34 11.09.2021
6427 Clear 27 1019 54 10000 1.03 0 01:20 11.09.2021
6428 Clear 30 1017 42 10000 2.57 10 22:26 10.09.2021
6429 Clear 33 1017 22 10000 2.06 350 21:55 10.09.2021
6430 Clear 36 1016 20 10000 2.06 320 20:31 10.09.2021
6431 Clear 37 1016 22 10000 1.54 340 18:34 10.09.2021
6432 Clear 37 1016 20 10000 2.06 0 17:27 10.09.2021
6433 Clear 34 1017 29 10000 3.09 40 15:36 10.09.2021
6434 Clear 29 1019 42 10000 2.57 80 13:18 10.09.2021
6435 Clear 23 1018 64 10000 1.03 120 09:51 10.09.2021
6436 Clear 19 1018 72 10000 2.06 60 07:51 10.09.2021
6437 Clear 23 1019 60 10000 1.54 100 04:21 10.09.2021
6438 Clear 30 1017 35 10000 3.09 360 22:33 09.09.2021
6439 Clear 32 1017 29 10000 2.57 340 21:46 09.09.2021
6440 Clouds 33 1017 25 10000 2.06 330 20:47 09.09.2021
6441 Clouds 34 1017 24 10000 2.57 350 20:22 09.09.2021
6442 Clouds 36 1017 23 10000 1.54 0 18:35 09.09.2021
6443 Clouds 35 1018 28 10000 2.57 0 16:41 09.09.2021
6444 Clouds 34 1018 33 10000 2.06 10 16:21 09.09.2021
6445 Clear 29 1019 45 10000 2.06 0 13:22 09.09.2021
6446 Clear 28 1019 51 10000 1.03 0 11:49 09.09.2021
6447 Clear 22 1019 73 10000 2.06 250 10:31 09.09.2021
6448 Clear 21 1019 73 10000 3.09 240 08:55 09.09.2021
6449 Clear 22 1018 64 10000 2.06 250 06:39 09.09.2021
6450 Clear 25 1019 53 10000 2.06 270 02:57 09.09.2021
6451 Clouds 30 1019 42 10000 3.09 360 22:53 08.09.2021
6452 Clouds 33 1018 33 10000 3.09 340 21:36 08.09.2021
6453 Clouds 36 1017 30 10000 4.12 320 20:19 08.09.2021
6454 Clouds 37 1017 26 10000 4.63 290 19:23 08.09.2021
6455 -273 0 0 0 0 0 18:31 08.09.2021
6456 Clouds 38 1017 25 10000 4.12 280 18:30 08.09.2021
6457 Clouds 37 1017 30 8000 3.6 280 17:57 08.09.2021
6458 Clouds 36 1017 30 8000 3.6 300 16:38 08.09.2021
6459 Clouds 33 1018 40 10000 3.09 290 14:30 08.09.2021
6460 Clouds 33 1018 40 10000 3.09 290 14:30 08.09.2021
6461 Clouds 30 1019 48 10000 2.06 330 12:57 08.09.2021
6462 Clouds 29 1019 51 10000 1.03 0 12:28 08.09.2021
6463 Clouds 28 1018 54 10000 1.54 0 11:38 08.09.2021
6464 Clouds 27 1018 57 10000 1.54 80 10:43 08.09.2021
6465 Clouds 26 1018 61 10000 1.03 0 10:24 08.09.2021
6466 Clouds 23 1018 68 10000 1.54 80 09:21 08.09.2021
6467 Clouds 23 1018 73 10000 1.03 0 07:38 08.09.2021
6468 Clouds 23 1018 73 10000 2.06 240 05:35 08.09.2021
6469 Clouds 32 1017 43 10000 3.09 340 22:50 07.09.2021
6470 Clouds 34 1017 33 10000 3.6 350 22:18 07.09.2021
6471 Clouds 38 1016 27 10000 0.51 0 20:23 07.09.2021
6472 Clouds 38 1016 27 10000 4.63 250 18:45 07.09.2021
6473 Clouds 38 1016 27 10000 4.63 260 18:18 07.09.2021
6474 Clouds 38 1016 27 10000 4.63 260 18:18 07.09.2021
6475 Clouds 40 1016 20 10000 3.09 300 16:42 07.09.2021
6476 Clouds 38 1016 27 10000 2.06 320 15:40 07.09.2021
6477 Clouds 35 1017 34 10000 3.09 360 14:44 07.09.2021
6478 Clouds 32 1018 37 10000 2.57 150 12:44 07.09.2021
6479 Clouds 31 1017 42 10000 4.12 100 11:51 07.09.2021
6480 Clouds 26 1018 53 10000 2.57 300 10:41 07.09.2021
6481 Clouds 25 1016 53 10000 3.6 80 08:39 07.09.2021
6482 Clouds 24 1016 57 10000 2.57 0 07:44 07.09.2021
6483 Clear 24 1016 57 10000 0.51 0 05:41 07.09.2021
6484 Clouds 25 1018 53 10000 4.12 240 02:36 07.09.2021
6485 Clouds 27 1018 50 10000 2.57 260 00:46 07.09.2021
6486 Clouds 30 1018 39 8000 3.6 250 23:34 06.09.2021
6487 Clouds 31 1018 37 6000 4.63 260 22:53 06.09.2021
6488 Clouds 32 1017 35 6000 4.12 260 22:33 06.09.2021
6489 Clouds 36 1015 26 6000 5.14 280 20:56 06.09.2021
6490 Clouds 39 1014 22 8000 5.66 270 19:31 06.09.2021
6491 Clouds 41 1014 15 8000 6.69 270 18:50 06.09.2021
6492 Clouds 42 1014 13 10000 5.14 300 18:23 06.09.2021
6493 Clouds 42 1014 13 10000 4.63 300 17:36 06.09.2021
6494 Clouds 41 1014 15 10000 3.6 330 15:52 06.09.2021
6495 Clouds 37 1015 22 10000 1.54 360 13:48 06.09.2021
6496 Clouds 35 1015 26 10000 1.54 0 12:47 06.09.2021
6497 Clouds 29 1015 37 10000 1.54 270 10:48 06.09.2021
6498 Clouds 27 1014 39 10000 1.54 100 08:35 06.09.2021
6499 Clouds 27 1015 36 10000 2.57 70 04:48 06.09.2021
6500 Clouds 29 1017 30 10000 2.57 270 23:37 05.09.2021
6501 Clouds 29 1017 32 10000 2.57 260 22:50 05.09.2021
6502 Clouds 31 1015 29 8000 4.12 270 21:58 05.09.2021
6503 Clouds 32 1015 29 8000 5.66 270 21:31 05.09.2021
6504 Clouds 32 1015 29 8000 5.66 270 21:30 05.09.2021
6505 Clouds 35 1014 24 6000 6.69 280 20:21 05.09.2021
6506 Clouds 41 1012 16 6000 7.72 290 18:42 05.09.2021
6507 Clouds 41 1011 12 6000 7.72 280 17:31 05.09.2021
6508 Clouds 41 1011 12 6000 7.72 280 17:30 05.09.2021
6509 Clouds 43 1012 11 10000 3.09 10 15:28 05.09.2021
6510 Clouds 41 1013 12 10000 3.09 30 14:19 05.09.2021
6511 Clouds 34 1014 27 10000 4.12 70 12:29 05.09.2021
6512 Clouds 29 1014 32 10000 3.09 80 10:48 05.09.2021
6513 Clouds 27 1014 39 10000 3.6 90 10:23 05.09.2021
6514 Clouds 23 1014 49 10000 0.51 0 09:21 05.09.2021
6515 Clear 22 1014 49 10000 0.51 0 07:48 05.09.2021
6516 Clear 29 1015 39 10000 1.03 0 00:51 05.09.2021
6517 Clear 30 1015 35 10000 2.06 50 00:27 05.09.2021
6518 Clear 30 1015 35 10000 1.03 0 23:35 04.09.2021
6519 Clear 33 1014 27 10000 1.54 340 22:36 04.09.2021
6520 Clear 34 1013 26 10000 2.57 330 21:56 04.09.2021
6521 Clouds 37 1012 22 10000 4.63 280 19:41 04.09.2021
6522 Clear 37 1012 22 10000 4.63 0 18:43 04.09.2021
6523 Clear 37 1013 23 10000 2.57 0 16:22 04.09.2021
6524 Clear 33 1014 35 10000 1.03 0 13:18 04.09.2021
6525 Clear 28 1015 47 10000 1.03 0 11:19 04.09.2021
6526 Clear 20 1014 68 10000 2.06 260 08:58 04.09.2021
6527 Clear 22 1014 60 8000 0.51 0 05:50 04.09.2021
6528 Clear 27 1016 44 10000 2.57 50 00:25 04.09.2021
6529 Clear 28 1015 44 10000 3.6 30 23:31 03.09.2021
6530 Clear 31 1014 33 10000 4.63 360 21:59 03.09.2021
6531 Clear 32 1014 31 10000 3.6 350 21:34 03.09.2021
6532 Clear 33 1014 31 10000 3.6 350 20:42 03.09.2021
6533 Clear 35 1014 29 10000 2.57 350 19:49 03.09.2021
6534 Clear 36 1014 28 10000 2.57 0 18:55 03.09.2021
6535 Clear 35 1014 31 10000 1.54 0 17:42 03.09.2021
6536 Clear 34 1015 33 10000 2.06 0 16:25 03.09.2021
6537 Clear 32 1016 37 8000 2.57 0 14:47 03.09.2021
6538 Clear 27 1017 54 8000 1.54 0 11:57 03.09.2021
6539 Clear 24 1017 69 10000 1.98 47 10:26 03.09.2021
6540 Clear 21 1017 78 10000 2.06 330 08:44 03.09.2021
6541 Clear 22 1017 73 10000 1.84 39 07:39 03.09.2021
6542 Clear 25 1018 61 10000 2.25 28 00:44 03.09.2021
6543 Clouds 27 1017 54 10000 5.14 10 22:55 02.09.2021
6544 Clouds 31 1016 35 10000 3.09 320 21:25 02.09.2021
6545 Clouds 34 1016 29 10000 2.57 0 19:27 02.09.2021
6546 Clear 33 1016 33 8000 2.06 0 17:31 02.09.2021
6547 Clear 33 1016 33 8000 2.06 0 17:31 02.09.2021
6548 Clear 32 1017 35 10000 2.06 360 15:49 02.09.2021
6549 Clear 29 1018 45 8000 1.54 0 13:57 02.09.2021
6550 Clear 27 1018 54 8000 1.03 0 12:36 02.09.2021
6551 Clear 25 1018 61 8000 1.03 0 11:33 02.09.2021
6552 Clear 19 1017 82 8000 1.54 260 09:40 02.09.2021
6553 Clouds 19 1017 77 8000 2.06 240 07:47 02.09.2021
6554 Clouds 19 1017 77 8000 1.54 280 06:58 02.09.2021
6555 Clouds 22 1018 60 8000 3.6 230 02:51 02.09.2021
6556 Clouds 23 1018 60 8000 3.6 260 01:55 02.09.2021
6557 Clouds 24 1018 53 8000 3.09 270 01:19 02.09.2021
6558 Clouds 26 1018 50 8000 3.09 350 23:35 01.09.2021
6559 Clouds 28 1017 44 8000 6.17 350 22:34 01.09.2021
6560 Clouds 29 1016 42 8000 4.63 340 21:34 01.09.2021
6561 Clear 32 1015 29 8000 2.57 360 20:28 01.09.2021
6562 Clear 34 1015 27 8000 2.57 0 18:29 01.09.2021
6563 Clear 33 1015 27 8000 3.09 310 17:35 01.09.2021
6564 Clear 33 1015 27 8000 3.6 320 16:46 01.09.2021
6565 Clear 31 1016 35 8000 3.09 270 15:25 01.09.2021
6566 Clear 24 1017 64 8000 2.06 300 11:50 01.09.2021
6567 Clear 22 1017 73 8000 1.54 270 10:55 01.09.2021
6568 Clouds 18 1016 82 8000 2.06 250 08:46 01.09.2021
6569 Clear 19 1016 77 10000 2.57 280 07:50 01.09.2021
6570 Clear 24 1016 60 10000 2.06 100 00:50 01.09.2021
6571 Clouds 27 1015 47 10000 4.63 10 22:30 31.08.2021
6572 Clouds 31 1013 35 10000 3.09 360 20:57 31.08.2021
6573 Clear 33 1013 33 10000 3.09 340 19:44 31.08.2021
6574 Clear 34 1013 33 10000 2.06 0 18:23 31.08.2021
6575 Clear 33 1013 33 10000 3.09 360 17:34 31.08.2021
6576 Clear 32 1013 37 10000 2.06 0 16:52 31.08.2021
6577 Clear 31 1014 40 10000 2.57 340 16:23 31.08.2021
6578 Clear 26 1015 57 10000 1.03 0 12:56 31.08.2021
6579 Clear 23 1015 68 10000 1.54 250 11:26 31.08.2021
6580 Clear 23 1015 68 10000 1.54 260 10:49 31.08.2021
6581 Clear 20 1015 83 10000 1.54 230 09:43 31.08.2021
6582 Clear 18 1015 88 10000 2.57 240 08:36 31.08.2021
6583 Clear 20 1014 73 10000 2.06 240 05:58 31.08.2021
6584 Clear 25 1014 53 10000 2.57 20 00:23 31.08.2021
6585 Clear 26 1014 50 10000 4.63 30 23:25 30.08.2021
6586 Clear 29 1012 39 10000 5.14 360 21:43 30.08.2021
6587 Clear 33 1012 25 10000 3.09 340 20:42 30.08.2021
6588 Clear 34 1012 26 10000 2.57 330 19:58 30.08.2021
6589 Clouds 34 1012 27 10000 1.54 0 19:29 30.08.2021
6590 Clouds 34 1011 27 10000 2.57 0 18:23 30.08.2021
6591 Clear 33 1012 29 10000 2.06 40 16:49 30.08.2021
6592 Clear 32 1013 31 10000 3.09 330 15:50 30.08.2021
6593 Clear 29 1013 37 10000 2.06 0 14:37 30.08.2021
6594 Clear 28 1014 42 8000 2.06 320 13:22 30.08.2021
6595 Clear 25 1014 50 10000 1.54 0 11:48 30.08.2021
6596 Clear 20 1014 57 10000 1.66 15 08:23 30.08.2021
6597 Clouds 28 1015 42 10000 4.12 360 22:18 29.08.2021
6598 Clouds 31 1014 37 10000 3.09 10 21:25 29.08.2021
6599 Clouds 34 1014 29 10000 2.57 0 19:32 29.08.2021
6600 Clouds 35 1014 24 10000 3.6 330 18:30 29.08.2021
6601 Clear 33 1015 29 10000 2.06 0 16:25 29.08.2021
6602 Clear 33 1015 29 10000 2.06 0 16:25 29.08.2021
6603 Clear 30 1017 37 10000 2.06 0 14:34 29.08.2021
6604 Clear 30 1017 42 10000 1.03 0 13:55 29.08.2021
6605 Clear 28 1018 47 10000 1.54 0 12:58 29.08.2021
6606 Clear 26 1018 53 10000 1.03 0 12:18 29.08.2021
6607 Clear 26 1018 53 10000 1.54 220 12:18 29.08.2021
6608 Clear 25 1018 61 10000 1.03 0 11:40 29.08.2021
6609 Clear 24 1018 64 10000 1.03 0 10:48 29.08.2021
6610 Clear 22 1018 68 10000 1.54 290 10:29 29.08.2021
6611 Clear 19 1018 77 10000 2.06 260 09:32 29.08.2021
6612 Clear 23 1017 60 10000 1.03 0 04:21 29.08.2021
6613 Clear 29 1018 42 10000 5.14 40 22:57 28.08.2021
6614 Clouds 37 1016 18 8000 2.06 350 20:33 28.08.2021
6615 Clouds 38 1016 15 8000 3.09 330 19:29 28.08.2021
6616 Clouds 38 1015 16 8000 3.09 30 18:24 28.08.2021
6617 Clear 38 1016 16 8000 1.54 340 17:46 28.08.2021
6618 Clear 37 1016 23 8000 4.14 340 16:44 28.08.2021
6619 Clear 36 1017 24 8000 1.54 80 15:20 28.08.2021
6620 Clear 33 1018 31 10000 3.23 4 13:58 28.08.2021
6621 Clear 32 1019 35 10000 3.19 358 13:39 28.08.2021
6622 Clear 31 1019 40 10000 1.54 0 12:30 28.08.2021
6623 Clear 26 1019 53 10000 1.54 0 10:47 28.08.2021
6624 Clouds 23 1018 60 10000 0.51 0 09:34 28.08.2021
6625 Clear 21 1018 64 10000 1.54 250 07:34 28.08.2021
6626 Clouds 27 1019 47 8000 3.09 50 23:49 27.08.2021
6627 Clouds 32 1017 35 8000 4.63 340 21:29 27.08.2021
6628 Clouds 33 1016 35 8000 3.6 330 20:52 27.08.2021
6629 Clouds 35 1016 31 8000 2.06 290 19:33 27.08.2021
6630 Clouds 34 1016 33 8000 3.6 360 18:39 27.08.2021
6631 Clouds 34 1016 38 8000 3.09 270 17:54 27.08.2021
6632 Clouds 33 1016 40 8000 3.6 270 16:35 27.08.2021
6633 Clouds 30 1017 51 8000 2.06 280 14:44 27.08.2021
6634 Clouds 27 1017 57 8000 3.07 314 13:30 27.08.2021
6635 Clouds 24 1017 69 8000 2.57 280 11:58 27.08.2021
6636 Clouds 22 1016 78 8000 3.6 0 10:50 27.08.2021
6637 Clouds 21 1016 78 8000 3.6 0 10:23 27.08.2021
6638 Clouds 21 1016 78 8000 2.57 0 08:57 27.08.2021
6639 Clouds 21 1015 78 8000 2.57 220 08:35 27.08.2021
6640 Clouds 23 1015 68 8000 3.09 250 05:35 27.08.2021
6641 Clouds 28 1015 51 8000 3.09 220 00:41 27.08.2021
6642 Clouds 28 1015 51 6000 2.57 230 00:18 27.08.2021
6643 Clouds 33 1014 33 6000 3.6 30 22:25 26.08.2021
6644 Clouds 34 1013 31 8000 3.09 10 21:36 26.08.2021
6645 Clouds 36 1012 28 8000 2.57 0 19:30 26.08.2021
6646 Clouds 36 1013 30 8000 2.06 320 17:52 26.08.2021
6647 Clouds 35 1013 31 8000 1.54 0 17:25 26.08.2021
6648 Clouds 34 1013 36 8000 1.54 0 16:26 26.08.2021
6649 Clear 31 1014 45 8000 2.06 360 14:21 26.08.2021
6650 Clear 29 1014 48 8000 1.54 0 13:20 26.08.2021
6651 Clear 27 1015 54 8000 1.03 0 12:33 26.08.2021
6652 Clear 24 1014 64 8000 1.54 310 11:37 26.08.2021
6653 Clear 19 1013 82 8000 2.57 240 08:36 26.08.2021
6654 Clear 19 1013 82 8000 2.06 240 07:54 26.08.2021
6655 Clear 27 1013 50 8000 2.57 260 23:25 25.08.2021
6656 Clear 29 1012 45 8000 4.12 260 22:37 25.08.2021
6657 Clear 29 1012 45 8000 4.12 260 22:18 25.08.2021
6658 Clear 33 1011 31 8000 2.06 340 20:57 25.08.2021
6659 Clear 34 1011